<?xml version="1.0" encoding="UTF-8" standalone="no" ?>
<gpx xmlns="http://www.topografix.com/GPX/1/1" xmlns:xsi="http://www.w3.org/2001/XMLSchema-instance" xsi:schemaLocation="http://www.topografix.com/GPX/1/1 http://www.topografix.com/GPX/1/1/gpx.xsd" version="1.1" creator="VisuGPX - https://www.visugpx.com">
  <metadata>
    <name>lundi 2016 06</name>
    <desc><![CDATA[cumul des lundi du mois de juin 2016]]></desc>
  </metadata>
  <trk>
    <name><![CDATA[lundi 2016 06 06]]></name>
    <trkseg>
      <trkpt lat="48.85798" lon="2.34695">
        <ele>40.200000762939</ele>
        <time>2016-06-06T18:20:15.000Z</time>
      </trkpt>
      <trkpt lat="48.85798" lon="2.34693">
        <ele>40.200000762939</ele>
        <time>2016-06-06T18:20:16.000Z</time>
      </trkpt>
      <trkpt lat="48.85801" lon="2.34675">
        <ele>40.799999237061</ele>
        <time>2016-06-06T18:20:20.000Z</time>
      </trkpt>
      <trkpt lat="48.85801" lon="2.34672">
        <ele>41</ele>
        <time>2016-06-06T18:20:21.000Z</time>
      </trkpt>
      <trkpt lat="48.85811" lon="2.34648">
        <ele>44.200000762939</ele>
        <time>2016-06-06T18:20:28.000Z</time>
      </trkpt>
      <trkpt lat="48.85816" lon="2.34618">
        <ele>47.200000762939</ele>
        <time>2016-06-06T18:20:33.000Z</time>
      </trkpt>
      <trkpt lat="48.85818" lon="2.34604">
        <ele>47.799999237061</ele>
        <time>2016-06-06T18:20:35.000Z</time>
      </trkpt>
      <trkpt lat="48.85826" lon="2.34597">
        <ele>48.400001525879</ele>
        <time>2016-06-06T18:20:41.000Z</time>
      </trkpt>
      <trkpt lat="48.85827" lon="2.34596">
        <ele>48.599998474121</ele>
        <time>2016-06-06T18:20:42.000Z</time>
      </trkpt>
      <trkpt lat="48.85837" lon="2.34591">
        <ele>49.400001525879</ele>
        <time>2016-06-06T18:20:47.000Z</time>
      </trkpt>
      <trkpt lat="48.85844" lon="2.34589">
        <ele>50</ele>
        <time>2016-06-06T18:20:50.000Z</time>
      </trkpt>
      <trkpt lat="48.85848" lon="2.34587">
        <ele>50.200000762939</ele>
        <time>2016-06-06T18:20:52.000Z</time>
      </trkpt>
      <trkpt lat="48.85852" lon="2.34588">
        <ele>50.599998474121</ele>
        <time>2016-06-06T18:20:54.000Z</time>
      </trkpt>
      <trkpt lat="48.85864" lon="2.34586">
        <ele>50.799999237061</ele>
        <time>2016-06-06T18:20:59.000Z</time>
      </trkpt>
      <trkpt lat="48.8587" lon="2.34579">
        <ele>51</ele>
        <time>2016-06-06T18:21:03.000Z</time>
      </trkpt>
      <trkpt lat="48.85885" lon="2.34556">
        <ele>50.200000762939</ele>
        <time>2016-06-06T18:21:11.000Z</time>
      </trkpt>
      <trkpt lat="48.85897" lon="2.3453">
        <ele>49.400001525879</ele>
        <time>2016-06-06T18:21:18.000Z</time>
      </trkpt>
      <trkpt lat="48.85909" lon="2.34511">
        <ele>50</ele>
        <time>2016-06-06T18:21:23.000Z</time>
      </trkpt>
      <trkpt lat="48.85926" lon="2.34505">
        <ele>50.599998474121</ele>
        <time>2016-06-06T18:21:31.000Z</time>
      </trkpt>
      <trkpt lat="48.85943" lon="2.34508">
        <ele>51</ele>
        <time>2016-06-06T18:21:40.000Z</time>
      </trkpt>
      <trkpt lat="48.85954" lon="2.345">
        <ele>51.200000762939</ele>
        <time>2016-06-06T18:22:19.000Z</time>
      </trkpt>
      <trkpt lat="48.85963" lon="2.34473">
        <ele>51.799999237061</ele>
        <time>2016-06-06T18:22:25.000Z</time>
      </trkpt>
      <trkpt lat="48.85973" lon="2.34446">
        <ele>52.400001525879</ele>
        <time>2016-06-06T18:22:30.000Z</time>
      </trkpt>
      <trkpt lat="48.85984" lon="2.3442">
        <ele>53</ele>
        <time>2016-06-06T18:22:35.000Z</time>
      </trkpt>
      <trkpt lat="48.85994" lon="2.34392">
        <ele>53.599998474121</ele>
        <time>2016-06-06T18:22:40.000Z</time>
      </trkpt>
      <trkpt lat="48.86006" lon="2.34365">
        <ele>53.400001525879</ele>
        <time>2016-06-06T18:22:45.000Z</time>
      </trkpt>
      <trkpt lat="48.86018" lon="2.34337">
        <ele>53</ele>
        <time>2016-06-06T18:22:50.000Z</time>
      </trkpt>
      <trkpt lat="48.86027" lon="2.34312">
        <ele>51.799999237061</ele>
        <time>2016-06-06T18:22:54.000Z</time>
      </trkpt>
      <trkpt lat="48.86036" lon="2.34286">
        <ele>50</ele>
        <time>2016-06-06T18:22:58.000Z</time>
      </trkpt>
      <trkpt lat="48.86038" lon="2.34279">
        <ele>49.599998474121</ele>
        <time>2016-06-06T18:22:59.000Z</time>
      </trkpt>
      <trkpt lat="48.86046" lon="2.34251">
        <ele>48.400001525879</ele>
        <time>2016-06-06T18:23:03.000Z</time>
      </trkpt>
      <trkpt lat="48.86053" lon="2.34224">
        <ele>48.400001525879</ele>
        <time>2016-06-06T18:23:07.000Z</time>
      </trkpt>
      <trkpt lat="48.86061" lon="2.34196">
        <ele>48.400001525879</ele>
        <time>2016-06-06T18:23:11.000Z</time>
      </trkpt>
      <trkpt lat="48.86069" lon="2.34168">
        <ele>48</ele>
        <time>2016-06-06T18:23:15.000Z</time>
      </trkpt>
      <trkpt lat="48.86076" lon="2.3414">
        <ele>48</ele>
        <time>2016-06-06T18:23:19.000Z</time>
      </trkpt>
      <trkpt lat="48.86081" lon="2.34129">
        <ele>47.799999237061</ele>
        <time>2016-06-06T18:23:21.000Z</time>
      </trkpt>
      <trkpt lat="48.86087" lon="2.34115">
        <ele>47.200000762939</ele>
        <time>2016-06-06T18:23:24.000Z</time>
      </trkpt>
      <trkpt lat="48.86091" lon="2.34104">
        <ele>47</ele>
        <time>2016-06-06T18:23:28.000Z</time>
      </trkpt>
      <trkpt lat="48.86093" lon="2.341">
        <ele>46.799999237061</ele>
        <time>2016-06-06T18:23:30.000Z</time>
      </trkpt>
      <trkpt lat="48.86095" lon="2.3409">
        <ele>46.400001525879</ele>
        <time>2016-06-06T18:23:33.000Z</time>
      </trkpt>
      <trkpt lat="48.86106" lon="2.34065">
        <ele>46.200000762939</ele>
        <time>2016-06-06T18:23:39.000Z</time>
      </trkpt>
      <trkpt lat="48.86117" lon="2.34035">
        <ele>47</ele>
        <time>2016-06-06T18:23:44.000Z</time>
      </trkpt>
      <trkpt lat="48.86125" lon="2.34007">
        <ele>47.400001525879</ele>
        <time>2016-06-06T18:23:48.000Z</time>
      </trkpt>
      <trkpt lat="48.86133" lon="2.33978">
        <ele>48.599998474121</ele>
        <time>2016-06-06T18:23:52.000Z</time>
      </trkpt>
      <trkpt lat="48.86142" lon="2.33952">
        <ele>50</ele>
        <time>2016-06-06T18:23:56.000Z</time>
      </trkpt>
      <trkpt lat="48.8615" lon="2.33924">
        <ele>48.200000762939</ele>
        <time>2016-06-06T18:24:00.000Z</time>
      </trkpt>
      <trkpt lat="48.86159" lon="2.33897">
        <ele>47.599998474121</ele>
        <time>2016-06-06T18:24:04.000Z</time>
      </trkpt>
      <trkpt lat="48.86167" lon="2.33869">
        <ele>46.599998474121</ele>
        <time>2016-06-06T18:24:08.000Z</time>
      </trkpt>
      <trkpt lat="48.86175" lon="2.33843">
        <ele>45</ele>
        <time>2016-06-06T18:24:12.000Z</time>
      </trkpt>
      <trkpt lat="48.86183" lon="2.33815">
        <ele>43.799999237061</ele>
        <time>2016-06-06T18:24:16.000Z</time>
      </trkpt>
      <trkpt lat="48.86192" lon="2.33787">
        <ele>45.200000762939</ele>
        <time>2016-06-06T18:24:20.000Z</time>
      </trkpt>
      <trkpt lat="48.86201" lon="2.33757">
        <ele>46.799999237061</ele>
        <time>2016-06-06T18:24:24.000Z</time>
      </trkpt>
      <trkpt lat="48.86209" lon="2.33727">
        <ele>47.799999237061</ele>
        <time>2016-06-06T18:24:28.000Z</time>
      </trkpt>
      <trkpt lat="48.86219" lon="2.33697">
        <ele>49</ele>
        <time>2016-06-06T18:24:32.000Z</time>
      </trkpt>
      <trkpt lat="48.86224" lon="2.33684">
        <ele>49</ele>
        <time>2016-06-06T18:24:34.000Z</time>
      </trkpt>
      <trkpt lat="48.86235" lon="2.3366">
        <ele>48.799999237061</ele>
        <time>2016-06-06T18:24:38.000Z</time>
      </trkpt>
      <trkpt lat="48.86247" lon="2.33636">
        <ele>48</ele>
        <time>2016-06-06T18:24:42.000Z</time>
      </trkpt>
      <trkpt lat="48.86257" lon="2.33609">
        <ele>48</ele>
        <time>2016-06-06T18:24:46.000Z</time>
      </trkpt>
      <trkpt lat="48.86266" lon="2.3358">
        <ele>48.200000762939</ele>
        <time>2016-06-06T18:24:50.000Z</time>
      </trkpt>
      <trkpt lat="48.86271" lon="2.3355">
        <ele>46.599998474121</ele>
        <time>2016-06-06T18:24:54.000Z</time>
      </trkpt>
      <trkpt lat="48.86281" lon="2.33524">
        <ele>45.200000762939</ele>
        <time>2016-06-06T18:24:58.000Z</time>
      </trkpt>
      <trkpt lat="48.86291" lon="2.33501">
        <ele>44.799999237061</ele>
        <time>2016-06-06T18:25:02.000Z</time>
      </trkpt>
      <trkpt lat="48.86298" lon="2.33489">
        <ele>45</ele>
        <time>2016-06-06T18:25:04.000Z</time>
      </trkpt>
      <trkpt lat="48.86308" lon="2.33461">
        <ele>45.200000762939</ele>
        <time>2016-06-06T18:25:08.000Z</time>
      </trkpt>
      <trkpt lat="48.86315" lon="2.3343">
        <ele>46.400001525879</ele>
        <time>2016-06-06T18:25:12.000Z</time>
      </trkpt>
      <trkpt lat="48.86322" lon="2.33399">
        <ele>48</ele>
        <time>2016-06-06T18:25:16.000Z</time>
      </trkpt>
      <trkpt lat="48.86327" lon="2.33388">
        <ele>48.799999237061</ele>
        <time>2016-06-06T18:25:18.000Z</time>
      </trkpt>
      <trkpt lat="48.86346" lon="2.33391">
        <ele>49.799999237061</ele>
        <time>2016-06-06T18:25:23.000Z</time>
      </trkpt>
      <trkpt lat="48.86349" lon="2.33393">
        <ele>50</ele>
        <time>2016-06-06T18:25:24.000Z</time>
      </trkpt>
      <trkpt lat="48.86356" lon="2.33395">
        <ele>50.400001525879</ele>
        <time>2016-06-06T18:25:26.000Z</time>
      </trkpt>
      <trkpt lat="48.86366" lon="2.33398">
        <ele>50.400001525879</ele>
        <time>2016-06-06T18:25:29.000Z</time>
      </trkpt>
      <trkpt lat="48.86369" lon="2.33403">
        <ele>50.400001525879</ele>
        <time>2016-06-06T18:25:31.000Z</time>
      </trkpt>
      <trkpt lat="48.8637" lon="2.3341">
        <ele>50.799999237061</ele>
        <time>2016-06-06T18:25:34.000Z</time>
      </trkpt>
      <trkpt lat="48.86372" lon="2.33415">
        <ele>50.799999237061</ele>
        <time>2016-06-06T18:25:38.000Z</time>
      </trkpt>
      <trkpt lat="48.86391" lon="2.33417">
        <ele>50.599998474121</ele>
        <time>2016-06-06T18:25:45.000Z</time>
      </trkpt>
      <trkpt lat="48.8641" lon="2.33421">
        <ele>50.400001525879</ele>
        <time>2016-06-06T18:25:51.000Z</time>
      </trkpt>
      <trkpt lat="48.86426" lon="2.33409">
        <ele>50</ele>
        <time>2016-06-06T18:25:56.000Z</time>
      </trkpt>
      <trkpt lat="48.86446" lon="2.33395">
        <ele>49.400001525879</ele>
        <time>2016-06-06T18:26:01.000Z</time>
      </trkpt>
      <trkpt lat="48.86464" lon="2.33394">
        <ele>49.200000762939</ele>
        <time>2016-06-06T18:26:05.000Z</time>
      </trkpt>
      <trkpt lat="48.86487" lon="2.33394">
        <ele>49</ele>
        <time>2016-06-06T18:26:09.000Z</time>
      </trkpt>
      <trkpt lat="48.86507" lon="2.33395">
        <ele>48.799999237061</ele>
        <time>2016-06-06T18:26:13.000Z</time>
      </trkpt>
      <trkpt lat="48.86512" lon="2.33396">
        <ele>48.799999237061</ele>
        <time>2016-06-06T18:26:14.000Z</time>
      </trkpt>
      <trkpt lat="48.86521" lon="2.33395">
        <ele>48.799999237061</ele>
        <time>2016-06-06T18:26:16.000Z</time>
      </trkpt>
      <trkpt lat="48.86536" lon="2.3338">
        <ele>48.400001525879</ele>
        <time>2016-06-06T18:26:20.000Z</time>
      </trkpt>
      <trkpt lat="48.86545" lon="2.33369">
        <ele>48.200000762939</ele>
        <time>2016-06-06T18:26:24.000Z</time>
      </trkpt>
      <trkpt lat="48.86551" lon="2.33361">
        <ele>48</ele>
        <time>2016-06-06T18:26:27.000Z</time>
      </trkpt>
      <trkpt lat="48.86572" lon="2.33361">
        <ele>47.599998474121</ele>
        <time>2016-06-06T18:26:32.000Z</time>
      </trkpt>
      <trkpt lat="48.86579" lon="2.33359">
        <ele>47.400001525879</ele>
        <time>2016-06-06T18:26:34.000Z</time>
      </trkpt>
      <trkpt lat="48.86582" lon="2.33357">
        <ele>47.200000762939</ele>
        <time>2016-06-06T18:26:35.000Z</time>
      </trkpt>
      <trkpt lat="48.86598" lon="2.33342">
        <ele>46.400001525879</ele>
        <time>2016-06-06T18:26:43.000Z</time>
      </trkpt>
      <trkpt lat="48.86617" lon="2.33329">
        <ele>46.400001525879</ele>
        <time>2016-06-06T18:26:49.000Z</time>
      </trkpt>
      <trkpt lat="48.86634" lon="2.3332">
        <ele>46.799999237061</ele>
        <time>2016-06-06T18:26:56.000Z</time>
      </trkpt>
      <trkpt lat="48.86639" lon="2.33322">
        <ele>47</ele>
        <time>2016-06-06T18:26:58.000Z</time>
      </trkpt>
      <trkpt lat="48.86658" lon="2.3333">
        <ele>47.799999237061</ele>
        <time>2016-06-06T18:27:03.000Z</time>
      </trkpt>
      <trkpt lat="48.86679" lon="2.33338">
        <ele>48.599998474121</ele>
        <time>2016-06-06T18:27:10.000Z</time>
      </trkpt>
      <trkpt lat="48.86697" lon="2.33348">
        <ele>49.200000762939</ele>
        <time>2016-06-06T18:27:15.000Z</time>
      </trkpt>
      <trkpt lat="48.86709" lon="2.33351">
        <ele>49.400001525879</ele>
        <time>2016-06-06T18:27:18.000Z</time>
      </trkpt>
      <trkpt lat="48.86724" lon="2.3333">
        <ele>49</ele>
        <time>2016-06-06T18:27:23.000Z</time>
      </trkpt>
      <trkpt lat="48.86726" lon="2.3332">
        <ele>48.799999237061</ele>
        <time>2016-06-06T18:27:25.000Z</time>
      </trkpt>
      <trkpt lat="48.86731" lon="2.33291">
        <ele>48</ele>
        <time>2016-06-06T18:27:30.000Z</time>
      </trkpt>
      <trkpt lat="48.86736" lon="2.33264">
        <ele>47.400001525879</ele>
        <time>2016-06-06T18:27:35.000Z</time>
      </trkpt>
      <trkpt lat="48.86736" lon="2.33234">
        <ele>46.799999237061</ele>
        <time>2016-06-06T18:27:40.000Z</time>
      </trkpt>
      <trkpt lat="48.86745" lon="2.33213">
        <ele>46.599998474121</ele>
        <time>2016-06-06T18:27:48.000Z</time>
      </trkpt>
      <trkpt lat="48.86762" lon="2.33222">
        <ele>46.799999237061</ele>
        <time>2016-06-06T18:27:54.000Z</time>
      </trkpt>
      <trkpt lat="48.86779" lon="2.33204">
        <ele>47.200000762939</ele>
        <time>2016-06-06T18:28:00.000Z</time>
      </trkpt>
      <trkpt lat="48.86789" lon="2.33176">
        <ele>47.599998474121</ele>
        <time>2016-06-06T18:28:05.000Z</time>
      </trkpt>
      <trkpt lat="48.86801" lon="2.33155">
        <ele>48.200000762939</ele>
        <time>2016-06-06T18:28:09.000Z</time>
      </trkpt>
      <trkpt lat="48.86812" lon="2.33131">
        <ele>49.200000762939</ele>
        <time>2016-06-06T18:28:13.000Z</time>
      </trkpt>
      <trkpt lat="48.86821" lon="2.33107">
        <ele>49.799999237061</ele>
        <time>2016-06-06T18:28:17.000Z</time>
      </trkpt>
      <trkpt lat="48.86831" lon="2.33083">
        <ele>50.400001525879</ele>
        <time>2016-06-06T18:28:21.000Z</time>
      </trkpt>
      <trkpt lat="48.86838" lon="2.33055">
        <ele>48.799999237061</ele>
        <time>2016-06-06T18:28:27.000Z</time>
      </trkpt>
      <trkpt lat="48.86838" lon="2.33046">
        <ele>48.200000762939</ele>
        <time>2016-06-06T18:28:32.000Z</time>
      </trkpt>
      <trkpt lat="48.86845" lon="2.33048">
        <ele>48.599998474121</ele>
        <time>2016-06-06T18:28:44.000Z</time>
      </trkpt>
      <trkpt lat="48.86844" lon="2.33036">
        <ele>48</ele>
        <time>2016-06-06T18:28:47.000Z</time>
      </trkpt>
      <trkpt lat="48.86854" lon="2.33008">
        <ele>46.599998474121</ele>
        <time>2016-06-06T18:28:53.000Z</time>
      </trkpt>
      <trkpt lat="48.86865" lon="2.32981">
        <ele>46.599998474121</ele>
        <time>2016-06-06T18:28:58.000Z</time>
      </trkpt>
      <trkpt lat="48.86873" lon="2.32951">
        <ele>47</ele>
        <time>2016-06-06T18:29:03.000Z</time>
      </trkpt>
      <trkpt lat="48.86884" lon="2.32931">
        <ele>47.599998474121</ele>
        <time>2016-06-06T18:29:07.000Z</time>
      </trkpt>
      <trkpt lat="48.86898" lon="2.32913">
        <ele>48</ele>
        <time>2016-06-06T18:29:11.000Z</time>
      </trkpt>
      <trkpt lat="48.86916" lon="2.32897">
        <ele>49.599998474121</ele>
        <time>2016-06-06T18:29:15.000Z</time>
      </trkpt>
      <trkpt lat="48.86928" lon="2.32876">
        <ele>50</ele>
        <time>2016-06-06T18:29:19.000Z</time>
      </trkpt>
      <trkpt lat="48.86942" lon="2.32857">
        <ele>50</ele>
        <time>2016-06-06T18:29:23.000Z</time>
      </trkpt>
      <trkpt lat="48.86955" lon="2.32836">
        <ele>49.599998474121</ele>
        <time>2016-06-06T18:29:28.000Z</time>
      </trkpt>
      <trkpt lat="48.86966" lon="2.32815">
        <ele>49</ele>
        <time>2016-06-06T18:29:34.000Z</time>
      </trkpt>
      <trkpt lat="48.86979" lon="2.32788">
        <ele>48.599998474121</ele>
        <time>2016-06-06T18:29:40.000Z</time>
      </trkpt>
      <trkpt lat="48.86994" lon="2.32764">
        <ele>48</ele>
        <time>2016-06-06T18:29:45.000Z</time>
      </trkpt>
      <trkpt lat="48.87007" lon="2.32737">
        <ele>47.200000762939</ele>
        <time>2016-06-06T18:29:50.000Z</time>
      </trkpt>
      <trkpt lat="48.87021" lon="2.32717">
        <ele>47.400001525879</ele>
        <time>2016-06-06T18:29:54.000Z</time>
      </trkpt>
      <trkpt lat="48.87037" lon="2.32695">
        <ele>48</ele>
        <time>2016-06-06T18:29:59.000Z</time>
      </trkpt>
      <trkpt lat="48.87039" lon="2.3269">
        <ele>48</ele>
        <time>2016-06-06T18:30:00.000Z</time>
      </trkpt>
      <trkpt lat="48.87044" lon="2.32667">
        <ele>48.400001525879</ele>
        <time>2016-06-06T18:30:04.000Z</time>
      </trkpt>
      <trkpt lat="48.87053" lon="2.32639">
        <ele>48.200000762939</ele>
        <time>2016-06-06T18:30:09.000Z</time>
      </trkpt>
      <trkpt lat="48.87058" lon="2.32629">
        <ele>48</ele>
        <time>2016-06-06T18:30:11.000Z</time>
      </trkpt>
      <trkpt lat="48.87063" lon="2.326">
        <ele>47.200000762939</ele>
        <time>2016-06-06T18:30:16.000Z</time>
      </trkpt>
      <trkpt lat="48.87066" lon="2.32582">
        <ele>46.599998474121</ele>
        <time>2016-06-06T18:30:19.000Z</time>
      </trkpt>
      <trkpt lat="48.87072" lon="2.32552">
        <ele>44.200000762939</ele>
        <time>2016-06-06T18:30:24.000Z</time>
      </trkpt>
      <trkpt lat="48.87081" lon="2.32523">
        <ele>44.200000762939</ele>
        <time>2016-06-06T18:30:29.000Z</time>
      </trkpt>
      <trkpt lat="48.87084" lon="2.32514">
        <ele>44.400001525879</ele>
        <time>2016-06-06T18:30:31.000Z</time>
      </trkpt>
      <trkpt lat="48.87086" lon="2.32505">
        <ele>44.400001525879</ele>
        <time>2016-06-06T18:30:34.000Z</time>
      </trkpt>
      <trkpt lat="48.87087" lon="2.32501">
        <ele>44.400001525879</ele>
        <time>2016-06-06T18:30:37.000Z</time>
      </trkpt>
      <trkpt lat="48.87096" lon="2.32476">
        <ele>45.200000762939</ele>
        <time>2016-06-06T18:30:45.000Z</time>
      </trkpt>
      <trkpt lat="48.87106" lon="2.3245">
        <ele>46</ele>
        <time>2016-06-06T18:30:52.000Z</time>
      </trkpt>
      <trkpt lat="48.87118" lon="2.32427">
        <ele>46.799999237061</ele>
        <time>2016-06-06T18:30:57.000Z</time>
      </trkpt>
      <trkpt lat="48.87127" lon="2.32399">
        <ele>47</ele>
        <time>2016-06-06T18:31:02.000Z</time>
      </trkpt>
      <trkpt lat="48.87136" lon="2.32375">
        <ele>47.400001525879</ele>
        <time>2016-06-06T18:31:07.000Z</time>
      </trkpt>
      <trkpt lat="48.8715" lon="2.32356">
        <ele>48</ele>
        <time>2016-06-06T18:31:12.000Z</time>
      </trkpt>
      <trkpt lat="48.8717" lon="2.32361">
        <ele>49.200000762939</ele>
        <time>2016-06-06T18:31:18.000Z</time>
      </trkpt>
      <trkpt lat="48.87192" lon="2.32368">
        <ele>50.400001525879</ele>
        <time>2016-06-06T18:31:23.000Z</time>
      </trkpt>
      <trkpt lat="48.87213" lon="2.32375">
        <ele>49.599998474121</ele>
        <time>2016-06-06T18:31:28.000Z</time>
      </trkpt>
      <trkpt lat="48.8723" lon="2.32383">
        <ele>49.200000762939</ele>
        <time>2016-06-06T18:31:32.000Z</time>
      </trkpt>
      <trkpt lat="48.87251" lon="2.32392">
        <ele>48.599998474121</ele>
        <time>2016-06-06T18:31:37.000Z</time>
      </trkpt>
      <trkpt lat="48.87271" lon="2.32405">
        <ele>48</ele>
        <time>2016-06-06T18:31:42.000Z</time>
      </trkpt>
      <trkpt lat="48.87291" lon="2.32415">
        <ele>47.400001525879</ele>
        <time>2016-06-06T18:31:47.000Z</time>
      </trkpt>
      <trkpt lat="48.87311" lon="2.32423">
        <ele>46.799999237061</ele>
        <time>2016-06-06T18:31:53.000Z</time>
      </trkpt>
      <trkpt lat="48.87329" lon="2.3243">
        <ele>46.400001525879</ele>
        <time>2016-06-06T18:32:00.000Z</time>
      </trkpt>
      <trkpt lat="48.87349" lon="2.32438">
        <ele>45.799999237061</ele>
        <time>2016-06-06T18:32:06.000Z</time>
      </trkpt>
      <trkpt lat="48.87368" lon="2.32442">
        <ele>45</ele>
        <time>2016-06-06T18:32:12.000Z</time>
      </trkpt>
      <trkpt lat="48.87387" lon="2.32444">
        <ele>44</ele>
        <time>2016-06-06T18:32:20.000Z</time>
      </trkpt>
      <trkpt lat="48.87394" lon="2.32448">
        <ele>43.599998474121</ele>
        <time>2016-06-06T18:32:25.000Z</time>
      </trkpt>
      <trkpt lat="48.87401" lon="2.32453">
        <ele>43.400001525879</ele>
        <time>2016-06-06T18:32:32.000Z</time>
      </trkpt>
      <trkpt lat="48.87402" lon="2.32453">
        <ele>43.400001525879</ele>
        <time>2016-06-06T18:32:34.000Z</time>
      </trkpt>
      <trkpt lat="48.87419" lon="2.32452">
        <ele>43</ele>
        <time>2016-06-06T18:32:39.000Z</time>
      </trkpt>
      <trkpt lat="48.87437" lon="2.32453">
        <ele>42.599998474121</ele>
        <time>2016-06-06T18:32:43.000Z</time>
      </trkpt>
      <trkpt lat="48.87456" lon="2.32457">
        <ele>42.599998474121</ele>
        <time>2016-06-06T18:32:47.000Z</time>
      </trkpt>
      <trkpt lat="48.87475" lon="2.3246">
        <ele>42.799999237061</ele>
        <time>2016-06-06T18:32:52.000Z</time>
      </trkpt>
      <trkpt lat="48.87493" lon="2.32452">
        <ele>43</ele>
        <time>2016-06-06T18:32:57.000Z</time>
      </trkpt>
      <trkpt lat="48.87509" lon="2.32439">
        <ele>43</ele>
        <time>2016-06-06T18:33:03.000Z</time>
      </trkpt>
      <trkpt lat="48.87511" lon="2.32439">
        <ele>43</ele>
        <time>2016-06-06T18:33:04.000Z</time>
      </trkpt>
      <trkpt lat="48.87516" lon="2.32439">
        <ele>43</ele>
        <time>2016-06-06T18:33:08.000Z</time>
      </trkpt>
      <trkpt lat="48.87516" lon="2.3243">
        <ele>43</ele>
        <time>2016-06-06T18:33:37.000Z</time>
      </trkpt>
      <trkpt lat="48.87532" lon="2.32409">
        <ele>42.400001525879</ele>
        <time>2016-06-06T18:33:51.000Z</time>
      </trkpt>
      <trkpt lat="48.87538" lon="2.32405">
        <ele>42</ele>
        <time>2016-06-06T18:33:56.000Z</time>
      </trkpt>
      <trkpt lat="48.87535" lon="2.324">
        <ele>42.400001525879</ele>
        <time>2016-06-06T18:34:01.000Z</time>
      </trkpt>
      <trkpt lat="48.87549" lon="2.32379">
        <ele>42</ele>
        <time>2016-06-06T18:34:10.000Z</time>
      </trkpt>
      <trkpt lat="48.87558" lon="2.32359">
        <ele>42</ele>
        <time>2016-06-06T18:34:14.000Z</time>
      </trkpt>
      <trkpt lat="48.87566" lon="2.32333">
        <ele>43.799999237061</ele>
        <time>2016-06-06T18:34:19.000Z</time>
      </trkpt>
      <trkpt lat="48.87575" lon="2.32309">
        <ele>44.200000762939</ele>
        <time>2016-06-06T18:34:24.000Z</time>
      </trkpt>
      <trkpt lat="48.87588" lon="2.32285">
        <ele>45.400001525879</ele>
        <time>2016-06-06T18:34:33.000Z</time>
      </trkpt>
      <trkpt lat="48.87598" lon="2.32258">
        <ele>47.200000762939</ele>
        <time>2016-06-06T18:34:39.000Z</time>
      </trkpt>
      <trkpt lat="48.87609" lon="2.32234">
        <ele>48</ele>
        <time>2016-06-06T18:34:44.000Z</time>
      </trkpt>
      <trkpt lat="48.87621" lon="2.32209">
        <ele>47.799999237061</ele>
        <time>2016-06-06T18:34:50.000Z</time>
      </trkpt>
      <trkpt lat="48.87635" lon="2.32186">
        <ele>48.200000762939</ele>
        <time>2016-06-06T18:34:56.000Z</time>
      </trkpt>
      <trkpt lat="48.87648" lon="2.32166">
        <ele>50</ele>
        <time>2016-06-06T18:35:02.000Z</time>
      </trkpt>
      <trkpt lat="48.87669" lon="2.32161">
        <ele>51.599998474121</ele>
        <time>2016-06-06T18:35:08.000Z</time>
      </trkpt>
      <trkpt lat="48.87688" lon="2.32176">
        <ele>52.400001525879</ele>
        <time>2016-06-06T18:35:18.000Z</time>
      </trkpt>
      <trkpt lat="48.87695" lon="2.32166">
        <ele>53.400001525879</ele>
        <time>2016-06-06T18:35:29.000Z</time>
      </trkpt>
      <trkpt lat="48.87709" lon="2.32146">
        <ele>54.200000762939</ele>
        <time>2016-06-06T18:35:34.000Z</time>
      </trkpt>
      <trkpt lat="48.87723" lon="2.32128">
        <ele>54.799999237061</ele>
        <time>2016-06-06T18:35:39.000Z</time>
      </trkpt>
      <trkpt lat="48.87737" lon="2.32104">
        <ele>55.599998474121</ele>
        <time>2016-06-06T18:35:46.000Z</time>
      </trkpt>
      <trkpt lat="48.8775" lon="2.32083">
        <ele>56.400001525879</ele>
        <time>2016-06-06T18:35:51.000Z</time>
      </trkpt>
      <trkpt lat="48.87764" lon="2.3206">
        <ele>57.200000762939</ele>
        <time>2016-06-06T18:35:56.000Z</time>
      </trkpt>
      <trkpt lat="48.87777" lon="2.32041">
        <ele>57.200000762939</ele>
        <time>2016-06-06T18:36:00.000Z</time>
      </trkpt>
      <trkpt lat="48.87791" lon="2.32019">
        <ele>56.400001525879</ele>
        <time>2016-06-06T18:36:04.000Z</time>
      </trkpt>
      <trkpt lat="48.87804" lon="2.31999">
        <ele>56.200000762939</ele>
        <time>2016-06-06T18:36:08.000Z</time>
      </trkpt>
      <trkpt lat="48.87818" lon="2.31988">
        <ele>56.799999237061</ele>
        <time>2016-06-06T18:36:11.000Z</time>
      </trkpt>
      <trkpt lat="48.87834" lon="2.31969">
        <ele>57.599998474121</ele>
        <time>2016-06-06T18:36:15.000Z</time>
      </trkpt>
      <trkpt lat="48.87846" lon="2.31948">
        <ele>58.200000762939</ele>
        <time>2016-06-06T18:36:19.000Z</time>
      </trkpt>
      <trkpt lat="48.8786" lon="2.31923">
        <ele>59.200000762939</ele>
        <time>2016-06-06T18:36:24.000Z</time>
      </trkpt>
      <trkpt lat="48.87874" lon="2.31903">
        <ele>60.200000762939</ele>
        <time>2016-06-06T18:36:29.000Z</time>
      </trkpt>
      <trkpt lat="48.87888" lon="2.31883">
        <ele>61.200000762939</ele>
        <time>2016-06-06T18:36:34.000Z</time>
      </trkpt>
      <trkpt lat="48.87905" lon="2.31865">
        <ele>62.200000762939</ele>
        <time>2016-06-06T18:36:39.000Z</time>
      </trkpt>
      <trkpt lat="48.87914" lon="2.31855">
        <ele>62.400001525879</ele>
        <time>2016-06-06T18:36:42.000Z</time>
      </trkpt>
      <trkpt lat="48.87925" lon="2.31848">
        <ele>62.599998474121</ele>
        <time>2016-06-06T18:36:45.000Z</time>
      </trkpt>
      <trkpt lat="48.87934" lon="2.31832">
        <ele>62.799999237061</ele>
        <time>2016-06-06T18:36:50.000Z</time>
      </trkpt>
      <trkpt lat="48.87937" lon="2.31825">
        <ele>62.799999237061</ele>
        <time>2016-06-06T18:36:54.000Z</time>
      </trkpt>
      <trkpt lat="48.87941" lon="2.31821">
        <ele>62.799999237061</ele>
        <time>2016-06-06T18:36:59.000Z</time>
      </trkpt>
      <trkpt lat="48.87955" lon="2.31807">
        <ele>62.799999237061</ele>
        <time>2016-06-06T18:37:08.000Z</time>
      </trkpt>
      <trkpt lat="48.87972" lon="2.31794">
        <ele>63</ele>
        <time>2016-06-06T18:37:15.000Z</time>
      </trkpt>
      <trkpt lat="48.87988" lon="2.31773">
        <ele>63</ele>
        <time>2016-06-06T18:37:22.000Z</time>
      </trkpt>
      <trkpt lat="48.88004" lon="2.31759">
        <ele>63.400001525879</ele>
        <time>2016-06-06T18:37:28.000Z</time>
      </trkpt>
      <trkpt lat="48.8802" lon="2.31742">
        <ele>63.599998474121</ele>
        <time>2016-06-06T18:37:35.000Z</time>
      </trkpt>
      <trkpt lat="48.8804" lon="2.31734">
        <ele>63.799999237061</ele>
        <time>2016-06-06T18:37:41.000Z</time>
      </trkpt>
      <trkpt lat="48.88058" lon="2.3172">
        <ele>63.400001525879</ele>
        <time>2016-06-06T18:37:49.000Z</time>
      </trkpt>
      <trkpt lat="48.88074" lon="2.31705">
        <ele>63.400001525879</ele>
        <time>2016-06-06T18:37:56.000Z</time>
      </trkpt>
      <trkpt lat="48.88092" lon="2.31691">
        <ele>63.799999237061</ele>
        <time>2016-06-06T18:38:03.000Z</time>
      </trkpt>
      <trkpt lat="48.88092" lon="2.31689">
        <ele>63.799999237061</ele>
        <time>2016-06-06T18:38:04.000Z</time>
      </trkpt>
      <trkpt lat="48.88104" lon="2.31675">
        <ele>64</ele>
        <time>2016-06-06T18:38:13.000Z</time>
      </trkpt>
      <trkpt lat="48.88104" lon="2.31674">
        <ele>64</ele>
        <time>2016-06-06T18:38:14.000Z</time>
      </trkpt>
      <trkpt lat="48.88122" lon="2.31679">
        <ele>63.599998474121</ele>
        <time>2016-06-06T18:38:27.000Z</time>
      </trkpt>
      <trkpt lat="48.88136" lon="2.31659">
        <ele>62.799999237061</ele>
        <time>2016-06-06T18:38:32.000Z</time>
      </trkpt>
      <trkpt lat="48.88144" lon="2.31634">
        <ele>62</ele>
        <time>2016-06-06T18:38:36.000Z</time>
      </trkpt>
      <trkpt lat="48.88148" lon="2.31616">
        <ele>61.599998474121</ele>
        <time>2016-06-06T18:38:39.000Z</time>
      </trkpt>
      <trkpt lat="48.88155" lon="2.31587">
        <ele>62.400001525879</ele>
        <time>2016-06-06T18:38:44.000Z</time>
      </trkpt>
      <trkpt lat="48.8816" lon="2.31558">
        <ele>63.400001525879</ele>
        <time>2016-06-06T18:38:48.000Z</time>
      </trkpt>
      <trkpt lat="48.88166" lon="2.3153">
        <ele>63.599998474121</ele>
        <time>2016-06-06T18:38:52.000Z</time>
      </trkpt>
      <trkpt lat="48.88173" lon="2.31504">
        <ele>63.400001525879</ele>
        <time>2016-06-06T18:38:56.000Z</time>
      </trkpt>
      <trkpt lat="48.88183" lon="2.31477">
        <ele>63.400001525879</ele>
        <time>2016-06-06T18:39:01.000Z</time>
      </trkpt>
      <trkpt lat="48.88197" lon="2.31449">
        <ele>63.799999237061</ele>
        <time>2016-06-06T18:39:06.000Z</time>
      </trkpt>
      <trkpt lat="48.88213" lon="2.31422">
        <ele>63.799999237061</ele>
        <time>2016-06-06T18:39:11.000Z</time>
      </trkpt>
      <trkpt lat="48.88227" lon="2.314">
        <ele>62.799999237061</ele>
        <time>2016-06-06T18:39:15.000Z</time>
      </trkpt>
      <trkpt lat="48.88241" lon="2.31379">
        <ele>61.799999237061</ele>
        <time>2016-06-06T18:39:19.000Z</time>
      </trkpt>
      <trkpt lat="48.88255" lon="2.31357">
        <ele>61</ele>
        <time>2016-06-06T18:39:23.000Z</time>
      </trkpt>
      <trkpt lat="48.88269" lon="2.31334">
        <ele>60.200000762939</ele>
        <time>2016-06-06T18:39:27.000Z</time>
      </trkpt>
      <trkpt lat="48.88276" lon="2.31323">
        <ele>59.799999237061</ele>
        <time>2016-06-06T18:39:29.000Z</time>
      </trkpt>
      <trkpt lat="48.88287" lon="2.31297">
        <ele>59.400001525879</ele>
        <time>2016-06-06T18:39:33.000Z</time>
      </trkpt>
      <trkpt lat="48.88297" lon="2.31275">
        <ele>59</ele>
        <time>2016-06-06T18:39:37.000Z</time>
      </trkpt>
      <trkpt lat="48.883" lon="2.31272">
        <ele>59</ele>
        <time>2016-06-06T18:39:38.000Z</time>
      </trkpt>
      <trkpt lat="48.8832" lon="2.31264">
        <ele>59.400001525879</ele>
        <time>2016-06-06T18:39:43.000Z</time>
      </trkpt>
      <trkpt lat="48.88332" lon="2.31257">
        <ele>59.599998474121</ele>
        <time>2016-06-06T18:39:46.000Z</time>
      </trkpt>
      <trkpt lat="48.8834" lon="2.3125">
        <ele>59.799999237061</ele>
        <time>2016-06-06T18:39:48.000Z</time>
      </trkpt>
      <trkpt lat="48.88355" lon="2.31228">
        <ele>59.599998474121</ele>
        <time>2016-06-06T18:39:53.000Z</time>
      </trkpt>
      <trkpt lat="48.88369" lon="2.31212">
        <ele>58.799999237061</ele>
        <time>2016-06-06T18:39:57.000Z</time>
      </trkpt>
      <trkpt lat="48.88379" lon="2.31197">
        <ele>58.200000762939</ele>
        <time>2016-06-06T18:40:00.000Z</time>
      </trkpt>
      <trkpt lat="48.88395" lon="2.31179">
        <ele>57.400001525879</ele>
        <time>2016-06-06T18:40:04.000Z</time>
      </trkpt>
      <trkpt lat="48.8841" lon="2.3116">
        <ele>56.599998474121</ele>
        <time>2016-06-06T18:40:08.000Z</time>
      </trkpt>
      <trkpt lat="48.88421" lon="2.31142">
        <ele>56</ele>
        <time>2016-06-06T18:40:11.000Z</time>
      </trkpt>
      <trkpt lat="48.88439" lon="2.31129">
        <ele>55.200000762939</ele>
        <time>2016-06-06T18:40:14.000Z</time>
      </trkpt>
      <trkpt lat="48.88455" lon="2.3111">
        <ele>54.799999237061</ele>
        <time>2016-06-06T18:40:18.000Z</time>
      </trkpt>
      <trkpt lat="48.8847" lon="2.31092">
        <ele>54.599998474121</ele>
        <time>2016-06-06T18:40:22.000Z</time>
      </trkpt>
      <trkpt lat="48.88485" lon="2.31071">
        <ele>54.599998474121</ele>
        <time>2016-06-06T18:40:27.000Z</time>
      </trkpt>
      <trkpt lat="48.88489" lon="2.3107">
        <ele>54.599998474121</ele>
        <time>2016-06-06T18:40:28.000Z</time>
      </trkpt>
      <trkpt lat="48.88507" lon="2.31092">
        <ele>55</ele>
        <time>2016-06-06T18:40:35.000Z</time>
      </trkpt>
      <trkpt lat="48.88514" lon="2.31101">
        <ele>55.400001525879</ele>
        <time>2016-06-06T18:40:37.000Z</time>
      </trkpt>
      <trkpt lat="48.88525" lon="2.31114">
        <ele>55.799999237061</ele>
        <time>2016-06-06T18:40:40.000Z</time>
      </trkpt>
      <trkpt lat="48.88532" lon="2.31127">
        <ele>56</ele>
        <time>2016-06-06T18:40:43.000Z</time>
      </trkpt>
      <trkpt lat="48.88545" lon="2.31146">
        <ele>56</ele>
        <time>2016-06-06T18:40:46.000Z</time>
      </trkpt>
      <trkpt lat="48.88563" lon="2.31168">
        <ele>56</ele>
        <time>2016-06-06T18:40:51.000Z</time>
      </trkpt>
      <trkpt lat="48.88579" lon="2.3119">
        <ele>56</ele>
        <time>2016-06-06T18:40:55.000Z</time>
      </trkpt>
      <trkpt lat="48.88588" lon="2.31199">
        <ele>55.799999237061</ele>
        <time>2016-06-06T18:40:57.000Z</time>
      </trkpt>
      <trkpt lat="48.88604" lon="2.31221">
        <ele>55.799999237061</ele>
        <time>2016-06-06T18:41:01.000Z</time>
      </trkpt>
      <trkpt lat="48.88618" lon="2.31242">
        <ele>55.200000762939</ele>
        <time>2016-06-06T18:41:05.000Z</time>
      </trkpt>
      <trkpt lat="48.88631" lon="2.31267">
        <ele>55</ele>
        <time>2016-06-06T18:41:10.000Z</time>
      </trkpt>
      <trkpt lat="48.88641" lon="2.31278">
        <ele>54.599998474121</ele>
        <time>2016-06-06T18:41:13.000Z</time>
      </trkpt>
      <trkpt lat="48.88646" lon="2.31296">
        <ele>54.400001525879</ele>
        <time>2016-06-06T18:41:17.000Z</time>
      </trkpt>
      <trkpt lat="48.88655" lon="2.31311">
        <ele>54</ele>
        <time>2016-06-06T18:41:21.000Z</time>
      </trkpt>
      <trkpt lat="48.88666" lon="2.31324">
        <ele>53.599998474121</ele>
        <time>2016-06-06T18:41:24.000Z</time>
      </trkpt>
      <trkpt lat="48.8868" lon="2.31349">
        <ele>53.599998474121</ele>
        <time>2016-06-06T18:41:29.000Z</time>
      </trkpt>
      <trkpt lat="48.88692" lon="2.31367">
        <ele>53.599998474121</ele>
        <time>2016-06-06T18:41:33.000Z</time>
      </trkpt>
      <trkpt lat="48.88709" lon="2.31381">
        <ele>52.400001525879</ele>
        <time>2016-06-06T18:41:38.000Z</time>
      </trkpt>
      <trkpt lat="48.88716" lon="2.31388">
        <ele>51.799999237061</ele>
        <time>2016-06-06T18:41:46.000Z</time>
      </trkpt>
      <trkpt lat="48.88719" lon="2.31393">
        <ele>51.799999237061</ele>
        <time>2016-06-06T18:41:48.000Z</time>
      </trkpt>
      <trkpt lat="48.8873" lon="2.31416">
        <ele>51.200000762939</ele>
        <time>2016-06-06T18:41:55.000Z</time>
      </trkpt>
      <trkpt lat="48.88742" lon="2.31437">
        <ele>49.599998474121</ele>
        <time>2016-06-06T18:42:00.000Z</time>
      </trkpt>
      <trkpt lat="48.88757" lon="2.31458">
        <ele>48</ele>
        <time>2016-06-06T18:42:05.000Z</time>
      </trkpt>
      <trkpt lat="48.88774" lon="2.31479">
        <ele>46.200000762939</ele>
        <time>2016-06-06T18:42:10.000Z</time>
      </trkpt>
      <trkpt lat="48.8879" lon="2.31502">
        <ele>45.400001525879</ele>
        <time>2016-06-06T18:42:15.000Z</time>
      </trkpt>
      <trkpt lat="48.88809" lon="2.31518">
        <ele>45.599998474121</ele>
        <time>2016-06-06T18:42:20.000Z</time>
      </trkpt>
      <trkpt lat="48.88826" lon="2.31537">
        <ele>45.799999237061</ele>
        <time>2016-06-06T18:42:25.000Z</time>
      </trkpt>
      <trkpt lat="48.88842" lon="2.31556">
        <ele>46.200000762939</ele>
        <time>2016-06-06T18:42:30.000Z</time>
      </trkpt>
      <trkpt lat="48.88845" lon="2.31566">
        <ele>46.599998474121</ele>
        <time>2016-06-06T18:42:32.000Z</time>
      </trkpt>
      <trkpt lat="48.88839" lon="2.31587">
        <ele>47</ele>
        <time>2016-06-06T18:42:37.000Z</time>
      </trkpt>
      <trkpt lat="48.88825" lon="2.31609">
        <ele>48</ele>
        <time>2016-06-06T18:42:42.000Z</time>
      </trkpt>
      <trkpt lat="48.88812" lon="2.31632">
        <ele>49.200000762939</ele>
        <time>2016-06-06T18:42:47.000Z</time>
      </trkpt>
      <trkpt lat="48.88804" lon="2.31654">
        <ele>50.599998474121</ele>
        <time>2016-06-06T18:42:52.000Z</time>
      </trkpt>
      <trkpt lat="48.88809" lon="2.31683">
        <ele>52</ele>
        <time>2016-06-06T18:42:59.000Z</time>
      </trkpt>
      <trkpt lat="48.88827" lon="2.31704">
        <ele>52.599998474121</ele>
        <time>2016-06-06T18:43:04.000Z</time>
      </trkpt>
      <trkpt lat="48.8884" lon="2.31726">
        <ele>53.200000762939</ele>
        <time>2016-06-06T18:43:08.000Z</time>
      </trkpt>
      <trkpt lat="48.88852" lon="2.31747">
        <ele>54</ele>
        <time>2016-06-06T18:43:13.000Z</time>
      </trkpt>
      <trkpt lat="48.88865" lon="2.31772">
        <ele>54</ele>
        <time>2016-06-06T18:43:19.000Z</time>
      </trkpt>
      <trkpt lat="48.88878" lon="2.31794">
        <ele>53.799999237061</ele>
        <time>2016-06-06T18:43:24.000Z</time>
      </trkpt>
      <trkpt lat="48.8889" lon="2.31815">
        <ele>53.599998474121</ele>
        <time>2016-06-06T18:43:30.000Z</time>
      </trkpt>
      <trkpt lat="48.88905" lon="2.31835">
        <ele>53.200000762939</ele>
        <time>2016-06-06T18:43:34.000Z</time>
      </trkpt>
      <trkpt lat="48.88918" lon="2.31856">
        <ele>52.799999237061</ele>
        <time>2016-06-06T18:43:39.000Z</time>
      </trkpt>
      <trkpt lat="48.88914" lon="2.31881">
        <ele>53</ele>
        <time>2016-06-06T18:43:44.000Z</time>
      </trkpt>
      <trkpt lat="48.88907" lon="2.31913">
        <ele>53.599998474121</ele>
        <time>2016-06-06T18:43:50.000Z</time>
      </trkpt>
      <trkpt lat="48.88899" lon="2.31941">
        <ele>54.599998474121</ele>
        <time>2016-06-06T18:43:55.000Z</time>
      </trkpt>
      <trkpt lat="48.88885" lon="2.31965">
        <ele>55.599998474121</ele>
        <time>2016-06-06T18:44:00.000Z</time>
      </trkpt>
      <trkpt lat="48.88872" lon="2.31991">
        <ele>56.400001525879</ele>
        <time>2016-06-06T18:44:05.000Z</time>
      </trkpt>
      <trkpt lat="48.88864" lon="2.32012">
        <ele>57</ele>
        <time>2016-06-06T18:44:10.000Z</time>
      </trkpt>
      <trkpt lat="48.88868" lon="2.32032">
        <ele>57</ele>
        <time>2016-06-06T18:44:15.000Z</time>
      </trkpt>
      <trkpt lat="48.88884" lon="2.32051">
        <ele>56.599998474121</ele>
        <time>2016-06-06T18:44:21.000Z</time>
      </trkpt>
      <trkpt lat="48.889" lon="2.32068">
        <ele>56.200000762939</ele>
        <time>2016-06-06T18:44:27.000Z</time>
      </trkpt>
      <trkpt lat="48.88912" lon="2.32092">
        <ele>56.200000762939</ele>
        <time>2016-06-06T18:44:35.000Z</time>
      </trkpt>
      <trkpt lat="48.88925" lon="2.32112">
        <ele>55.799999237061</ele>
        <time>2016-06-06T18:44:42.000Z</time>
      </trkpt>
      <trkpt lat="48.88942" lon="2.3213">
        <ele>55.599998474121</ele>
        <time>2016-06-06T18:44:48.000Z</time>
      </trkpt>
      <trkpt lat="48.88952" lon="2.32144">
        <ele>55.799999237061</ele>
        <time>2016-06-06T18:44:54.000Z</time>
      </trkpt>
      <trkpt lat="48.88968" lon="2.32167">
        <ele>56</ele>
        <time>2016-06-06T18:45:08.000Z</time>
      </trkpt>
      <trkpt lat="48.8897" lon="2.32171">
        <ele>56</ele>
        <time>2016-06-06T18:45:09.000Z</time>
      </trkpt>
      <trkpt lat="48.88982" lon="2.32192">
        <ele>56</ele>
        <time>2016-06-06T18:45:16.000Z</time>
      </trkpt>
      <trkpt lat="48.88997" lon="2.32211">
        <ele>56</ele>
        <time>2016-06-06T18:45:22.000Z</time>
      </trkpt>
      <trkpt lat="48.89015" lon="2.32235">
        <ele>56</ele>
        <time>2016-06-06T18:45:27.000Z</time>
      </trkpt>
      <trkpt lat="48.89034" lon="2.32252">
        <ele>55.599998474121</ele>
        <time>2016-06-06T18:45:31.000Z</time>
      </trkpt>
      <trkpt lat="48.89048" lon="2.32271">
        <ele>55.400001525879</ele>
        <time>2016-06-06T18:45:37.000Z</time>
      </trkpt>
      <trkpt lat="48.89065" lon="2.32286">
        <ele>55</ele>
        <time>2016-06-06T18:45:43.000Z</time>
      </trkpt>
      <trkpt lat="48.89082" lon="2.32304">
        <ele>54.400001525879</ele>
        <time>2016-06-06T18:45:48.000Z</time>
      </trkpt>
      <trkpt lat="48.89097" lon="2.32321">
        <ele>54.200000762939</ele>
        <time>2016-06-06T18:45:53.000Z</time>
      </trkpt>
      <trkpt lat="48.89122" lon="2.32334">
        <ele>53.599998474121</ele>
        <time>2016-06-06T18:45:57.000Z</time>
      </trkpt>
      <trkpt lat="48.8913" lon="2.32356">
        <ele>53.799999237061</ele>
        <time>2016-06-06T18:46:00.000Z</time>
      </trkpt>
      <trkpt lat="48.89132" lon="2.32386">
        <ele>55.200000762939</ele>
        <time>2016-06-06T18:46:04.000Z</time>
      </trkpt>
      <trkpt lat="48.89128" lon="2.3242">
        <ele>56.599998474121</ele>
        <time>2016-06-06T18:46:09.000Z</time>
      </trkpt>
      <trkpt lat="48.89119" lon="2.32445">
        <ele>57</ele>
        <time>2016-06-06T18:46:13.000Z</time>
      </trkpt>
      <trkpt lat="48.89109" lon="2.32474">
        <ele>57.799999237061</ele>
        <time>2016-06-06T18:46:18.000Z</time>
      </trkpt>
      <trkpt lat="48.89096" lon="2.32494">
        <ele>58.200000762939</ele>
        <time>2016-06-06T18:46:22.000Z</time>
      </trkpt>
      <trkpt lat="48.89098" lon="2.32501">
        <ele>58.200000762939</ele>
        <time>2016-06-06T18:46:23.000Z</time>
      </trkpt>
      <trkpt lat="48.89088" lon="2.32527">
        <ele>58.400001525879</ele>
        <time>2016-06-06T18:46:28.000Z</time>
      </trkpt>
      <trkpt lat="48.89079" lon="2.3254">
        <ele>58.599998474121</ele>
        <time>2016-06-06T18:46:31.000Z</time>
      </trkpt>
      <trkpt lat="48.89071" lon="2.32562">
        <ele>58.599998474121</ele>
        <time>2016-06-06T18:46:35.000Z</time>
      </trkpt>
      <trkpt lat="48.89073" lon="2.32575">
        <ele>58.400001525879</ele>
        <time>2016-06-06T18:46:37.000Z</time>
      </trkpt>
      <trkpt lat="48.89068" lon="2.32602">
        <ele>58.400001525879</ele>
        <time>2016-06-06T18:46:42.000Z</time>
      </trkpt>
      <trkpt lat="48.89062" lon="2.32634">
        <ele>59</ele>
        <time>2016-06-06T18:46:48.000Z</time>
      </trkpt>
      <trkpt lat="48.89061" lon="2.32641">
        <ele>59.400001525879</ele>
        <time>2016-06-06T18:46:50.000Z</time>
      </trkpt>
      <trkpt lat="48.89064" lon="2.32657">
        <ele>59.799999237061</ele>
        <time>2016-06-06T18:46:55.000Z</time>
      </trkpt>
      <trkpt lat="48.89064" lon="2.32658">
        <ele>59.799999237061</ele>
        <time>2016-06-06T18:46:56.000Z</time>
      </trkpt>
      <trkpt lat="48.89063" lon="2.32666">
        <ele>60.200000762939</ele>
        <time>2016-06-06T18:47:06.000Z</time>
      </trkpt>
      <trkpt lat="48.89081" lon="2.32672">
        <ele>59.400001525879</ele>
        <time>2016-06-06T18:47:13.000Z</time>
      </trkpt>
      <trkpt lat="48.891" lon="2.32674">
        <ele>58.599998474121</ele>
        <time>2016-06-06T18:47:20.000Z</time>
      </trkpt>
      <trkpt lat="48.89116" lon="2.32686">
        <ele>58</ele>
        <time>2016-06-06T18:47:27.000Z</time>
      </trkpt>
      <trkpt lat="48.89114" lon="2.32701">
        <ele>58.599998474121</ele>
        <time>2016-06-06T18:47:31.000Z</time>
      </trkpt>
      <trkpt lat="48.89111" lon="2.32729">
        <ele>59.400001525879</ele>
        <time>2016-06-06T18:47:37.000Z</time>
      </trkpt>
      <trkpt lat="48.89108" lon="2.32758">
        <ele>60.400001525879</ele>
        <time>2016-06-06T18:47:42.000Z</time>
      </trkpt>
      <trkpt lat="48.89104" lon="2.32787">
        <ele>62</ele>
        <time>2016-06-06T18:47:47.000Z</time>
      </trkpt>
      <trkpt lat="48.89097" lon="2.32815">
        <ele>63.400001525879</ele>
        <time>2016-06-06T18:47:52.000Z</time>
      </trkpt>
      <trkpt lat="48.89097" lon="2.32844">
        <ele>64.400001525879</ele>
        <time>2016-06-06T18:47:57.000Z</time>
      </trkpt>
      <trkpt lat="48.89093" lon="2.32875">
        <ele>65.400001525879</ele>
        <time>2016-06-06T18:48:02.000Z</time>
      </trkpt>
      <trkpt lat="48.89096" lon="2.32909">
        <ele>66.400001525879</ele>
        <time>2016-06-06T18:48:08.000Z</time>
      </trkpt>
      <trkpt lat="48.89097" lon="2.32937">
        <ele>66.199996948242</ele>
        <time>2016-06-06T18:48:13.000Z</time>
      </trkpt>
      <trkpt lat="48.89091" lon="2.3296">
        <ele>65.800003051758</ele>
        <time>2016-06-06T18:48:18.000Z</time>
      </trkpt>
      <trkpt lat="48.89085" lon="2.32988">
        <ele>65.199996948242</ele>
        <time>2016-06-06T18:48:26.000Z</time>
      </trkpt>
      <trkpt lat="48.8908" lon="2.33018">
        <ele>65</ele>
        <time>2016-06-06T18:48:32.000Z</time>
      </trkpt>
      <trkpt lat="48.8908" lon="2.33048">
        <ele>65</ele>
        <time>2016-06-06T18:48:37.000Z</time>
      </trkpt>
      <trkpt lat="48.89074" lon="2.33076">
        <ele>65.599998474121</ele>
        <time>2016-06-06T18:48:43.000Z</time>
      </trkpt>
      <trkpt lat="48.89082" lon="2.33091">
        <ele>66</ele>
        <time>2016-06-06T18:48:49.000Z</time>
      </trkpt>
      <trkpt lat="48.8908" lon="2.33106">
        <ele>66.599998474121</ele>
        <time>2016-06-06T18:49:02.000Z</time>
      </trkpt>
      <trkpt lat="48.89086" lon="2.33135">
        <ele>67.800003051758</ele>
        <time>2016-06-06T18:49:09.000Z</time>
      </trkpt>
      <trkpt lat="48.89088" lon="2.33139">
        <ele>67.800003051758</ele>
        <time>2016-06-06T18:49:10.000Z</time>
      </trkpt>
      <trkpt lat="48.89087" lon="2.3317">
        <ele>69</ele>
        <time>2016-06-06T18:49:16.000Z</time>
      </trkpt>
      <trkpt lat="48.89086" lon="2.33199">
        <ele>69.599998474121</ele>
        <time>2016-06-06T18:49:21.000Z</time>
      </trkpt>
      <trkpt lat="48.89083" lon="2.33228">
        <ele>70.400001525879</ele>
        <time>2016-06-06T18:49:26.000Z</time>
      </trkpt>
      <trkpt lat="48.8908" lon="2.3326">
        <ele>72.599998474121</ele>
        <time>2016-06-06T18:49:32.000Z</time>
      </trkpt>
      <trkpt lat="48.89079" lon="2.33293">
        <ele>73.400001525879</ele>
        <time>2016-06-06T18:49:37.000Z</time>
      </trkpt>
      <trkpt lat="48.89073" lon="2.33321">
        <ele>75.199996948242</ele>
        <time>2016-06-06T18:49:41.000Z</time>
      </trkpt>
      <trkpt lat="48.89065" lon="2.33348">
        <ele>77.400001525879</ele>
        <time>2016-06-06T18:49:45.000Z</time>
      </trkpt>
      <trkpt lat="48.89057" lon="2.33371">
        <ele>79</ele>
        <time>2016-06-06T18:49:48.000Z</time>
      </trkpt>
      <trkpt lat="48.89055" lon="2.33397">
        <ele>80</ele>
        <time>2016-06-06T18:49:51.000Z</time>
      </trkpt>
      <trkpt lat="48.89055" lon="2.33426">
        <ele>80.800003051758</ele>
        <time>2016-06-06T18:49:57.000Z</time>
      </trkpt>
      <trkpt lat="48.89055" lon="2.33432">
        <ele>81</ele>
        <time>2016-06-06T18:50:00.000Z</time>
      </trkpt>
      <trkpt lat="48.89047" lon="2.33454">
        <ele>83.400001525879</ele>
        <time>2016-06-06T18:50:19.000Z</time>
      </trkpt>
      <trkpt lat="48.89039" lon="2.33481">
        <ele>87.400001525879</ele>
        <time>2016-06-06T18:50:24.000Z</time>
      </trkpt>
      <trkpt lat="48.89032" lon="2.33506">
        <ele>90.400001525879</ele>
        <time>2016-06-06T18:50:29.000Z</time>
      </trkpt>
      <trkpt lat="48.89025" lon="2.33532">
        <ele>91.199996948242</ele>
        <time>2016-06-06T18:50:33.000Z</time>
      </trkpt>
      <trkpt lat="48.89018" lon="2.3356">
        <ele>92.199996948242</ele>
        <time>2016-06-06T18:50:37.000Z</time>
      </trkpt>
      <trkpt lat="48.89021" lon="2.33568">
        <ele>91.599998474121</ele>
        <time>2016-06-06T18:50:38.000Z</time>
      </trkpt>
      <trkpt lat="48.89015" lon="2.33596">
        <ele>92.800003051758</ele>
        <time>2016-06-06T18:50:42.000Z</time>
      </trkpt>
      <trkpt lat="48.89011" lon="2.33626">
        <ele>94.199996948242</ele>
        <time>2016-06-06T18:50:46.000Z</time>
      </trkpt>
      <trkpt lat="48.89011" lon="2.33634">
        <ele>94.400001525879</ele>
        <time>2016-06-06T18:50:47.000Z</time>
      </trkpt>
      <trkpt lat="48.8901" lon="2.3365">
        <ele>95</ele>
        <time>2016-06-06T18:50:50.000Z</time>
      </trkpt>
      <trkpt lat="48.89013" lon="2.33667">
        <ele>94.800003051758</ele>
        <time>2016-06-06T18:50:54.000Z</time>
      </trkpt>
      <trkpt lat="48.89013" lon="2.3367">
        <ele>94.599998474121</ele>
        <time>2016-06-06T18:50:55.000Z</time>
      </trkpt>
      <trkpt lat="48.89013" lon="2.33676">
        <ele>94.599998474121</ele>
        <time>2016-06-06T18:50:58.000Z</time>
      </trkpt>
      <trkpt lat="48.89013" lon="2.33702">
        <ele>94.599998474121</ele>
        <time>2016-06-06T18:51:15.000Z</time>
      </trkpt>
      <trkpt lat="48.89007" lon="2.33731">
        <ele>95.800003051758</ele>
        <time>2016-06-06T18:51:21.000Z</time>
      </trkpt>
      <trkpt lat="48.89005" lon="2.33761">
        <ele>95.800003051758</ele>
        <time>2016-06-06T18:51:26.000Z</time>
      </trkpt>
      <trkpt lat="48.89004" lon="2.33786">
        <ele>96.199996948242</ele>
        <time>2016-06-06T18:51:29.000Z</time>
      </trkpt>
      <trkpt lat="48.89" lon="2.33811">
        <ele>97</ele>
        <time>2016-06-06T18:51:32.000Z</time>
      </trkpt>
      <trkpt lat="48.88992" lon="2.33836">
        <ele>96.800003051758</ele>
        <time>2016-06-06T18:51:35.000Z</time>
      </trkpt>
      <trkpt lat="48.88994" lon="2.33868">
        <ele>96.400001525879</ele>
        <time>2016-06-06T18:51:39.000Z</time>
      </trkpt>
      <trkpt lat="48.88994" lon="2.33877">
        <ele>96.199996948242</ele>
        <time>2016-06-06T18:51:41.000Z</time>
      </trkpt>
      <trkpt lat="48.88984" lon="2.33874">
        <ele>97.199996948242</ele>
        <time>2016-06-06T18:52:15.000Z</time>
      </trkpt>
      <trkpt lat="48.88971" lon="2.33874">
        <ele>98.199996948242</ele>
        <time>2016-06-06T18:52:42.000Z</time>
      </trkpt>
      <trkpt lat="48.88968" lon="2.33869">
        <ele>98.599998474121</ele>
        <time>2016-06-06T18:52:46.000Z</time>
      </trkpt>
      <trkpt lat="48.88952" lon="2.33862">
        <ele>100</ele>
        <time>2016-06-06T18:53:16.000Z</time>
      </trkpt>
      <trkpt lat="48.8895" lon="2.33882">
        <ele>99.400001525879</ele>
        <time>2016-06-06T18:53:31.000Z</time>
      </trkpt>
      <trkpt lat="48.88948" lon="2.33915">
        <ele>98.400001525879</ele>
        <time>2016-06-06T18:53:37.000Z</time>
      </trkpt>
      <trkpt lat="48.88954" lon="2.33943">
        <ele>98.800003051758</ele>
        <time>2016-06-06T18:53:41.000Z</time>
      </trkpt>
      <trkpt lat="48.88957" lon="2.33973">
        <ele>99.800003051758</ele>
        <time>2016-06-06T18:53:45.000Z</time>
      </trkpt>
      <trkpt lat="48.88957" lon="2.34002">
        <ele>100.80000305176</ele>
        <time>2016-06-06T18:53:49.000Z</time>
      </trkpt>
      <trkpt lat="48.88958" lon="2.34031">
        <ele>101.19999694824</ele>
        <time>2016-06-06T18:53:54.000Z</time>
      </trkpt>
      <trkpt lat="48.88957" lon="2.34065">
        <ele>102.59999847412</ele>
        <time>2016-06-06T18:53:59.000Z</time>
      </trkpt>
      <trkpt lat="48.88959" lon="2.34095">
        <ele>102.80000305176</ele>
        <time>2016-06-06T18:54:03.000Z</time>
      </trkpt>
      <trkpt lat="48.88961" lon="2.34126">
        <ele>101.80000305176</ele>
        <time>2016-06-06T18:54:07.000Z</time>
      </trkpt>
      <trkpt lat="48.88961" lon="2.34156">
        <ele>101.19999694824</ele>
        <time>2016-06-06T18:54:11.000Z</time>
      </trkpt>
      <trkpt lat="48.88962" lon="2.34188">
        <ele>100.80000305176</ele>
        <time>2016-06-06T18:54:15.000Z</time>
      </trkpt>
      <trkpt lat="48.88964" lon="2.34221">
        <ele>100.40000152588</ele>
        <time>2016-06-06T18:54:19.000Z</time>
      </trkpt>
      <trkpt lat="48.8897" lon="2.34254">
        <ele>99.800003051758</ele>
        <time>2016-06-06T18:54:23.000Z</time>
      </trkpt>
      <trkpt lat="48.88972" lon="2.34286">
        <ele>100</ele>
        <time>2016-06-06T18:54:27.000Z</time>
      </trkpt>
      <trkpt lat="48.8897" lon="2.343">
        <ele>100.19999694824</ele>
        <time>2016-06-06T18:54:29.000Z</time>
      </trkpt>
      <trkpt lat="48.88962" lon="2.34326">
        <ele>100.59999847412</ele>
        <time>2016-06-06T18:54:33.000Z</time>
      </trkpt>
      <trkpt lat="48.88956" lon="2.34353">
        <ele>100.59999847412</ele>
        <time>2016-06-06T18:54:37.000Z</time>
      </trkpt>
      <trkpt lat="48.88948" lon="2.3438">
        <ele>99.400001525879</ele>
        <time>2016-06-06T18:54:41.000Z</time>
      </trkpt>
      <trkpt lat="48.88942" lon="2.34393">
        <ele>99</ele>
        <time>2016-06-06T18:54:43.000Z</time>
      </trkpt>
      <trkpt lat="48.88931" lon="2.3442">
        <ele>98.599998474121</ele>
        <time>2016-06-06T18:54:47.000Z</time>
      </trkpt>
      <trkpt lat="48.88923" lon="2.34447">
        <ele>97.199996948242</ele>
        <time>2016-06-06T18:54:51.000Z</time>
      </trkpt>
      <trkpt lat="48.88924" lon="2.34479">
        <ele>94.599998474121</ele>
        <time>2016-06-06T18:54:55.000Z</time>
      </trkpt>
      <trkpt lat="48.88921" lon="2.34507">
        <ele>92.400001525879</ele>
        <time>2016-06-06T18:54:59.000Z</time>
      </trkpt>
      <trkpt lat="48.88923" lon="2.34528">
        <ele>91.599998474121</ele>
        <time>2016-06-06T18:55:03.000Z</time>
      </trkpt>
      <trkpt lat="48.8892" lon="2.34545">
        <ele>91.199996948242</ele>
        <time>2016-06-06T18:55:09.000Z</time>
      </trkpt>
      <trkpt lat="48.88918" lon="2.34549">
        <ele>91.199996948242</ele>
        <time>2016-06-06T18:55:10.000Z</time>
      </trkpt>
      <trkpt lat="48.88913" lon="2.34562">
        <ele>91</ele>
        <time>2016-06-06T18:55:13.000Z</time>
      </trkpt>
      <trkpt lat="48.88887" lon="2.34569">
        <ele>92</ele>
        <time>2016-06-06T18:55:26.000Z</time>
      </trkpt>
      <trkpt lat="48.88869" lon="2.34581">
        <ele>92.199996948242</ele>
        <time>2016-06-06T18:55:41.000Z</time>
      </trkpt>
      <trkpt lat="48.88863" lon="2.34584">
        <ele>92.400001525879</ele>
        <time>2016-06-06T18:55:44.000Z</time>
      </trkpt>
      <trkpt lat="48.88851" lon="2.34596">
        <ele>92.800003051758</ele>
        <time>2016-06-06T18:55:54.000Z</time>
      </trkpt>
      <trkpt lat="48.88845" lon="2.34602">
        <ele>93</ele>
        <time>2016-06-06T18:56:01.000Z</time>
      </trkpt>
      <trkpt lat="48.88838" lon="2.34603">
        <ele>93.400001525879</ele>
        <time>2016-06-06T18:56:04.000Z</time>
      </trkpt>
      <trkpt lat="48.88833" lon="2.34604">
        <ele>93.800003051758</ele>
        <time>2016-06-06T18:56:09.000Z</time>
      </trkpt>
      <trkpt lat="48.88832" lon="2.34605">
        <ele>93.800003051758</ele>
        <time>2016-06-06T18:56:10.000Z</time>
      </trkpt>
      <trkpt lat="48.88829" lon="2.34608">
        <ele>94</ele>
        <time>2016-06-06T18:56:13.000Z</time>
      </trkpt>
      <trkpt lat="48.88822" lon="2.34614">
        <ele>94.400001525879</ele>
        <time>2016-06-06T18:56:27.000Z</time>
      </trkpt>
      <trkpt lat="48.88824" lon="2.34625">
        <ele>93.599998474121</ele>
        <time>2016-06-06T18:56:32.000Z</time>
      </trkpt>
      <trkpt lat="48.88824" lon="2.34636">
        <ele>92.800003051758</ele>
        <time>2016-06-06T18:56:36.000Z</time>
      </trkpt>
      <trkpt lat="48.88821" lon="2.34649">
        <ele>91.400001525879</ele>
        <time>2016-06-06T18:56:41.000Z</time>
      </trkpt>
      <trkpt lat="48.88816" lon="2.34669">
        <ele>89.599998474121</ele>
        <time>2016-06-06T18:56:53.000Z</time>
      </trkpt>
      <trkpt lat="48.88816" lon="2.3467">
        <ele>89.599998474121</ele>
        <time>2016-06-06T18:57:19.000Z</time>
      </trkpt>
      <trkpt lat="48.88813" lon="2.34684">
        <ele>88.599998474121</ele>
        <time>2016-06-06T18:57:46.000Z</time>
      </trkpt>
      <trkpt lat="48.88795" lon="2.347">
        <ele>88.599998474121</ele>
        <time>2016-06-06T18:57:53.000Z</time>
      </trkpt>
      <trkpt lat="48.88778" lon="2.3471">
        <ele>89.599998474121</ele>
        <time>2016-06-06T18:57:59.000Z</time>
      </trkpt>
      <trkpt lat="48.88761" lon="2.34723">
        <ele>89</ele>
        <time>2016-06-06T18:58:06.000Z</time>
      </trkpt>
      <trkpt lat="48.88743" lon="2.34732">
        <ele>88</ele>
        <time>2016-06-06T18:58:13.000Z</time>
      </trkpt>
      <trkpt lat="48.88724" lon="2.34745">
        <ele>87.199996948242</ele>
        <time>2016-06-06T18:58:20.000Z</time>
      </trkpt>
      <trkpt lat="48.88705" lon="2.34755">
        <ele>86.199996948242</ele>
        <time>2016-06-06T18:58:27.000Z</time>
      </trkpt>
      <trkpt lat="48.88687" lon="2.34757">
        <ele>85.400001525879</ele>
        <time>2016-06-06T18:58:34.000Z</time>
      </trkpt>
      <trkpt lat="48.88668" lon="2.34755">
        <ele>84.800003051758</ele>
        <time>2016-06-06T18:58:39.000Z</time>
      </trkpt>
      <trkpt lat="48.88648" lon="2.34752">
        <ele>84.199996948242</ele>
        <time>2016-06-06T18:58:44.000Z</time>
      </trkpt>
      <trkpt lat="48.88629" lon="2.34753">
        <ele>83.599998474121</ele>
        <time>2016-06-06T18:58:50.000Z</time>
      </trkpt>
      <trkpt lat="48.88609" lon="2.3475">
        <ele>83</ele>
        <time>2016-06-06T18:58:57.000Z</time>
      </trkpt>
      <trkpt lat="48.88591" lon="2.34746">
        <ele>82</ele>
        <time>2016-06-06T18:59:02.000Z</time>
      </trkpt>
      <trkpt lat="48.88568" lon="2.34747">
        <ele>80.800003051758</ele>
        <time>2016-06-06T18:59:07.000Z</time>
      </trkpt>
      <trkpt lat="48.88546" lon="2.34747">
        <ele>79.400001525879</ele>
        <time>2016-06-06T18:59:12.000Z</time>
      </trkpt>
      <trkpt lat="48.88525" lon="2.34746">
        <ele>78.199996948242</ele>
        <time>2016-06-06T18:59:17.000Z</time>
      </trkpt>
      <trkpt lat="48.88506" lon="2.3474">
        <ele>77.599998474121</ele>
        <time>2016-06-06T18:59:22.000Z</time>
      </trkpt>
      <trkpt lat="48.88488" lon="2.34733">
        <ele>77</ele>
        <time>2016-06-06T18:59:27.000Z</time>
      </trkpt>
      <trkpt lat="48.88469" lon="2.34731">
        <ele>76.199996948242</ele>
        <time>2016-06-06T18:59:32.000Z</time>
      </trkpt>
      <trkpt lat="48.8845" lon="2.34725">
        <ele>75.599998474121</ele>
        <time>2016-06-06T18:59:37.000Z</time>
      </trkpt>
      <trkpt lat="48.88431" lon="2.34721">
        <ele>74.800003051758</ele>
        <time>2016-06-06T18:59:42.000Z</time>
      </trkpt>
      <trkpt lat="48.88409" lon="2.34719">
        <ele>73.599998474121</ele>
        <time>2016-06-06T18:59:48.000Z</time>
      </trkpt>
      <trkpt lat="48.88391" lon="2.34718">
        <ele>73.199996948242</ele>
        <time>2016-06-06T18:59:53.000Z</time>
      </trkpt>
      <trkpt lat="48.88371" lon="2.34709">
        <ele>72.800003051758</ele>
        <time>2016-06-06T18:59:59.000Z</time>
      </trkpt>
      <trkpt lat="48.88356" lon="2.347">
        <ele>72.599998474121</ele>
        <time>2016-06-06T19:00:07.000Z</time>
      </trkpt>
      <trkpt lat="48.88357" lon="2.34697">
        <ele>72.599998474121</ele>
        <time>2016-06-06T19:00:19.000Z</time>
      </trkpt>
      <trkpt lat="48.88345" lon="2.34682">
        <ele>73.199996948242</ele>
        <time>2016-06-06T19:00:35.000Z</time>
      </trkpt>
      <trkpt lat="48.8834" lon="2.34679">
        <ele>73.400001525879</ele>
        <time>2016-06-06T19:00:37.000Z</time>
      </trkpt>
      <trkpt lat="48.88328" lon="2.3468">
        <ele>73.800003051758</ele>
        <time>2016-06-06T19:00:42.000Z</time>
      </trkpt>
      <trkpt lat="48.88315" lon="2.34675">
        <ele>74.400001525879</ele>
        <time>2016-06-06T19:00:45.000Z</time>
      </trkpt>
      <trkpt lat="48.88299" lon="2.34658">
        <ele>75.199996948242</ele>
        <time>2016-06-06T19:00:50.000Z</time>
      </trkpt>
      <trkpt lat="48.88285" lon="2.3464">
        <ele>75.800003051758</ele>
        <time>2016-06-06T19:00:55.000Z</time>
      </trkpt>
      <trkpt lat="48.88269" lon="2.34621">
        <ele>76.400001525879</ele>
        <time>2016-06-06T19:01:01.000Z</time>
      </trkpt>
      <trkpt lat="48.88254" lon="2.346">
        <ele>76.400001525879</ele>
        <time>2016-06-06T19:01:06.000Z</time>
      </trkpt>
      <trkpt lat="48.88239" lon="2.34579">
        <ele>76.199996948242</ele>
        <time>2016-06-06T19:01:11.000Z</time>
      </trkpt>
      <trkpt lat="48.88224" lon="2.3456">
        <ele>75.599998474121</ele>
        <time>2016-06-06T19:01:17.000Z</time>
      </trkpt>
      <trkpt lat="48.88206" lon="2.34541">
        <ele>75</ele>
        <time>2016-06-06T19:01:22.000Z</time>
      </trkpt>
      <trkpt lat="48.88188" lon="2.34521">
        <ele>74.199996948242</ele>
        <time>2016-06-06T19:01:26.000Z</time>
      </trkpt>
      <trkpt lat="48.88177" lon="2.3451">
        <ele>73.800003051758</ele>
        <time>2016-06-06T19:01:31.000Z</time>
      </trkpt>
      <trkpt lat="48.88171" lon="2.34504">
        <ele>73.599998474121</ele>
        <time>2016-06-06T19:01:35.000Z</time>
      </trkpt>
      <trkpt lat="48.88156" lon="2.34489">
        <ele>73.199996948242</ele>
        <time>2016-06-06T19:01:41.000Z</time>
      </trkpt>
      <trkpt lat="48.88136" lon="2.34494">
        <ele>72.800003051758</ele>
        <time>2016-06-06T19:01:49.000Z</time>
      </trkpt>
      <trkpt lat="48.88119" lon="2.34504">
        <ele>72.400001525879</ele>
        <time>2016-06-06T19:01:54.000Z</time>
      </trkpt>
      <trkpt lat="48.88098" lon="2.34513">
        <ele>72</ele>
        <time>2016-06-06T19:02:00.000Z</time>
      </trkpt>
      <trkpt lat="48.8808" lon="2.34523">
        <ele>71.400001525879</ele>
        <time>2016-06-06T19:02:05.000Z</time>
      </trkpt>
      <trkpt lat="48.88059" lon="2.34532">
        <ele>70.599998474121</ele>
        <time>2016-06-06T19:02:10.000Z</time>
      </trkpt>
      <trkpt lat="48.8804" lon="2.34544">
        <ele>69.199996948242</ele>
        <time>2016-06-06T19:02:16.000Z</time>
      </trkpt>
      <trkpt lat="48.88022" lon="2.34549">
        <ele>68</ele>
        <time>2016-06-06T19:02:20.000Z</time>
      </trkpt>
      <trkpt lat="48.88002" lon="2.34555">
        <ele>66.800003051758</ele>
        <time>2016-06-06T19:02:25.000Z</time>
      </trkpt>
      <trkpt lat="48.87991" lon="2.34566">
        <ele>66</ele>
        <time>2016-06-06T19:02:32.000Z</time>
      </trkpt>
      <trkpt lat="48.87994" lon="2.34534">
        <ele>66.199996948242</ele>
        <time>2016-06-06T19:02:40.000Z</time>
      </trkpt>
      <trkpt lat="48.88" lon="2.34506">
        <ele>66.599998474121</ele>
        <time>2016-06-06T19:02:45.000Z</time>
      </trkpt>
      <trkpt lat="48.88006" lon="2.34478">
        <ele>67</ele>
        <time>2016-06-06T19:02:50.000Z</time>
      </trkpt>
      <trkpt lat="48.88011" lon="2.34452">
        <ele>67.599998474121</ele>
        <time>2016-06-06T19:02:54.000Z</time>
      </trkpt>
      <trkpt lat="48.88019" lon="2.34423">
        <ele>68.599998474121</ele>
        <time>2016-06-06T19:02:58.000Z</time>
      </trkpt>
      <trkpt lat="48.88025" lon="2.34392">
        <ele>68.800003051758</ele>
        <time>2016-06-06T19:03:03.000Z</time>
      </trkpt>
      <trkpt lat="48.88023" lon="2.34374">
        <ele>68.599998474121</ele>
        <time>2016-06-06T19:03:09.000Z</time>
      </trkpt>
      <trkpt lat="48.88005" lon="2.34367">
        <ele>67.599998474121</ele>
        <time>2016-06-06T19:03:24.000Z</time>
      </trkpt>
      <trkpt lat="48.87987" lon="2.34372">
        <ele>66.800003051758</ele>
        <time>2016-06-06T19:03:29.000Z</time>
      </trkpt>
      <trkpt lat="48.87966" lon="2.34371">
        <ele>65.400001525879</ele>
        <time>2016-06-06T19:03:35.000Z</time>
      </trkpt>
      <trkpt lat="48.87948" lon="2.34357">
        <ele>64.199996948242</ele>
        <time>2016-06-06T19:03:43.000Z</time>
      </trkpt>
      <trkpt lat="48.87934" lon="2.34334">
        <ele>63.799999237061</ele>
        <time>2016-06-06T19:03:48.000Z</time>
      </trkpt>
      <trkpt lat="48.87931" lon="2.34333">
        <ele>63.599998474121</ele>
        <time>2016-06-06T19:03:49.000Z</time>
      </trkpt>
      <trkpt lat="48.87912" lon="2.34325">
        <ele>62.799999237061</ele>
        <time>2016-06-06T19:03:54.000Z</time>
      </trkpt>
      <trkpt lat="48.87893" lon="2.34319">
        <ele>62</ele>
        <time>2016-06-06T19:03:59.000Z</time>
      </trkpt>
      <trkpt lat="48.87874" lon="2.3431">
        <ele>61.200000762939</ele>
        <time>2016-06-06T19:04:04.000Z</time>
      </trkpt>
      <trkpt lat="48.87855" lon="2.34299">
        <ele>60.200000762939</ele>
        <time>2016-06-06T19:04:10.000Z</time>
      </trkpt>
      <trkpt lat="48.87836" lon="2.34288">
        <ele>59</ele>
        <time>2016-06-06T19:04:16.000Z</time>
      </trkpt>
      <trkpt lat="48.87818" lon="2.34277">
        <ele>57.799999237061</ele>
        <time>2016-06-06T19:04:22.000Z</time>
      </trkpt>
      <trkpt lat="48.87797" lon="2.34264">
        <ele>56.599998474121</ele>
        <time>2016-06-06T19:04:28.000Z</time>
      </trkpt>
      <trkpt lat="48.87779" lon="2.34257">
        <ele>55.400001525879</ele>
        <time>2016-06-06T19:04:32.000Z</time>
      </trkpt>
      <trkpt lat="48.87758" lon="2.34249">
        <ele>54.400001525879</ele>
        <time>2016-06-06T19:04:37.000Z</time>
      </trkpt>
      <trkpt lat="48.87739" lon="2.34241">
        <ele>53.799999237061</ele>
        <time>2016-06-06T19:04:44.000Z</time>
      </trkpt>
      <trkpt lat="48.87738" lon="2.3423">
        <ele>53.799999237061</ele>
        <time>2016-06-06T19:04:46.000Z</time>
      </trkpt>
      <trkpt lat="48.87724" lon="2.34224">
        <ele>53.200000762939</ele>
        <time>2016-06-06T19:05:10.000Z</time>
      </trkpt>
      <trkpt lat="48.8772" lon="2.34224">
        <ele>53.200000762939</ele>
        <time>2016-06-06T19:05:12.000Z</time>
      </trkpt>
      <trkpt lat="48.87712" lon="2.34221">
        <ele>52.799999237061</ele>
        <time>2016-06-06T19:05:16.000Z</time>
      </trkpt>
      <trkpt lat="48.87705" lon="2.34215">
        <ele>52.599998474121</ele>
        <time>2016-06-06T19:05:36.000Z</time>
      </trkpt>
      <trkpt lat="48.87694" lon="2.34191">
        <ele>52.200000762939</ele>
        <time>2016-06-06T19:05:40.000Z</time>
      </trkpt>
      <trkpt lat="48.87678" lon="2.34165">
        <ele>51.599998474121</ele>
        <time>2016-06-06T19:05:44.000Z</time>
      </trkpt>
      <trkpt lat="48.87665" lon="2.34136">
        <ele>51</ele>
        <time>2016-06-06T19:05:48.000Z</time>
      </trkpt>
      <trkpt lat="48.87655" lon="2.34111">
        <ele>50.400001525879</ele>
        <time>2016-06-06T19:05:51.000Z</time>
      </trkpt>
      <trkpt lat="48.87644" lon="2.34088">
        <ele>49.599998474121</ele>
        <time>2016-06-06T19:05:54.000Z</time>
      </trkpt>
      <trkpt lat="48.8763" lon="2.3406">
        <ele>48.799999237061</ele>
        <time>2016-06-06T19:05:58.000Z</time>
      </trkpt>
      <trkpt lat="48.87617" lon="2.34038">
        <ele>48.200000762939</ele>
        <time>2016-06-06T19:06:01.000Z</time>
      </trkpt>
      <trkpt lat="48.87614" lon="2.34031">
        <ele>47.799999237061</ele>
        <time>2016-06-06T19:06:02.000Z</time>
      </trkpt>
      <trkpt lat="48.87602" lon="2.34003">
        <ele>47.200000762939</ele>
        <time>2016-06-06T19:06:06.000Z</time>
      </trkpt>
      <trkpt lat="48.87591" lon="2.33987">
        <ele>46.799999237061</ele>
        <time>2016-06-06T19:06:09.000Z</time>
      </trkpt>
      <trkpt lat="48.87573" lon="2.3398">
        <ele>46.599998474121</ele>
        <time>2016-06-06T19:06:13.000Z</time>
      </trkpt>
      <trkpt lat="48.8755" lon="2.33973">
        <ele>46.400001525879</ele>
        <time>2016-06-06T19:06:18.000Z</time>
      </trkpt>
      <trkpt lat="48.87533" lon="2.33969">
        <ele>46.400001525879</ele>
        <time>2016-06-06T19:06:22.000Z</time>
      </trkpt>
      <trkpt lat="48.87516" lon="2.33967">
        <ele>46.400001525879</ele>
        <time>2016-06-06T19:06:26.000Z</time>
      </trkpt>
      <trkpt lat="48.87497" lon="2.33958">
        <ele>46.599998474121</ele>
        <time>2016-06-06T19:06:30.000Z</time>
      </trkpt>
      <trkpt lat="48.87487" lon="2.33952">
        <ele>46.799999237061</ele>
        <time>2016-06-06T19:06:33.000Z</time>
      </trkpt>
      <trkpt lat="48.8748" lon="2.33947">
        <ele>46.799999237061</ele>
        <time>2016-06-06T19:06:36.000Z</time>
      </trkpt>
      <trkpt lat="48.87469" lon="2.33942">
        <ele>47</ele>
        <time>2016-06-06T19:06:40.000Z</time>
      </trkpt>
      <trkpt lat="48.87459" lon="2.33938">
        <ele>47</ele>
        <time>2016-06-06T19:06:43.000Z</time>
      </trkpt>
      <trkpt lat="48.8744" lon="2.33932">
        <ele>47</ele>
        <time>2016-06-06T19:06:48.000Z</time>
      </trkpt>
      <trkpt lat="48.87421" lon="2.33927">
        <ele>47.200000762939</ele>
        <time>2016-06-06T19:06:53.000Z</time>
      </trkpt>
      <trkpt lat="48.87404" lon="2.33914">
        <ele>47.400001525879</ele>
        <time>2016-06-06T19:06:59.000Z</time>
      </trkpt>
      <trkpt lat="48.87384" lon="2.33909">
        <ele>47.599998474121</ele>
        <time>2016-06-06T19:07:04.000Z</time>
      </trkpt>
      <trkpt lat="48.87366" lon="2.33901">
        <ele>47.799999237061</ele>
        <time>2016-06-06T19:07:08.000Z</time>
      </trkpt>
      <trkpt lat="48.87348" lon="2.33895">
        <ele>48.200000762939</ele>
        <time>2016-06-06T19:07:12.000Z</time>
      </trkpt>
      <trkpt lat="48.87329" lon="2.33881">
        <ele>49</ele>
        <time>2016-06-06T19:07:16.000Z</time>
      </trkpt>
      <trkpt lat="48.8731" lon="2.33873">
        <ele>49.599998474121</ele>
        <time>2016-06-06T19:07:20.000Z</time>
      </trkpt>
      <trkpt lat="48.87293" lon="2.3387">
        <ele>50.200000762939</ele>
        <time>2016-06-06T19:07:24.000Z</time>
      </trkpt>
      <trkpt lat="48.87286" lon="2.33869">
        <ele>50.599998474121</ele>
        <time>2016-06-06T19:07:26.000Z</time>
      </trkpt>
      <trkpt lat="48.87265" lon="2.33864">
        <ele>51</ele>
        <time>2016-06-06T19:07:32.000Z</time>
      </trkpt>
      <trkpt lat="48.8725" lon="2.33861">
        <ele>50.799999237061</ele>
        <time>2016-06-06T19:07:36.000Z</time>
      </trkpt>
      <trkpt lat="48.87239" lon="2.33854">
        <ele>50.599998474121</ele>
        <time>2016-06-06T19:07:40.000Z</time>
      </trkpt>
      <trkpt lat="48.87223" lon="2.33838">
        <ele>50.400001525879</ele>
        <time>2016-06-06T19:07:48.000Z</time>
      </trkpt>
      <trkpt lat="48.87205" lon="2.33832">
        <ele>50.200000762939</ele>
        <time>2016-06-06T19:07:55.000Z</time>
      </trkpt>
      <trkpt lat="48.87186" lon="2.33834">
        <ele>50</ele>
        <time>2016-06-06T19:08:01.000Z</time>
      </trkpt>
      <trkpt lat="48.87184" lon="2.33832">
        <ele>50</ele>
        <time>2016-06-06T19:08:02.000Z</time>
      </trkpt>
      <trkpt lat="48.87184" lon="2.33826">
        <ele>50</ele>
        <time>2016-06-06T19:08:05.000Z</time>
      </trkpt>
      <trkpt lat="48.87182" lon="2.33835">
        <ele>50</ele>
        <time>2016-06-06T19:08:16.000Z</time>
      </trkpt>
      <trkpt lat="48.87185" lon="2.33863">
        <ele>50</ele>
        <time>2016-06-06T19:08:22.000Z</time>
      </trkpt>
      <trkpt lat="48.87188" lon="2.33892">
        <ele>50</ele>
        <time>2016-06-06T19:08:28.000Z</time>
      </trkpt>
      <trkpt lat="48.87191" lon="2.3392">
        <ele>49.799999237061</ele>
        <time>2016-06-06T19:08:34.000Z</time>
      </trkpt>
      <trkpt lat="48.87197" lon="2.33951">
        <ele>49</ele>
        <time>2016-06-06T19:08:41.000Z</time>
      </trkpt>
      <trkpt lat="48.87202" lon="2.33979">
        <ele>48.200000762939</ele>
        <time>2016-06-06T19:08:48.000Z</time>
      </trkpt>
      <trkpt lat="48.87195" lon="2.33989">
        <ele>48.200000762939</ele>
        <time>2016-06-06T19:08:50.000Z</time>
      </trkpt>
      <trkpt lat="48.87176" lon="2.33992">
        <ele>48</ele>
        <time>2016-06-06T19:08:54.000Z</time>
      </trkpt>
      <trkpt lat="48.87157" lon="2.33986">
        <ele>47.799999237061</ele>
        <time>2016-06-06T19:08:58.000Z</time>
      </trkpt>
      <trkpt lat="48.87139" lon="2.33975">
        <ele>47.799999237061</ele>
        <time>2016-06-06T19:09:02.000Z</time>
      </trkpt>
      <trkpt lat="48.87116" lon="2.33965">
        <ele>47.599998474121</ele>
        <time>2016-06-06T19:09:07.000Z</time>
      </trkpt>
      <trkpt lat="48.87097" lon="2.33959">
        <ele>47.799999237061</ele>
        <time>2016-06-06T19:09:11.000Z</time>
      </trkpt>
      <trkpt lat="48.87078" lon="2.33953">
        <ele>48.400001525879</ele>
        <time>2016-06-06T19:09:15.000Z</time>
      </trkpt>
      <trkpt lat="48.87061" lon="2.33943">
        <ele>49</ele>
        <time>2016-06-06T19:09:20.000Z</time>
      </trkpt>
      <trkpt lat="48.87043" lon="2.33933">
        <ele>49.599998474121</ele>
        <time>2016-06-06T19:09:25.000Z</time>
      </trkpt>
      <trkpt lat="48.87021" lon="2.33924">
        <ele>49.799999237061</ele>
        <time>2016-06-06T19:09:30.000Z</time>
      </trkpt>
      <trkpt lat="48.87002" lon="2.33916">
        <ele>49.799999237061</ele>
        <time>2016-06-06T19:09:34.000Z</time>
      </trkpt>
      <trkpt lat="48.86982" lon="2.33908">
        <ele>49.599998474121</ele>
        <time>2016-06-06T19:09:38.000Z</time>
      </trkpt>
      <trkpt lat="48.86975" lon="2.33907">
        <ele>49.599998474121</ele>
        <time>2016-06-06T19:09:40.000Z</time>
      </trkpt>
      <trkpt lat="48.86956" lon="2.33898">
        <ele>49.400001525879</ele>
        <time>2016-06-06T19:09:45.000Z</time>
      </trkpt>
      <trkpt lat="48.86953" lon="2.33896">
        <ele>49.400001525879</ele>
        <time>2016-06-06T19:09:46.000Z</time>
      </trkpt>
      <trkpt lat="48.86948" lon="2.33893">
        <ele>49.400001525879</ele>
        <time>2016-06-06T19:09:48.000Z</time>
      </trkpt>
      <trkpt lat="48.8694" lon="2.33888">
        <ele>49.400001525879</ele>
        <time>2016-06-06T19:09:51.000Z</time>
      </trkpt>
      <trkpt lat="48.86936" lon="2.33884">
        <ele>49.400001525879</ele>
        <time>2016-06-06T19:09:53.000Z</time>
      </trkpt>
      <trkpt lat="48.8692" lon="2.33871">
        <ele>49.799999237061</ele>
        <time>2016-06-06T19:10:00.000Z</time>
      </trkpt>
      <trkpt lat="48.86899" lon="2.3387">
        <ele>50</ele>
        <time>2016-06-06T19:10:06.000Z</time>
      </trkpt>
      <trkpt lat="48.8688" lon="2.33866">
        <ele>50.200000762939</ele>
        <time>2016-06-06T19:10:10.000Z</time>
      </trkpt>
      <trkpt lat="48.86862" lon="2.33862">
        <ele>50.200000762939</ele>
        <time>2016-06-06T19:10:14.000Z</time>
      </trkpt>
      <trkpt lat="48.86846" lon="2.3385">
        <ele>50.200000762939</ele>
        <time>2016-06-06T19:10:18.000Z</time>
      </trkpt>
      <trkpt lat="48.86829" lon="2.3383">
        <ele>50.400001525879</ele>
        <time>2016-06-06T19:10:23.000Z</time>
      </trkpt>
      <trkpt lat="48.86811" lon="2.33816">
        <ele>50.200000762939</ele>
        <time>2016-06-06T19:10:29.000Z</time>
      </trkpt>
      <trkpt lat="48.86787" lon="2.33803">
        <ele>50</ele>
        <time>2016-06-06T19:10:32.000Z</time>
      </trkpt>
      <trkpt lat="48.86769" lon="2.33796">
        <ele>49.799999237061</ele>
        <time>2016-06-06T19:10:37.000Z</time>
      </trkpt>
      <trkpt lat="48.86751" lon="2.33791">
        <ele>50</ele>
        <time>2016-06-06T19:10:41.000Z</time>
      </trkpt>
      <trkpt lat="48.86733" lon="2.33785">
        <ele>50</ele>
        <time>2016-06-06T19:10:46.000Z</time>
      </trkpt>
      <trkpt lat="48.86722" lon="2.33774">
        <ele>50.400001525879</ele>
        <time>2016-06-06T19:10:49.000Z</time>
      </trkpt>
      <trkpt lat="48.86704" lon="2.33764">
        <ele>50.599998474121</ele>
        <time>2016-06-06T19:10:54.000Z</time>
      </trkpt>
      <trkpt lat="48.86683" lon="2.33759">
        <ele>50.400001525879</ele>
        <time>2016-06-06T19:11:00.000Z</time>
      </trkpt>
      <trkpt lat="48.86665" lon="2.33749">
        <ele>49.599998474121</ele>
        <time>2016-06-06T19:11:03.000Z</time>
      </trkpt>
      <trkpt lat="48.86644" lon="2.33747">
        <ele>48.200000762939</ele>
        <time>2016-06-06T19:11:08.000Z</time>
      </trkpt>
      <trkpt lat="48.86624" lon="2.33739">
        <ele>47.400001525879</ele>
        <time>2016-06-06T19:11:13.000Z</time>
      </trkpt>
      <trkpt lat="48.86621" lon="2.33736">
        <ele>47.400001525879</ele>
        <time>2016-06-06T19:11:14.000Z</time>
      </trkpt>
      <trkpt lat="48.86606" lon="2.33728">
        <ele>47</ele>
        <time>2016-06-06T19:11:19.000Z</time>
      </trkpt>
      <trkpt lat="48.86599" lon="2.33725">
        <ele>47</ele>
        <time>2016-06-06T19:11:22.000Z</time>
      </trkpt>
      <trkpt lat="48.86583" lon="2.33713">
        <ele>47</ele>
        <time>2016-06-06T19:11:26.000Z</time>
      </trkpt>
      <trkpt lat="48.86563" lon="2.33702">
        <ele>47.200000762939</ele>
        <time>2016-06-06T19:11:30.000Z</time>
      </trkpt>
      <trkpt lat="48.8654" lon="2.33693">
        <ele>46.400001525879</ele>
        <time>2016-06-06T19:11:35.000Z</time>
      </trkpt>
      <trkpt lat="48.86519" lon="2.33683">
        <ele>46</ele>
        <time>2016-06-06T19:11:40.000Z</time>
      </trkpt>
      <trkpt lat="48.8651" lon="2.33679">
        <ele>46.200000762939</ele>
        <time>2016-06-06T19:11:42.000Z</time>
      </trkpt>
      <trkpt lat="48.8649" lon="2.33667">
        <ele>46.599998474121</ele>
        <time>2016-06-06T19:11:46.000Z</time>
      </trkpt>
      <trkpt lat="48.86469" lon="2.33658">
        <ele>46.200000762939</ele>
        <time>2016-06-06T19:11:50.000Z</time>
      </trkpt>
      <trkpt lat="48.86452" lon="2.33651">
        <ele>45.799999237061</ele>
        <time>2016-06-06T19:11:53.000Z</time>
      </trkpt>
      <trkpt lat="48.8643" lon="2.33644">
        <ele>45.400001525879</ele>
        <time>2016-06-06T19:11:57.000Z</time>
      </trkpt>
      <trkpt lat="48.8641" lon="2.33635">
        <ele>45.599998474121</ele>
        <time>2016-06-06T19:12:03.000Z</time>
      </trkpt>
      <trkpt lat="48.86405" lon="2.33628">
        <ele>45.799999237061</ele>
        <time>2016-06-06T19:12:05.000Z</time>
      </trkpt>
      <trkpt lat="48.86396" lon="2.33619">
        <ele>46</ele>
        <time>2016-06-06T19:12:09.000Z</time>
      </trkpt>
      <trkpt lat="48.8638" lon="2.33604">
        <ele>46.400001525879</ele>
        <time>2016-06-06T19:12:17.000Z</time>
      </trkpt>
      <trkpt lat="48.86379" lon="2.33601">
        <ele>46.599998474121</ele>
        <time>2016-06-06T19:12:18.000Z</time>
      </trkpt>
      <trkpt lat="48.86361" lon="2.33584">
        <ele>47</ele>
        <time>2016-06-06T19:12:23.000Z</time>
      </trkpt>
      <trkpt lat="48.86339" lon="2.33581">
        <ele>47.200000762939</ele>
        <time>2016-06-06T19:12:29.000Z</time>
      </trkpt>
      <trkpt lat="48.86321" lon="2.33575">
        <ele>47.200000762939</ele>
        <time>2016-06-06T19:12:34.000Z</time>
      </trkpt>
      <trkpt lat="48.86307" lon="2.33569">
        <ele>47</ele>
        <time>2016-06-06T19:12:40.000Z</time>
      </trkpt>
      <trkpt lat="48.86297" lon="2.33565">
        <ele>47</ele>
        <time>2016-06-06T19:13:22.000Z</time>
      </trkpt>
      <trkpt lat="48.86283" lon="2.33543">
        <ele>46</ele>
        <time>2016-06-06T19:13:41.000Z</time>
      </trkpt>
      <trkpt lat="48.86271" lon="2.33539">
        <ele>46</ele>
        <time>2016-06-06T19:13:54.000Z</time>
      </trkpt>
      <trkpt lat="48.86264" lon="2.33536">
        <ele>45.799999237061</ele>
        <time>2016-06-06T19:14:00.000Z</time>
      </trkpt>
      <trkpt lat="48.86257" lon="2.33533">
        <ele>45.599998474121</ele>
        <time>2016-06-06T19:14:06.000Z</time>
      </trkpt>
      <trkpt lat="48.8625" lon="2.33534">
        <ele>45.400001525879</ele>
        <time>2016-06-06T19:14:13.000Z</time>
      </trkpt>
      <trkpt lat="48.86235" lon="2.33517">
        <ele>44.400001525879</ele>
        <time>2016-06-06T19:14:25.000Z</time>
      </trkpt>
      <trkpt lat="48.86219" lon="2.335">
        <ele>43.599998474121</ele>
        <time>2016-06-06T19:14:30.000Z</time>
      </trkpt>
      <trkpt lat="48.86213" lon="2.33499">
        <ele>43.400001525879</ele>
        <time>2016-06-06T19:14:32.000Z</time>
      </trkpt>
      <trkpt lat="48.86195" lon="2.33493">
        <ele>42.799999237061</ele>
        <time>2016-06-06T19:14:38.000Z</time>
      </trkpt>
      <trkpt lat="48.86176" lon="2.33485">
        <ele>42.599998474121</ele>
        <time>2016-06-06T19:14:44.000Z</time>
      </trkpt>
      <trkpt lat="48.86154" lon="2.33478">
        <ele>41.799999237061</ele>
        <time>2016-06-06T19:14:50.000Z</time>
      </trkpt>
      <trkpt lat="48.86135" lon="2.33471">
        <ele>41</ele>
        <time>2016-06-06T19:14:56.000Z</time>
      </trkpt>
      <trkpt lat="48.86117" lon="2.33457">
        <ele>40.400001525879</ele>
        <time>2016-06-06T19:15:03.000Z</time>
      </trkpt>
      <trkpt lat="48.86103" lon="2.33439">
        <ele>40.400001525879</ele>
        <time>2016-06-06T19:15:09.000Z</time>
      </trkpt>
      <trkpt lat="48.86095" lon="2.33411">
        <ele>41.200000762939</ele>
        <time>2016-06-06T19:15:17.000Z</time>
      </trkpt>
      <trkpt lat="48.86082" lon="2.33396">
        <ele>42.599998474121</ele>
        <time>2016-06-06T19:15:25.000Z</time>
      </trkpt>
      <trkpt lat="48.86065" lon="2.33388">
        <ele>44.400001525879</ele>
        <time>2016-06-06T19:15:41.000Z</time>
      </trkpt>
      <trkpt lat="48.86053" lon="2.33389">
        <ele>45.799999237061</ele>
        <time>2016-06-06T19:15:45.000Z</time>
      </trkpt>
      <trkpt lat="48.86046" lon="2.33376">
        <ele>46.400001525879</ele>
        <time>2016-06-06T19:15:50.000Z</time>
      </trkpt>
      <trkpt lat="48.86043" lon="2.33349">
        <ele>45.799999237061</ele>
        <time>2016-06-06T19:16:01.000Z</time>
      </trkpt>
      <trkpt lat="48.8604" lon="2.33343">
        <ele>45.799999237061</ele>
        <time>2016-06-06T19:16:05.000Z</time>
      </trkpt>
      <trkpt lat="48.86029" lon="2.3333">
        <ele>46.799999237061</ele>
        <time>2016-06-06T19:16:13.000Z</time>
      </trkpt>
      <trkpt lat="48.86013" lon="2.33314">
        <ele>46</ele>
        <time>2016-06-06T19:16:21.000Z</time>
      </trkpt>
      <trkpt lat="48.85999" lon="2.33297">
        <ele>43.400001525879</ele>
        <time>2016-06-06T19:16:29.000Z</time>
      </trkpt>
      <trkpt lat="48.85997" lon="2.33292">
        <ele>43</ele>
        <time>2016-06-06T19:16:33.000Z</time>
      </trkpt>
      <trkpt lat="48.86001" lon="2.33291">
        <ele>43.400001525879</ele>
        <time>2016-06-06T19:17:27.000Z</time>
      </trkpt>
      <trkpt lat="48.85998" lon="2.333">
        <ele>43.599998474121</ele>
        <time>2016-06-06T19:19:02.000Z</time>
      </trkpt>
      <trkpt lat="48.85978" lon="2.33295">
        <ele>41.599998474121</ele>
        <time>2016-06-06T19:19:09.000Z</time>
      </trkpt>
      <trkpt lat="48.85961" lon="2.33285">
        <ele>39.599998474121</ele>
        <time>2016-06-06T19:19:15.000Z</time>
      </trkpt>
      <trkpt lat="48.85943" lon="2.33275">
        <ele>37.599998474121</ele>
        <time>2016-06-06T19:19:21.000Z</time>
      </trkpt>
      <trkpt lat="48.85925" lon="2.33265">
        <ele>37.599998474121</ele>
        <time>2016-06-06T19:19:27.000Z</time>
      </trkpt>
      <trkpt lat="48.85906" lon="2.33255">
        <ele>38.200000762939</ele>
        <time>2016-06-06T19:19:33.000Z</time>
      </trkpt>
      <trkpt lat="48.85887" lon="2.33246">
        <ele>39</ele>
        <time>2016-06-06T19:19:39.000Z</time>
      </trkpt>
      <trkpt lat="48.85877" lon="2.33233">
        <ele>40.200000762939</ele>
        <time>2016-06-06T19:19:47.000Z</time>
      </trkpt>
      <trkpt lat="48.85864" lon="2.33247">
        <ele>41.200000762939</ele>
        <time>2016-06-06T19:20:10.000Z</time>
      </trkpt>
      <trkpt lat="48.85858" lon="2.33273">
        <ele>42.400001525879</ele>
        <time>2016-06-06T19:20:18.000Z</time>
      </trkpt>
      <trkpt lat="48.85848" lon="2.33297">
        <ele>43</ele>
        <time>2016-06-06T19:20:25.000Z</time>
      </trkpt>
      <trkpt lat="48.85844" lon="2.33302">
        <ele>43.400001525879</ele>
        <time>2016-06-06T19:20:29.000Z</time>
      </trkpt>
      <trkpt lat="48.85828" lon="2.33315">
        <ele>44</ele>
        <time>2016-06-06T19:20:44.000Z</time>
      </trkpt>
      <trkpt lat="48.85808" lon="2.33309">
        <ele>44.599998474121</ele>
        <time>2016-06-06T19:20:49.000Z</time>
      </trkpt>
      <trkpt lat="48.85791" lon="2.33295">
        <ele>45.400001525879</ele>
        <time>2016-06-06T19:20:53.000Z</time>
      </trkpt>
      <trkpt lat="48.85773" lon="2.33282">
        <ele>46.200000762939</ele>
        <time>2016-06-06T19:20:57.000Z</time>
      </trkpt>
      <trkpt lat="48.85754" lon="2.33266">
        <ele>46.599998474121</ele>
        <time>2016-06-06T19:21:01.000Z</time>
      </trkpt>
      <trkpt lat="48.85733" lon="2.33254">
        <ele>46.799999237061</ele>
        <time>2016-06-06T19:21:06.000Z</time>
      </trkpt>
      <trkpt lat="48.85716" lon="2.33242">
        <ele>46.799999237061</ele>
        <time>2016-06-06T19:21:09.000Z</time>
      </trkpt>
      <trkpt lat="48.85697" lon="2.33232">
        <ele>46.599998474121</ele>
        <time>2016-06-06T19:21:12.000Z</time>
      </trkpt>
      <trkpt lat="48.8568" lon="2.33222">
        <ele>47</ele>
        <time>2016-06-06T19:21:16.000Z</time>
      </trkpt>
      <trkpt lat="48.85664" lon="2.33211">
        <ele>48</ele>
        <time>2016-06-06T19:21:19.000Z</time>
      </trkpt>
      <trkpt lat="48.85644" lon="2.33195">
        <ele>49</ele>
        <time>2016-06-06T19:21:23.000Z</time>
      </trkpt>
      <trkpt lat="48.85637" lon="2.33185">
        <ele>49.200000762939</ele>
        <time>2016-06-06T19:21:25.000Z</time>
      </trkpt>
      <trkpt lat="48.85632" lon="2.33175">
        <ele>49.400001525879</ele>
        <time>2016-06-06T19:21:29.000Z</time>
      </trkpt>
      <trkpt lat="48.85614" lon="2.33162">
        <ele>50.400001525879</ele>
        <time>2016-06-06T19:21:41.000Z</time>
      </trkpt>
      <trkpt lat="48.85596" lon="2.33155">
        <ele>51.400001525879</ele>
        <time>2016-06-06T19:21:45.000Z</time>
      </trkpt>
      <trkpt lat="48.85578" lon="2.33143">
        <ele>52.400001525879</ele>
        <time>2016-06-06T19:21:49.000Z</time>
      </trkpt>
      <trkpt lat="48.85551" lon="2.33126">
        <ele>53.599998474121</ele>
        <time>2016-06-06T19:21:53.000Z</time>
      </trkpt>
      <trkpt lat="48.8554" lon="2.33119">
        <ele>54.200000762939</ele>
        <time>2016-06-06T19:21:55.000Z</time>
      </trkpt>
      <trkpt lat="48.85523" lon="2.33107">
        <ele>55</ele>
        <time>2016-06-06T19:21:58.000Z</time>
      </trkpt>
      <trkpt lat="48.85501" lon="2.33096">
        <ele>54.400001525879</ele>
        <time>2016-06-06T19:22:01.000Z</time>
      </trkpt>
      <trkpt lat="48.85482" lon="2.33085">
        <ele>54</ele>
        <time>2016-06-06T19:22:04.000Z</time>
      </trkpt>
      <trkpt lat="48.85468" lon="2.33079">
        <ele>53.599998474121</ele>
        <time>2016-06-06T19:22:07.000Z</time>
      </trkpt>
      <trkpt lat="48.85454" lon="2.33074">
        <ele>53</ele>
        <time>2016-06-06T19:22:11.000Z</time>
      </trkpt>
      <trkpt lat="48.85448" lon="2.33065">
        <ele>52.200000762939</ele>
        <time>2016-06-06T19:22:18.000Z</time>
      </trkpt>
      <trkpt lat="48.85448" lon="2.33063">
        <ele>52.200000762939</ele>
        <time>2016-06-06T19:22:19.000Z</time>
      </trkpt>
      <trkpt lat="48.85448" lon="2.33051">
        <ele>51.400001525879</ele>
        <time>2016-06-06T19:22:43.000Z</time>
      </trkpt>
      <trkpt lat="48.85441" lon="2.3304">
        <ele>50.599998474121</ele>
        <time>2016-06-06T19:22:48.000Z</time>
      </trkpt>
      <trkpt lat="48.85422" lon="2.33027">
        <ele>49.799999237061</ele>
        <time>2016-06-06T19:22:56.000Z</time>
      </trkpt>
      <trkpt lat="48.85403" lon="2.33015">
        <ele>49</ele>
        <time>2016-06-06T19:23:00.000Z</time>
      </trkpt>
      <trkpt lat="48.85384" lon="2.33007">
        <ele>48.599998474121</ele>
        <time>2016-06-06T19:23:07.000Z</time>
      </trkpt>
      <trkpt lat="48.85366" lon="2.33">
        <ele>48.200000762939</ele>
        <time>2016-06-06T19:23:11.000Z</time>
      </trkpt>
      <trkpt lat="48.85347" lon="2.32996">
        <ele>48</ele>
        <time>2016-06-06T19:23:16.000Z</time>
      </trkpt>
      <trkpt lat="48.8533" lon="2.32985">
        <ele>48</ele>
        <time>2016-06-06T19:23:21.000Z</time>
      </trkpt>
      <trkpt lat="48.85311" lon="2.32973">
        <ele>48</ele>
        <time>2016-06-06T19:23:25.000Z</time>
      </trkpt>
      <trkpt lat="48.85292" lon="2.32959">
        <ele>48.200000762939</ele>
        <time>2016-06-06T19:23:29.000Z</time>
      </trkpt>
      <trkpt lat="48.85274" lon="2.32943">
        <ele>48.400001525879</ele>
        <time>2016-06-06T19:23:33.000Z</time>
      </trkpt>
      <trkpt lat="48.85264" lon="2.32935">
        <ele>48.200000762939</ele>
        <time>2016-06-06T19:23:36.000Z</time>
      </trkpt>
      <trkpt lat="48.85245" lon="2.32918">
        <ele>48.200000762939</ele>
        <time>2016-06-06T19:23:41.000Z</time>
      </trkpt>
      <trkpt lat="48.8523" lon="2.32902">
        <ele>48.200000762939</ele>
        <time>2016-06-06T19:23:45.000Z</time>
      </trkpt>
      <trkpt lat="48.85209" lon="2.3288">
        <ele>48.200000762939</ele>
        <time>2016-06-06T19:23:51.000Z</time>
      </trkpt>
      <trkpt lat="48.85197" lon="2.32868">
        <ele>48.200000762939</ele>
        <time>2016-06-06T19:23:54.000Z</time>
      </trkpt>
      <trkpt lat="48.85192" lon="2.32851">
        <ele>48.599998474121</ele>
        <time>2016-06-06T19:23:57.000Z</time>
      </trkpt>
      <trkpt lat="48.85186" lon="2.32822">
        <ele>48.799999237061</ele>
        <time>2016-06-06T19:24:01.000Z</time>
      </trkpt>
      <trkpt lat="48.85181" lon="2.32792">
        <ele>48.200000762939</ele>
        <time>2016-06-06T19:24:04.000Z</time>
      </trkpt>
      <trkpt lat="48.85177" lon="2.32762">
        <ele>47.599998474121</ele>
        <time>2016-06-06T19:24:08.000Z</time>
      </trkpt>
      <trkpt lat="48.85176" lon="2.32731">
        <ele>46.799999237061</ele>
        <time>2016-06-06T19:24:12.000Z</time>
      </trkpt>
      <trkpt lat="48.85173" lon="2.3271">
        <ele>46.400001525879</ele>
        <time>2016-06-06T19:24:15.000Z</time>
      </trkpt>
      <trkpt lat="48.85171" lon="2.327">
        <ele>46</ele>
        <time>2016-06-06T19:24:18.000Z</time>
      </trkpt>
      <trkpt lat="48.85167" lon="2.32694">
        <ele>46</ele>
        <time>2016-06-06T19:24:21.000Z</time>
      </trkpt>
      <trkpt lat="48.85161" lon="2.32691">
        <ele>46</ele>
        <time>2016-06-06T19:24:26.000Z</time>
      </trkpt>
      <trkpt lat="48.8516" lon="2.3269">
        <ele>46</ele>
        <time>2016-06-06T19:24:27.000Z</time>
      </trkpt>
      <trkpt lat="48.85145" lon="2.32674">
        <ele>45.799999237061</ele>
        <time>2016-06-06T19:24:49.000Z</time>
      </trkpt>
      <trkpt lat="48.8513" lon="2.32658">
        <ele>45.599998474121</ele>
        <time>2016-06-06T19:24:54.000Z</time>
      </trkpt>
      <trkpt lat="48.85119" lon="2.32638">
        <ele>45.599998474121</ele>
        <time>2016-06-06T19:24:58.000Z</time>
      </trkpt>
      <trkpt lat="48.85109" lon="2.32614">
        <ele>45.400001525879</ele>
        <time>2016-06-06T19:25:02.000Z</time>
      </trkpt>
      <trkpt lat="48.85097" lon="2.32585">
        <ele>45.200000762939</ele>
        <time>2016-06-06T19:25:06.000Z</time>
      </trkpt>
      <trkpt lat="48.85087" lon="2.32554">
        <ele>45.599998474121</ele>
        <time>2016-06-06T19:25:10.000Z</time>
      </trkpt>
      <trkpt lat="48.85076" lon="2.32527">
        <ele>46</ele>
        <time>2016-06-06T19:25:14.000Z</time>
      </trkpt>
      <trkpt lat="48.85063" lon="2.325">
        <ele>46.400001525879</ele>
        <time>2016-06-06T19:25:18.000Z</time>
      </trkpt>
      <trkpt lat="48.85051" lon="2.32471">
        <ele>46</ele>
        <time>2016-06-06T19:25:22.000Z</time>
      </trkpt>
      <trkpt lat="48.8504" lon="2.32442">
        <ele>45.400001525879</ele>
        <time>2016-06-06T19:25:25.000Z</time>
      </trkpt>
      <trkpt lat="48.85029" lon="2.32413">
        <ele>45.200000762939</ele>
        <time>2016-06-06T19:25:30.000Z</time>
      </trkpt>
      <trkpt lat="48.85016" lon="2.32386">
        <ele>44.599998474121</ele>
        <time>2016-06-06T19:25:34.000Z</time>
      </trkpt>
      <trkpt lat="48.85004" lon="2.32357">
        <ele>44</ele>
        <time>2016-06-06T19:25:38.000Z</time>
      </trkpt>
      <trkpt lat="48.84996" lon="2.32325">
        <ele>43.799999237061</ele>
        <time>2016-06-06T19:25:41.000Z</time>
      </trkpt>
      <trkpt lat="48.84986" lon="2.323">
        <ele>43.599998474121</ele>
        <time>2016-06-06T19:25:44.000Z</time>
      </trkpt>
      <trkpt lat="48.84976" lon="2.32277">
        <ele>43</ele>
        <time>2016-06-06T19:25:47.000Z</time>
      </trkpt>
      <trkpt lat="48.84965" lon="2.32255">
        <ele>41.799999237061</ele>
        <time>2016-06-06T19:25:49.000Z</time>
      </trkpt>
      <trkpt lat="48.84953" lon="2.32232">
        <ele>41.599998474121</ele>
        <time>2016-06-06T19:25:53.000Z</time>
      </trkpt>
      <trkpt lat="48.84946" lon="2.32216">
        <ele>41.799999237061</ele>
        <time>2016-06-06T19:25:55.000Z</time>
      </trkpt>
      <trkpt lat="48.84935" lon="2.32194">
        <ele>42.200000762939</ele>
        <time>2016-06-06T19:25:57.000Z</time>
      </trkpt>
      <trkpt lat="48.84917" lon="2.32159">
        <ele>43.400001525879</ele>
        <time>2016-06-06T19:26:02.000Z</time>
      </trkpt>
      <trkpt lat="48.84904" lon="2.32132">
        <ele>45.599998474121</ele>
        <time>2016-06-06T19:26:07.000Z</time>
      </trkpt>
      <trkpt lat="48.84895" lon="2.3212">
        <ele>46.799999237061</ele>
        <time>2016-06-06T19:26:08.000Z</time>
      </trkpt>
      <trkpt lat="48.84881" lon="2.32094">
        <ele>48.400001525879</ele>
        <time>2016-06-06T19:26:12.000Z</time>
      </trkpt>
      <trkpt lat="48.84872" lon="2.32081">
        <ele>49.400001525879</ele>
        <time>2016-06-06T19:26:15.000Z</time>
      </trkpt>
      <trkpt lat="48.84856" lon="2.32057">
        <ele>49.799999237061</ele>
        <time>2016-06-06T19:26:18.000Z</time>
      </trkpt>
      <trkpt lat="48.84841" lon="2.32038">
        <ele>49.400001525879</ele>
        <time>2016-06-06T19:26:21.000Z</time>
      </trkpt>
      <trkpt lat="48.84826" lon="2.32022">
        <ele>49</ele>
        <time>2016-06-06T19:26:25.000Z</time>
      </trkpt>
      <trkpt lat="48.84809" lon="2.31991">
        <ele>48</ele>
        <time>2016-06-06T19:26:29.000Z</time>
      </trkpt>
      <trkpt lat="48.84799" lon="2.3197">
        <ele>48</ele>
        <time>2016-06-06T19:26:32.000Z</time>
      </trkpt>
      <trkpt lat="48.84794" lon="2.31956">
        <ele>48</ele>
        <time>2016-06-06T19:26:35.000Z</time>
      </trkpt>
      <trkpt lat="48.84789" lon="2.31934">
        <ele>47.799999237061</ele>
        <time>2016-06-06T19:26:38.000Z</time>
      </trkpt>
      <trkpt lat="48.84777" lon="2.31903">
        <ele>48</ele>
        <time>2016-06-06T19:26:42.000Z</time>
      </trkpt>
      <trkpt lat="48.84768" lon="2.31877">
        <ele>48</ele>
        <time>2016-06-06T19:26:44.000Z</time>
      </trkpt>
      <trkpt lat="48.84758" lon="2.31852">
        <ele>48</ele>
        <time>2016-06-06T19:26:47.000Z</time>
      </trkpt>
      <trkpt lat="48.84747" lon="2.31829">
        <ele>48</ele>
        <time>2016-06-06T19:26:50.000Z</time>
      </trkpt>
      <trkpt lat="48.84737" lon="2.31804">
        <ele>47</ele>
        <time>2016-06-06T19:26:53.000Z</time>
      </trkpt>
      <trkpt lat="48.84728" lon="2.31778">
        <ele>46.599998474121</ele>
        <time>2016-06-06T19:26:56.000Z</time>
      </trkpt>
      <trkpt lat="48.84714" lon="2.31741">
        <ele>46.400001525879</ele>
        <time>2016-06-06T19:27:01.000Z</time>
      </trkpt>
      <trkpt lat="48.84706" lon="2.31715">
        <ele>45.200000762939</ele>
        <time>2016-06-06T19:27:05.000Z</time>
      </trkpt>
      <trkpt lat="48.84704" lon="2.3171">
        <ele>45</ele>
        <time>2016-06-06T19:27:07.000Z</time>
      </trkpt>
      <trkpt lat="48.84701" lon="2.31683">
        <ele>44.200000762939</ele>
        <time>2016-06-06T19:27:13.000Z</time>
      </trkpt>
      <trkpt lat="48.84701" lon="2.31664">
        <ele>44</ele>
        <time>2016-06-06T19:27:18.000Z</time>
      </trkpt>
      <trkpt lat="48.84693" lon="2.31645">
        <ele>42.599998474121</ele>
        <time>2016-06-06T19:27:56.000Z</time>
      </trkpt>
      <trkpt lat="48.84678" lon="2.31624">
        <ele>42</ele>
        <time>2016-06-06T19:28:03.000Z</time>
      </trkpt>
      <trkpt lat="48.84668" lon="2.31597">
        <ele>41.400001525879</ele>
        <time>2016-06-06T19:28:08.000Z</time>
      </trkpt>
      <trkpt lat="48.84656" lon="2.31567">
        <ele>41</ele>
        <time>2016-06-06T19:28:13.000Z</time>
      </trkpt>
      <trkpt lat="48.84645" lon="2.31524">
        <ele>41.599998474121</ele>
        <time>2016-06-06T19:28:17.000Z</time>
      </trkpt>
      <trkpt lat="48.84636" lon="2.31499">
        <ele>42.400001525879</ele>
        <time>2016-06-06T19:28:21.000Z</time>
      </trkpt>
      <trkpt lat="48.84628" lon="2.3147">
        <ele>42</ele>
        <time>2016-06-06T19:28:24.000Z</time>
      </trkpt>
      <trkpt lat="48.84618" lon="2.3144">
        <ele>41.400001525879</ele>
        <time>2016-06-06T19:28:27.000Z</time>
      </trkpt>
      <trkpt lat="48.84607" lon="2.31407">
        <ele>41.200000762939</ele>
        <time>2016-06-06T19:28:30.000Z</time>
      </trkpt>
      <trkpt lat="48.84605" lon="2.31395">
        <ele>41.400001525879</ele>
        <time>2016-06-06T19:28:31.000Z</time>
      </trkpt>
      <trkpt lat="48.84596" lon="2.31361">
        <ele>42</ele>
        <time>2016-06-06T19:28:33.000Z</time>
      </trkpt>
      <trkpt lat="48.84582" lon="2.31331">
        <ele>42.200000762939</ele>
        <time>2016-06-06T19:28:37.000Z</time>
      </trkpt>
      <trkpt lat="48.84573" lon="2.31299">
        <ele>42.599998474121</ele>
        <time>2016-06-06T19:28:40.000Z</time>
      </trkpt>
      <trkpt lat="48.84565" lon="2.31265">
        <ele>42.799999237061</ele>
        <time>2016-06-06T19:28:43.000Z</time>
      </trkpt>
      <trkpt lat="48.84563" lon="2.31255">
        <ele>42.799999237061</ele>
        <time>2016-06-06T19:28:44.000Z</time>
      </trkpt>
      <trkpt lat="48.84554" lon="2.31226">
        <ele>42.799999237061</ele>
        <time>2016-06-06T19:28:47.000Z</time>
      </trkpt>
      <trkpt lat="48.84546" lon="2.31201">
        <ele>42.599998474121</ele>
        <time>2016-06-06T19:28:50.000Z</time>
      </trkpt>
      <trkpt lat="48.84535" lon="2.31179">
        <ele>42.400001525879</ele>
        <time>2016-06-06T19:28:55.000Z</time>
      </trkpt>
      <trkpt lat="48.84535" lon="2.31168">
        <ele>42.200000762939</ele>
        <time>2016-06-06T19:29:15.000Z</time>
      </trkpt>
      <trkpt lat="48.84527" lon="2.31139">
        <ele>42.599998474121</ele>
        <time>2016-06-06T19:29:20.000Z</time>
      </trkpt>
      <trkpt lat="48.8452" lon="2.31111">
        <ele>43.200000762939</ele>
        <time>2016-06-06T19:29:25.000Z</time>
      </trkpt>
      <trkpt lat="48.84517" lon="2.31098">
        <ele>43.599998474121</ele>
        <time>2016-06-06T19:29:28.000Z</time>
      </trkpt>
      <trkpt lat="48.84506" lon="2.31071">
        <ele>44.200000762939</ele>
        <time>2016-06-06T19:29:35.000Z</time>
      </trkpt>
      <trkpt lat="48.84494" lon="2.31044">
        <ele>44.400001525879</ele>
        <time>2016-06-06T19:29:41.000Z</time>
      </trkpt>
      <trkpt lat="48.84487" lon="2.31019">
        <ele>44.400001525879</ele>
        <time>2016-06-06T19:29:45.000Z</time>
      </trkpt>
      <trkpt lat="48.84478" lon="2.30987">
        <ele>44.599998474121</ele>
        <time>2016-06-06T19:29:49.000Z</time>
      </trkpt>
      <trkpt lat="48.8447" lon="2.30961">
        <ele>44.599998474121</ele>
        <time>2016-06-06T19:29:52.000Z</time>
      </trkpt>
      <trkpt lat="48.84463" lon="2.30935">
        <ele>44.799999237061</ele>
        <time>2016-06-06T19:29:55.000Z</time>
      </trkpt>
      <trkpt lat="48.84456" lon="2.30908">
        <ele>45</ele>
        <time>2016-06-06T19:29:58.000Z</time>
      </trkpt>
      <trkpt lat="48.84448" lon="2.30882">
        <ele>46</ele>
        <time>2016-06-06T19:30:01.000Z</time>
      </trkpt>
      <trkpt lat="48.84441" lon="2.30862">
        <ele>46.799999237061</ele>
        <time>2016-06-06T19:30:03.000Z</time>
      </trkpt>
      <trkpt lat="48.84432" lon="2.30833">
        <ele>48</ele>
        <time>2016-06-06T19:30:06.000Z</time>
      </trkpt>
      <trkpt lat="48.84424" lon="2.30802">
        <ele>47.599998474121</ele>
        <time>2016-06-06T19:30:08.000Z</time>
      </trkpt>
      <trkpt lat="48.84415" lon="2.30772">
        <ele>47.400001525879</ele>
        <time>2016-06-06T19:30:12.000Z</time>
      </trkpt>
      <trkpt lat="48.84405" lon="2.30742">
        <ele>46.799999237061</ele>
        <time>2016-06-06T19:30:15.000Z</time>
      </trkpt>
      <trkpt lat="48.84397" lon="2.3071">
        <ele>46.200000762939</ele>
        <time>2016-06-06T19:30:17.000Z</time>
      </trkpt>
      <trkpt lat="48.84388" lon="2.30684">
        <ele>45.599998474121</ele>
        <time>2016-06-06T19:30:21.000Z</time>
      </trkpt>
      <trkpt lat="48.84381" lon="2.30665">
        <ele>45</ele>
        <time>2016-06-06T19:30:24.000Z</time>
      </trkpt>
      <trkpt lat="48.84379" lon="2.30662">
        <ele>45</ele>
        <time>2016-06-06T19:30:26.000Z</time>
      </trkpt>
      <trkpt lat="48.84374" lon="2.30653">
        <ele>44.799999237061</ele>
        <time>2016-06-06T19:30:29.000Z</time>
      </trkpt>
      <trkpt lat="48.8437" lon="2.30639">
        <ele>44.799999237061</ele>
        <time>2016-06-06T19:30:33.000Z</time>
      </trkpt>
      <trkpt lat="48.84368" lon="2.30631">
        <ele>44.599998474121</ele>
        <time>2016-06-06T19:30:35.000Z</time>
      </trkpt>
      <trkpt lat="48.84361" lon="2.30603">
        <ele>44.200000762939</ele>
        <time>2016-06-06T19:30:40.000Z</time>
      </trkpt>
      <trkpt lat="48.84355" lon="2.30574">
        <ele>44</ele>
        <time>2016-06-06T19:30:44.000Z</time>
      </trkpt>
      <trkpt lat="48.84351" lon="2.3056">
        <ele>44.200000762939</ele>
        <time>2016-06-06T19:30:46.000Z</time>
      </trkpt>
      <trkpt lat="48.84343" lon="2.3053">
        <ele>44.400001525879</ele>
        <time>2016-06-06T19:30:50.000Z</time>
      </trkpt>
      <trkpt lat="48.84339" lon="2.30513">
        <ele>44.599998474121</ele>
        <time>2016-06-06T19:30:52.000Z</time>
      </trkpt>
      <trkpt lat="48.84333" lon="2.30496">
        <ele>44.799999237061</ele>
        <time>2016-06-06T19:30:54.000Z</time>
      </trkpt>
      <trkpt lat="48.84326" lon="2.30473">
        <ele>45</ele>
        <time>2016-06-06T19:30:57.000Z</time>
      </trkpt>
      <trkpt lat="48.84319" lon="2.30443">
        <ele>44.799999237061</ele>
        <time>2016-06-06T19:31:01.000Z</time>
      </trkpt>
      <trkpt lat="48.8431" lon="2.30412">
        <ele>44.599998474121</ele>
        <time>2016-06-06T19:31:05.000Z</time>
      </trkpt>
      <trkpt lat="48.84302" lon="2.30383">
        <ele>44.200000762939</ele>
        <time>2016-06-06T19:31:08.000Z</time>
      </trkpt>
      <trkpt lat="48.84299" lon="2.30373">
        <ele>44.200000762939</ele>
        <time>2016-06-06T19:31:09.000Z</time>
      </trkpt>
      <trkpt lat="48.84291" lon="2.30347">
        <ele>44</ele>
        <time>2016-06-06T19:31:11.000Z</time>
      </trkpt>
      <trkpt lat="48.84283" lon="2.30322">
        <ele>44.200000762939</ele>
        <time>2016-06-06T19:31:15.000Z</time>
      </trkpt>
      <trkpt lat="48.84276" lon="2.30304">
        <ele>44.599998474121</ele>
        <time>2016-06-06T19:31:18.000Z</time>
      </trkpt>
      <trkpt lat="48.84276" lon="2.30287">
        <ele>45</ele>
        <time>2016-06-06T19:31:21.000Z</time>
      </trkpt>
      <trkpt lat="48.84271" lon="2.30271">
        <ele>45.400001525879</ele>
        <time>2016-06-06T19:31:26.000Z</time>
      </trkpt>
      <trkpt lat="48.84261" lon="2.30247">
        <ele>46.200000762939</ele>
        <time>2016-06-06T19:31:32.000Z</time>
      </trkpt>
      <trkpt lat="48.84255" lon="2.30231">
        <ele>46.799999237061</ele>
        <time>2016-06-06T19:31:35.000Z</time>
      </trkpt>
      <trkpt lat="48.84244" lon="2.30204">
        <ele>47.799999237061</ele>
        <time>2016-06-06T19:31:39.000Z</time>
      </trkpt>
      <trkpt lat="48.84242" lon="2.30197">
        <ele>48.200000762939</ele>
        <time>2016-06-06T19:31:40.000Z</time>
      </trkpt>
      <trkpt lat="48.84238" lon="2.30181">
        <ele>48.799999237061</ele>
        <time>2016-06-06T19:31:42.000Z</time>
      </trkpt>
      <trkpt lat="48.8423" lon="2.30154">
        <ele>49.200000762939</ele>
        <time>2016-06-06T19:31:45.000Z</time>
      </trkpt>
      <trkpt lat="48.84221" lon="2.30123">
        <ele>48.200000762939</ele>
        <time>2016-06-06T19:31:48.000Z</time>
      </trkpt>
      <trkpt lat="48.84211" lon="2.30095">
        <ele>47.400001525879</ele>
        <time>2016-06-06T19:31:51.000Z</time>
      </trkpt>
      <trkpt lat="48.84204" lon="2.30075">
        <ele>46.799999237061</ele>
        <time>2016-06-06T19:31:53.000Z</time>
      </trkpt>
      <trkpt lat="48.84197" lon="2.30046">
        <ele>46.200000762939</ele>
        <time>2016-06-06T19:31:56.000Z</time>
      </trkpt>
      <trkpt lat="48.8419" lon="2.3002">
        <ele>45.599998474121</ele>
        <time>2016-06-06T19:31:59.000Z</time>
      </trkpt>
      <trkpt lat="48.84182" lon="2.29995">
        <ele>45.200000762939</ele>
        <time>2016-06-06T19:32:02.000Z</time>
      </trkpt>
      <trkpt lat="48.84178" lon="2.29983">
        <ele>45</ele>
        <time>2016-06-06T19:32:04.000Z</time>
      </trkpt>
      <trkpt lat="48.84169" lon="2.29963">
        <ele>44.599998474121</ele>
        <time>2016-06-06T19:32:08.000Z</time>
      </trkpt>
      <trkpt lat="48.84164" lon="2.29942">
        <ele>44.200000762939</ele>
        <time>2016-06-06T19:32:12.000Z</time>
      </trkpt>
      <trkpt lat="48.84162" lon="2.29919">
        <ele>43.799999237061</ele>
        <time>2016-06-06T19:32:16.000Z</time>
      </trkpt>
      <trkpt lat="48.84162" lon="2.29912">
        <ele>43.599998474121</ele>
        <time>2016-06-06T19:32:18.000Z</time>
      </trkpt>
      <trkpt lat="48.84165" lon="2.29906">
        <ele>43.400001525879</ele>
        <time>2016-06-06T19:32:22.000Z</time>
      </trkpt>
      <trkpt lat="48.84161" lon="2.29893">
        <ele>43.200000762939</ele>
        <time>2016-06-06T19:32:32.000Z</time>
      </trkpt>
      <trkpt lat="48.84153" lon="2.29862">
        <ele>43.200000762939</ele>
        <time>2016-06-06T19:32:37.000Z</time>
      </trkpt>
      <trkpt lat="48.84142" lon="2.29843">
        <ele>43.200000762939</ele>
        <time>2016-06-06T19:32:39.000Z</time>
      </trkpt>
      <trkpt lat="48.84132" lon="2.29808">
        <ele>43.400001525879</ele>
        <time>2016-06-06T19:32:42.000Z</time>
      </trkpt>
      <trkpt lat="48.8412" lon="2.29773">
        <ele>43.200000762939</ele>
        <time>2016-06-06T19:32:45.000Z</time>
      </trkpt>
      <trkpt lat="48.84111" lon="2.29747">
        <ele>43</ele>
        <time>2016-06-06T19:32:47.000Z</time>
      </trkpt>
      <trkpt lat="48.841" lon="2.2971">
        <ele>43.599998474121</ele>
        <time>2016-06-06T19:32:50.000Z</time>
      </trkpt>
      <trkpt lat="48.84092" lon="2.29686">
        <ele>44</ele>
        <time>2016-06-06T19:32:52.000Z</time>
      </trkpt>
      <trkpt lat="48.8408" lon="2.2965">
        <ele>43.200000762939</ele>
        <time>2016-06-06T19:32:55.000Z</time>
      </trkpt>
      <trkpt lat="48.84069" lon="2.29615">
        <ele>41.400001525879</ele>
        <time>2016-06-06T19:32:58.000Z</time>
      </trkpt>
      <trkpt lat="48.8406" lon="2.29585">
        <ele>40.200000762939</ele>
        <time>2016-06-06T19:33:01.000Z</time>
      </trkpt>
      <trkpt lat="48.84052" lon="2.29559">
        <ele>39.799999237061</ele>
        <time>2016-06-06T19:33:04.000Z</time>
      </trkpt>
      <trkpt lat="48.84042" lon="2.29534">
        <ele>39.200000762939</ele>
        <time>2016-06-06T19:33:07.000Z</time>
      </trkpt>
      <trkpt lat="48.84031" lon="2.29501">
        <ele>38.400001525879</ele>
        <time>2016-06-06T19:33:11.000Z</time>
      </trkpt>
      <trkpt lat="48.84027" lon="2.29493">
        <ele>38.200000762939</ele>
        <time>2016-06-06T19:33:12.000Z</time>
      </trkpt>
      <trkpt lat="48.84015" lon="2.29467">
        <ele>37.799999237061</ele>
        <time>2016-06-06T19:33:15.000Z</time>
      </trkpt>
      <trkpt lat="48.84005" lon="2.29436">
        <ele>37.599998474121</ele>
        <time>2016-06-06T19:33:18.000Z</time>
      </trkpt>
      <trkpt lat="48.83995" lon="2.29408">
        <ele>37.599998474121</ele>
        <time>2016-06-06T19:33:21.000Z</time>
      </trkpt>
      <trkpt lat="48.83984" lon="2.29382">
        <ele>39</ele>
        <time>2016-06-06T19:33:24.000Z</time>
      </trkpt>
      <trkpt lat="48.83974" lon="2.29355">
        <ele>40</ele>
        <time>2016-06-06T19:33:27.000Z</time>
      </trkpt>
      <trkpt lat="48.83965" lon="2.29329">
        <ele>41</ele>
        <time>2016-06-06T19:33:30.000Z</time>
      </trkpt>
      <trkpt lat="48.83963" lon="2.29321">
        <ele>41.200000762939</ele>
        <time>2016-06-06T19:33:31.000Z</time>
      </trkpt>
      <trkpt lat="48.83954" lon="2.29292">
        <ele>42</ele>
        <time>2016-06-06T19:33:35.000Z</time>
      </trkpt>
      <trkpt lat="48.83949" lon="2.29278">
        <ele>42.200000762939</ele>
        <time>2016-06-06T19:33:37.000Z</time>
      </trkpt>
      <trkpt lat="48.83939" lon="2.29253">
        <ele>42.799999237061</ele>
        <time>2016-06-06T19:33:41.000Z</time>
      </trkpt>
      <trkpt lat="48.83937" lon="2.2924">
        <ele>42.799999237061</ele>
        <time>2016-06-06T19:33:43.000Z</time>
      </trkpt>
      <trkpt lat="48.83933" lon="2.29223">
        <ele>42.200000762939</ele>
        <time>2016-06-06T19:33:46.000Z</time>
      </trkpt>
      <trkpt lat="48.83932" lon="2.29214">
        <ele>42</ele>
        <time>2016-06-06T19:33:48.000Z</time>
      </trkpt>
      <trkpt lat="48.83933" lon="2.29205">
        <ele>41.599998474121</ele>
        <time>2016-06-06T19:33:52.000Z</time>
      </trkpt>
      <trkpt lat="48.83933" lon="2.29204">
        <ele>41.599998474121</ele>
        <time>2016-06-06T19:33:53.000Z</time>
      </trkpt>
      <trkpt lat="48.83943" lon="2.29203">
        <ele>41.400001525879</ele>
        <time>2016-06-06T19:34:15.000Z</time>
      </trkpt>
      <trkpt lat="48.8394" lon="2.29199">
        <ele>41.200000762939</ele>
        <time>2016-06-06T19:34:37.000Z</time>
      </trkpt>
      <trkpt lat="48.83931" lon="2.29176">
        <ele>40.599998474121</ele>
        <time>2016-06-06T19:34:50.000Z</time>
      </trkpt>
      <trkpt lat="48.83923" lon="2.29145">
        <ele>40.200000762939</ele>
        <time>2016-06-06T19:34:55.000Z</time>
      </trkpt>
      <trkpt lat="48.83913" lon="2.29113">
        <ele>40</ele>
        <time>2016-06-06T19:34:59.000Z</time>
      </trkpt>
      <trkpt lat="48.83905" lon="2.29086">
        <ele>39.799999237061</ele>
        <time>2016-06-06T19:35:02.000Z</time>
      </trkpt>
      <trkpt lat="48.83899" lon="2.2906">
        <ele>39.799999237061</ele>
        <time>2016-06-06T19:35:05.000Z</time>
      </trkpt>
      <trkpt lat="48.83891" lon="2.29034">
        <ele>39.599998474121</ele>
        <time>2016-06-06T19:35:08.000Z</time>
      </trkpt>
      <trkpt lat="48.83883" lon="2.29008">
        <ele>40.200000762939</ele>
        <time>2016-06-06T19:35:11.000Z</time>
      </trkpt>
      <trkpt lat="48.83874" lon="2.28983">
        <ele>40.599998474121</ele>
        <time>2016-06-06T19:35:14.000Z</time>
      </trkpt>
      <trkpt lat="48.83864" lon="2.28959">
        <ele>40.599998474121</ele>
        <time>2016-06-06T19:35:17.000Z</time>
      </trkpt>
      <trkpt lat="48.83855" lon="2.28931">
        <ele>40.799999237061</ele>
        <time>2016-06-06T19:35:21.000Z</time>
      </trkpt>
      <trkpt lat="48.83847" lon="2.28905">
        <ele>40.799999237061</ele>
        <time>2016-06-06T19:35:25.000Z</time>
      </trkpt>
      <trkpt lat="48.8384" lon="2.28878">
        <ele>40.799999237061</ele>
        <time>2016-06-06T19:35:29.000Z</time>
      </trkpt>
      <trkpt lat="48.83829" lon="2.28848">
        <ele>40.799999237061</ele>
        <time>2016-06-06T19:35:33.000Z</time>
      </trkpt>
      <trkpt lat="48.83821" lon="2.28817">
        <ele>40.200000762939</ele>
        <time>2016-06-06T19:35:37.000Z</time>
      </trkpt>
      <trkpt lat="48.83818" lon="2.28796">
        <ele>39</ele>
        <time>2016-06-06T19:35:39.000Z</time>
      </trkpt>
      <trkpt lat="48.83812" lon="2.28762">
        <ele>37.400001525879</ele>
        <time>2016-06-06T19:35:43.000Z</time>
      </trkpt>
      <trkpt lat="48.83805" lon="2.28732">
        <ele>37</ele>
        <time>2016-06-06T19:35:46.000Z</time>
      </trkpt>
      <trkpt lat="48.83802" lon="2.28722">
        <ele>37.400001525879</ele>
        <time>2016-06-06T19:35:47.000Z</time>
      </trkpt>
      <trkpt lat="48.83794" lon="2.28691">
        <ele>38</ele>
        <time>2016-06-06T19:35:50.000Z</time>
      </trkpt>
      <trkpt lat="48.83784" lon="2.28661">
        <ele>38.200000762939</ele>
        <time>2016-06-06T19:35:53.000Z</time>
      </trkpt>
      <trkpt lat="48.83776" lon="2.28627">
        <ele>37.200000762939</ele>
        <time>2016-06-06T19:35:56.000Z</time>
      </trkpt>
      <trkpt lat="48.83769" lon="2.28594">
        <ele>36.400001525879</ele>
        <time>2016-06-06T19:35:59.000Z</time>
      </trkpt>
      <trkpt lat="48.83767" lon="2.28584">
        <ele>36</ele>
        <time>2016-06-06T19:36:00.000Z</time>
      </trkpt>
      <trkpt lat="48.83762" lon="2.28565">
        <ele>36</ele>
        <time>2016-06-06T19:36:02.000Z</time>
      </trkpt>
      <trkpt lat="48.83752" lon="2.28531">
        <ele>36</ele>
        <time>2016-06-06T19:36:06.000Z</time>
      </trkpt>
      <trkpt lat="48.83741" lon="2.285">
        <ele>35.799999237061</ele>
        <time>2016-06-06T19:36:10.000Z</time>
      </trkpt>
      <trkpt lat="48.8373" lon="2.28467">
        <ele>37.799999237061</ele>
        <time>2016-06-06T19:36:14.000Z</time>
      </trkpt>
      <trkpt lat="48.83721" lon="2.28442">
        <ele>39.400001525879</ele>
        <time>2016-06-06T19:36:17.000Z</time>
      </trkpt>
      <trkpt lat="48.8371" lon="2.28417">
        <ele>40.799999237061</ele>
        <time>2016-06-06T19:36:20.000Z</time>
      </trkpt>
      <trkpt lat="48.83698" lon="2.2839">
        <ele>41.599998474121</ele>
        <time>2016-06-06T19:36:24.000Z</time>
      </trkpt>
      <trkpt lat="48.83693" lon="2.28381">
        <ele>41.799999237061</ele>
        <time>2016-06-06T19:36:26.000Z</time>
      </trkpt>
      <trkpt lat="48.83685" lon="2.28355">
        <ele>41.799999237061</ele>
        <time>2016-06-06T19:36:31.000Z</time>
      </trkpt>
      <trkpt lat="48.83677" lon="2.28336">
        <ele>41.599998474121</ele>
        <time>2016-06-06T19:36:34.000Z</time>
      </trkpt>
      <trkpt lat="48.83667" lon="2.28312">
        <ele>41.599998474121</ele>
        <time>2016-06-06T19:36:37.000Z</time>
      </trkpt>
      <trkpt lat="48.83657" lon="2.28288">
        <ele>42</ele>
        <time>2016-06-06T19:36:40.000Z</time>
      </trkpt>
      <trkpt lat="48.83647" lon="2.28263">
        <ele>42.799999237061</ele>
        <time>2016-06-06T19:36:43.000Z</time>
      </trkpt>
      <trkpt lat="48.83639" lon="2.28236">
        <ele>42.799999237061</ele>
        <time>2016-06-06T19:36:46.000Z</time>
      </trkpt>
      <trkpt lat="48.83631" lon="2.28209">
        <ele>41.599998474121</ele>
        <time>2016-06-06T19:36:49.000Z</time>
      </trkpt>
      <trkpt lat="48.8362" lon="2.28179">
        <ele>40.200000762939</ele>
        <time>2016-06-06T19:36:53.000Z</time>
      </trkpt>
      <trkpt lat="48.83617" lon="2.28155">
        <ele>39.799999237061</ele>
        <time>2016-06-06T19:36:57.000Z</time>
      </trkpt>
      <trkpt lat="48.83617" lon="2.28152">
        <ele>39.799999237061</ele>
        <time>2016-06-06T19:36:58.000Z</time>
      </trkpt>
      <trkpt lat="48.83616" lon="2.28147">
        <ele>39.599998474121</ele>
        <time>2016-06-06T19:37:00.000Z</time>
      </trkpt>
      <trkpt lat="48.83628" lon="2.28141">
        <ele>40.599998474121</ele>
        <time>2016-06-06T19:37:16.000Z</time>
      </trkpt>
      <trkpt lat="48.83625" lon="2.28143">
        <ele>40.400001525879</ele>
        <time>2016-06-06T19:37:26.000Z</time>
      </trkpt>
      <trkpt lat="48.83611" lon="2.28127">
        <ele>38.599998474121</ele>
        <time>2016-06-06T19:37:45.000Z</time>
      </trkpt>
      <trkpt lat="48.83595" lon="2.28117">
        <ele>37.599998474121</ele>
        <time>2016-06-06T19:37:50.000Z</time>
      </trkpt>
      <trkpt lat="48.83572" lon="2.28117">
        <ele>37</ele>
        <time>2016-06-06T19:37:54.000Z</time>
      </trkpt>
      <trkpt lat="48.83554" lon="2.2811">
        <ele>36.400001525879</ele>
        <time>2016-06-06T19:37:59.000Z</time>
      </trkpt>
      <trkpt lat="48.83536" lon="2.28105">
        <ele>35.599998474121</ele>
        <time>2016-06-06T19:38:08.000Z</time>
      </trkpt>
      <trkpt lat="48.83522" lon="2.28125">
        <ele>34.400001525879</ele>
        <time>2016-06-06T19:38:16.000Z</time>
      </trkpt>
      <trkpt lat="48.83515" lon="2.28152">
        <ele>34.200000762939</ele>
        <time>2016-06-06T19:38:21.000Z</time>
      </trkpt>
      <trkpt lat="48.83508" lon="2.28178">
        <ele>34.400001525879</ele>
        <time>2016-06-06T19:38:25.000Z</time>
      </trkpt>
      <trkpt lat="48.83501" lon="2.28205">
        <ele>35</ele>
        <time>2016-06-06T19:38:29.000Z</time>
      </trkpt>
      <trkpt lat="48.83492" lon="2.28233">
        <ele>35.599998474121</ele>
        <time>2016-06-06T19:38:33.000Z</time>
      </trkpt>
      <trkpt lat="48.83482" lon="2.28261">
        <ele>37.200000762939</ele>
        <time>2016-06-06T19:38:37.000Z</time>
      </trkpt>
      <trkpt lat="48.83472" lon="2.28289">
        <ele>38.799999237061</ele>
        <time>2016-06-06T19:38:41.000Z</time>
      </trkpt>
      <trkpt lat="48.83462" lon="2.28318">
        <ele>38.599998474121</ele>
        <time>2016-06-06T19:38:45.000Z</time>
      </trkpt>
      <trkpt lat="48.83453" lon="2.28344">
        <ele>37.599998474121</ele>
        <time>2016-06-06T19:38:49.000Z</time>
      </trkpt>
      <trkpt lat="48.83443" lon="2.28371">
        <ele>37.200000762939</ele>
        <time>2016-06-06T19:38:54.000Z</time>
      </trkpt>
      <trkpt lat="48.83436" lon="2.28387">
        <ele>37.200000762939</ele>
        <time>2016-06-06T19:38:58.000Z</time>
      </trkpt>
      <trkpt lat="48.83428" lon="2.28395">
        <ele>37.799999237061</ele>
        <time>2016-06-06T19:39:02.000Z</time>
      </trkpt>
      <trkpt lat="48.83427" lon="2.28396">
        <ele>37.799999237061</ele>
        <time>2016-06-06T19:39:03.000Z</time>
      </trkpt>
      <trkpt lat="48.83425" lon="2.28392">
        <ele>38</ele>
        <time>2016-06-06T19:39:07.000Z</time>
      </trkpt>
      <trkpt lat="48.83419" lon="2.28405">
        <ele>38.599998474121</ele>
        <time>2016-06-06T19:39:23.000Z</time>
      </trkpt>
      <trkpt lat="48.83412" lon="2.28436">
        <ele>38.799999237061</ele>
        <time>2016-06-06T19:39:30.000Z</time>
      </trkpt>
      <trkpt lat="48.83411" lon="2.28441">
        <ele>38.799999237061</ele>
        <time>2016-06-06T19:39:31.000Z</time>
      </trkpt>
      <trkpt lat="48.83409" lon="2.28447">
        <ele>38.799999237061</ele>
        <time>2016-06-06T19:39:32.000Z</time>
      </trkpt>
      <trkpt lat="48.834" lon="2.28473">
        <ele>38.200000762939</ele>
        <time>2016-06-06T19:39:36.000Z</time>
      </trkpt>
      <trkpt lat="48.83391" lon="2.28499">
        <ele>36.799999237061</ele>
        <time>2016-06-06T19:39:40.000Z</time>
      </trkpt>
      <trkpt lat="48.83382" lon="2.28529">
        <ele>38</ele>
        <time>2016-06-06T19:39:44.000Z</time>
      </trkpt>
      <trkpt lat="48.83372" lon="2.28557">
        <ele>38.599998474121</ele>
        <time>2016-06-06T19:39:48.000Z</time>
      </trkpt>
      <trkpt lat="48.83362" lon="2.28587">
        <ele>39</ele>
        <time>2016-06-06T19:39:52.000Z</time>
      </trkpt>
      <trkpt lat="48.83353" lon="2.28617">
        <ele>41.799999237061</ele>
        <time>2016-06-06T19:39:56.000Z</time>
      </trkpt>
      <trkpt lat="48.83342" lon="2.28642">
        <ele>44</ele>
        <time>2016-06-06T19:40:00.000Z</time>
      </trkpt>
      <trkpt lat="48.83337" lon="2.28652">
        <ele>44.200000762939</ele>
        <time>2016-06-06T19:40:02.000Z</time>
      </trkpt>
      <trkpt lat="48.83325" lon="2.28679">
        <ele>43</ele>
        <time>2016-06-06T19:40:07.000Z</time>
      </trkpt>
      <trkpt lat="48.83314" lon="2.28704">
        <ele>42</ele>
        <time>2016-06-06T19:40:12.000Z</time>
      </trkpt>
      <trkpt lat="48.8331" lon="2.28712">
        <ele>42</ele>
        <time>2016-06-06T19:40:14.000Z</time>
      </trkpt>
      <trkpt lat="48.83301" lon="2.28721">
        <ele>41.799999237061</ele>
        <time>2016-06-06T19:40:18.000Z</time>
      </trkpt>
      <trkpt lat="48.83284" lon="2.28731">
        <ele>41.200000762939</ele>
        <time>2016-06-06T19:40:26.000Z</time>
      </trkpt>
      <trkpt lat="48.83265" lon="2.28741">
        <ele>40.799999237061</ele>
        <time>2016-06-06T19:40:36.000Z</time>
      </trkpt>
      <trkpt lat="48.83249" lon="2.28752">
        <ele>41.200000762939</ele>
        <time>2016-06-06T19:40:43.000Z</time>
      </trkpt>
      <trkpt lat="48.8323" lon="2.28756">
        <ele>41.200000762939</ele>
        <time>2016-06-06T19:40:52.000Z</time>
      </trkpt>
      <trkpt lat="48.83229" lon="2.28756">
        <ele>41.200000762939</ele>
        <time>2016-06-06T19:40:53.000Z</time>
      </trkpt>
      <trkpt lat="48.83228" lon="2.28756">
        <ele>41.200000762939</ele>
        <time>2016-06-06T19:42:27.000Z</time>
      </trkpt>
      <trkpt lat="48.83224" lon="2.28783">
        <ele>41.799999237061</ele>
        <time>2016-06-06T19:42:39.000Z</time>
      </trkpt>
      <trkpt lat="48.83224" lon="2.28789">
        <ele>42</ele>
        <time>2016-06-06T19:42:45.000Z</time>
      </trkpt>
      <trkpt lat="48.83226" lon="2.2881">
        <ele>42.599998474121</ele>
        <time>2016-06-06T19:43:11.000Z</time>
      </trkpt>
      <trkpt lat="48.83227" lon="2.28841">
        <ele>43.599998474121</ele>
        <time>2016-06-06T19:43:17.000Z</time>
      </trkpt>
      <trkpt lat="48.83228" lon="2.28869">
        <ele>44.799999237061</ele>
        <time>2016-06-06T19:43:22.000Z</time>
      </trkpt>
      <trkpt lat="48.83224" lon="2.28897">
        <ele>46.599998474121</ele>
        <time>2016-06-06T19:43:28.000Z</time>
      </trkpt>
      <trkpt lat="48.83217" lon="2.28922">
        <ele>48.200000762939</ele>
        <time>2016-06-06T19:43:34.000Z</time>
      </trkpt>
      <trkpt lat="48.83206" lon="2.28951">
        <ele>50.599998474121</ele>
        <time>2016-06-06T19:43:40.000Z</time>
      </trkpt>
      <trkpt lat="48.83201" lon="2.28961">
        <ele>51.599998474121</ele>
        <time>2016-06-06T19:43:42.000Z</time>
      </trkpt>
      <trkpt lat="48.83191" lon="2.28985">
        <ele>54</ele>
        <time>2016-06-06T19:43:46.000Z</time>
      </trkpt>
      <trkpt lat="48.83183" lon="2.29003">
        <ele>54.799999237061</ele>
        <time>2016-06-06T19:43:49.000Z</time>
      </trkpt>
      <trkpt lat="48.83171" lon="2.29028">
        <ele>55</ele>
        <time>2016-06-06T19:43:53.000Z</time>
      </trkpt>
      <trkpt lat="48.83163" lon="2.29046">
        <ele>55</ele>
        <time>2016-06-06T19:43:56.000Z</time>
      </trkpt>
      <trkpt lat="48.83156" lon="2.29059">
        <ele>55.200000762939</ele>
        <time>2016-06-06T19:43:58.000Z</time>
      </trkpt>
      <trkpt lat="48.83152" lon="2.29073">
        <ele>55.799999237061</ele>
        <time>2016-06-06T19:44:00.000Z</time>
      </trkpt>
      <trkpt lat="48.83142" lon="2.291">
        <ele>56.599998474121</ele>
        <time>2016-06-06T19:44:04.000Z</time>
      </trkpt>
      <trkpt lat="48.83139" lon="2.29107">
        <ele>56.799999237061</ele>
        <time>2016-06-06T19:44:05.000Z</time>
      </trkpt>
      <trkpt lat="48.83133" lon="2.29119">
        <ele>57</ele>
        <time>2016-06-06T19:44:07.000Z</time>
      </trkpt>
      <trkpt lat="48.83123" lon="2.29145">
        <ele>57.799999237061</ele>
        <time>2016-06-06T19:44:11.000Z</time>
      </trkpt>
      <trkpt lat="48.8312" lon="2.29152">
        <ele>58</ele>
        <time>2016-06-06T19:44:12.000Z</time>
      </trkpt>
      <trkpt lat="48.83109" lon="2.29177">
        <ele>59.200000762939</ele>
        <time>2016-06-06T19:44:16.000Z</time>
      </trkpt>
      <trkpt lat="48.83104" lon="2.29189">
        <ele>60.599998474121</ele>
        <time>2016-06-06T19:44:18.000Z</time>
      </trkpt>
      <trkpt lat="48.83092" lon="2.29213">
        <ele>63.200000762939</ele>
        <time>2016-06-06T19:44:23.000Z</time>
      </trkpt>
      <trkpt lat="48.83082" lon="2.29237">
        <ele>65.400001525879</ele>
        <time>2016-06-06T19:44:30.000Z</time>
      </trkpt>
      <trkpt lat="48.83074" lon="2.29248">
        <ele>66</ele>
        <time>2016-06-06T19:44:36.000Z</time>
      </trkpt>
      <trkpt lat="48.83078" lon="2.29247">
        <ele>66</ele>
        <time>2016-06-06T19:46:11.000Z</time>
      </trkpt>
      <trkpt lat="48.83071" lon="2.29277">
        <ele>66.800003051758</ele>
        <time>2016-06-06T19:46:16.000Z</time>
      </trkpt>
      <trkpt lat="48.83063" lon="2.29303">
        <ele>67.199996948242</ele>
        <time>2016-06-06T19:46:19.000Z</time>
      </trkpt>
      <trkpt lat="48.83061" lon="2.29313">
        <ele>67.199996948242</ele>
        <time>2016-06-06T19:46:20.000Z</time>
      </trkpt>
      <trkpt lat="48.83054" lon="2.29342">
        <ele>66.800003051758</ele>
        <time>2016-06-06T19:46:23.000Z</time>
      </trkpt>
      <trkpt lat="48.83051" lon="2.29352">
        <ele>66.199996948242</ele>
        <time>2016-06-06T19:46:24.000Z</time>
      </trkpt>
      <trkpt lat="48.83041" lon="2.29381">
        <ele>64.800003051758</ele>
        <time>2016-06-06T19:46:27.000Z</time>
      </trkpt>
      <trkpt lat="48.83034" lon="2.294">
        <ele>63.799999237061</ele>
        <time>2016-06-06T19:46:29.000Z</time>
      </trkpt>
      <trkpt lat="48.83025" lon="2.29428">
        <ele>63.400001525879</ele>
        <time>2016-06-06T19:46:32.000Z</time>
      </trkpt>
      <trkpt lat="48.83018" lon="2.29454">
        <ele>64</ele>
        <time>2016-06-06T19:46:35.000Z</time>
      </trkpt>
      <trkpt lat="48.83007" lon="2.29485">
        <ele>64.800003051758</ele>
        <time>2016-06-06T19:46:39.000Z</time>
      </trkpt>
      <trkpt lat="48.82998" lon="2.29513">
        <ele>67.199996948242</ele>
        <time>2016-06-06T19:46:43.000Z</time>
      </trkpt>
      <trkpt lat="48.82988" lon="2.29541">
        <ele>69.199996948242</ele>
        <time>2016-06-06T19:46:48.000Z</time>
      </trkpt>
      <trkpt lat="48.82979" lon="2.29564">
        <ele>70.800003051758</ele>
        <time>2016-06-06T19:46:54.000Z</time>
      </trkpt>
      <trkpt lat="48.82971" lon="2.2958">
        <ele>72</ele>
        <time>2016-06-06T19:47:24.000Z</time>
      </trkpt>
      <trkpt lat="48.82965" lon="2.29611">
        <ele>73.400001525879</ele>
        <time>2016-06-06T19:47:30.000Z</time>
      </trkpt>
      <trkpt lat="48.8296" lon="2.29638">
        <ele>72</ele>
        <time>2016-06-06T19:47:34.000Z</time>
      </trkpt>
      <trkpt lat="48.82954" lon="2.29666">
        <ele>70.599998474121</ele>
        <time>2016-06-06T19:47:38.000Z</time>
      </trkpt>
      <trkpt lat="48.82949" lon="2.29697">
        <ele>71</ele>
        <time>2016-06-06T19:47:42.000Z</time>
      </trkpt>
      <trkpt lat="48.82943" lon="2.29729">
        <ele>72.400001525879</ele>
        <time>2016-06-06T19:47:46.000Z</time>
      </trkpt>
      <trkpt lat="48.82937" lon="2.29763">
        <ele>73.199996948242</ele>
        <time>2016-06-06T19:47:50.000Z</time>
      </trkpt>
      <trkpt lat="48.8293" lon="2.29795">
        <ele>73.800003051758</ele>
        <time>2016-06-06T19:47:54.000Z</time>
      </trkpt>
      <trkpt lat="48.82923" lon="2.29827">
        <ele>74.199996948242</ele>
        <time>2016-06-06T19:47:58.000Z</time>
      </trkpt>
      <trkpt lat="48.82915" lon="2.29858">
        <ele>73.599998474121</ele>
        <time>2016-06-06T19:48:02.000Z</time>
      </trkpt>
      <trkpt lat="48.82908" lon="2.29887">
        <ele>73</ele>
        <time>2016-06-06T19:48:06.000Z</time>
      </trkpt>
      <trkpt lat="48.82907" lon="2.29894">
        <ele>73.199996948242</ele>
        <time>2016-06-06T19:48:07.000Z</time>
      </trkpt>
      <trkpt lat="48.82902" lon="2.29925">
        <ele>73.800003051758</ele>
        <time>2016-06-06T19:48:11.000Z</time>
      </trkpt>
      <trkpt lat="48.82896" lon="2.29956">
        <ele>74.599998474121</ele>
        <time>2016-06-06T19:48:15.000Z</time>
      </trkpt>
      <trkpt lat="48.82888" lon="2.29988">
        <ele>76.199996948242</ele>
        <time>2016-06-06T19:48:19.000Z</time>
      </trkpt>
      <trkpt lat="48.82879" lon="2.3002">
        <ele>75</ele>
        <time>2016-06-06T19:48:23.000Z</time>
      </trkpt>
      <trkpt lat="48.82871" lon="2.30052">
        <ele>75.199996948242</ele>
        <time>2016-06-06T19:48:27.000Z</time>
      </trkpt>
      <trkpt lat="48.82864" lon="2.30082">
        <ele>75.199996948242</ele>
        <time>2016-06-06T19:48:31.000Z</time>
      </trkpt>
      <trkpt lat="48.82856" lon="2.30109">
        <ele>73.599998474121</ele>
        <time>2016-06-06T19:48:35.000Z</time>
      </trkpt>
      <trkpt lat="48.82852" lon="2.30129">
        <ele>71.800003051758</ele>
        <time>2016-06-06T19:48:38.000Z</time>
      </trkpt>
      <trkpt lat="48.82847" lon="2.30145">
        <ele>70.199996948242</ele>
        <time>2016-06-06T19:48:42.000Z</time>
      </trkpt>
      <trkpt lat="48.82843" lon="2.30161">
        <ele>69.199996948242</ele>
        <time>2016-06-06T19:49:00.000Z</time>
      </trkpt>
      <trkpt lat="48.82838" lon="2.30193">
        <ele>68.800003051758</ele>
        <time>2016-06-06T19:49:05.000Z</time>
      </trkpt>
      <trkpt lat="48.82832" lon="2.30222">
        <ele>68.599998474121</ele>
        <time>2016-06-06T19:49:09.000Z</time>
      </trkpt>
      <trkpt lat="48.82825" lon="2.30248">
        <ele>67.599998474121</ele>
        <time>2016-06-06T19:49:13.000Z</time>
      </trkpt>
      <trkpt lat="48.82819" lon="2.30277">
        <ele>68</ele>
        <time>2016-06-06T19:49:17.000Z</time>
      </trkpt>
      <trkpt lat="48.82812" lon="2.30308">
        <ele>68.400001525879</ele>
        <time>2016-06-06T19:49:21.000Z</time>
      </trkpt>
      <trkpt lat="48.82806" lon="2.30336">
        <ele>68.800003051758</ele>
        <time>2016-06-06T19:49:24.000Z</time>
      </trkpt>
      <trkpt lat="48.82798" lon="2.30366">
        <ele>68.199996948242</ele>
        <time>2016-06-06T19:49:27.000Z</time>
      </trkpt>
      <trkpt lat="48.8279" lon="2.30397">
        <ele>68</ele>
        <time>2016-06-06T19:49:30.000Z</time>
      </trkpt>
      <trkpt lat="48.82781" lon="2.30427">
        <ele>67.599998474121</ele>
        <time>2016-06-06T19:49:33.000Z</time>
      </trkpt>
      <trkpt lat="48.8278" lon="2.30458">
        <ele>67.800003051758</ele>
        <time>2016-06-06T19:49:36.000Z</time>
      </trkpt>
      <trkpt lat="48.82771" lon="2.30487">
        <ele>68</ele>
        <time>2016-06-06T19:49:41.000Z</time>
      </trkpt>
      <trkpt lat="48.82769" lon="2.30493">
        <ele>68</ele>
        <time>2016-06-06T19:49:42.000Z</time>
      </trkpt>
      <trkpt lat="48.82763" lon="2.30517">
        <ele>68.599998474121</ele>
        <time>2016-06-06T19:49:47.000Z</time>
      </trkpt>
      <trkpt lat="48.82761" lon="2.30545">
        <ele>69</ele>
        <time>2016-06-06T19:49:52.000Z</time>
      </trkpt>
      <trkpt lat="48.82755" lon="2.30576">
        <ele>69.599998474121</ele>
        <time>2016-06-06T19:49:57.000Z</time>
      </trkpt>
      <trkpt lat="48.82749" lon="2.30603">
        <ele>71</ele>
        <time>2016-06-06T19:50:01.000Z</time>
      </trkpt>
      <trkpt lat="48.82746" lon="2.30616">
        <ele>71.599998474121</ele>
        <time>2016-06-06T19:50:03.000Z</time>
      </trkpt>
      <trkpt lat="48.8274" lon="2.30648">
        <ele>72.800003051758</ele>
        <time>2016-06-06T19:50:08.000Z</time>
      </trkpt>
      <trkpt lat="48.82736" lon="2.3066">
        <ele>73</ele>
        <time>2016-06-06T19:50:10.000Z</time>
      </trkpt>
      <trkpt lat="48.82734" lon="2.30674">
        <ele>72.599998474121</ele>
        <time>2016-06-06T19:50:12.000Z</time>
      </trkpt>
      <trkpt lat="48.82729" lon="2.307">
        <ele>71.599998474121</ele>
        <time>2016-06-06T19:50:16.000Z</time>
      </trkpt>
      <trkpt lat="48.82726" lon="2.30713">
        <ele>72</ele>
        <time>2016-06-06T19:50:18.000Z</time>
      </trkpt>
      <trkpt lat="48.82722" lon="2.30742">
        <ele>73</ele>
        <time>2016-06-06T19:50:22.000Z</time>
      </trkpt>
      <trkpt lat="48.82715" lon="2.30772">
        <ele>72.800003051758</ele>
        <time>2016-06-06T19:50:26.000Z</time>
      </trkpt>
      <trkpt lat="48.82711" lon="2.30787">
        <ele>72</ele>
        <time>2016-06-06T19:50:28.000Z</time>
      </trkpt>
      <trkpt lat="48.82703" lon="2.3082">
        <ele>70.199996948242</ele>
        <time>2016-06-06T19:50:32.000Z</time>
      </trkpt>
      <trkpt lat="48.82695" lon="2.30853">
        <ele>70.199996948242</ele>
        <time>2016-06-06T19:50:36.000Z</time>
      </trkpt>
      <trkpt lat="48.82689" lon="2.30879">
        <ele>70.599998474121</ele>
        <time>2016-06-06T19:50:39.000Z</time>
      </trkpt>
      <trkpt lat="48.82688" lon="2.30887">
        <ele>70.599998474121</ele>
        <time>2016-06-06T19:50:40.000Z</time>
      </trkpt>
      <trkpt lat="48.8268" lon="2.3092">
        <ele>70.800003051758</ele>
        <time>2016-06-06T19:50:44.000Z</time>
      </trkpt>
      <trkpt lat="48.82675" lon="2.30947">
        <ele>71.800003051758</ele>
        <time>2016-06-06T19:50:47.000Z</time>
      </trkpt>
      <trkpt lat="48.82669" lon="2.30975">
        <ele>72.800003051758</ele>
        <time>2016-06-06T19:50:50.000Z</time>
      </trkpt>
      <trkpt lat="48.82663" lon="2.31005">
        <ele>73</ele>
        <time>2016-06-06T19:50:53.000Z</time>
      </trkpt>
      <trkpt lat="48.82658" lon="2.31037">
        <ele>72.400001525879</ele>
        <time>2016-06-06T19:50:56.000Z</time>
      </trkpt>
      <trkpt lat="48.82655" lon="2.31071">
        <ele>71.599998474121</ele>
        <time>2016-06-06T19:50:59.000Z</time>
      </trkpt>
      <trkpt lat="48.82651" lon="2.31095">
        <ele>70.400001525879</ele>
        <time>2016-06-06T19:51:01.000Z</time>
      </trkpt>
      <trkpt lat="48.82646" lon="2.31118">
        <ele>68.599998474121</ele>
        <time>2016-06-06T19:51:03.000Z</time>
      </trkpt>
      <trkpt lat="48.82638" lon="2.31153">
        <ele>68.400001525879</ele>
        <time>2016-06-06T19:51:06.000Z</time>
      </trkpt>
      <trkpt lat="48.82631" lon="2.31187">
        <ele>68.599998474121</ele>
        <time>2016-06-06T19:51:09.000Z</time>
      </trkpt>
      <trkpt lat="48.82626" lon="2.31222">
        <ele>70.400001525879</ele>
        <time>2016-06-06T19:51:12.000Z</time>
      </trkpt>
      <trkpt lat="48.82618" lon="2.31253">
        <ele>71.800003051758</ele>
        <time>2016-06-06T19:51:15.000Z</time>
      </trkpt>
      <trkpt lat="48.8261" lon="2.31283">
        <ele>71.599998474121</ele>
        <time>2016-06-06T19:51:18.000Z</time>
      </trkpt>
      <trkpt lat="48.82601" lon="2.31312">
        <ele>71</ele>
        <time>2016-06-06T19:51:21.000Z</time>
      </trkpt>
      <trkpt lat="48.82594" lon="2.31339">
        <ele>70.599998474121</ele>
        <time>2016-06-06T19:51:24.000Z</time>
      </trkpt>
      <trkpt lat="48.82587" lon="2.31369">
        <ele>70.599998474121</ele>
        <time>2016-06-06T19:51:27.000Z</time>
      </trkpt>
      <trkpt lat="48.82584" lon="2.31389">
        <ele>70.599998474121</ele>
        <time>2016-06-06T19:51:29.000Z</time>
      </trkpt>
      <trkpt lat="48.82578" lon="2.31419">
        <ele>70.400001525879</ele>
        <time>2016-06-06T19:51:32.000Z</time>
      </trkpt>
      <trkpt lat="48.82573" lon="2.31441">
        <ele>70</ele>
        <time>2016-06-06T19:51:34.000Z</time>
      </trkpt>
      <trkpt lat="48.82565" lon="2.31474">
        <ele>70.199996948242</ele>
        <time>2016-06-06T19:51:37.000Z</time>
      </trkpt>
      <trkpt lat="48.82558" lon="2.31508">
        <ele>70.199996948242</ele>
        <time>2016-06-06T19:51:40.000Z</time>
      </trkpt>
      <trkpt lat="48.82549" lon="2.3154">
        <ele>69</ele>
        <time>2016-06-06T19:51:43.000Z</time>
      </trkpt>
      <trkpt lat="48.8254" lon="2.31571">
        <ele>69.400001525879</ele>
        <time>2016-06-06T19:51:46.000Z</time>
      </trkpt>
      <trkpt lat="48.82532" lon="2.31602">
        <ele>69.400001525879</ele>
        <time>2016-06-06T19:51:49.000Z</time>
      </trkpt>
      <trkpt lat="48.82525" lon="2.31632">
        <ele>69.400001525879</ele>
        <time>2016-06-06T19:51:52.000Z</time>
      </trkpt>
      <trkpt lat="48.82519" lon="2.31662">
        <ele>69</ele>
        <time>2016-06-06T19:51:55.000Z</time>
      </trkpt>
      <trkpt lat="48.82513" lon="2.31691">
        <ele>70.599998474121</ele>
        <time>2016-06-06T19:51:58.000Z</time>
      </trkpt>
      <trkpt lat="48.82505" lon="2.31718">
        <ele>72.199996948242</ele>
        <time>2016-06-06T19:52:01.000Z</time>
      </trkpt>
      <trkpt lat="48.82496" lon="2.3175">
        <ele>74.400001525879</ele>
        <time>2016-06-06T19:52:05.000Z</time>
      </trkpt>
      <trkpt lat="48.82489" lon="2.31782">
        <ele>77.199996948242</ele>
        <time>2016-06-06T19:52:09.000Z</time>
      </trkpt>
      <trkpt lat="48.82483" lon="2.31808">
        <ele>77.800003051758</ele>
        <time>2016-06-06T19:52:13.000Z</time>
      </trkpt>
      <trkpt lat="48.82474" lon="2.31836">
        <ele>77</ele>
        <time>2016-06-06T19:52:19.000Z</time>
      </trkpt>
      <trkpt lat="48.8247" lon="2.31849">
        <ele>76.400001525879</ele>
        <time>2016-06-06T19:52:22.000Z</time>
      </trkpt>
      <trkpt lat="48.82468" lon="2.31861">
        <ele>76</ele>
        <time>2016-06-06T19:52:25.000Z</time>
      </trkpt>
      <trkpt lat="48.82466" lon="2.3189">
        <ele>74.400001525879</ele>
        <time>2016-06-06T19:52:31.000Z</time>
      </trkpt>
      <trkpt lat="48.82461" lon="2.31909">
        <ele>73.199996948242</ele>
        <time>2016-06-06T19:52:36.000Z</time>
      </trkpt>
      <trkpt lat="48.8246" lon="2.3192">
        <ele>73.199996948242</ele>
        <time>2016-06-06T19:52:55.000Z</time>
      </trkpt>
      <trkpt lat="48.82455" lon="2.31946">
        <ele>73.199996948242</ele>
        <time>2016-06-06T19:53:19.000Z</time>
      </trkpt>
      <trkpt lat="48.8245" lon="2.31979">
        <ele>73.400001525879</ele>
        <time>2016-06-06T19:53:24.000Z</time>
      </trkpt>
      <trkpt lat="48.82444" lon="2.32005">
        <ele>73.400001525879</ele>
        <time>2016-06-06T19:53:27.000Z</time>
      </trkpt>
      <trkpt lat="48.82438" lon="2.32032">
        <ele>74.199996948242</ele>
        <time>2016-06-06T19:53:30.000Z</time>
      </trkpt>
      <trkpt lat="48.82431" lon="2.32058">
        <ele>75.199996948242</ele>
        <time>2016-06-06T19:53:33.000Z</time>
      </trkpt>
      <trkpt lat="48.82423" lon="2.32092">
        <ele>75</ele>
        <time>2016-06-06T19:53:37.000Z</time>
      </trkpt>
      <trkpt lat="48.82415" lon="2.32125">
        <ele>73.199996948242</ele>
        <time>2016-06-06T19:53:41.000Z</time>
      </trkpt>
      <trkpt lat="48.82409" lon="2.3215">
        <ele>72.599998474121</ele>
        <time>2016-06-06T19:53:44.000Z</time>
      </trkpt>
      <trkpt lat="48.82403" lon="2.32177">
        <ele>72.599998474121</ele>
        <time>2016-06-06T19:53:47.000Z</time>
      </trkpt>
      <trkpt lat="48.82397" lon="2.32203">
        <ele>73</ele>
        <time>2016-06-06T19:53:50.000Z</time>
      </trkpt>
      <trkpt lat="48.82391" lon="2.32231">
        <ele>73.400001525879</ele>
        <time>2016-06-06T19:53:53.000Z</time>
      </trkpt>
      <trkpt lat="48.82384" lon="2.32258">
        <ele>73.800003051758</ele>
        <time>2016-06-06T19:53:56.000Z</time>
      </trkpt>
      <trkpt lat="48.82382" lon="2.32267">
        <ele>74</ele>
        <time>2016-06-06T19:53:57.000Z</time>
      </trkpt>
      <trkpt lat="48.82376" lon="2.32296">
        <ele>75</ele>
        <time>2016-06-06T19:54:00.000Z</time>
      </trkpt>
      <trkpt lat="48.8237" lon="2.32322">
        <ele>76.199996948242</ele>
        <time>2016-06-06T19:54:03.000Z</time>
      </trkpt>
      <trkpt lat="48.82365" lon="2.32349">
        <ele>77.199996948242</ele>
        <time>2016-06-06T19:54:06.000Z</time>
      </trkpt>
      <trkpt lat="48.82359" lon="2.32375">
        <ele>78.400001525879</ele>
        <time>2016-06-06T19:54:09.000Z</time>
      </trkpt>
      <trkpt lat="48.82349" lon="2.32406">
        <ele>79.800003051758</ele>
        <time>2016-06-06T19:54:13.000Z</time>
      </trkpt>
      <trkpt lat="48.82343" lon="2.3242">
        <ele>79.199996948242</ele>
        <time>2016-06-06T19:54:15.000Z</time>
      </trkpt>
      <trkpt lat="48.82334" lon="2.32442">
        <ele>78</ele>
        <time>2016-06-06T19:54:18.000Z</time>
      </trkpt>
      <trkpt lat="48.82325" lon="2.3247">
        <ele>76.400001525879</ele>
        <time>2016-06-06T19:54:22.000Z</time>
      </trkpt>
      <trkpt lat="48.82322" lon="2.32482">
        <ele>75.599998474121</ele>
        <time>2016-06-06T19:54:24.000Z</time>
      </trkpt>
      <trkpt lat="48.82315" lon="2.32508">
        <ele>74.599998474121</ele>
        <time>2016-06-06T19:54:29.000Z</time>
      </trkpt>
      <trkpt lat="48.82313" lon="2.3252">
        <ele>74.400001525879</ele>
        <time>2016-06-06T19:54:32.000Z</time>
      </trkpt>
      <trkpt lat="48.8231" lon="2.32525">
        <ele>74.199996948242</ele>
        <time>2016-06-06T19:54:34.000Z</time>
      </trkpt>
      <trkpt lat="48.82307" lon="2.32531">
        <ele>74.199996948242</ele>
        <time>2016-06-06T19:56:25.000Z</time>
      </trkpt>
      <trkpt lat="48.82313" lon="2.32559">
        <ele>75</ele>
        <time>2016-06-06T19:56:34.000Z</time>
      </trkpt>
      <trkpt lat="48.82318" lon="2.32565">
        <ele>75.199996948242</ele>
        <time>2016-06-06T19:56:39.000Z</time>
      </trkpt>
      <trkpt lat="48.82337" lon="2.32567">
        <ele>76</ele>
        <time>2016-06-06T19:56:57.000Z</time>
      </trkpt>
      <trkpt lat="48.82356" lon="2.32568">
        <ele>77</ele>
        <time>2016-06-06T19:57:02.000Z</time>
      </trkpt>
      <trkpt lat="48.82376" lon="2.32573">
        <ele>76.599998474121</ele>
        <time>2016-06-06T19:57:08.000Z</time>
      </trkpt>
      <trkpt lat="48.82398" lon="2.32576">
        <ele>76</ele>
        <time>2016-06-06T19:57:13.000Z</time>
      </trkpt>
      <trkpt lat="48.8242" lon="2.32579">
        <ele>75.400001525879</ele>
        <time>2016-06-06T19:57:18.000Z</time>
      </trkpt>
      <trkpt lat="48.82439" lon="2.32581">
        <ele>75</ele>
        <time>2016-06-06T19:57:22.000Z</time>
      </trkpt>
      <trkpt lat="48.82458" lon="2.32585">
        <ele>75.199996948242</ele>
        <time>2016-06-06T19:57:26.000Z</time>
      </trkpt>
      <trkpt lat="48.82478" lon="2.32594">
        <ele>75.199996948242</ele>
        <time>2016-06-06T19:57:30.000Z</time>
      </trkpt>
      <trkpt lat="48.82498" lon="2.32598">
        <ele>75.199996948242</ele>
        <time>2016-06-06T19:57:34.000Z</time>
      </trkpt>
      <trkpt lat="48.82516" lon="2.32602">
        <ele>75.400001525879</ele>
        <time>2016-06-06T19:57:38.000Z</time>
      </trkpt>
      <trkpt lat="48.82531" lon="2.32606">
        <ele>75.199996948242</ele>
        <time>2016-06-06T19:57:44.000Z</time>
      </trkpt>
      <trkpt lat="48.82514" lon="2.32596">
        <ele>75.599998474121</ele>
        <time>2016-06-06T19:57:53.000Z</time>
      </trkpt>
      <trkpt lat="48.82496" lon="2.32589">
        <ele>75.400001525879</ele>
        <time>2016-06-06T19:57:58.000Z</time>
      </trkpt>
      <trkpt lat="48.8249" lon="2.32595">
        <ele>75.199996948242</ele>
        <time>2016-06-06T19:58:02.000Z</time>
      </trkpt>
      <trkpt lat="48.82504" lon="2.32619">
        <ele>74.800003051758</ele>
        <time>2016-06-06T19:58:07.000Z</time>
      </trkpt>
      <trkpt lat="48.82518" lon="2.32647">
        <ele>74.400001525879</ele>
        <time>2016-06-06T19:58:12.000Z</time>
      </trkpt>
      <trkpt lat="48.82528" lon="2.32677">
        <ele>73.599998474121</ele>
        <time>2016-06-06T19:58:16.000Z</time>
      </trkpt>
      <trkpt lat="48.82537" lon="2.32701">
        <ele>72.800003051758</ele>
        <time>2016-06-06T19:58:20.000Z</time>
      </trkpt>
      <trkpt lat="48.82542" lon="2.32713">
        <ele>72.400001525879</ele>
        <time>2016-06-06T19:58:22.000Z</time>
      </trkpt>
      <trkpt lat="48.82552" lon="2.32742">
        <ele>71.400001525879</ele>
        <time>2016-06-06T19:58:27.000Z</time>
      </trkpt>
      <trkpt lat="48.82554" lon="2.32747">
        <ele>71.199996948242</ele>
        <time>2016-06-06T19:58:28.000Z</time>
      </trkpt>
      <trkpt lat="48.82562" lon="2.32762">
        <ele>71.599998474121</ele>
        <time>2016-06-06T19:58:31.000Z</time>
      </trkpt>
      <trkpt lat="48.82577" lon="2.32781">
        <ele>72.400001525879</ele>
        <time>2016-06-06T19:58:35.000Z</time>
      </trkpt>
      <trkpt lat="48.82582" lon="2.32784">
        <ele>72.599998474121</ele>
        <time>2016-06-06T19:58:36.000Z</time>
      </trkpt>
      <trkpt lat="48.82592" lon="2.32815">
        <ele>73.400001525879</ele>
        <time>2016-06-06T19:58:40.000Z</time>
      </trkpt>
      <trkpt lat="48.82596" lon="2.32822">
        <ele>73.599998474121</ele>
        <time>2016-06-06T19:58:41.000Z</time>
      </trkpt>
      <trkpt lat="48.82607" lon="2.32848">
        <ele>74.800003051758</ele>
        <time>2016-06-06T19:58:45.000Z</time>
      </trkpt>
      <trkpt lat="48.8262" lon="2.32873">
        <ele>76.400001525879</ele>
        <time>2016-06-06T19:58:50.000Z</time>
      </trkpt>
      <trkpt lat="48.82621" lon="2.32879">
        <ele>76.599998474121</ele>
        <time>2016-06-06T19:58:51.000Z</time>
      </trkpt>
      <trkpt lat="48.82632" lon="2.32898">
        <ele>77.800003051758</ele>
        <time>2016-06-06T19:58:55.000Z</time>
      </trkpt>
      <trkpt lat="48.82635" lon="2.32902">
        <ele>78.199996948242</ele>
        <time>2016-06-06T19:58:56.000Z</time>
      </trkpt>
      <trkpt lat="48.82649" lon="2.32921">
        <ele>78.599998474121</ele>
        <time>2016-06-06T19:59:01.000Z</time>
      </trkpt>
      <trkpt lat="48.8265" lon="2.32926">
        <ele>78.400001525879</ele>
        <time>2016-06-06T19:59:02.000Z</time>
      </trkpt>
      <trkpt lat="48.82653" lon="2.32938">
        <ele>78</ele>
        <time>2016-06-06T19:59:04.000Z</time>
      </trkpt>
      <trkpt lat="48.82658" lon="2.32953">
        <ele>77.400001525879</ele>
        <time>2016-06-06T19:59:07.000Z</time>
      </trkpt>
      <trkpt lat="48.82669" lon="2.32977">
        <ele>76.400001525879</ele>
        <time>2016-06-06T19:59:13.000Z</time>
      </trkpt>
      <trkpt lat="48.82684" lon="2.32997">
        <ele>76.199996948242</ele>
        <time>2016-06-06T19:59:18.000Z</time>
      </trkpt>
      <trkpt lat="48.82692" lon="2.33028">
        <ele>75.599998474121</ele>
        <time>2016-06-06T19:59:23.000Z</time>
      </trkpt>
      <trkpt lat="48.82702" lon="2.33056">
        <ele>75.199996948242</ele>
        <time>2016-06-06T19:59:28.000Z</time>
      </trkpt>
      <trkpt lat="48.82714" lon="2.33084">
        <ele>75</ele>
        <time>2016-06-06T19:59:33.000Z</time>
      </trkpt>
      <trkpt lat="48.82725" lon="2.33108">
        <ele>74.599998474121</ele>
        <time>2016-06-06T19:59:37.000Z</time>
      </trkpt>
      <trkpt lat="48.82728" lon="2.33114">
        <ele>74.599998474121</ele>
        <time>2016-06-06T19:59:38.000Z</time>
      </trkpt>
      <trkpt lat="48.82743" lon="2.33137">
        <ele>74.400001525879</ele>
        <time>2016-06-06T19:59:42.000Z</time>
      </trkpt>
      <trkpt lat="48.82757" lon="2.33158">
        <ele>74.400001525879</ele>
        <time>2016-06-06T19:59:46.000Z</time>
      </trkpt>
      <trkpt lat="48.82771" lon="2.33177">
        <ele>73.800003051758</ele>
        <time>2016-06-06T19:59:50.000Z</time>
      </trkpt>
      <trkpt lat="48.82777" lon="2.33196">
        <ele>73.199996948242</ele>
        <time>2016-06-06T19:59:53.000Z</time>
      </trkpt>
      <trkpt lat="48.82779" lon="2.33225">
        <ele>72.800003051758</ele>
        <time>2016-06-06T19:59:56.000Z</time>
      </trkpt>
      <trkpt lat="48.82784" lon="2.33237">
        <ele>72.199996948242</ele>
        <time>2016-06-06T19:59:58.000Z</time>
      </trkpt>
      <trkpt lat="48.82788" lon="2.33245">
        <ele>71.800003051758</ele>
        <time>2016-06-06T20:00:00.000Z</time>
      </trkpt>
      <trkpt lat="48.82794" lon="2.33252">
        <ele>71.599998474121</ele>
        <time>2016-06-06T20:00:03.000Z</time>
      </trkpt>
      <trkpt lat="48.82797" lon="2.33258">
        <ele>71.400001525879</ele>
        <time>2016-06-06T20:00:06.000Z</time>
      </trkpt>
      <trkpt lat="48.82792" lon="2.33255">
        <ele>71.599998474121</ele>
        <time>2016-06-06T20:00:24.000Z</time>
      </trkpt>
      <trkpt lat="48.82811" lon="2.33267">
        <ele>70.400001525879</ele>
        <time>2016-06-06T20:00:30.000Z</time>
      </trkpt>
      <trkpt lat="48.82828" lon="2.33277">
        <ele>69.400001525879</ele>
        <time>2016-06-06T20:00:35.000Z</time>
      </trkpt>
      <trkpt lat="48.82847" lon="2.33286">
        <ele>68</ele>
        <time>2016-06-06T20:00:40.000Z</time>
      </trkpt>
      <trkpt lat="48.82865" lon="2.33296">
        <ele>67.199996948242</ele>
        <time>2016-06-06T20:00:45.000Z</time>
      </trkpt>
      <trkpt lat="48.82872" lon="2.33302">
        <ele>67</ele>
        <time>2016-06-06T20:00:48.000Z</time>
      </trkpt>
      <trkpt lat="48.8289" lon="2.33313">
        <ele>66.599998474121</ele>
        <time>2016-06-06T20:00:53.000Z</time>
      </trkpt>
      <trkpt lat="48.82912" lon="2.33323">
        <ele>65.800003051758</ele>
        <time>2016-06-06T20:00:58.000Z</time>
      </trkpt>
      <trkpt lat="48.82931" lon="2.33334">
        <ele>65.199996948242</ele>
        <time>2016-06-06T20:01:02.000Z</time>
      </trkpt>
      <trkpt lat="48.82948" lon="2.33348">
        <ele>64.800003051758</ele>
        <time>2016-06-06T20:01:06.000Z</time>
      </trkpt>
      <trkpt lat="48.82964" lon="2.33362">
        <ele>64.400001525879</ele>
        <time>2016-06-06T20:01:09.000Z</time>
      </trkpt>
      <trkpt lat="48.82969" lon="2.33369">
        <ele>64.199996948242</ele>
        <time>2016-06-06T20:01:10.000Z</time>
      </trkpt>
      <trkpt lat="48.82981" lon="2.33392">
        <ele>64</ele>
        <time>2016-06-06T20:01:16.000Z</time>
      </trkpt>
      <trkpt lat="48.82985" lon="2.33399">
        <ele>64</ele>
        <time>2016-06-06T20:01:18.000Z</time>
      </trkpt>
      <trkpt lat="48.82989" lon="2.33409">
        <ele>63.799999237061</ele>
        <time>2016-06-06T20:01:33.000Z</time>
      </trkpt>
      <trkpt lat="48.83009" lon="2.334">
        <ele>63.400001525879</ele>
        <time>2016-06-06T20:01:42.000Z</time>
      </trkpt>
      <trkpt lat="48.83025" lon="2.33398">
        <ele>63.200000762939</ele>
        <time>2016-06-06T20:01:48.000Z</time>
      </trkpt>
      <trkpt lat="48.83042" lon="2.33408">
        <ele>62.599998474121</ele>
        <time>2016-06-06T20:01:54.000Z</time>
      </trkpt>
      <trkpt lat="48.83053" lon="2.33413">
        <ele>62.200000762939</ele>
        <time>2016-06-06T20:01:57.000Z</time>
      </trkpt>
      <trkpt lat="48.83068" lon="2.33424">
        <ele>61.799999237061</ele>
        <time>2016-06-06T20:02:01.000Z</time>
      </trkpt>
      <trkpt lat="48.83085" lon="2.33433">
        <ele>61.400001525879</ele>
        <time>2016-06-06T20:02:05.000Z</time>
      </trkpt>
      <trkpt lat="48.83103" lon="2.33451">
        <ele>61</ele>
        <time>2016-06-06T20:02:10.000Z</time>
      </trkpt>
      <trkpt lat="48.83121" lon="2.33462">
        <ele>61.599998474121</ele>
        <time>2016-06-06T20:02:15.000Z</time>
      </trkpt>
      <trkpt lat="48.83138" lon="2.33475">
        <ele>62.200000762939</ele>
        <time>2016-06-06T20:02:20.000Z</time>
      </trkpt>
      <trkpt lat="48.83154" lon="2.3349">
        <ele>62.799999237061</ele>
        <time>2016-06-06T20:02:24.000Z</time>
      </trkpt>
      <trkpt lat="48.83174" lon="2.335">
        <ele>63.400001525879</ele>
        <time>2016-06-06T20:02:29.000Z</time>
      </trkpt>
      <trkpt lat="48.83193" lon="2.33515">
        <ele>64.199996948242</ele>
        <time>2016-06-06T20:02:34.000Z</time>
      </trkpt>
      <trkpt lat="48.83212" lon="2.33531">
        <ele>64.599998474121</ele>
        <time>2016-06-06T20:02:39.000Z</time>
      </trkpt>
      <trkpt lat="48.83223" lon="2.33539">
        <ele>65</ele>
        <time>2016-06-06T20:02:42.000Z</time>
      </trkpt>
      <trkpt lat="48.83241" lon="2.33553">
        <ele>65.199996948242</ele>
        <time>2016-06-06T20:02:47.000Z</time>
      </trkpt>
      <trkpt lat="48.83248" lon="2.33559">
        <ele>65.400001525879</ele>
        <time>2016-06-06T20:02:49.000Z</time>
      </trkpt>
      <trkpt lat="48.83266" lon="2.33576">
        <ele>65.800003051758</ele>
        <time>2016-06-06T20:02:54.000Z</time>
      </trkpt>
      <trkpt lat="48.83289" lon="2.33584">
        <ele>65.199996948242</ele>
        <time>2016-06-06T20:02:59.000Z</time>
      </trkpt>
      <trkpt lat="48.83294" lon="2.33586">
        <ele>65</ele>
        <time>2016-06-06T20:03:00.000Z</time>
      </trkpt>
      <trkpt lat="48.83313" lon="2.33602">
        <ele>64.400001525879</ele>
        <time>2016-06-06T20:03:05.000Z</time>
      </trkpt>
      <trkpt lat="48.8332" lon="2.33608">
        <ele>64</ele>
        <time>2016-06-06T20:03:07.000Z</time>
      </trkpt>
      <trkpt lat="48.83337" lon="2.33619">
        <ele>63.400001525879</ele>
        <time>2016-06-06T20:03:12.000Z</time>
      </trkpt>
      <trkpt lat="48.83352" lon="2.33626">
        <ele>62.799999237061</ele>
        <time>2016-06-06T20:03:16.000Z</time>
      </trkpt>
      <trkpt lat="48.8337" lon="2.33636">
        <ele>62.400001525879</ele>
        <time>2016-06-06T20:03:21.000Z</time>
      </trkpt>
      <trkpt lat="48.83388" lon="2.33648">
        <ele>62.400001525879</ele>
        <time>2016-06-06T20:03:26.000Z</time>
      </trkpt>
      <trkpt lat="48.83408" lon="2.33657">
        <ele>62.200000762939</ele>
        <time>2016-06-06T20:03:31.000Z</time>
      </trkpt>
      <trkpt lat="48.83426" lon="2.33665">
        <ele>62.200000762939</ele>
        <time>2016-06-06T20:03:35.000Z</time>
      </trkpt>
      <trkpt lat="48.83444" lon="2.33677">
        <ele>61.599998474121</ele>
        <time>2016-06-06T20:03:39.000Z</time>
      </trkpt>
      <trkpt lat="48.83463" lon="2.3369">
        <ele>60.799999237061</ele>
        <time>2016-06-06T20:03:45.000Z</time>
      </trkpt>
      <trkpt lat="48.8347" lon="2.33696">
        <ele>60.400001525879</ele>
        <time>2016-06-06T20:03:47.000Z</time>
      </trkpt>
      <trkpt lat="48.83488" lon="2.33708">
        <ele>59.799999237061</ele>
        <time>2016-06-06T20:03:52.000Z</time>
      </trkpt>
      <trkpt lat="48.83507" lon="2.33721">
        <ele>59.200000762939</ele>
        <time>2016-06-06T20:03:57.000Z</time>
      </trkpt>
      <trkpt lat="48.83519" lon="2.33729">
        <ele>58.799999237061</ele>
        <time>2016-06-06T20:04:00.000Z</time>
      </trkpt>
      <trkpt lat="48.83539" lon="2.33742">
        <ele>59</ele>
        <time>2016-06-06T20:04:05.000Z</time>
      </trkpt>
      <trkpt lat="48.83559" lon="2.33753">
        <ele>59.599998474121</ele>
        <time>2016-06-06T20:04:10.000Z</time>
      </trkpt>
      <trkpt lat="48.83578" lon="2.33765">
        <ele>60.200000762939</ele>
        <time>2016-06-06T20:04:15.000Z</time>
      </trkpt>
      <trkpt lat="48.83593" lon="2.33775">
        <ele>60.799999237061</ele>
        <time>2016-06-06T20:04:19.000Z</time>
      </trkpt>
      <trkpt lat="48.83614" lon="2.33786">
        <ele>61</ele>
        <time>2016-06-06T20:04:24.000Z</time>
      </trkpt>
      <trkpt lat="48.83634" lon="2.33798">
        <ele>60.400001525879</ele>
        <time>2016-06-06T20:04:29.000Z</time>
      </trkpt>
      <trkpt lat="48.83654" lon="2.33812">
        <ele>59.799999237061</ele>
        <time>2016-06-06T20:04:34.000Z</time>
      </trkpt>
      <trkpt lat="48.83669" lon="2.33823">
        <ele>59.400001525879</ele>
        <time>2016-06-06T20:04:38.000Z</time>
      </trkpt>
      <trkpt lat="48.83684" lon="2.33832">
        <ele>59</ele>
        <time>2016-06-06T20:04:42.000Z</time>
      </trkpt>
      <trkpt lat="48.83703" lon="2.33845">
        <ele>59.200000762939</ele>
        <time>2016-06-06T20:04:47.000Z</time>
      </trkpt>
      <trkpt lat="48.8371" lon="2.33851">
        <ele>59.200000762939</ele>
        <time>2016-06-06T20:04:49.000Z</time>
      </trkpt>
      <trkpt lat="48.83727" lon="2.33864">
        <ele>59.599998474121</ele>
        <time>2016-06-06T20:04:54.000Z</time>
      </trkpt>
      <trkpt lat="48.83743" lon="2.33875">
        <ele>60</ele>
        <time>2016-06-06T20:04:59.000Z</time>
      </trkpt>
      <trkpt lat="48.83762" lon="2.33884">
        <ele>60.400001525879</ele>
        <time>2016-06-06T20:05:04.000Z</time>
      </trkpt>
      <trkpt lat="48.83784" lon="2.33892">
        <ele>60.400001525879</ele>
        <time>2016-06-06T20:05:09.000Z</time>
      </trkpt>
      <trkpt lat="48.83806" lon="2.339">
        <ele>60</ele>
        <time>2016-06-06T20:05:14.000Z</time>
      </trkpt>
      <trkpt lat="48.83809" lon="2.33902">
        <ele>59.799999237061</ele>
        <time>2016-06-06T20:05:15.000Z</time>
      </trkpt>
      <trkpt lat="48.83821" lon="2.3391">
        <ele>59.599998474121</ele>
        <time>2016-06-06T20:05:18.000Z</time>
      </trkpt>
      <trkpt lat="48.83841" lon="2.33924">
        <ele>59</ele>
        <time>2016-06-06T20:05:23.000Z</time>
      </trkpt>
      <trkpt lat="48.83859" lon="2.33937">
        <ele>58.599998474121</ele>
        <time>2016-06-06T20:05:28.000Z</time>
      </trkpt>
      <trkpt lat="48.83873" lon="2.33949">
        <ele>59</ele>
        <time>2016-06-06T20:05:34.000Z</time>
      </trkpt>
      <trkpt lat="48.83875" lon="2.33952">
        <ele>59</ele>
        <time>2016-06-06T20:05:36.000Z</time>
      </trkpt>
      <trkpt lat="48.83889" lon="2.33965">
        <ele>59.400001525879</ele>
        <time>2016-06-06T20:06:12.000Z</time>
      </trkpt>
      <trkpt lat="48.83891" lon="2.33964">
        <ele>59.400001525879</ele>
        <time>2016-06-06T20:06:13.000Z</time>
      </trkpt>
      <trkpt lat="48.83899" lon="2.33939">
        <ele>60.200000762939</ele>
        <time>2016-06-06T20:06:20.000Z</time>
      </trkpt>
      <trkpt lat="48.83901" lon="2.33935">
        <ele>60.400001525879</ele>
        <time>2016-06-06T20:06:21.000Z</time>
      </trkpt>
      <trkpt lat="48.83908" lon="2.33906">
        <ele>61</ele>
        <time>2016-06-06T20:06:27.000Z</time>
      </trkpt>
      <trkpt lat="48.83914" lon="2.33879">
        <ele>61.599998474121</ele>
        <time>2016-06-06T20:06:32.000Z</time>
      </trkpt>
      <trkpt lat="48.8392" lon="2.33851">
        <ele>62</ele>
        <time>2016-06-06T20:06:37.000Z</time>
      </trkpt>
      <trkpt lat="48.83933" lon="2.33831">
        <ele>62.799999237061</ele>
        <time>2016-06-06T20:06:47.000Z</time>
      </trkpt>
      <trkpt lat="48.83949" lon="2.33844">
        <ele>63</ele>
        <time>2016-06-06T20:06:54.000Z</time>
      </trkpt>
      <trkpt lat="48.83968" lon="2.33857">
        <ele>63.400001525879</ele>
        <time>2016-06-06T20:07:00.000Z</time>
      </trkpt>
      <trkpt lat="48.83987" lon="2.33867">
        <ele>63.799999237061</ele>
        <time>2016-06-06T20:07:05.000Z</time>
      </trkpt>
      <trkpt lat="48.84006" lon="2.33879">
        <ele>64</ele>
        <time>2016-06-06T20:07:10.000Z</time>
      </trkpt>
      <trkpt lat="48.84026" lon="2.33892">
        <ele>64.199996948242</ele>
        <time>2016-06-06T20:07:15.000Z</time>
      </trkpt>
      <trkpt lat="48.84045" lon="2.33907">
        <ele>64</ele>
        <time>2016-06-06T20:07:20.000Z</time>
      </trkpt>
      <trkpt lat="48.84062" lon="2.33926">
        <ele>64</ele>
        <time>2016-06-06T20:07:25.000Z</time>
      </trkpt>
      <trkpt lat="48.84077" lon="2.33941">
        <ele>64</ele>
        <time>2016-06-06T20:07:29.000Z</time>
      </trkpt>
      <trkpt lat="48.84091" lon="2.33953">
        <ele>64</ele>
        <time>2016-06-06T20:07:33.000Z</time>
      </trkpt>
      <trkpt lat="48.84111" lon="2.33962">
        <ele>64</ele>
        <time>2016-06-06T20:07:38.000Z</time>
      </trkpt>
      <trkpt lat="48.84119" lon="2.33968">
        <ele>64.199996948242</ele>
        <time>2016-06-06T20:07:40.000Z</time>
      </trkpt>
      <trkpt lat="48.84138" lon="2.33983">
        <ele>64.400001525879</ele>
        <time>2016-06-06T20:07:45.000Z</time>
      </trkpt>
      <trkpt lat="48.84155" lon="2.33992">
        <ele>64.599998474121</ele>
        <time>2016-06-06T20:07:49.000Z</time>
      </trkpt>
      <trkpt lat="48.84165" lon="2.33997">
        <ele>64.800003051758</ele>
        <time>2016-06-06T20:07:51.000Z</time>
      </trkpt>
      <trkpt lat="48.84183" lon="2.34007">
        <ele>64.800003051758</ele>
        <time>2016-06-06T20:07:55.000Z</time>
      </trkpt>
      <trkpt lat="48.84199" lon="2.34019">
        <ele>64.599998474121</ele>
        <time>2016-06-06T20:07:59.000Z</time>
      </trkpt>
      <trkpt lat="48.84218" lon="2.34034">
        <ele>64.199996948242</ele>
        <time>2016-06-06T20:08:04.000Z</time>
      </trkpt>
      <trkpt lat="48.84228" lon="2.3406">
        <ele>63.799999237061</ele>
        <time>2016-06-06T20:08:07.000Z</time>
      </trkpt>
      <trkpt lat="48.84224" lon="2.34086">
        <ele>63.799999237061</ele>
        <time>2016-06-06T20:08:11.000Z</time>
      </trkpt>
      <trkpt lat="48.84222" lon="2.34092">
        <ele>63.799999237061</ele>
        <time>2016-06-06T20:08:12.000Z</time>
      </trkpt>
      <trkpt lat="48.84218" lon="2.34103">
        <ele>64.199996948242</ele>
        <time>2016-06-06T20:08:14.000Z</time>
      </trkpt>
      <trkpt lat="48.84214" lon="2.34112">
        <ele>64.199996948242</ele>
        <time>2016-06-06T20:08:16.000Z</time>
      </trkpt>
      <trkpt lat="48.84199" lon="2.34128">
        <ele>63.200000762939</ele>
        <time>2016-06-06T20:08:21.000Z</time>
      </trkpt>
      <trkpt lat="48.84192" lon="2.34141">
        <ele>62.599998474121</ele>
        <time>2016-06-06T20:08:24.000Z</time>
      </trkpt>
      <trkpt lat="48.84188" lon="2.34151">
        <ele>62.200000762939</ele>
        <time>2016-06-06T20:08:26.000Z</time>
      </trkpt>
      <trkpt lat="48.84186" lon="2.34171">
        <ele>62</ele>
        <time>2016-06-06T20:08:29.000Z</time>
      </trkpt>
      <trkpt lat="48.84181" lon="2.34186">
        <ele>62</ele>
        <time>2016-06-06T20:08:32.000Z</time>
      </trkpt>
      <trkpt lat="48.84171" lon="2.34211">
        <ele>62</ele>
        <time>2016-06-06T20:08:37.000Z</time>
      </trkpt>
      <trkpt lat="48.84162" lon="2.3424">
        <ele>62</ele>
        <time>2016-06-06T20:08:42.000Z</time>
      </trkpt>
      <trkpt lat="48.84154" lon="2.34268">
        <ele>61.799999237061</ele>
        <time>2016-06-06T20:08:47.000Z</time>
      </trkpt>
      <trkpt lat="48.84145" lon="2.34287">
        <ele>61.599998474121</ele>
        <time>2016-06-06T20:08:51.000Z</time>
      </trkpt>
      <trkpt lat="48.84139" lon="2.34301">
        <ele>60.799999237061</ele>
        <time>2016-06-06T20:08:54.000Z</time>
      </trkpt>
      <trkpt lat="48.84136" lon="2.34311">
        <ele>60.400001525879</ele>
        <time>2016-06-06T20:08:56.000Z</time>
      </trkpt>
      <trkpt lat="48.84131" lon="2.34332">
        <ele>59.599998474121</ele>
        <time>2016-06-06T20:09:01.000Z</time>
      </trkpt>
      <trkpt lat="48.84138" lon="2.3433">
        <ele>59.799999237061</ele>
        <time>2016-06-06T20:09:05.000Z</time>
      </trkpt>
      <trkpt lat="48.84157" lon="2.34319">
        <ele>60.599998474121</ele>
        <time>2016-06-06T20:09:11.000Z</time>
      </trkpt>
      <trkpt lat="48.84175" lon="2.34309">
        <ele>61.200000762939</ele>
        <time>2016-06-06T20:09:16.000Z</time>
      </trkpt>
      <trkpt lat="48.84194" lon="2.343">
        <ele>61.400001525879</ele>
        <time>2016-06-06T20:09:21.000Z</time>
      </trkpt>
      <trkpt lat="48.84214" lon="2.34292">
        <ele>61.799999237061</ele>
        <time>2016-06-06T20:09:26.000Z</time>
      </trkpt>
      <trkpt lat="48.84232" lon="2.34287">
        <ele>62</ele>
        <time>2016-06-06T20:09:31.000Z</time>
      </trkpt>
      <trkpt lat="48.8425" lon="2.34282">
        <ele>62.599998474121</ele>
        <time>2016-06-06T20:09:36.000Z</time>
      </trkpt>
      <trkpt lat="48.84268" lon="2.34273">
        <ele>63.200000762939</ele>
        <time>2016-06-06T20:09:40.000Z</time>
      </trkpt>
      <trkpt lat="48.84288" lon="2.34264">
        <ele>64</ele>
        <time>2016-06-06T20:09:44.000Z</time>
      </trkpt>
      <trkpt lat="48.84305" lon="2.34251">
        <ele>63.400001525879</ele>
        <time>2016-06-06T20:09:48.000Z</time>
      </trkpt>
      <trkpt lat="48.84323" lon="2.34246">
        <ele>62.799999237061</ele>
        <time>2016-06-06T20:09:52.000Z</time>
      </trkpt>
      <trkpt lat="48.84344" lon="2.34239">
        <ele>62.400001525879</ele>
        <time>2016-06-06T20:09:57.000Z</time>
      </trkpt>
      <trkpt lat="48.84363" lon="2.34233">
        <ele>62.200000762939</ele>
        <time>2016-06-06T20:10:01.000Z</time>
      </trkpt>
      <trkpt lat="48.84382" lon="2.34223">
        <ele>63</ele>
        <time>2016-06-06T20:10:06.000Z</time>
      </trkpt>
      <trkpt lat="48.84389" lon="2.34219">
        <ele>63.200000762939</ele>
        <time>2016-06-06T20:10:08.000Z</time>
      </trkpt>
      <trkpt lat="48.84396" lon="2.34213">
        <ele>63.400001525879</ele>
        <time>2016-06-06T20:10:10.000Z</time>
      </trkpt>
      <trkpt lat="48.84401" lon="2.34208">
        <ele>63.599998474121</ele>
        <time>2016-06-06T20:10:12.000Z</time>
      </trkpt>
      <trkpt lat="48.84418" lon="2.34203">
        <ele>63.599998474121</ele>
        <time>2016-06-06T20:10:17.000Z</time>
      </trkpt>
      <trkpt lat="48.84424" lon="2.34202">
        <ele>63.799999237061</ele>
        <time>2016-06-06T20:10:20.000Z</time>
      </trkpt>
      <trkpt lat="48.84441" lon="2.34194">
        <ele>63.799999237061</ele>
        <time>2016-06-06T20:10:27.000Z</time>
      </trkpt>
      <trkpt lat="48.84459" lon="2.34184">
        <ele>64.400001525879</ele>
        <time>2016-06-06T20:10:32.000Z</time>
      </trkpt>
      <trkpt lat="48.84477" lon="2.34174">
        <ele>65</ele>
        <time>2016-06-06T20:10:37.000Z</time>
      </trkpt>
      <trkpt lat="48.84497" lon="2.34164">
        <ele>65.800003051758</ele>
        <time>2016-06-06T20:10:42.000Z</time>
      </trkpt>
      <trkpt lat="48.84514" lon="2.34153">
        <ele>66.400001525879</ele>
        <time>2016-06-06T20:10:46.000Z</time>
      </trkpt>
      <trkpt lat="48.84532" lon="2.34141">
        <ele>66.800003051758</ele>
        <time>2016-06-06T20:10:50.000Z</time>
      </trkpt>
      <trkpt lat="48.84553" lon="2.34129">
        <ele>67</ele>
        <time>2016-06-06T20:10:54.000Z</time>
      </trkpt>
      <trkpt lat="48.84574" lon="2.3412">
        <ele>66.599998474121</ele>
        <time>2016-06-06T20:10:58.000Z</time>
      </trkpt>
      <trkpt lat="48.84592" lon="2.34112">
        <ele>65.800003051758</ele>
        <time>2016-06-06T20:11:02.000Z</time>
      </trkpt>
      <trkpt lat="48.8461" lon="2.34103">
        <ele>65</ele>
        <time>2016-06-06T20:11:06.000Z</time>
      </trkpt>
      <trkpt lat="48.84627" lon="2.34093">
        <ele>64</ele>
        <time>2016-06-06T20:11:10.000Z</time>
      </trkpt>
      <trkpt lat="48.84648" lon="2.34084">
        <ele>62.599998474121</ele>
        <time>2016-06-06T20:11:14.000Z</time>
      </trkpt>
      <trkpt lat="48.84668" lon="2.34074">
        <ele>61.599998474121</ele>
        <time>2016-06-06T20:11:18.000Z</time>
      </trkpt>
      <trkpt lat="48.84677" lon="2.34069">
        <ele>61.200000762939</ele>
        <time>2016-06-06T20:11:20.000Z</time>
      </trkpt>
      <trkpt lat="48.84688" lon="2.34067">
        <ele>59.599998474121</ele>
        <time>2016-06-06T20:11:22.000Z</time>
      </trkpt>
      <trkpt lat="48.84706" lon="2.34072">
        <ele>59.400001525879</ele>
        <time>2016-06-06T20:11:26.000Z</time>
      </trkpt>
      <trkpt lat="48.84713" lon="2.34076">
        <ele>59.599998474121</ele>
        <time>2016-06-06T20:11:28.000Z</time>
      </trkpt>
      <trkpt lat="48.8472" lon="2.34081">
        <ele>59.799999237061</ele>
        <time>2016-06-06T20:11:31.000Z</time>
      </trkpt>
      <trkpt lat="48.84723" lon="2.34085">
        <ele>59.799999237061</ele>
        <time>2016-06-06T20:11:33.000Z</time>
      </trkpt>
      <trkpt lat="48.84738" lon="2.34097">
        <ele>59.599998474121</ele>
        <time>2016-06-06T20:12:00.000Z</time>
      </trkpt>
      <trkpt lat="48.84757" lon="2.34103">
        <ele>59</ele>
        <time>2016-06-06T20:12:07.000Z</time>
      </trkpt>
      <trkpt lat="48.84779" lon="2.34107">
        <ele>58.799999237061</ele>
        <time>2016-06-06T20:12:16.000Z</time>
      </trkpt>
      <trkpt lat="48.84799" lon="2.34113">
        <ele>59</ele>
        <time>2016-06-06T20:12:22.000Z</time>
      </trkpt>
      <trkpt lat="48.8482" lon="2.34123">
        <ele>59.599998474121</ele>
        <time>2016-06-06T20:12:27.000Z</time>
      </trkpt>
      <trkpt lat="48.84839" lon="2.34134">
        <ele>60.200000762939</ele>
        <time>2016-06-06T20:12:31.000Z</time>
      </trkpt>
      <trkpt lat="48.84861" lon="2.34149">
        <ele>60.599998474121</ele>
        <time>2016-06-06T20:12:35.000Z</time>
      </trkpt>
      <trkpt lat="48.84867" lon="2.34152">
        <ele>60.200000762939</ele>
        <time>2016-06-06T20:12:36.000Z</time>
      </trkpt>
      <trkpt lat="48.84884" lon="2.34163">
        <ele>59.200000762939</ele>
        <time>2016-06-06T20:12:39.000Z</time>
      </trkpt>
      <trkpt lat="48.84902" lon="2.34174">
        <ele>58.400001525879</ele>
        <time>2016-06-06T20:12:42.000Z</time>
      </trkpt>
      <trkpt lat="48.84921" lon="2.34186">
        <ele>57.400001525879</ele>
        <time>2016-06-06T20:12:45.000Z</time>
      </trkpt>
      <trkpt lat="48.8494" lon="2.34197">
        <ele>56.400001525879</ele>
        <time>2016-06-06T20:12:48.000Z</time>
      </trkpt>
      <trkpt lat="48.84958" lon="2.34209">
        <ele>55.599998474121</ele>
        <time>2016-06-06T20:12:51.000Z</time>
      </trkpt>
      <trkpt lat="48.84976" lon="2.3422">
        <ele>55</ele>
        <time>2016-06-06T20:12:54.000Z</time>
      </trkpt>
      <trkpt lat="48.84982" lon="2.34223">
        <ele>54.599998474121</ele>
        <time>2016-06-06T20:12:55.000Z</time>
      </trkpt>
      <trkpt lat="48.85002" lon="2.34239">
        <ele>53.799999237061</ele>
        <time>2016-06-06T20:12:58.000Z</time>
      </trkpt>
      <trkpt lat="48.85017" lon="2.34248">
        <ele>53.200000762939</ele>
        <time>2016-06-06T20:13:01.000Z</time>
      </trkpt>
      <trkpt lat="48.8503" lon="2.3426">
        <ele>52.599998474121</ele>
        <time>2016-06-06T20:13:22.000Z</time>
      </trkpt>
      <trkpt lat="48.85052" lon="2.34271">
        <ele>51</ele>
        <time>2016-06-06T20:13:27.000Z</time>
      </trkpt>
      <trkpt lat="48.85072" lon="2.34286">
        <ele>49.599998474121</ele>
        <time>2016-06-06T20:13:31.000Z</time>
      </trkpt>
      <trkpt lat="48.85093" lon="2.34298">
        <ele>48.400001525879</ele>
        <time>2016-06-06T20:13:35.000Z</time>
      </trkpt>
      <trkpt lat="48.85113" lon="2.34306">
        <ele>47.799999237061</ele>
        <time>2016-06-06T20:13:40.000Z</time>
      </trkpt>
      <trkpt lat="48.8512" lon="2.34309">
        <ele>47.799999237061</ele>
        <time>2016-06-06T20:13:43.000Z</time>
      </trkpt>
      <trkpt lat="48.85139" lon="2.34318">
        <ele>48</ele>
        <time>2016-06-06T20:13:49.000Z</time>
      </trkpt>
      <trkpt lat="48.85157" lon="2.34326">
        <ele>48.400001525879</ele>
        <time>2016-06-06T20:13:53.000Z</time>
      </trkpt>
      <trkpt lat="48.85176" lon="2.34334">
        <ele>48.599998474121</ele>
        <time>2016-06-06T20:13:57.000Z</time>
      </trkpt>
      <trkpt lat="48.85195" lon="2.34342">
        <ele>49.200000762939</ele>
        <time>2016-06-06T20:14:01.000Z</time>
      </trkpt>
      <trkpt lat="48.85214" lon="2.34349">
        <ele>49.400001525879</ele>
        <time>2016-06-06T20:14:05.000Z</time>
      </trkpt>
      <trkpt lat="48.85236" lon="2.34357">
        <ele>49.599998474121</ele>
        <time>2016-06-06T20:14:09.000Z</time>
      </trkpt>
      <trkpt lat="48.85258" lon="2.34366">
        <ele>49.799999237061</ele>
        <time>2016-06-06T20:14:13.000Z</time>
      </trkpt>
      <trkpt lat="48.85279" lon="2.34375">
        <ele>49.599998474121</ele>
        <time>2016-06-06T20:14:17.000Z</time>
      </trkpt>
      <trkpt lat="48.85292" lon="2.34382">
        <ele>48.599998474121</ele>
        <time>2016-06-06T20:14:20.000Z</time>
      </trkpt>
      <trkpt lat="48.85312" lon="2.34389">
        <ele>47.200000762939</ele>
        <time>2016-06-06T20:14:23.000Z</time>
      </trkpt>
      <trkpt lat="48.85332" lon="2.344">
        <ele>45.599998474121</ele>
        <time>2016-06-06T20:14:27.000Z</time>
      </trkpt>
      <trkpt lat="48.8535" lon="2.34414">
        <ele>44.400001525879</ele>
        <time>2016-06-06T20:14:31.000Z</time>
      </trkpt>
      <trkpt lat="48.85367" lon="2.34428">
        <ele>43.599998474121</ele>
        <time>2016-06-06T20:14:35.000Z</time>
      </trkpt>
      <trkpt lat="48.85385" lon="2.34442">
        <ele>43</ele>
        <time>2016-06-06T20:14:39.000Z</time>
      </trkpt>
      <trkpt lat="48.85401" lon="2.34458">
        <ele>42.400001525879</ele>
        <time>2016-06-06T20:14:43.000Z</time>
      </trkpt>
      <trkpt lat="48.85416" lon="2.34474">
        <ele>41.799999237061</ele>
        <time>2016-06-06T20:14:47.000Z</time>
      </trkpt>
      <trkpt lat="48.85432" lon="2.34489">
        <ele>41.200000762939</ele>
        <time>2016-06-06T20:14:51.000Z</time>
      </trkpt>
      <trkpt lat="48.85449" lon="2.34505">
        <ele>41.599998474121</ele>
        <time>2016-06-06T20:14:55.000Z</time>
      </trkpt>
      <trkpt lat="48.85465" lon="2.34522">
        <ele>42.799999237061</ele>
        <time>2016-06-06T20:14:59.000Z</time>
      </trkpt>
      <trkpt lat="48.85483" lon="2.34541">
        <ele>44.200000762939</ele>
        <time>2016-06-06T20:15:03.000Z</time>
      </trkpt>
      <trkpt lat="48.855" lon="2.34559">
        <ele>45.400001525879</ele>
        <time>2016-06-06T20:15:07.000Z</time>
      </trkpt>
      <trkpt lat="48.85517" lon="2.34574">
        <ele>46.599998474121</ele>
        <time>2016-06-06T20:15:11.000Z</time>
      </trkpt>
      <trkpt lat="48.85537" lon="2.34587">
        <ele>47.200000762939</ele>
        <time>2016-06-06T20:15:15.000Z</time>
      </trkpt>
      <trkpt lat="48.85542" lon="2.3459">
        <ele>47.200000762939</ele>
        <time>2016-06-06T20:15:16.000Z</time>
      </trkpt>
      <trkpt lat="48.8556" lon="2.34599">
        <ele>47.400001525879</ele>
        <time>2016-06-06T20:15:20.000Z</time>
      </trkpt>
      <trkpt lat="48.85574" lon="2.34611">
        <ele>47.599998474121</ele>
        <time>2016-06-06T20:15:24.000Z</time>
      </trkpt>
      <trkpt lat="48.85595" lon="2.34623">
        <ele>47.799999237061</ele>
        <time>2016-06-06T20:15:29.000Z</time>
      </trkpt>
      <trkpt lat="48.85613" lon="2.34634">
        <ele>47.400001525879</ele>
        <time>2016-06-06T20:15:34.000Z</time>
      </trkpt>
      <trkpt lat="48.85623" lon="2.3465">
        <ele>46.599998474121</ele>
        <time>2016-06-06T20:15:38.000Z</time>
      </trkpt>
      <trkpt lat="48.85628" lon="2.34657">
        <ele>46.200000762939</ele>
        <time>2016-06-06T20:15:40.000Z</time>
      </trkpt>
      <trkpt lat="48.85643" lon="2.3467">
        <ele>44.799999237061</ele>
        <time>2016-06-06T20:15:46.000Z</time>
      </trkpt>
      <trkpt lat="48.85646" lon="2.34671">
        <ele>44.599998474121</ele>
        <time>2016-06-06T20:15:47.000Z</time>
      </trkpt>
      <trkpt lat="48.85657" lon="2.34682">
        <ele>43.599998474121</ele>
        <time>2016-06-06T20:15:52.000Z</time>
      </trkpt>
      <trkpt lat="48.8567" lon="2.34691">
        <ele>42.599998474121</ele>
        <time>2016-06-06T20:15:58.000Z</time>
      </trkpt>
      <trkpt lat="48.85687" lon="2.34701">
        <ele>41.200000762939</ele>
        <time>2016-06-06T20:16:05.000Z</time>
      </trkpt>
      <trkpt lat="48.85703" lon="2.34716">
        <ele>40.799999237061</ele>
        <time>2016-06-06T20:16:15.000Z</time>
      </trkpt>
      <trkpt lat="48.85711" lon="2.34733">
        <ele>40.799999237061</ele>
        <time>2016-06-06T20:17:00.000Z</time>
      </trkpt>
      <trkpt lat="48.85726" lon="2.34749">
        <ele>40.599998474121</ele>
        <time>2016-06-06T20:17:10.000Z</time>
      </trkpt>
      <trkpt lat="48.85746" lon="2.34759">
        <ele>40</ele>
        <time>2016-06-06T20:17:16.000Z</time>
      </trkpt>
      <trkpt lat="48.85765" lon="2.34765">
        <ele>39.599998474121</ele>
        <time>2016-06-06T20:17:21.000Z</time>
      </trkpt>
      <trkpt lat="48.8578" lon="2.34749">
        <ele>40.599998474121</ele>
        <time>2016-06-06T20:17:26.000Z</time>
      </trkpt>
      <trkpt lat="48.85794" lon="2.34728">
        <ele>41.200000762939</ele>
        <time>2016-06-06T20:17:31.000Z</time>
      </trkpt>
      <trkpt lat="48.85813" lon="2.34725">
        <ele>42.599998474121</ele>
        <time>2016-06-06T20:17:36.000Z</time>
      </trkpt>
      <trkpt lat="48.85833" lon="2.34728">
        <ele>44.400001525879</ele>
        <time>2016-06-06T20:17:41.000Z</time>
      </trkpt>
      <trkpt lat="48.85851" lon="2.34734">
        <ele>46.599998474121</ele>
        <time>2016-06-06T20:17:46.000Z</time>
      </trkpt>
      <trkpt lat="48.85864" lon="2.34735">
        <ele>47</ele>
        <time>2016-06-06T20:17:52.000Z</time>
      </trkpt>
      <trkpt lat="48.85872" lon="2.34738">
        <ele>46.599998474121</ele>
        <time>2016-06-06T20:17:58.000Z</time>
      </trkpt>
      <trkpt lat="48.85889" lon="2.34732">
        <ele>46.200000762939</ele>
        <time>2016-06-06T20:18:05.000Z</time>
      </trkpt>
      <trkpt lat="48.85908" lon="2.34723">
        <ele>45.799999237061</ele>
        <time>2016-06-06T20:18:10.000Z</time>
      </trkpt>
      <trkpt lat="48.85927" lon="2.34709">
        <ele>45.599998474121</ele>
        <time>2016-06-06T20:18:15.000Z</time>
      </trkpt>
      <trkpt lat="48.85945" lon="2.34701">
        <ele>45.799999237061</ele>
        <time>2016-06-06T20:18:21.000Z</time>
      </trkpt>
      <trkpt lat="48.85955" lon="2.34709">
        <ele>45.599998474121</ele>
        <time>2016-06-06T20:18:29.000Z</time>
      </trkpt>
      <trkpt lat="48.85952" lon="2.34714">
        <ele>45.400001525879</ele>
        <time>2016-06-06T20:18:41.000Z</time>
      </trkpt>
    </trkseg>
  </trk>
  <trk>
    <name><![CDATA[lundi 2016 06 13]]></name>
    <trkseg>
      <trkpt lat="48.85648" lon="2.34684">
        <ele>44.400001525879</ele>
        <time>2016-06-13T18:21:37.000Z</time>
      </trkpt>
      <trkpt lat="48.85632" lon="2.34683">
        <ele>45.799999237061</ele>
        <time>2016-06-13T18:21:38.000Z</time>
      </trkpt>
      <trkpt lat="48.85697" lon="2.34678">
        <ele>41</ele>
        <time>2016-06-13T18:21:41.000Z</time>
      </trkpt>
      <trkpt lat="48.85685" lon="2.34671">
        <ele>41.400001525879</ele>
        <time>2016-06-13T18:21:45.000Z</time>
      </trkpt>
      <trkpt lat="48.85672" lon="2.34664">
        <ele>42.400001525879</ele>
        <time>2016-06-13T18:21:49.000Z</time>
      </trkpt>
      <trkpt lat="48.85659" lon="2.34654">
        <ele>43.599998474121</ele>
        <time>2016-06-13T18:21:53.000Z</time>
      </trkpt>
      <trkpt lat="48.85655" lon="2.34652">
        <ele>43.799999237061</ele>
        <time>2016-06-13T18:21:54.000Z</time>
      </trkpt>
      <trkpt lat="48.85636" lon="2.34641">
        <ele>45.400001525879</ele>
        <time>2016-06-13T18:22:00.000Z</time>
      </trkpt>
      <trkpt lat="48.85617" lon="2.34635">
        <ele>47</ele>
        <time>2016-06-13T18:22:06.000Z</time>
      </trkpt>
      <trkpt lat="48.85598" lon="2.34625">
        <ele>48</ele>
        <time>2016-06-13T18:22:11.000Z</time>
      </trkpt>
      <trkpt lat="48.85578" lon="2.34615">
        <ele>47.599998474121</ele>
        <time>2016-06-13T18:22:16.000Z</time>
      </trkpt>
      <trkpt lat="48.85557" lon="2.34603">
        <ele>47.400001525879</ele>
        <time>2016-06-13T18:22:21.000Z</time>
      </trkpt>
      <trkpt lat="48.85537" lon="2.34587">
        <ele>47.200000762939</ele>
        <time>2016-06-13T18:22:26.000Z</time>
      </trkpt>
      <trkpt lat="48.85518" lon="2.3457">
        <ele>46.400001525879</ele>
        <time>2016-06-13T18:22:31.000Z</time>
      </trkpt>
      <trkpt lat="48.85501" lon="2.34555">
        <ele>45.200000762939</ele>
        <time>2016-06-13T18:22:36.000Z</time>
      </trkpt>
      <trkpt lat="48.85484" lon="2.34541">
        <ele>44.200000762939</ele>
        <time>2016-06-13T18:22:41.000Z</time>
      </trkpt>
      <trkpt lat="48.85468" lon="2.34525">
        <ele>43</ele>
        <time>2016-06-13T18:22:46.000Z</time>
      </trkpt>
      <trkpt lat="48.85465" lon="2.34521">
        <ele>42.799999237061</ele>
        <time>2016-06-13T18:22:47.000Z</time>
      </trkpt>
      <trkpt lat="48.85455" lon="2.34499">
        <ele>41.599998474121</ele>
        <time>2016-06-13T18:22:51.000Z</time>
      </trkpt>
      <trkpt lat="48.85438" lon="2.34481">
        <ele>40.599998474121</ele>
        <time>2016-06-13T18:22:56.000Z</time>
      </trkpt>
      <trkpt lat="48.85422" lon="2.34465">
        <ele>41</ele>
        <time>2016-06-13T18:23:01.000Z</time>
      </trkpt>
      <trkpt lat="48.85405" lon="2.34451">
        <ele>41.799999237061</ele>
        <time>2016-06-13T18:23:07.000Z</time>
      </trkpt>
      <trkpt lat="48.85388" lon="2.34433">
        <ele>42.400001525879</ele>
        <time>2016-06-13T18:23:14.000Z</time>
      </trkpt>
      <trkpt lat="48.8537" lon="2.34415">
        <ele>43</ele>
        <time>2016-06-13T18:23:20.000Z</time>
      </trkpt>
      <trkpt lat="48.85352" lon="2.34409">
        <ele>44.200000762939</ele>
        <time>2016-06-13T18:23:25.000Z</time>
      </trkpt>
      <trkpt lat="48.85331" lon="2.34411">
        <ele>46</ele>
        <time>2016-06-13T18:23:30.000Z</time>
      </trkpt>
      <trkpt lat="48.85311" lon="2.34404">
        <ele>47.400001525879</ele>
        <time>2016-06-13T18:23:35.000Z</time>
      </trkpt>
      <trkpt lat="48.85291" lon="2.34394">
        <ele>49</ele>
        <time>2016-06-13T18:23:40.000Z</time>
      </trkpt>
      <trkpt lat="48.85273" lon="2.34388">
        <ele>50.400001525879</ele>
        <time>2016-06-13T18:23:44.000Z</time>
      </trkpt>
      <trkpt lat="48.85252" lon="2.34381">
        <ele>50.200000762939</ele>
        <time>2016-06-13T18:23:49.000Z</time>
      </trkpt>
      <trkpt lat="48.85235" lon="2.34371">
        <ele>50</ele>
        <time>2016-06-13T18:23:53.000Z</time>
      </trkpt>
      <trkpt lat="48.85217" lon="2.34359">
        <ele>49.599998474121</ele>
        <time>2016-06-13T18:23:57.000Z</time>
      </trkpt>
      <trkpt lat="48.85197" lon="2.34352">
        <ele>49.200000762939</ele>
        <time>2016-06-13T18:24:01.000Z</time>
      </trkpt>
      <trkpt lat="48.85182" lon="2.34348">
        <ele>48.799999237061</ele>
        <time>2016-06-13T18:24:04.000Z</time>
      </trkpt>
      <trkpt lat="48.85164" lon="2.34339">
        <ele>48.400001525879</ele>
        <time>2016-06-13T18:24:09.000Z</time>
      </trkpt>
      <trkpt lat="48.85158" lon="2.34333">
        <ele>48.200000762939</ele>
        <time>2016-06-13T18:24:11.000Z</time>
      </trkpt>
      <trkpt lat="48.85151" lon="2.34327">
        <ele>48.200000762939</ele>
        <time>2016-06-13T18:24:14.000Z</time>
      </trkpt>
      <trkpt lat="48.85138" lon="2.34324">
        <ele>48</ele>
        <time>2016-06-13T18:24:23.000Z</time>
      </trkpt>
      <trkpt lat="48.85134" lon="2.34334">
        <ele>47.599998474121</ele>
        <time>2016-06-13T18:24:25.000Z</time>
      </trkpt>
      <trkpt lat="48.85123" lon="2.34363">
        <ele>47.200000762939</ele>
        <time>2016-06-13T18:24:30.000Z</time>
      </trkpt>
      <trkpt lat="48.85117" lon="2.34394">
        <ele>46.599998474121</ele>
        <time>2016-06-13T18:24:34.000Z</time>
      </trkpt>
      <trkpt lat="48.85111" lon="2.34422">
        <ele>46</ele>
        <time>2016-06-13T18:24:38.000Z</time>
      </trkpt>
      <trkpt lat="48.85105" lon="2.34448">
        <ele>46.400001525879</ele>
        <time>2016-06-13T18:24:42.000Z</time>
      </trkpt>
      <trkpt lat="48.85101" lon="2.34479">
        <ele>47.200000762939</ele>
        <time>2016-06-13T18:24:47.000Z</time>
      </trkpt>
      <trkpt lat="48.85096" lon="2.34506">
        <ele>47.799999237061</ele>
        <time>2016-06-13T18:24:51.000Z</time>
      </trkpt>
      <trkpt lat="48.85093" lon="2.34533">
        <ele>47.799999237061</ele>
        <time>2016-06-13T18:24:55.000Z</time>
      </trkpt>
      <trkpt lat="48.85089" lon="2.34552">
        <ele>48</ele>
        <time>2016-06-13T18:24:58.000Z</time>
      </trkpt>
      <trkpt lat="48.8508" lon="2.3458">
        <ele>48.200000762939</ele>
        <time>2016-06-13T18:25:02.000Z</time>
      </trkpt>
      <trkpt lat="48.85071" lon="2.34612">
        <ele>49.200000762939</ele>
        <time>2016-06-13T18:25:06.000Z</time>
      </trkpt>
      <trkpt lat="48.85065" lon="2.34643">
        <ele>48.200000762939</ele>
        <time>2016-06-13T18:25:10.000Z</time>
      </trkpt>
      <trkpt lat="48.85058" lon="2.34676">
        <ele>46.200000762939</ele>
        <time>2016-06-13T18:25:14.000Z</time>
      </trkpt>
      <trkpt lat="48.8505" lon="2.34708">
        <ele>45.200000762939</ele>
        <time>2016-06-13T18:25:18.000Z</time>
      </trkpt>
      <trkpt lat="48.85044" lon="2.34742">
        <ele>44.400001525879</ele>
        <time>2016-06-13T18:25:22.000Z</time>
      </trkpt>
      <trkpt lat="48.85038" lon="2.34768">
        <ele>43.400001525879</ele>
        <time>2016-06-13T18:25:25.000Z</time>
      </trkpt>
      <trkpt lat="48.85032" lon="2.34801">
        <ele>42.599998474121</ele>
        <time>2016-06-13T18:25:29.000Z</time>
      </trkpt>
      <trkpt lat="48.85025" lon="2.34828">
        <ele>42</ele>
        <time>2016-06-13T18:25:32.000Z</time>
      </trkpt>
      <trkpt lat="48.85016" lon="2.34855">
        <ele>42.799999237061</ele>
        <time>2016-06-13T18:25:35.000Z</time>
      </trkpt>
      <trkpt lat="48.85008" lon="2.34881">
        <ele>44</ele>
        <time>2016-06-13T18:25:38.000Z</time>
      </trkpt>
      <trkpt lat="48.84998" lon="2.34912">
        <ele>45.599998474121</ele>
        <time>2016-06-13T18:25:42.000Z</time>
      </trkpt>
      <trkpt lat="48.8499" lon="2.34946">
        <ele>47.200000762939</ele>
        <time>2016-06-13T18:25:46.000Z</time>
      </trkpt>
      <trkpt lat="48.84982" lon="2.34981">
        <ele>46.400001525879</ele>
        <time>2016-06-13T18:25:50.000Z</time>
      </trkpt>
      <trkpt lat="48.84976" lon="2.35007">
        <ele>44.799999237061</ele>
        <time>2016-06-13T18:25:53.000Z</time>
      </trkpt>
      <trkpt lat="48.84973" lon="2.35023">
        <ele>44.599998474121</ele>
        <time>2016-06-13T18:25:55.000Z</time>
      </trkpt>
      <trkpt lat="48.84964" lon="2.35054">
        <ele>43.599998474121</ele>
        <time>2016-06-13T18:25:59.000Z</time>
      </trkpt>
      <trkpt lat="48.84963" lon="2.35063">
        <ele>43.200000762939</ele>
        <time>2016-06-13T18:26:00.000Z</time>
      </trkpt>
      <trkpt lat="48.84958" lon="2.35098">
        <ele>42.400001525879</ele>
        <time>2016-06-13T18:26:04.000Z</time>
      </trkpt>
      <trkpt lat="48.84957" lon="2.35125">
        <ele>42.799999237061</ele>
        <time>2016-06-13T18:26:07.000Z</time>
      </trkpt>
      <trkpt lat="48.84954" lon="2.35152">
        <ele>43</ele>
        <time>2016-06-13T18:26:10.000Z</time>
      </trkpt>
      <trkpt lat="48.84953" lon="2.35161">
        <ele>43.200000762939</ele>
        <time>2016-06-13T18:26:11.000Z</time>
      </trkpt>
      <trkpt lat="48.8495" lon="2.35195">
        <ele>42.599998474121</ele>
        <time>2016-06-13T18:26:15.000Z</time>
      </trkpt>
      <trkpt lat="48.84948" lon="2.35228">
        <ele>42.200000762939</ele>
        <time>2016-06-13T18:26:19.000Z</time>
      </trkpt>
      <trkpt lat="48.84948" lon="2.35235">
        <ele>42.200000762939</ele>
        <time>2016-06-13T18:26:20.000Z</time>
      </trkpt>
      <trkpt lat="48.84947" lon="2.35268">
        <ele>41.799999237061</ele>
        <time>2016-06-13T18:26:24.000Z</time>
      </trkpt>
      <trkpt lat="48.84944" lon="2.353">
        <ele>42.400001525879</ele>
        <time>2016-06-13T18:26:28.000Z</time>
      </trkpt>
      <trkpt lat="48.84942" lon="2.35333">
        <ele>42.799999237061</ele>
        <time>2016-06-13T18:26:32.000Z</time>
      </trkpt>
      <trkpt lat="48.84936" lon="2.35366">
        <ele>44.599998474121</ele>
        <time>2016-06-13T18:26:36.000Z</time>
      </trkpt>
      <trkpt lat="48.84933" lon="2.35399">
        <ele>46</ele>
        <time>2016-06-13T18:26:40.000Z</time>
      </trkpt>
      <trkpt lat="48.84932" lon="2.35432">
        <ele>45.799999237061</ele>
        <time>2016-06-13T18:26:44.000Z</time>
      </trkpt>
      <trkpt lat="48.84937" lon="2.35463">
        <ele>45</ele>
        <time>2016-06-13T18:26:48.000Z</time>
      </trkpt>
      <trkpt lat="48.84933" lon="2.35498">
        <ele>43.799999237061</ele>
        <time>2016-06-13T18:26:52.000Z</time>
      </trkpt>
      <trkpt lat="48.84932" lon="2.35532">
        <ele>40</ele>
        <time>2016-06-13T18:26:56.000Z</time>
      </trkpt>
      <trkpt lat="48.84933" lon="2.35565">
        <ele>36.400001525879</ele>
        <time>2016-06-13T18:27:00.000Z</time>
      </trkpt>
      <trkpt lat="48.84932" lon="2.35595">
        <ele>34.599998474121</ele>
        <time>2016-06-13T18:27:05.000Z</time>
      </trkpt>
      <trkpt lat="48.84932" lon="2.35603">
        <ele>34.400001525879</ele>
        <time>2016-06-13T18:27:08.000Z</time>
      </trkpt>
      <trkpt lat="48.84933" lon="2.35606">
        <ele>34.200000762939</ele>
        <time>2016-06-13T18:27:12.000Z</time>
      </trkpt>
      <trkpt lat="48.84933" lon="2.35606">
        <ele>34.200000762939</ele>
        <time>2016-06-13T18:27:13.000Z</time>
      </trkpt>
      <trkpt lat="48.84933" lon="2.35635">
        <ele>33.200000762939</ele>
        <time>2016-06-13T18:27:28.000Z</time>
      </trkpt>
      <trkpt lat="48.84931" lon="2.35663">
        <ele>32.599998474121</ele>
        <time>2016-06-13T18:27:33.000Z</time>
      </trkpt>
      <trkpt lat="48.84928" lon="2.35689">
        <ele>32.200000762939</ele>
        <time>2016-06-13T18:27:40.000Z</time>
      </trkpt>
      <trkpt lat="48.84927" lon="2.3569">
        <ele>32.200000762939</ele>
        <time>2016-06-13T18:27:41.000Z</time>
      </trkpt>
      <trkpt lat="48.84923" lon="2.35691">
        <ele>32.599998474121</ele>
        <time>2016-06-13T18:27:45.000Z</time>
      </trkpt>
      <trkpt lat="48.84926" lon="2.35692">
        <ele>32.200000762939</ele>
        <time>2016-06-13T18:28:03.000Z</time>
      </trkpt>
      <trkpt lat="48.84932" lon="2.35706">
        <ele>31.39999961853</ele>
        <time>2016-06-13T18:28:14.000Z</time>
      </trkpt>
      <trkpt lat="48.84926" lon="2.35736">
        <ele>31.39999961853</ele>
        <time>2016-06-13T18:28:20.000Z</time>
      </trkpt>
      <trkpt lat="48.84917" lon="2.35753">
        <ele>32.400001525879</ele>
        <time>2016-06-13T18:28:23.000Z</time>
      </trkpt>
      <trkpt lat="48.84904" lon="2.35773">
        <ele>34</ele>
        <time>2016-06-13T18:28:26.000Z</time>
      </trkpt>
      <trkpt lat="48.84888" lon="2.35798">
        <ele>34.799999237061</ele>
        <time>2016-06-13T18:28:30.000Z</time>
      </trkpt>
      <trkpt lat="48.84874" lon="2.35821">
        <ele>34</ele>
        <time>2016-06-13T18:28:34.000Z</time>
      </trkpt>
      <trkpt lat="48.84858" lon="2.35846">
        <ele>33.400001525879</ele>
        <time>2016-06-13T18:28:38.000Z</time>
      </trkpt>
      <trkpt lat="48.84842" lon="2.35868">
        <ele>32.799999237061</ele>
        <time>2016-06-13T18:28:42.000Z</time>
      </trkpt>
      <trkpt lat="48.84826" lon="2.35888">
        <ele>32.400001525879</ele>
        <time>2016-06-13T18:28:46.000Z</time>
      </trkpt>
      <trkpt lat="48.84813" lon="2.35907">
        <ele>32.200000762939</ele>
        <time>2016-06-13T18:28:50.000Z</time>
      </trkpt>
      <trkpt lat="48.84798" lon="2.35927">
        <ele>32.400001525879</ele>
        <time>2016-06-13T18:28:55.000Z</time>
      </trkpt>
      <trkpt lat="48.84783" lon="2.3595">
        <ele>32.400001525879</ele>
        <time>2016-06-13T18:28:59.000Z</time>
      </trkpt>
      <trkpt lat="48.84765" lon="2.35972">
        <ele>32.599998474121</ele>
        <time>2016-06-13T18:29:03.000Z</time>
      </trkpt>
      <trkpt lat="48.8475" lon="2.35996">
        <ele>33.400001525879</ele>
        <time>2016-06-13T18:29:07.000Z</time>
      </trkpt>
      <trkpt lat="48.84738" lon="2.36018">
        <ele>33.400001525879</ele>
        <time>2016-06-13T18:29:11.000Z</time>
      </trkpt>
      <trkpt lat="48.84736" lon="2.36023">
        <ele>33.200000762939</ele>
        <time>2016-06-13T18:29:12.000Z</time>
      </trkpt>
      <trkpt lat="48.8472" lon="2.36047">
        <ele>33</ele>
        <time>2016-06-13T18:29:16.000Z</time>
      </trkpt>
      <trkpt lat="48.84703" lon="2.36068">
        <ele>32.400001525879</ele>
        <time>2016-06-13T18:29:20.000Z</time>
      </trkpt>
      <trkpt lat="48.84689" lon="2.36089">
        <ele>31.60000038147</ele>
        <time>2016-06-13T18:29:24.000Z</time>
      </trkpt>
      <trkpt lat="48.84683" lon="2.361">
        <ele>31</ele>
        <time>2016-06-13T18:29:26.000Z</time>
      </trkpt>
      <trkpt lat="48.84669" lon="2.36124">
        <ele>30</ele>
        <time>2016-06-13T18:29:31.000Z</time>
      </trkpt>
      <trkpt lat="48.84654" lon="2.3614">
        <ele>29.60000038147</ele>
        <time>2016-06-13T18:29:35.000Z</time>
      </trkpt>
      <trkpt lat="48.84641" lon="2.36157">
        <ele>29.799999237061</ele>
        <time>2016-06-13T18:29:39.000Z</time>
      </trkpt>
      <trkpt lat="48.84633" lon="2.36168">
        <ele>30.200000762939</ele>
        <time>2016-06-13T18:29:41.000Z</time>
      </trkpt>
      <trkpt lat="48.84617" lon="2.36193">
        <ele>31.39999961853</ele>
        <time>2016-06-13T18:29:45.000Z</time>
      </trkpt>
      <trkpt lat="48.84605" lon="2.36213">
        <ele>31.60000038147</ele>
        <time>2016-06-13T18:29:48.000Z</time>
      </trkpt>
      <trkpt lat="48.84588" lon="2.36237">
        <ele>32.200000762939</ele>
        <time>2016-06-13T18:29:52.000Z</time>
      </trkpt>
      <trkpt lat="48.84574" lon="2.36257">
        <ele>32.400001525879</ele>
        <time>2016-06-13T18:29:56.000Z</time>
      </trkpt>
      <trkpt lat="48.84557" lon="2.3628">
        <ele>32</ele>
        <time>2016-06-13T18:30:00.000Z</time>
      </trkpt>
      <trkpt lat="48.84543" lon="2.36302">
        <ele>32.799999237061</ele>
        <time>2016-06-13T18:30:04.000Z</time>
      </trkpt>
      <trkpt lat="48.84527" lon="2.36323">
        <ele>33.799999237061</ele>
        <time>2016-06-13T18:30:08.000Z</time>
      </trkpt>
      <trkpt lat="48.84512" lon="2.36342">
        <ele>33.799999237061</ele>
        <time>2016-06-13T18:30:12.000Z</time>
      </trkpt>
      <trkpt lat="48.84502" lon="2.36357">
        <ele>33.599998474121</ele>
        <time>2016-06-13T18:30:15.000Z</time>
      </trkpt>
      <trkpt lat="48.84488" lon="2.36376">
        <ele>33.400001525879</ele>
        <time>2016-06-13T18:30:20.000Z</time>
      </trkpt>
      <trkpt lat="48.84485" lon="2.36379">
        <ele>33.400001525879</ele>
        <time>2016-06-13T18:30:21.000Z</time>
      </trkpt>
      <trkpt lat="48.84468" lon="2.36377">
        <ele>34.599998474121</ele>
        <time>2016-06-13T18:30:27.000Z</time>
      </trkpt>
      <trkpt lat="48.84465" lon="2.36376">
        <ele>34.799999237061</ele>
        <time>2016-06-13T18:30:28.000Z</time>
      </trkpt>
      <trkpt lat="48.84459" lon="2.36375">
        <ele>35.200000762939</ele>
        <time>2016-06-13T18:30:30.000Z</time>
      </trkpt>
      <trkpt lat="48.84441" lon="2.36373">
        <ele>36.400001525879</ele>
        <time>2016-06-13T18:30:36.000Z</time>
      </trkpt>
      <trkpt lat="48.84422" lon="2.36379">
        <ele>36.799999237061</ele>
        <time>2016-06-13T18:30:43.000Z</time>
      </trkpt>
      <trkpt lat="48.8441" lon="2.36384">
        <ele>37</ele>
        <time>2016-06-13T18:30:47.000Z</time>
      </trkpt>
      <trkpt lat="48.84395" lon="2.364">
        <ele>36.799999237061</ele>
        <time>2016-06-13T18:30:56.000Z</time>
      </trkpt>
      <trkpt lat="48.84389" lon="2.36409">
        <ele>36.799999237061</ele>
        <time>2016-06-13T18:30:59.000Z</time>
      </trkpt>
      <trkpt lat="48.84374" lon="2.36436">
        <ele>35.200000762939</ele>
        <time>2016-06-13T18:31:51.000Z</time>
      </trkpt>
      <trkpt lat="48.84369" lon="2.36456">
        <ele>36.400001525879</ele>
        <time>2016-06-13T18:32:29.000Z</time>
      </trkpt>
      <trkpt lat="48.84361" lon="2.36481">
        <ele>38</ele>
        <time>2016-06-13T18:32:38.000Z</time>
      </trkpt>
      <trkpt lat="48.84362" lon="2.36509">
        <ele>38</ele>
        <time>2016-06-13T18:32:46.000Z</time>
      </trkpt>
      <trkpt lat="48.8437" lon="2.36536">
        <ele>36.400001525879</ele>
        <time>2016-06-13T18:32:53.000Z</time>
      </trkpt>
      <trkpt lat="48.84357" lon="2.36563">
        <ele>36.599998474121</ele>
        <time>2016-06-13T18:33:00.000Z</time>
      </trkpt>
      <trkpt lat="48.84342" lon="2.36583">
        <ele>36.799999237061</ele>
        <time>2016-06-13T18:33:04.000Z</time>
      </trkpt>
      <trkpt lat="48.84325" lon="2.36608">
        <ele>36.200000762939</ele>
        <time>2016-06-13T18:33:08.000Z</time>
      </trkpt>
      <trkpt lat="48.8431" lon="2.36626">
        <ele>36</ele>
        <time>2016-06-13T18:33:11.000Z</time>
      </trkpt>
      <trkpt lat="48.84293" lon="2.36648">
        <ele>35.799999237061</ele>
        <time>2016-06-13T18:33:15.000Z</time>
      </trkpt>
      <trkpt lat="48.84276" lon="2.36669">
        <ele>35.799999237061</ele>
        <time>2016-06-13T18:33:18.000Z</time>
      </trkpt>
      <trkpt lat="48.84258" lon="2.3669">
        <ele>34.400001525879</ele>
        <time>2016-06-13T18:33:21.000Z</time>
      </trkpt>
      <trkpt lat="48.84241" lon="2.36713">
        <ele>33</ele>
        <time>2016-06-13T18:33:24.000Z</time>
      </trkpt>
      <trkpt lat="48.84226" lon="2.36732">
        <ele>32.799999237061</ele>
        <time>2016-06-13T18:33:27.000Z</time>
      </trkpt>
      <trkpt lat="48.8422" lon="2.36737">
        <ele>32.799999237061</ele>
        <time>2016-06-13T18:33:28.000Z</time>
      </trkpt>
      <trkpt lat="48.84207" lon="2.36753">
        <ele>33</ele>
        <time>2016-06-13T18:33:31.000Z</time>
      </trkpt>
      <trkpt lat="48.84195" lon="2.36769">
        <ele>33.799999237061</ele>
        <time>2016-06-13T18:33:35.000Z</time>
      </trkpt>
      <trkpt lat="48.84191" lon="2.36774">
        <ele>34.200000762939</ele>
        <time>2016-06-13T18:33:38.000Z</time>
      </trkpt>
      <trkpt lat="48.8418" lon="2.36795">
        <ele>35</ele>
        <time>2016-06-13T18:33:51.000Z</time>
      </trkpt>
      <trkpt lat="48.84168" lon="2.3682">
        <ele>35.599998474121</ele>
        <time>2016-06-13T18:33:56.000Z</time>
      </trkpt>
      <trkpt lat="48.84152" lon="2.36843">
        <ele>35.200000762939</ele>
        <time>2016-06-13T18:34:00.000Z</time>
      </trkpt>
      <trkpt lat="48.84138" lon="2.36863">
        <ele>33.799999237061</ele>
        <time>2016-06-13T18:34:03.000Z</time>
      </trkpt>
      <trkpt lat="48.84123" lon="2.36885">
        <ele>34</ele>
        <time>2016-06-13T18:34:06.000Z</time>
      </trkpt>
      <trkpt lat="48.84105" lon="2.36909">
        <ele>34.200000762939</ele>
        <time>2016-06-13T18:34:09.000Z</time>
      </trkpt>
      <trkpt lat="48.84084" lon="2.36935">
        <ele>33.200000762939</ele>
        <time>2016-06-13T18:34:12.000Z</time>
      </trkpt>
      <trkpt lat="48.84063" lon="2.36954">
        <ele>32.599998474121</ele>
        <time>2016-06-13T18:34:15.000Z</time>
      </trkpt>
      <trkpt lat="48.84045" lon="2.36973">
        <ele>32.799999237061</ele>
        <time>2016-06-13T18:34:19.000Z</time>
      </trkpt>
      <trkpt lat="48.84021" lon="2.36985">
        <ele>33.200000762939</ele>
        <time>2016-06-13T18:34:22.000Z</time>
      </trkpt>
      <trkpt lat="48.84001" lon="2.37001">
        <ele>33</ele>
        <time>2016-06-13T18:34:24.000Z</time>
      </trkpt>
      <trkpt lat="48.83982" lon="2.37027">
        <ele>33</ele>
        <time>2016-06-13T18:34:27.000Z</time>
      </trkpt>
      <trkpt lat="48.83964" lon="2.37053">
        <ele>33.400001525879</ele>
        <time>2016-06-13T18:34:30.000Z</time>
      </trkpt>
      <trkpt lat="48.83946" lon="2.3708">
        <ele>33.799999237061</ele>
        <time>2016-06-13T18:34:33.000Z</time>
      </trkpt>
      <trkpt lat="48.8393" lon="2.37107">
        <ele>33.599998474121</ele>
        <time>2016-06-13T18:34:36.000Z</time>
      </trkpt>
      <trkpt lat="48.83912" lon="2.37134">
        <ele>33</ele>
        <time>2016-06-13T18:34:39.000Z</time>
      </trkpt>
      <trkpt lat="48.83893" lon="2.3716">
        <ele>32.400001525879</ele>
        <time>2016-06-13T18:34:42.000Z</time>
      </trkpt>
      <trkpt lat="48.83873" lon="2.37185">
        <ele>31.799999237061</ele>
        <time>2016-06-13T18:34:45.000Z</time>
      </trkpt>
      <trkpt lat="48.83859" lon="2.37203">
        <ele>32</ele>
        <time>2016-06-13T18:34:47.000Z</time>
      </trkpt>
      <trkpt lat="48.83845" lon="2.37233">
        <ele>33.200000762939</ele>
        <time>2016-06-13T18:34:50.000Z</time>
      </trkpt>
      <trkpt lat="48.8383" lon="2.37261">
        <ele>34</ele>
        <time>2016-06-13T18:34:53.000Z</time>
      </trkpt>
      <trkpt lat="48.83816" lon="2.37287">
        <ele>34.400001525879</ele>
        <time>2016-06-13T18:34:56.000Z</time>
      </trkpt>
      <trkpt lat="48.83801" lon="2.3731">
        <ele>35.599998474121</ele>
        <time>2016-06-13T18:34:59.000Z</time>
      </trkpt>
      <trkpt lat="48.83784" lon="2.37329">
        <ele>37.200000762939</ele>
        <time>2016-06-13T18:35:02.000Z</time>
      </trkpt>
      <trkpt lat="48.83773" lon="2.37341">
        <ele>38</ele>
        <time>2016-06-13T18:35:04.000Z</time>
      </trkpt>
      <trkpt lat="48.8376" lon="2.37354">
        <ele>38.799999237061</ele>
        <time>2016-06-13T18:35:07.000Z</time>
      </trkpt>
      <trkpt lat="48.83746" lon="2.37366">
        <ele>39.599998474121</ele>
        <time>2016-06-13T18:35:11.000Z</time>
      </trkpt>
      <trkpt lat="48.83752" lon="2.37377">
        <ele>39.599998474121</ele>
        <time>2016-06-13T18:35:39.000Z</time>
      </trkpt>
      <trkpt lat="48.83741" lon="2.37388">
        <ele>40.200000762939</ele>
        <time>2016-06-13T18:36:04.000Z</time>
      </trkpt>
      <trkpt lat="48.83722" lon="2.37404">
        <ele>41.200000762939</ele>
        <time>2016-06-13T18:36:09.000Z</time>
      </trkpt>
      <trkpt lat="48.83706" lon="2.37419">
        <ele>42.200000762939</ele>
        <time>2016-06-13T18:36:13.000Z</time>
      </trkpt>
      <trkpt lat="48.83688" lon="2.37434">
        <ele>42.599998474121</ele>
        <time>2016-06-13T18:36:17.000Z</time>
      </trkpt>
      <trkpt lat="48.83669" lon="2.3746">
        <ele>41.599998474121</ele>
        <time>2016-06-13T18:36:20.000Z</time>
      </trkpt>
      <trkpt lat="48.83651" lon="2.37478">
        <ele>41.599998474121</ele>
        <time>2016-06-13T18:36:23.000Z</time>
      </trkpt>
      <trkpt lat="48.83633" lon="2.37491">
        <ele>42.200000762939</ele>
        <time>2016-06-13T18:36:26.000Z</time>
      </trkpt>
      <trkpt lat="48.83612" lon="2.37505">
        <ele>43.200000762939</ele>
        <time>2016-06-13T18:36:29.000Z</time>
      </trkpt>
      <trkpt lat="48.83596" lon="2.3752">
        <ele>40.599998474121</ele>
        <time>2016-06-13T18:36:32.000Z</time>
      </trkpt>
      <trkpt lat="48.83577" lon="2.37536">
        <ele>38</ele>
        <time>2016-06-13T18:36:36.000Z</time>
      </trkpt>
      <trkpt lat="48.83559" lon="2.37555">
        <ele>36.799999237061</ele>
        <time>2016-06-13T18:36:40.000Z</time>
      </trkpt>
      <trkpt lat="48.83532" lon="2.37574">
        <ele>37</ele>
        <time>2016-06-13T18:36:45.000Z</time>
      </trkpt>
      <trkpt lat="48.83513" lon="2.3759">
        <ele>36.200000762939</ele>
        <time>2016-06-13T18:36:49.000Z</time>
      </trkpt>
      <trkpt lat="48.83496" lon="2.37609">
        <ele>34.799999237061</ele>
        <time>2016-06-13T18:36:53.000Z</time>
      </trkpt>
      <trkpt lat="48.83479" lon="2.37626">
        <ele>33.799999237061</ele>
        <time>2016-06-13T18:36:57.000Z</time>
      </trkpt>
      <trkpt lat="48.83462" lon="2.37644">
        <ele>35.599998474121</ele>
        <time>2016-06-13T18:37:01.000Z</time>
      </trkpt>
      <trkpt lat="48.83448" lon="2.37661">
        <ele>37.200000762939</ele>
        <time>2016-06-13T18:37:04.000Z</time>
      </trkpt>
      <trkpt lat="48.8343" lon="2.37685">
        <ele>38.400001525879</ele>
        <time>2016-06-13T18:37:08.000Z</time>
      </trkpt>
      <trkpt lat="48.83416" lon="2.37703">
        <ele>39</ele>
        <time>2016-06-13T18:37:11.000Z</time>
      </trkpt>
      <trkpt lat="48.83399" lon="2.37725">
        <ele>40</ele>
        <time>2016-06-13T18:37:15.000Z</time>
      </trkpt>
      <trkpt lat="48.83382" lon="2.37746">
        <ele>41.599998474121</ele>
        <time>2016-06-13T18:37:19.000Z</time>
      </trkpt>
      <trkpt lat="48.83361" lon="2.37769">
        <ele>42.799999237061</ele>
        <time>2016-06-13T18:37:23.000Z</time>
      </trkpt>
      <trkpt lat="48.83344" lon="2.37789">
        <ele>43</ele>
        <time>2016-06-13T18:37:26.000Z</time>
      </trkpt>
      <trkpt lat="48.8333" lon="2.37807">
        <ele>43</ele>
        <time>2016-06-13T18:37:29.000Z</time>
      </trkpt>
      <trkpt lat="48.83316" lon="2.37825">
        <ele>43.400001525879</ele>
        <time>2016-06-13T18:37:32.000Z</time>
      </trkpt>
      <trkpt lat="48.83301" lon="2.37849">
        <ele>44</ele>
        <time>2016-06-13T18:37:35.000Z</time>
      </trkpt>
      <trkpt lat="48.83295" lon="2.37863">
        <ele>44.599998474121</ele>
        <time>2016-06-13T18:37:37.000Z</time>
      </trkpt>
      <trkpt lat="48.83282" lon="2.37885">
        <ele>45.799999237061</ele>
        <time>2016-06-13T18:37:41.000Z</time>
      </trkpt>
      <trkpt lat="48.83274" lon="2.37894">
        <ele>46.200000762939</ele>
        <time>2016-06-13T18:37:43.000Z</time>
      </trkpt>
      <trkpt lat="48.8326" lon="2.37915">
        <ele>47</ele>
        <time>2016-06-13T18:37:47.000Z</time>
      </trkpt>
      <trkpt lat="48.83248" lon="2.37937">
        <ele>45.599998474121</ele>
        <time>2016-06-13T18:37:52.000Z</time>
      </trkpt>
      <trkpt lat="48.8324" lon="2.37954">
        <ele>44.599998474121</ele>
        <time>2016-06-13T18:37:55.000Z</time>
      </trkpt>
      <trkpt lat="48.83235" lon="2.37976">
        <ele>43.400001525879</ele>
        <time>2016-06-13T18:38:00.000Z</time>
      </trkpt>
      <trkpt lat="48.83224" lon="2.37993">
        <ele>42.799999237061</ele>
        <time>2016-06-13T18:38:18.000Z</time>
      </trkpt>
      <trkpt lat="48.83209" lon="2.38015">
        <ele>40.599998474121</ele>
        <time>2016-06-13T18:38:23.000Z</time>
      </trkpt>
      <trkpt lat="48.83192" lon="2.38031">
        <ele>41.799999237061</ele>
        <time>2016-06-13T18:38:28.000Z</time>
      </trkpt>
      <trkpt lat="48.83177" lon="2.38047">
        <ele>40.799999237061</ele>
        <time>2016-06-13T18:38:32.000Z</time>
      </trkpt>
      <trkpt lat="48.83162" lon="2.38064">
        <ele>38.599998474121</ele>
        <time>2016-06-13T18:38:36.000Z</time>
      </trkpt>
      <trkpt lat="48.83147" lon="2.38082">
        <ele>35.400001525879</ele>
        <time>2016-06-13T18:38:40.000Z</time>
      </trkpt>
      <trkpt lat="48.83136" lon="2.38093">
        <ele>32.599998474121</ele>
        <time>2016-06-13T18:38:43.000Z</time>
      </trkpt>
      <trkpt lat="48.83121" lon="2.38111">
        <ele>30.39999961853</ele>
        <time>2016-06-13T18:38:47.000Z</time>
      </trkpt>
      <trkpt lat="48.83106" lon="2.38128">
        <ele>30.60000038147</ele>
        <time>2016-06-13T18:38:51.000Z</time>
      </trkpt>
      <trkpt lat="48.83087" lon="2.38147">
        <ele>32</ele>
        <time>2016-06-13T18:38:56.000Z</time>
      </trkpt>
      <trkpt lat="48.83073" lon="2.38167">
        <ele>32.599998474121</ele>
        <time>2016-06-13T18:39:00.000Z</time>
      </trkpt>
      <trkpt lat="48.8306" lon="2.38185">
        <ele>34.200000762939</ele>
        <time>2016-06-13T18:39:03.000Z</time>
      </trkpt>
      <trkpt lat="48.83041" lon="2.38205">
        <ele>34</ele>
        <time>2016-06-13T18:39:06.000Z</time>
      </trkpt>
      <trkpt lat="48.83022" lon="2.38223">
        <ele>32.200000762939</ele>
        <time>2016-06-13T18:39:09.000Z</time>
      </trkpt>
      <trkpt lat="48.83008" lon="2.38242">
        <ele>31</ele>
        <time>2016-06-13T18:39:12.000Z</time>
      </trkpt>
      <trkpt lat="48.82991" lon="2.3826">
        <ele>31.200000762939</ele>
        <time>2016-06-13T18:39:16.000Z</time>
      </trkpt>
      <trkpt lat="48.82976" lon="2.38276">
        <ele>31.39999961853</ele>
        <time>2016-06-13T18:39:20.000Z</time>
      </trkpt>
      <trkpt lat="48.82961" lon="2.38293">
        <ele>31.200000762939</ele>
        <time>2016-06-13T18:39:24.000Z</time>
      </trkpt>
      <trkpt lat="48.82945" lon="2.38312">
        <ele>31</ele>
        <time>2016-06-13T18:39:28.000Z</time>
      </trkpt>
      <trkpt lat="48.82928" lon="2.38334">
        <ele>31.799999237061</ele>
        <time>2016-06-13T18:39:32.000Z</time>
      </trkpt>
      <trkpt lat="48.82914" lon="2.38354">
        <ele>33.599998474121</ele>
        <time>2016-06-13T18:39:36.000Z</time>
      </trkpt>
      <trkpt lat="48.82899" lon="2.38374">
        <ele>35.400001525879</ele>
        <time>2016-06-13T18:39:40.000Z</time>
      </trkpt>
      <trkpt lat="48.82891" lon="2.38383">
        <ele>35</ele>
        <time>2016-06-13T18:39:42.000Z</time>
      </trkpt>
      <trkpt lat="48.82873" lon="2.38405">
        <ele>33.599998474121</ele>
        <time>2016-06-13T18:39:46.000Z</time>
      </trkpt>
      <trkpt lat="48.82856" lon="2.38425">
        <ele>32.599998474121</ele>
        <time>2016-06-13T18:39:49.000Z</time>
      </trkpt>
      <trkpt lat="48.82831" lon="2.38442">
        <ele>31</ele>
        <time>2016-06-13T18:39:52.000Z</time>
      </trkpt>
      <trkpt lat="48.82814" lon="2.38456">
        <ele>30</ele>
        <time>2016-06-13T18:39:56.000Z</time>
      </trkpt>
      <trkpt lat="48.82808" lon="2.38464">
        <ele>30</ele>
        <time>2016-06-13T18:39:58.000Z</time>
      </trkpt>
      <trkpt lat="48.82797" lon="2.38473">
        <ele>30</ele>
        <time>2016-06-13T18:40:01.000Z</time>
      </trkpt>
      <trkpt lat="48.82781" lon="2.38488">
        <ele>30</ele>
        <time>2016-06-13T18:40:07.000Z</time>
      </trkpt>
      <trkpt lat="48.82767" lon="2.38506">
        <ele>30.200000762939</ele>
        <time>2016-06-13T18:40:11.000Z</time>
      </trkpt>
      <trkpt lat="48.82753" lon="2.38526">
        <ele>30.60000038147</ele>
        <time>2016-06-13T18:40:15.000Z</time>
      </trkpt>
      <trkpt lat="48.82741" lon="2.38549">
        <ele>31</ele>
        <time>2016-06-13T18:40:20.000Z</time>
      </trkpt>
      <trkpt lat="48.82734" lon="2.38554">
        <ele>31.200000762939</ele>
        <time>2016-06-13T18:40:21.000Z</time>
      </trkpt>
      <trkpt lat="48.82721" lon="2.38571">
        <ele>31.39999961853</ele>
        <time>2016-06-13T18:40:24.000Z</time>
      </trkpt>
      <trkpt lat="48.82706" lon="2.38601">
        <ele>31.799999237061</ele>
        <time>2016-06-13T18:40:27.000Z</time>
      </trkpt>
      <trkpt lat="48.82699" lon="2.38608">
        <ele>32</ele>
        <time>2016-06-13T18:40:29.000Z</time>
      </trkpt>
      <trkpt lat="48.82682" lon="2.38628">
        <ele>33</ele>
        <time>2016-06-13T18:40:33.000Z</time>
      </trkpt>
      <trkpt lat="48.82665" lon="2.38648">
        <ele>34</ele>
        <time>2016-06-13T18:40:37.000Z</time>
      </trkpt>
      <trkpt lat="48.82648" lon="2.38669">
        <ele>33.200000762939</ele>
        <time>2016-06-13T18:40:41.000Z</time>
      </trkpt>
      <trkpt lat="48.82632" lon="2.38691">
        <ele>31.799999237061</ele>
        <time>2016-06-13T18:40:46.000Z</time>
      </trkpt>
      <trkpt lat="48.82617" lon="2.38715">
        <ele>30.799999237061</ele>
        <time>2016-06-13T18:40:51.000Z</time>
      </trkpt>
      <trkpt lat="48.82602" lon="2.3874">
        <ele>29.60000038147</ele>
        <time>2016-06-13T18:40:56.000Z</time>
      </trkpt>
      <trkpt lat="48.82589" lon="2.38759">
        <ele>29.39999961853</ele>
        <time>2016-06-13T18:40:59.000Z</time>
      </trkpt>
      <trkpt lat="48.8257" lon="2.38768">
        <ele>29.799999237061</ele>
        <time>2016-06-13T18:41:03.000Z</time>
      </trkpt>
      <trkpt lat="48.82561" lon="2.38773">
        <ele>30</ele>
        <time>2016-06-13T18:41:06.000Z</time>
      </trkpt>
      <trkpt lat="48.82552" lon="2.38782">
        <ele>30.200000762939</ele>
        <time>2016-06-13T18:41:09.000Z</time>
      </trkpt>
      <trkpt lat="48.82539" lon="2.38801">
        <ele>31</ele>
        <time>2016-06-13T18:41:13.000Z</time>
      </trkpt>
      <trkpt lat="48.82528" lon="2.38828">
        <ele>31.60000038147</ele>
        <time>2016-06-13T18:41:17.000Z</time>
      </trkpt>
      <trkpt lat="48.82522" lon="2.38841">
        <ele>32</ele>
        <time>2016-06-13T18:41:19.000Z</time>
      </trkpt>
      <trkpt lat="48.8251" lon="2.38866">
        <ele>32.200000762939</ele>
        <time>2016-06-13T18:41:23.000Z</time>
      </trkpt>
      <trkpt lat="48.82501" lon="2.3889">
        <ele>32.200000762939</ele>
        <time>2016-06-13T18:41:27.000Z</time>
      </trkpt>
      <trkpt lat="48.82488" lon="2.38912">
        <ele>32.799999237061</ele>
        <time>2016-06-13T18:41:31.000Z</time>
      </trkpt>
      <trkpt lat="48.82472" lon="2.38936">
        <ele>31.799999237061</ele>
        <time>2016-06-13T18:41:36.000Z</time>
      </trkpt>
      <trkpt lat="48.82464" lon="2.38945">
        <ele>31.39999961853</ele>
        <time>2016-06-13T18:41:38.000Z</time>
      </trkpt>
      <trkpt lat="48.82449" lon="2.38968">
        <ele>32</ele>
        <time>2016-06-13T18:41:42.000Z</time>
      </trkpt>
      <trkpt lat="48.82432" lon="2.38992">
        <ele>32.200000762939</ele>
        <time>2016-06-13T18:41:46.000Z</time>
      </trkpt>
      <trkpt lat="48.82418" lon="2.3902">
        <ele>31.799999237061</ele>
        <time>2016-06-13T18:41:50.000Z</time>
      </trkpt>
      <trkpt lat="48.82405" lon="2.39044">
        <ele>31.39999961853</ele>
        <time>2016-06-13T18:41:54.000Z</time>
      </trkpt>
      <trkpt lat="48.82388" lon="2.39066">
        <ele>31.200000762939</ele>
        <time>2016-06-13T18:41:59.000Z</time>
      </trkpt>
      <trkpt lat="48.82371" lon="2.39085">
        <ele>30.799999237061</ele>
        <time>2016-06-13T18:42:03.000Z</time>
      </trkpt>
      <trkpt lat="48.82356" lon="2.39104">
        <ele>31.200000762939</ele>
        <time>2016-06-13T18:42:06.000Z</time>
      </trkpt>
      <trkpt lat="48.82338" lon="2.39127">
        <ele>32</ele>
        <time>2016-06-13T18:42:10.000Z</time>
      </trkpt>
      <trkpt lat="48.82324" lon="2.39145">
        <ele>32.599998474121</ele>
        <time>2016-06-13T18:42:13.000Z</time>
      </trkpt>
      <trkpt lat="48.82309" lon="2.39164">
        <ele>33.599998474121</ele>
        <time>2016-06-13T18:42:17.000Z</time>
      </trkpt>
      <trkpt lat="48.82294" lon="2.39188">
        <ele>34</ele>
        <time>2016-06-13T18:42:21.000Z</time>
      </trkpt>
      <trkpt lat="48.82282" lon="2.39209">
        <ele>34.599998474121</ele>
        <time>2016-06-13T18:42:25.000Z</time>
      </trkpt>
      <trkpt lat="48.82276" lon="2.39217">
        <ele>34.799999237061</ele>
        <time>2016-06-13T18:42:27.000Z</time>
      </trkpt>
      <trkpt lat="48.82257" lon="2.39235">
        <ele>35</ele>
        <time>2016-06-13T18:42:32.000Z</time>
      </trkpt>
      <trkpt lat="48.82242" lon="2.39259">
        <ele>34.799999237061</ele>
        <time>2016-06-13T18:42:36.000Z</time>
      </trkpt>
      <trkpt lat="48.82236" lon="2.39269">
        <ele>34.400001525879</ele>
        <time>2016-06-13T18:42:38.000Z</time>
      </trkpt>
      <trkpt lat="48.82218" lon="2.3929">
        <ele>33.400001525879</ele>
        <time>2016-06-13T18:42:43.000Z</time>
      </trkpt>
      <trkpt lat="48.82205" lon="2.39309">
        <ele>32.400001525879</ele>
        <time>2016-06-13T18:42:47.000Z</time>
      </trkpt>
      <trkpt lat="48.82191" lon="2.3933">
        <ele>31.200000762939</ele>
        <time>2016-06-13T18:42:51.000Z</time>
      </trkpt>
      <trkpt lat="48.82177" lon="2.39349">
        <ele>31.60000038147</ele>
        <time>2016-06-13T18:42:55.000Z</time>
      </trkpt>
      <trkpt lat="48.82162" lon="2.39371">
        <ele>32.400001525879</ele>
        <time>2016-06-13T18:42:59.000Z</time>
      </trkpt>
      <trkpt lat="48.82148" lon="2.39392">
        <ele>34.400001525879</ele>
        <time>2016-06-13T18:43:03.000Z</time>
      </trkpt>
      <trkpt lat="48.82137" lon="2.39414">
        <ele>37.400001525879</ele>
        <time>2016-06-13T18:43:07.000Z</time>
      </trkpt>
      <trkpt lat="48.82127" lon="2.39432">
        <ele>38.400001525879</ele>
        <time>2016-06-13T18:43:10.000Z</time>
      </trkpt>
      <trkpt lat="48.82115" lon="2.39457">
        <ele>37.200000762939</ele>
        <time>2016-06-13T18:43:14.000Z</time>
      </trkpt>
      <trkpt lat="48.82101" lon="2.39482">
        <ele>35.400001525879</ele>
        <time>2016-06-13T18:43:18.000Z</time>
      </trkpt>
      <trkpt lat="48.82088" lon="2.39504">
        <ele>34.400001525879</ele>
        <time>2016-06-13T18:43:21.000Z</time>
      </trkpt>
      <trkpt lat="48.82075" lon="2.3953">
        <ele>33.200000762939</ele>
        <time>2016-06-13T18:43:23.000Z</time>
      </trkpt>
      <trkpt lat="48.82067" lon="2.39543">
        <ele>32.599998474121</ele>
        <time>2016-06-13T18:43:25.000Z</time>
      </trkpt>
      <trkpt lat="48.82055" lon="2.39567">
        <ele>32.200000762939</ele>
        <time>2016-06-13T18:43:29.000Z</time>
      </trkpt>
      <trkpt lat="48.82043" lon="2.39591">
        <ele>32.200000762939</ele>
        <time>2016-06-13T18:43:33.000Z</time>
      </trkpt>
      <trkpt lat="48.82032" lon="2.39615">
        <ele>32.599998474121</ele>
        <time>2016-06-13T18:43:37.000Z</time>
      </trkpt>
      <trkpt lat="48.82018" lon="2.3964">
        <ele>33.799999237061</ele>
        <time>2016-06-13T18:43:41.000Z</time>
      </trkpt>
      <trkpt lat="48.82009" lon="2.39661">
        <ele>34.400001525879</ele>
        <time>2016-06-13T18:43:44.000Z</time>
      </trkpt>
      <trkpt lat="48.81996" lon="2.39688">
        <ele>33</ele>
        <time>2016-06-13T18:43:48.000Z</time>
      </trkpt>
      <trkpt lat="48.81981" lon="2.39715">
        <ele>31.799999237061</ele>
        <time>2016-06-13T18:43:52.000Z</time>
      </trkpt>
      <trkpt lat="48.81966" lon="2.39739">
        <ele>31.60000038147</ele>
        <time>2016-06-13T18:43:56.000Z</time>
      </trkpt>
      <trkpt lat="48.81963" lon="2.39746">
        <ele>31.60000038147</ele>
        <time>2016-06-13T18:43:57.000Z</time>
      </trkpt>
      <trkpt lat="48.81957" lon="2.39757">
        <ele>32.400001525879</ele>
        <time>2016-06-13T18:43:59.000Z</time>
      </trkpt>
      <trkpt lat="48.81947" lon="2.39779">
        <ele>33.799999237061</ele>
        <time>2016-06-13T18:44:05.000Z</time>
      </trkpt>
      <trkpt lat="48.81937" lon="2.39784">
        <ele>34.400001525879</ele>
        <time>2016-06-13T18:44:39.000Z</time>
      </trkpt>
      <trkpt lat="48.81928" lon="2.39797">
        <ele>34.799999237061</ele>
        <time>2016-06-13T18:44:50.000Z</time>
      </trkpt>
      <trkpt lat="48.81917" lon="2.39825">
        <ele>35</ele>
        <time>2016-06-13T18:44:56.000Z</time>
      </trkpt>
      <trkpt lat="48.81907" lon="2.39854">
        <ele>33.599998474121</ele>
        <time>2016-06-13T18:45:01.000Z</time>
      </trkpt>
      <trkpt lat="48.81898" lon="2.39879">
        <ele>32.400001525879</ele>
        <time>2016-06-13T18:45:05.000Z</time>
      </trkpt>
      <trkpt lat="48.8189" lon="2.39906">
        <ele>33.400001525879</ele>
        <time>2016-06-13T18:45:10.000Z</time>
      </trkpt>
      <trkpt lat="48.8188" lon="2.39936">
        <ele>34.200000762939</ele>
        <time>2016-06-13T18:45:15.000Z</time>
      </trkpt>
      <trkpt lat="48.8187" lon="2.39961">
        <ele>34.200000762939</ele>
        <time>2016-06-13T18:45:19.000Z</time>
      </trkpt>
      <trkpt lat="48.81862" lon="2.39986">
        <ele>34</ele>
        <time>2016-06-13T18:45:22.000Z</time>
      </trkpt>
      <trkpt lat="48.81849" lon="2.40012">
        <ele>33.599998474121</ele>
        <time>2016-06-13T18:45:25.000Z</time>
      </trkpt>
      <trkpt lat="48.81844" lon="2.40021">
        <ele>33.200000762939</ele>
        <time>2016-06-13T18:45:26.000Z</time>
      </trkpt>
      <trkpt lat="48.81831" lon="2.40048">
        <ele>32.200000762939</ele>
        <time>2016-06-13T18:45:29.000Z</time>
      </trkpt>
      <trkpt lat="48.81822" lon="2.40075">
        <ele>31.799999237061</ele>
        <time>2016-06-13T18:45:32.000Z</time>
      </trkpt>
      <trkpt lat="48.81813" lon="2.40103">
        <ele>31.200000762939</ele>
        <time>2016-06-13T18:45:35.000Z</time>
      </trkpt>
      <trkpt lat="48.81808" lon="2.40134">
        <ele>30.799999237061</ele>
        <time>2016-06-13T18:45:39.000Z</time>
      </trkpt>
      <trkpt lat="48.81804" lon="2.40148">
        <ele>31</ele>
        <time>2016-06-13T18:45:41.000Z</time>
      </trkpt>
      <trkpt lat="48.81796" lon="2.40173">
        <ele>31.60000038147</ele>
        <time>2016-06-13T18:45:45.000Z</time>
      </trkpt>
      <trkpt lat="48.81785" lon="2.402">
        <ele>32</ele>
        <time>2016-06-13T18:45:51.000Z</time>
      </trkpt>
      <trkpt lat="48.81785" lon="2.40204">
        <ele>32</ele>
        <time>2016-06-13T18:45:52.000Z</time>
      </trkpt>
      <trkpt lat="48.818" lon="2.40201">
        <ele>31.200000762939</ele>
        <time>2016-06-13T18:46:00.000Z</time>
      </trkpt>
      <trkpt lat="48.81798" lon="2.40228">
        <ele>31</ele>
        <time>2016-06-13T18:46:05.000Z</time>
      </trkpt>
      <trkpt lat="48.81797" lon="2.40235">
        <ele>31</ele>
        <time>2016-06-13T18:46:06.000Z</time>
      </trkpt>
      <trkpt lat="48.8179" lon="2.40266">
        <ele>31.60000038147</ele>
        <time>2016-06-13T18:46:10.000Z</time>
      </trkpt>
      <trkpt lat="48.81785" lon="2.40294">
        <ele>30.60000038147</ele>
        <time>2016-06-13T18:46:13.000Z</time>
      </trkpt>
      <trkpt lat="48.8178" lon="2.40324">
        <ele>29.39999961853</ele>
        <time>2016-06-13T18:46:16.000Z</time>
      </trkpt>
      <trkpt lat="48.81775" lon="2.40351">
        <ele>29.39999961853</ele>
        <time>2016-06-13T18:46:19.000Z</time>
      </trkpt>
      <trkpt lat="48.81767" lon="2.40383">
        <ele>29.799999237061</ele>
        <time>2016-06-13T18:46:23.000Z</time>
      </trkpt>
      <trkpt lat="48.81759" lon="2.40408">
        <ele>30.60000038147</ele>
        <time>2016-06-13T18:46:27.000Z</time>
      </trkpt>
      <trkpt lat="48.81758" lon="2.40415">
        <ele>30.60000038147</ele>
        <time>2016-06-13T18:46:28.000Z</time>
      </trkpt>
      <trkpt lat="48.81753" lon="2.40442">
        <ele>31.39999961853</ele>
        <time>2016-06-13T18:46:32.000Z</time>
      </trkpt>
      <trkpt lat="48.81747" lon="2.40473">
        <ele>32.200000762939</ele>
        <time>2016-06-13T18:46:37.000Z</time>
      </trkpt>
      <trkpt lat="48.8174" lon="2.40506">
        <ele>31.799999237061</ele>
        <time>2016-06-13T18:46:42.000Z</time>
      </trkpt>
      <trkpt lat="48.81734" lon="2.40533">
        <ele>31.200000762939</ele>
        <time>2016-06-13T18:46:46.000Z</time>
      </trkpt>
      <trkpt lat="48.81733" lon="2.40553">
        <ele>31</ele>
        <time>2016-06-13T18:46:49.000Z</time>
      </trkpt>
      <trkpt lat="48.81727" lon="2.40581">
        <ele>31</ele>
        <time>2016-06-13T18:46:53.000Z</time>
      </trkpt>
      <trkpt lat="48.81719" lon="2.40609">
        <ele>31.200000762939</ele>
        <time>2016-06-13T18:46:57.000Z</time>
      </trkpt>
      <trkpt lat="48.81709" lon="2.40638">
        <ele>32</ele>
        <time>2016-06-13T18:47:01.000Z</time>
      </trkpt>
      <trkpt lat="48.817" lon="2.40664">
        <ele>32.599998474121</ele>
        <time>2016-06-13T18:47:05.000Z</time>
      </trkpt>
      <trkpt lat="48.81689" lon="2.40691">
        <ele>32</ele>
        <time>2016-06-13T18:47:10.000Z</time>
      </trkpt>
      <trkpt lat="48.81684" lon="2.40704">
        <ele>31.799999237061</ele>
        <time>2016-06-13T18:47:14.000Z</time>
      </trkpt>
      <trkpt lat="48.81681" lon="2.4071">
        <ele>31.60000038147</ele>
        <time>2016-06-13T18:47:16.000Z</time>
      </trkpt>
      <trkpt lat="48.81689" lon="2.40695">
        <ele>32</ele>
        <time>2016-06-13T18:47:23.000Z</time>
      </trkpt>
      <trkpt lat="48.81691" lon="2.40693">
        <ele>32</ele>
        <time>2016-06-13T18:47:24.000Z</time>
      </trkpt>
      <trkpt lat="48.81701" lon="2.40675">
        <ele>32.599998474121</ele>
        <time>2016-06-13T18:47:29.000Z</time>
      </trkpt>
      <trkpt lat="48.81707" lon="2.40665">
        <ele>32.400001525879</ele>
        <time>2016-06-13T18:47:32.000Z</time>
      </trkpt>
      <trkpt lat="48.81715" lon="2.40658">
        <ele>32</ele>
        <time>2016-06-13T18:47:35.000Z</time>
      </trkpt>
      <trkpt lat="48.81712" lon="2.40676">
        <ele>32.200000762939</ele>
        <time>2016-06-13T18:47:41.000Z</time>
      </trkpt>
      <trkpt lat="48.81708" lon="2.40689">
        <ele>32.200000762939</ele>
        <time>2016-06-13T18:47:45.000Z</time>
      </trkpt>
      <trkpt lat="48.81714" lon="2.40675">
        <ele>32</ele>
        <time>2016-06-13T18:47:51.000Z</time>
      </trkpt>
      <trkpt lat="48.8172" lon="2.40653">
        <ele>31.799999237061</ele>
        <time>2016-06-13T18:47:58.000Z</time>
      </trkpt>
      <trkpt lat="48.8174" lon="2.40665">
        <ele>31.200000762939</ele>
        <time>2016-06-13T18:48:04.000Z</time>
      </trkpt>
      <trkpt lat="48.81757" lon="2.40674">
        <ele>30.60000038147</ele>
        <time>2016-06-13T18:48:08.000Z</time>
      </trkpt>
      <trkpt lat="48.81775" lon="2.40688">
        <ele>30.200000762939</ele>
        <time>2016-06-13T18:48:12.000Z</time>
      </trkpt>
      <trkpt lat="48.81795" lon="2.40698">
        <ele>31</ele>
        <time>2016-06-13T18:48:16.000Z</time>
      </trkpt>
      <trkpt lat="48.81814" lon="2.40703">
        <ele>31.799999237061</ele>
        <time>2016-06-13T18:48:20.000Z</time>
      </trkpt>
      <trkpt lat="48.81835" lon="2.40714">
        <ele>32.400001525879</ele>
        <time>2016-06-13T18:48:24.000Z</time>
      </trkpt>
      <trkpt lat="48.81853" lon="2.40726">
        <ele>33</ele>
        <time>2016-06-13T18:48:28.000Z</time>
      </trkpt>
      <trkpt lat="48.81869" lon="2.40745">
        <ele>34.799999237061</ele>
        <time>2016-06-13T18:48:33.000Z</time>
      </trkpt>
      <trkpt lat="48.8187" lon="2.40747">
        <ele>35</ele>
        <time>2016-06-13T18:48:34.000Z</time>
      </trkpt>
      <trkpt lat="48.81866" lon="2.40776">
        <ele>34.200000762939</ele>
        <time>2016-06-13T18:48:41.000Z</time>
      </trkpt>
      <trkpt lat="48.81866" lon="2.40778">
        <ele>34.200000762939</ele>
        <time>2016-06-13T18:48:45.000Z</time>
      </trkpt>
      <trkpt lat="48.8187" lon="2.40751">
        <ele>35</ele>
        <time>2016-06-13T18:48:53.000Z</time>
      </trkpt>
      <trkpt lat="48.8187" lon="2.40751">
        <ele>35</ele>
        <time>2016-06-13T18:48:55.000Z</time>
      </trkpt>
      <trkpt lat="48.81866" lon="2.40765">
        <ele>34.799999237061</ele>
        <time>2016-06-13T18:48:59.000Z</time>
      </trkpt>
      <trkpt lat="48.81858" lon="2.40792">
        <ele>32.799999237061</ele>
        <time>2016-06-13T18:49:04.000Z</time>
      </trkpt>
      <trkpt lat="48.81858" lon="2.40822">
        <ele>31.799999237061</ele>
        <time>2016-06-13T18:49:09.000Z</time>
      </trkpt>
      <trkpt lat="48.8185" lon="2.4085">
        <ele>31.39999961853</ele>
        <time>2016-06-13T18:49:14.000Z</time>
      </trkpt>
      <trkpt lat="48.81844" lon="2.40876">
        <ele>32</ele>
        <time>2016-06-13T18:49:22.000Z</time>
      </trkpt>
      <trkpt lat="48.81842" lon="2.40878">
        <ele>32</ele>
        <time>2016-06-13T18:49:26.000Z</time>
      </trkpt>
      <trkpt lat="48.81836" lon="2.40906">
        <ele>32</ele>
        <time>2016-06-13T18:50:00.000Z</time>
      </trkpt>
      <trkpt lat="48.81827" lon="2.40931">
        <ele>31.60000038147</ele>
        <time>2016-06-13T18:50:07.000Z</time>
      </trkpt>
      <trkpt lat="48.81823" lon="2.4096">
        <ele>32.400001525879</ele>
        <time>2016-06-13T18:50:15.000Z</time>
      </trkpt>
      <trkpt lat="48.8182" lon="2.40989">
        <ele>33</ele>
        <time>2016-06-13T18:50:21.000Z</time>
      </trkpt>
      <trkpt lat="48.81812" lon="2.41018">
        <ele>32.599998474121</ele>
        <time>2016-06-13T18:50:27.000Z</time>
      </trkpt>
      <trkpt lat="48.81805" lon="2.41045">
        <ele>32.599998474121</ele>
        <time>2016-06-13T18:50:32.000Z</time>
      </trkpt>
      <trkpt lat="48.81797" lon="2.41072">
        <ele>33.799999237061</ele>
        <time>2016-06-13T18:50:38.000Z</time>
      </trkpt>
      <trkpt lat="48.81782" lon="2.4109">
        <ele>34.200000762939</ele>
        <time>2016-06-13T18:50:47.000Z</time>
      </trkpt>
      <trkpt lat="48.81764" lon="2.41079">
        <ele>33.799999237061</ele>
        <time>2016-06-13T18:50:52.000Z</time>
      </trkpt>
      <trkpt lat="48.81744" lon="2.41069">
        <ele>33.400001525879</ele>
        <time>2016-06-13T18:50:56.000Z</time>
      </trkpt>
      <trkpt lat="48.81729" lon="2.41061">
        <ele>33.200000762939</ele>
        <time>2016-06-13T18:50:59.000Z</time>
      </trkpt>
      <trkpt lat="48.81713" lon="2.41058">
        <ele>32.799999237061</ele>
        <time>2016-06-13T18:51:03.000Z</time>
      </trkpt>
      <trkpt lat="48.81705" lon="2.41082">
        <ele>32.400001525879</ele>
        <time>2016-06-13T18:51:07.000Z</time>
      </trkpt>
      <trkpt lat="48.81695" lon="2.41107">
        <ele>32.400001525879</ele>
        <time>2016-06-13T18:51:11.000Z</time>
      </trkpt>
      <trkpt lat="48.81686" lon="2.41138">
        <ele>32</ele>
        <time>2016-06-13T18:51:15.000Z</time>
      </trkpt>
      <trkpt lat="48.81681" lon="2.41165">
        <ele>32.400001525879</ele>
        <time>2016-06-13T18:51:18.000Z</time>
      </trkpt>
      <trkpt lat="48.81678" lon="2.41192">
        <ele>33.799999237061</ele>
        <time>2016-06-13T18:51:21.000Z</time>
      </trkpt>
      <trkpt lat="48.81675" lon="2.4122">
        <ele>35</ele>
        <time>2016-06-13T18:51:24.000Z</time>
      </trkpt>
      <trkpt lat="48.8167" lon="2.41248">
        <ele>34.799999237061</ele>
        <time>2016-06-13T18:51:27.000Z</time>
      </trkpt>
      <trkpt lat="48.81666" lon="2.41283">
        <ele>34.400001525879</ele>
        <time>2016-06-13T18:51:31.000Z</time>
      </trkpt>
      <trkpt lat="48.81664" lon="2.41315">
        <ele>34</ele>
        <time>2016-06-13T18:51:35.000Z</time>
      </trkpt>
      <trkpt lat="48.8166" lon="2.41342">
        <ele>34</ele>
        <time>2016-06-13T18:51:39.000Z</time>
      </trkpt>
      <trkpt lat="48.81659" lon="2.41373">
        <ele>34</ele>
        <time>2016-06-13T18:51:43.000Z</time>
      </trkpt>
      <trkpt lat="48.81658" lon="2.414">
        <ele>33.799999237061</ele>
        <time>2016-06-13T18:51:47.000Z</time>
      </trkpt>
      <trkpt lat="48.81658" lon="2.4143">
        <ele>33.799999237061</ele>
        <time>2016-06-13T18:51:52.000Z</time>
      </trkpt>
      <trkpt lat="48.8166" lon="2.41444">
        <ele>34</ele>
        <time>2016-06-13T18:51:54.000Z</time>
      </trkpt>
      <trkpt lat="48.81662" lon="2.41473">
        <ele>34.400001525879</ele>
        <time>2016-06-13T18:51:58.000Z</time>
      </trkpt>
      <trkpt lat="48.81663" lon="2.41487">
        <ele>34.799999237061</ele>
        <time>2016-06-13T18:52:00.000Z</time>
      </trkpt>
      <trkpt lat="48.81664" lon="2.41515">
        <ele>34.200000762939</ele>
        <time>2016-06-13T18:52:04.000Z</time>
      </trkpt>
      <trkpt lat="48.81662" lon="2.41549">
        <ele>32.599998474121</ele>
        <time>2016-06-13T18:52:08.000Z</time>
      </trkpt>
      <trkpt lat="48.81663" lon="2.41565">
        <ele>32</ele>
        <time>2016-06-13T18:52:10.000Z</time>
      </trkpt>
      <trkpt lat="48.81667" lon="2.41598">
        <ele>31.60000038147</ele>
        <time>2016-06-13T18:52:14.000Z</time>
      </trkpt>
      <trkpt lat="48.81671" lon="2.41626">
        <ele>32.200000762939</ele>
        <time>2016-06-13T18:52:17.000Z</time>
      </trkpt>
      <trkpt lat="48.81677" lon="2.4166">
        <ele>33</ele>
        <time>2016-06-13T18:52:21.000Z</time>
      </trkpt>
      <trkpt lat="48.81678" lon="2.41688">
        <ele>34</ele>
        <time>2016-06-13T18:52:25.000Z</time>
      </trkpt>
      <trkpt lat="48.81679" lon="2.41717">
        <ele>35</ele>
        <time>2016-06-13T18:52:30.000Z</time>
      </trkpt>
      <trkpt lat="48.81681" lon="2.41745">
        <ele>35.799999237061</ele>
        <time>2016-06-13T18:52:34.000Z</time>
      </trkpt>
      <trkpt lat="48.81682" lon="2.41756">
        <ele>35.599998474121</ele>
        <time>2016-06-13T18:52:35.000Z</time>
      </trkpt>
      <trkpt lat="48.8169" lon="2.41784">
        <ele>34.799999237061</ele>
        <time>2016-06-13T18:52:38.000Z</time>
      </trkpt>
      <trkpt lat="48.81695" lon="2.41811">
        <ele>33.799999237061</ele>
        <time>2016-06-13T18:52:41.000Z</time>
      </trkpt>
      <trkpt lat="48.81696" lon="2.41821">
        <ele>33.599998474121</ele>
        <time>2016-06-13T18:52:42.000Z</time>
      </trkpt>
      <trkpt lat="48.81706" lon="2.41849">
        <ele>33.200000762939</ele>
        <time>2016-06-13T18:52:46.000Z</time>
      </trkpt>
      <trkpt lat="48.81708" lon="2.41859">
        <ele>33.400001525879</ele>
        <time>2016-06-13T18:52:48.000Z</time>
      </trkpt>
      <trkpt lat="48.81716" lon="2.41878">
        <ele>33.599998474121</ele>
        <time>2016-06-13T18:53:33.000Z</time>
      </trkpt>
      <trkpt lat="48.81722" lon="2.41905">
        <ele>33.799999237061</ele>
        <time>2016-06-13T18:53:53.000Z</time>
      </trkpt>
      <trkpt lat="48.81723" lon="2.41935">
        <ele>34.400001525879</ele>
        <time>2016-06-13T18:54:00.000Z</time>
      </trkpt>
      <trkpt lat="48.81722" lon="2.41961">
        <ele>34.599998474121</ele>
        <time>2016-06-13T18:54:09.000Z</time>
      </trkpt>
      <trkpt lat="48.81729" lon="2.41976">
        <ele>34.799999237061</ele>
        <time>2016-06-13T18:54:20.000Z</time>
      </trkpt>
      <trkpt lat="48.81721" lon="2.41984">
        <ele>34.400001525879</ele>
        <time>2016-06-13T18:54:26.000Z</time>
      </trkpt>
      <trkpt lat="48.81724" lon="2.42003">
        <ele>34.400001525879</ele>
        <time>2016-06-13T18:54:34.000Z</time>
      </trkpt>
      <trkpt lat="48.81726" lon="2.42031">
        <ele>34.799999237061</ele>
        <time>2016-06-13T18:54:54.000Z</time>
      </trkpt>
      <trkpt lat="48.81727" lon="2.42064">
        <ele>34.200000762939</ele>
        <time>2016-06-13T18:54:58.000Z</time>
      </trkpt>
      <trkpt lat="48.81728" lon="2.42093">
        <ele>33.799999237061</ele>
        <time>2016-06-13T18:55:01.000Z</time>
      </trkpt>
      <trkpt lat="48.81728" lon="2.42119">
        <ele>33.799999237061</ele>
        <time>2016-06-13T18:55:04.000Z</time>
      </trkpt>
      <trkpt lat="48.81729" lon="2.42131">
        <ele>34</ele>
        <time>2016-06-13T18:55:06.000Z</time>
      </trkpt>
      <trkpt lat="48.8172" lon="2.42148">
        <ele>33.599998474121</ele>
        <time>2016-06-13T18:55:12.000Z</time>
      </trkpt>
      <trkpt lat="48.81716" lon="2.42166">
        <ele>33.599998474121</ele>
        <time>2016-06-13T18:55:17.000Z</time>
      </trkpt>
      <trkpt lat="48.81713" lon="2.42194">
        <ele>32.599998474121</ele>
        <time>2016-06-13T18:55:22.000Z</time>
      </trkpt>
      <trkpt lat="48.8172" lon="2.42221">
        <ele>32.799999237061</ele>
        <time>2016-06-13T18:55:27.000Z</time>
      </trkpt>
      <trkpt lat="48.81726" lon="2.42247">
        <ele>32.799999237061</ele>
        <time>2016-06-13T18:55:32.000Z</time>
      </trkpt>
      <trkpt lat="48.81722" lon="2.42278">
        <ele>32.400001525879</ele>
        <time>2016-06-13T18:55:39.000Z</time>
      </trkpt>
      <trkpt lat="48.81715" lon="2.42305">
        <ele>33</ele>
        <time>2016-06-13T18:55:44.000Z</time>
      </trkpt>
      <trkpt lat="48.81712" lon="2.42332">
        <ele>33.799999237061</ele>
        <time>2016-06-13T18:55:49.000Z</time>
      </trkpt>
      <trkpt lat="48.8171" lon="2.42359">
        <ele>33.200000762939</ele>
        <time>2016-06-13T18:55:54.000Z</time>
      </trkpt>
      <trkpt lat="48.81707" lon="2.42386">
        <ele>31.799999237061</ele>
        <time>2016-06-13T18:55:59.000Z</time>
      </trkpt>
      <trkpt lat="48.81705" lon="2.42414">
        <ele>30.39999961853</ele>
        <time>2016-06-13T18:56:02.000Z</time>
      </trkpt>
      <trkpt lat="48.81703" lon="2.42448">
        <ele>30.39999961853</ele>
        <time>2016-06-13T18:56:06.000Z</time>
      </trkpt>
      <trkpt lat="48.817" lon="2.42476">
        <ele>29.799999237061</ele>
        <time>2016-06-13T18:56:09.000Z</time>
      </trkpt>
      <trkpt lat="48.81699" lon="2.42507">
        <ele>29.60000038147</ele>
        <time>2016-06-13T18:56:13.000Z</time>
      </trkpt>
      <trkpt lat="48.81694" lon="2.42534">
        <ele>30.39999961853</ele>
        <time>2016-06-13T18:56:16.000Z</time>
      </trkpt>
      <trkpt lat="48.8169" lon="2.42556">
        <ele>31</ele>
        <time>2016-06-13T18:56:18.000Z</time>
      </trkpt>
      <trkpt lat="48.81687" lon="2.42584">
        <ele>32</ele>
        <time>2016-06-13T18:56:20.000Z</time>
      </trkpt>
      <trkpt lat="48.81687" lon="2.42596">
        <ele>32.200000762939</ele>
        <time>2016-06-13T18:56:21.000Z</time>
      </trkpt>
      <trkpt lat="48.81688" lon="2.42629">
        <ele>33.200000762939</ele>
        <time>2016-06-13T18:56:24.000Z</time>
      </trkpt>
      <trkpt lat="48.8169" lon="2.4266">
        <ele>33.799999237061</ele>
        <time>2016-06-13T18:56:27.000Z</time>
      </trkpt>
      <trkpt lat="48.8169" lon="2.4269">
        <ele>32.799999237061</ele>
        <time>2016-06-13T18:56:30.000Z</time>
      </trkpt>
      <trkpt lat="48.81692" lon="2.42724">
        <ele>31.200000762939</ele>
        <time>2016-06-13T18:56:33.000Z</time>
      </trkpt>
      <trkpt lat="48.81692" lon="2.42758">
        <ele>30.200000762939</ele>
        <time>2016-06-13T18:56:36.000Z</time>
      </trkpt>
      <trkpt lat="48.81692" lon="2.42795">
        <ele>30.200000762939</ele>
        <time>2016-06-13T18:56:39.000Z</time>
      </trkpt>
      <trkpt lat="48.8169" lon="2.4283">
        <ele>30</ele>
        <time>2016-06-13T18:56:42.000Z</time>
      </trkpt>
      <trkpt lat="48.81689" lon="2.42865">
        <ele>29.60000038147</ele>
        <time>2016-06-13T18:56:45.000Z</time>
      </trkpt>
      <trkpt lat="48.81688" lon="2.42898">
        <ele>29.200000762939</ele>
        <time>2016-06-13T18:56:48.000Z</time>
      </trkpt>
      <trkpt lat="48.81688" lon="2.42926">
        <ele>29.39999961853</ele>
        <time>2016-06-13T18:56:51.000Z</time>
      </trkpt>
      <trkpt lat="48.81689" lon="2.42955">
        <ele>30.39999961853</ele>
        <time>2016-06-13T18:56:54.000Z</time>
      </trkpt>
      <trkpt lat="48.81688" lon="2.42991">
        <ele>31.799999237061</ele>
        <time>2016-06-13T18:56:58.000Z</time>
      </trkpt>
      <trkpt lat="48.81686" lon="2.4302">
        <ele>32.799999237061</ele>
        <time>2016-06-13T18:57:01.000Z</time>
      </trkpt>
      <trkpt lat="48.81684" lon="2.43053">
        <ele>34.200000762939</ele>
        <time>2016-06-13T18:57:04.000Z</time>
      </trkpt>
      <trkpt lat="48.81684" lon="2.43085">
        <ele>34.799999237061</ele>
        <time>2016-06-13T18:57:07.000Z</time>
      </trkpt>
      <trkpt lat="48.81687" lon="2.43117">
        <ele>34.200000762939</ele>
        <time>2016-06-13T18:57:10.000Z</time>
      </trkpt>
      <trkpt lat="48.81691" lon="2.43148">
        <ele>33.400001525879</ele>
        <time>2016-06-13T18:57:13.000Z</time>
      </trkpt>
      <trkpt lat="48.81693" lon="2.43176">
        <ele>33</ele>
        <time>2016-06-13T18:57:16.000Z</time>
      </trkpt>
      <trkpt lat="48.81693" lon="2.43205">
        <ele>32.799999237061</ele>
        <time>2016-06-13T18:57:19.000Z</time>
      </trkpt>
      <trkpt lat="48.81695" lon="2.43237">
        <ele>32.400001525879</ele>
        <time>2016-06-13T18:57:23.000Z</time>
      </trkpt>
      <trkpt lat="48.81695" lon="2.43271">
        <ele>32.599998474121</ele>
        <time>2016-06-13T18:57:27.000Z</time>
      </trkpt>
      <trkpt lat="48.81694" lon="2.43304">
        <ele>33.400001525879</ele>
        <time>2016-06-13T18:57:31.000Z</time>
      </trkpt>
      <trkpt lat="48.8169" lon="2.43319">
        <ele>33.799999237061</ele>
        <time>2016-06-13T18:57:32.000Z</time>
      </trkpt>
      <trkpt lat="48.81682" lon="2.43346">
        <ele>34</ele>
        <time>2016-06-13T18:57:35.000Z</time>
      </trkpt>
      <trkpt lat="48.8168" lon="2.43364">
        <ele>34</ele>
        <time>2016-06-13T18:57:37.000Z</time>
      </trkpt>
      <trkpt lat="48.81674" lon="2.43395">
        <ele>34</ele>
        <time>2016-06-13T18:57:41.000Z</time>
      </trkpt>
      <trkpt lat="48.81671" lon="2.43428">
        <ele>33</ele>
        <time>2016-06-13T18:57:45.000Z</time>
      </trkpt>
      <trkpt lat="48.81671" lon="2.43461">
        <ele>32.200000762939</ele>
        <time>2016-06-13T18:57:49.000Z</time>
      </trkpt>
      <trkpt lat="48.81673" lon="2.43496">
        <ele>32.200000762939</ele>
        <time>2016-06-13T18:57:53.000Z</time>
      </trkpt>
      <trkpt lat="48.81678" lon="2.43529">
        <ele>33.599998474121</ele>
        <time>2016-06-13T18:57:57.000Z</time>
      </trkpt>
      <trkpt lat="48.81685" lon="2.43556">
        <ele>34.799999237061</ele>
        <time>2016-06-13T18:58:01.000Z</time>
      </trkpt>
      <trkpt lat="48.81697" lon="2.43586">
        <ele>35.799999237061</ele>
        <time>2016-06-13T18:58:06.000Z</time>
      </trkpt>
      <trkpt lat="48.81704" lon="2.43614">
        <ele>35.400001525879</ele>
        <time>2016-06-13T18:58:10.000Z</time>
      </trkpt>
      <trkpt lat="48.81712" lon="2.43646">
        <ele>35.400001525879</ele>
        <time>2016-06-13T18:58:14.000Z</time>
      </trkpt>
      <trkpt lat="48.81714" lon="2.43683">
        <ele>35.599998474121</ele>
        <time>2016-06-13T18:58:17.000Z</time>
      </trkpt>
      <trkpt lat="48.81713" lon="2.43721">
        <ele>34.400001525879</ele>
        <time>2016-06-13T18:58:20.000Z</time>
      </trkpt>
      <trkpt lat="48.81711" lon="2.43755">
        <ele>33</ele>
        <time>2016-06-13T18:58:23.000Z</time>
      </trkpt>
      <trkpt lat="48.81709" lon="2.43791">
        <ele>33</ele>
        <time>2016-06-13T18:58:26.000Z</time>
      </trkpt>
      <trkpt lat="48.81707" lon="2.43821">
        <ele>32.599998474121</ele>
        <time>2016-06-13T18:58:29.000Z</time>
      </trkpt>
      <trkpt lat="48.81702" lon="2.43858">
        <ele>32.400001525879</ele>
        <time>2016-06-13T18:58:32.000Z</time>
      </trkpt>
      <trkpt lat="48.81697" lon="2.43894">
        <ele>32.200000762939</ele>
        <time>2016-06-13T18:58:35.000Z</time>
      </trkpt>
      <trkpt lat="48.8169" lon="2.43933">
        <ele>32.200000762939</ele>
        <time>2016-06-13T18:58:38.000Z</time>
      </trkpt>
      <trkpt lat="48.81689" lon="2.43966">
        <ele>32.599998474121</ele>
        <time>2016-06-13T18:58:41.000Z</time>
      </trkpt>
      <trkpt lat="48.81686" lon="2.43998">
        <ele>33</ele>
        <time>2016-06-13T18:58:44.000Z</time>
      </trkpt>
      <trkpt lat="48.81682" lon="2.44026">
        <ele>32.599998474121</ele>
        <time>2016-06-13T18:58:47.000Z</time>
      </trkpt>
      <trkpt lat="48.81676" lon="2.4405">
        <ele>32</ele>
        <time>2016-06-13T18:58:50.000Z</time>
      </trkpt>
      <trkpt lat="48.8167" lon="2.44081">
        <ele>32</ele>
        <time>2016-06-13T18:58:54.000Z</time>
      </trkpt>
      <trkpt lat="48.81667" lon="2.4411">
        <ele>33</ele>
        <time>2016-06-13T18:58:58.000Z</time>
      </trkpt>
      <trkpt lat="48.81666" lon="2.44127">
        <ele>33.400001525879</ele>
        <time>2016-06-13T18:59:00.000Z</time>
      </trkpt>
      <trkpt lat="48.81659" lon="2.44157">
        <ele>34</ele>
        <time>2016-06-13T18:59:04.000Z</time>
      </trkpt>
      <trkpt lat="48.81653" lon="2.4419">
        <ele>34.599998474121</ele>
        <time>2016-06-13T18:59:08.000Z</time>
      </trkpt>
      <trkpt lat="48.81647" lon="2.44217">
        <ele>34.599998474121</ele>
        <time>2016-06-13T18:59:11.000Z</time>
      </trkpt>
      <trkpt lat="48.81645" lon="2.44248">
        <ele>33.400001525879</ele>
        <time>2016-06-13T18:59:15.000Z</time>
      </trkpt>
      <trkpt lat="48.81644" lon="2.44276">
        <ele>33.200000762939</ele>
        <time>2016-06-13T18:59:19.000Z</time>
      </trkpt>
      <trkpt lat="48.81648" lon="2.44284">
        <ele>33</ele>
        <time>2016-06-13T18:59:21.000Z</time>
      </trkpt>
      <trkpt lat="48.8165" lon="2.44319">
        <ele>33</ele>
        <time>2016-06-13T18:59:24.000Z</time>
      </trkpt>
      <trkpt lat="48.81655" lon="2.44351">
        <ele>32.799999237061</ele>
        <time>2016-06-13T18:59:28.000Z</time>
      </trkpt>
      <trkpt lat="48.81656" lon="2.44369">
        <ele>32.599998474121</ele>
        <time>2016-06-13T18:59:30.000Z</time>
      </trkpt>
      <trkpt lat="48.81655" lon="2.4439">
        <ele>32.400001525879</ele>
        <time>2016-06-13T18:59:33.000Z</time>
      </trkpt>
      <trkpt lat="48.81656" lon="2.44411">
        <ele>32.400001525879</ele>
        <time>2016-06-13T18:59:37.000Z</time>
      </trkpt>
      <trkpt lat="48.81657" lon="2.44423">
        <ele>32.400001525879</ele>
        <time>2016-06-13T18:59:40.000Z</time>
      </trkpt>
      <trkpt lat="48.81658" lon="2.44429">
        <ele>32.400001525879</ele>
        <time>2016-06-13T18:59:44.000Z</time>
      </trkpt>
      <trkpt lat="48.81662" lon="2.44422">
        <ele>32.400001525879</ele>
        <time>2016-06-13T19:00:25.000Z</time>
      </trkpt>
      <trkpt lat="48.81661" lon="2.4442">
        <ele>32.400001525879</ele>
        <time>2016-06-13T19:00:47.000Z</time>
      </trkpt>
      <trkpt lat="48.81669" lon="2.44427">
        <ele>32.200000762939</ele>
        <time>2016-06-13T19:01:21.000Z</time>
      </trkpt>
      <trkpt lat="48.81682" lon="2.4445">
        <ele>32</ele>
        <time>2016-06-13T19:01:27.000Z</time>
      </trkpt>
      <trkpt lat="48.81681" lon="2.44477">
        <ele>32</ele>
        <time>2016-06-13T19:01:31.000Z</time>
      </trkpt>
      <trkpt lat="48.81677" lon="2.44509">
        <ele>33</ele>
        <time>2016-06-13T19:01:35.000Z</time>
      </trkpt>
      <trkpt lat="48.81674" lon="2.44542">
        <ele>35.400001525879</ele>
        <time>2016-06-13T19:01:39.000Z</time>
      </trkpt>
      <trkpt lat="48.8167" lon="2.44573">
        <ele>37</ele>
        <time>2016-06-13T19:01:43.000Z</time>
      </trkpt>
      <trkpt lat="48.81666" lon="2.44602">
        <ele>35.799999237061</ele>
        <time>2016-06-13T19:01:46.000Z</time>
      </trkpt>
      <trkpt lat="48.81662" lon="2.44633">
        <ele>33.599998474121</ele>
        <time>2016-06-13T19:01:49.000Z</time>
      </trkpt>
      <trkpt lat="48.81658" lon="2.44664">
        <ele>34</ele>
        <time>2016-06-13T19:01:52.000Z</time>
      </trkpt>
      <trkpt lat="48.81653" lon="2.44695">
        <ele>33.599998474121</ele>
        <time>2016-06-13T19:01:55.000Z</time>
      </trkpt>
      <trkpt lat="48.81648" lon="2.44732">
        <ele>33.400001525879</ele>
        <time>2016-06-13T19:01:58.000Z</time>
      </trkpt>
      <trkpt lat="48.81644" lon="2.44772">
        <ele>33.599998474121</ele>
        <time>2016-06-13T19:02:01.000Z</time>
      </trkpt>
      <trkpt lat="48.81642" lon="2.448">
        <ele>33.400001525879</ele>
        <time>2016-06-13T19:02:03.000Z</time>
      </trkpt>
      <trkpt lat="48.8164" lon="2.44839">
        <ele>32.799999237061</ele>
        <time>2016-06-13T19:02:06.000Z</time>
      </trkpt>
      <trkpt lat="48.81639" lon="2.44877">
        <ele>33</ele>
        <time>2016-06-13T19:02:09.000Z</time>
      </trkpt>
      <trkpt lat="48.81638" lon="2.44913">
        <ele>32.599998474121</ele>
        <time>2016-06-13T19:02:12.000Z</time>
      </trkpt>
      <trkpt lat="48.81634" lon="2.44946">
        <ele>32.400001525879</ele>
        <time>2016-06-13T19:02:15.000Z</time>
      </trkpt>
      <trkpt lat="48.81632" lon="2.44978">
        <ele>33.200000762939</ele>
        <time>2016-06-13T19:02:18.000Z</time>
      </trkpt>
      <trkpt lat="48.81629" lon="2.45015">
        <ele>34</ele>
        <time>2016-06-13T19:02:21.000Z</time>
      </trkpt>
      <trkpt lat="48.81633" lon="2.4505">
        <ele>33.400001525879</ele>
        <time>2016-06-13T19:02:26.000Z</time>
      </trkpt>
      <trkpt lat="48.81634" lon="2.45081">
        <ele>32.599998474121</ele>
        <time>2016-06-13T19:02:29.000Z</time>
      </trkpt>
      <trkpt lat="48.81634" lon="2.45104">
        <ele>34</ele>
        <time>2016-06-13T19:02:32.000Z</time>
      </trkpt>
      <trkpt lat="48.81636" lon="2.45138">
        <ele>34.200000762939</ele>
        <time>2016-06-13T19:02:35.000Z</time>
      </trkpt>
      <trkpt lat="48.81635" lon="2.45163">
        <ele>33.799999237061</ele>
        <time>2016-06-13T19:02:38.000Z</time>
      </trkpt>
      <trkpt lat="48.81631" lon="2.45198">
        <ele>36.200000762939</ele>
        <time>2016-06-13T19:02:42.000Z</time>
      </trkpt>
      <trkpt lat="48.81626" lon="2.45233">
        <ele>37.599998474121</ele>
        <time>2016-06-13T19:02:46.000Z</time>
      </trkpt>
      <trkpt lat="48.81622" lon="2.45264">
        <ele>37.599998474121</ele>
        <time>2016-06-13T19:02:49.000Z</time>
      </trkpt>
      <trkpt lat="48.81617" lon="2.45293">
        <ele>38.200000762939</ele>
        <time>2016-06-13T19:02:52.000Z</time>
      </trkpt>
      <trkpt lat="48.81609" lon="2.45325">
        <ele>39</ele>
        <time>2016-06-13T19:02:56.000Z</time>
      </trkpt>
      <trkpt lat="48.816" lon="2.4535">
        <ele>39</ele>
        <time>2016-06-13T19:03:00.000Z</time>
      </trkpt>
      <trkpt lat="48.81592" lon="2.45376">
        <ele>39.200000762939</ele>
        <time>2016-06-13T19:03:03.000Z</time>
      </trkpt>
      <trkpt lat="48.81581" lon="2.45401">
        <ele>39.200000762939</ele>
        <time>2016-06-13T19:03:07.000Z</time>
      </trkpt>
      <trkpt lat="48.81569" lon="2.45427">
        <ele>39</ele>
        <time>2016-06-13T19:03:11.000Z</time>
      </trkpt>
      <trkpt lat="48.81557" lon="2.45448">
        <ele>38.400001525879</ele>
        <time>2016-06-13T19:03:15.000Z</time>
      </trkpt>
      <trkpt lat="48.81544" lon="2.45473">
        <ele>37.400001525879</ele>
        <time>2016-06-13T19:03:20.000Z</time>
      </trkpt>
      <trkpt lat="48.81538" lon="2.45501">
        <ele>36.599998474121</ele>
        <time>2016-06-13T19:03:25.000Z</time>
      </trkpt>
      <trkpt lat="48.8154" lon="2.45511">
        <ele>36.599998474121</ele>
        <time>2016-06-13T19:03:27.000Z</time>
      </trkpt>
      <trkpt lat="48.8154" lon="2.45514">
        <ele>36.599998474121</ele>
        <time>2016-06-13T19:03:28.000Z</time>
      </trkpt>
      <trkpt lat="48.8154" lon="2.4552">
        <ele>36.599998474121</ele>
        <time>2016-06-13T19:03:31.000Z</time>
      </trkpt>
      <trkpt lat="48.81525" lon="2.45546">
        <ele>35.599998474121</ele>
        <time>2016-06-13T19:03:36.000Z</time>
      </trkpt>
      <trkpt lat="48.81512" lon="2.45568">
        <ele>35.200000762939</ele>
        <time>2016-06-13T19:03:46.000Z</time>
      </trkpt>
      <trkpt lat="48.8151" lon="2.45572">
        <ele>35.200000762939</ele>
        <time>2016-06-13T19:03:48.000Z</time>
      </trkpt>
      <trkpt lat="48.81501" lon="2.45578">
        <ele>35.200000762939</ele>
        <time>2016-06-13T19:04:18.000Z</time>
      </trkpt>
      <trkpt lat="48.81509" lon="2.45575">
        <ele>35.200000762939</ele>
        <time>2016-06-13T19:04:34.000Z</time>
      </trkpt>
      <trkpt lat="48.81516" lon="2.45588">
        <ele>35.400001525879</ele>
        <time>2016-06-13T19:04:55.000Z</time>
      </trkpt>
      <trkpt lat="48.81527" lon="2.456">
        <ele>35.799999237061</ele>
        <time>2016-06-13T19:05:19.000Z</time>
      </trkpt>
      <trkpt lat="48.8152" lon="2.45624">
        <ele>37</ele>
        <time>2016-06-13T19:05:26.000Z</time>
      </trkpt>
      <trkpt lat="48.81517" lon="2.45627">
        <ele>37.200000762939</ele>
        <time>2016-06-13T19:05:27.000Z</time>
      </trkpt>
      <trkpt lat="48.81503" lon="2.45648">
        <ele>38.400001525879</ele>
        <time>2016-06-13T19:05:32.000Z</time>
      </trkpt>
      <trkpt lat="48.81489" lon="2.45668">
        <ele>38.599998474121</ele>
        <time>2016-06-13T19:05:37.000Z</time>
      </trkpt>
      <trkpt lat="48.8148" lon="2.45692">
        <ele>38.799999237061</ele>
        <time>2016-06-13T19:05:42.000Z</time>
      </trkpt>
      <trkpt lat="48.81466" lon="2.45716">
        <ele>39.200000762939</ele>
        <time>2016-06-13T19:05:47.000Z</time>
      </trkpt>
      <trkpt lat="48.8145" lon="2.45733">
        <ele>39.599998474121</ele>
        <time>2016-06-13T19:05:54.000Z</time>
      </trkpt>
      <trkpt lat="48.81444" lon="2.45741">
        <ele>39.799999237061</ele>
        <time>2016-06-13T19:05:58.000Z</time>
      </trkpt>
      <trkpt lat="48.81445" lon="2.45766">
        <ele>40.599998474121</ele>
        <time>2016-06-13T19:06:03.000Z</time>
      </trkpt>
      <trkpt lat="48.81457" lon="2.45792">
        <ele>41.400001525879</ele>
        <time>2016-06-13T19:06:08.000Z</time>
      </trkpt>
      <trkpt lat="48.8147" lon="2.45814">
        <ele>42</ele>
        <time>2016-06-13T19:06:14.000Z</time>
      </trkpt>
      <trkpt lat="48.81482" lon="2.45836">
        <ele>42.599998474121</ele>
        <time>2016-06-13T19:06:19.000Z</time>
      </trkpt>
      <trkpt lat="48.81494" lon="2.45861">
        <ele>43</ele>
        <time>2016-06-13T19:06:24.000Z</time>
      </trkpt>
      <trkpt lat="48.81507" lon="2.45886">
        <ele>43.400001525879</ele>
        <time>2016-06-13T19:06:29.000Z</time>
      </trkpt>
      <trkpt lat="48.81522" lon="2.45906">
        <ele>43.599998474121</ele>
        <time>2016-06-13T19:06:35.000Z</time>
      </trkpt>
      <trkpt lat="48.81536" lon="2.4593">
        <ele>44.599998474121</ele>
        <time>2016-06-13T19:06:39.000Z</time>
      </trkpt>
      <trkpt lat="48.81535" lon="2.45943">
        <ele>44.400001525879</ele>
        <time>2016-06-13T19:06:42.000Z</time>
      </trkpt>
      <trkpt lat="48.8152" lon="2.45961">
        <ele>44</ele>
        <time>2016-06-13T19:06:46.000Z</time>
      </trkpt>
      <trkpt lat="48.81501" lon="2.45974">
        <ele>43.799999237061</ele>
        <time>2016-06-13T19:06:50.000Z</time>
      </trkpt>
      <trkpt lat="48.81494" lon="2.45989">
        <ele>43.200000762939</ele>
        <time>2016-06-13T19:06:52.000Z</time>
      </trkpt>
      <trkpt lat="48.81489" lon="2.46014">
        <ele>42.599998474121</ele>
        <time>2016-06-13T19:06:56.000Z</time>
      </trkpt>
      <trkpt lat="48.81486" lon="2.46044">
        <ele>42.200000762939</ele>
        <time>2016-06-13T19:07:01.000Z</time>
      </trkpt>
      <trkpt lat="48.81484" lon="2.46051">
        <ele>42.200000762939</ele>
        <time>2016-06-13T19:07:02.000Z</time>
      </trkpt>
      <trkpt lat="48.81481" lon="2.4607">
        <ele>42.400001525879</ele>
        <time>2016-06-13T19:07:05.000Z</time>
      </trkpt>
      <trkpt lat="48.81484" lon="2.4609">
        <ele>42.799999237061</ele>
        <time>2016-06-13T19:07:08.000Z</time>
      </trkpt>
      <trkpt lat="48.81485" lon="2.46105">
        <ele>43</ele>
        <time>2016-06-13T19:07:10.000Z</time>
      </trkpt>
      <trkpt lat="48.81486" lon="2.46131">
        <ele>43.599998474121</ele>
        <time>2016-06-13T19:07:14.000Z</time>
      </trkpt>
      <trkpt lat="48.81487" lon="2.46139">
        <ele>43.599998474121</ele>
        <time>2016-06-13T19:07:16.000Z</time>
      </trkpt>
      <trkpt lat="48.81483" lon="2.46158">
        <ele>43.200000762939</ele>
        <time>2016-06-13T19:07:38.000Z</time>
      </trkpt>
      <trkpt lat="48.81467" lon="2.46175">
        <ele>43</ele>
        <time>2016-06-13T19:07:46.000Z</time>
      </trkpt>
      <trkpt lat="48.81451" lon="2.46195">
        <ele>42.799999237061</ele>
        <time>2016-06-13T19:07:53.000Z</time>
      </trkpt>
      <trkpt lat="48.8144" lon="2.46218">
        <ele>42.400001525879</ele>
        <time>2016-06-13T19:08:01.000Z</time>
      </trkpt>
      <trkpt lat="48.8144" lon="2.46225">
        <ele>42.599998474121</ele>
        <time>2016-06-13T19:08:05.000Z</time>
      </trkpt>
      <trkpt lat="48.81434" lon="2.4624">
        <ele>42.599998474121</ele>
        <time>2016-06-13T19:08:17.000Z</time>
      </trkpt>
      <trkpt lat="48.8143" lon="2.46245">
        <ele>42.200000762939</ele>
        <time>2016-06-13T19:08:21.000Z</time>
      </trkpt>
      <trkpt lat="48.81416" lon="2.46268">
        <ele>40.799999237061</ele>
        <time>2016-06-13T19:08:33.000Z</time>
      </trkpt>
      <trkpt lat="48.81399" lon="2.4629">
        <ele>39.200000762939</ele>
        <time>2016-06-13T19:08:38.000Z</time>
      </trkpt>
      <trkpt lat="48.81386" lon="2.46309">
        <ele>38.400001525879</ele>
        <time>2016-06-13T19:08:41.000Z</time>
      </trkpt>
      <trkpt lat="48.81372" lon="2.46327">
        <ele>37.400001525879</ele>
        <time>2016-06-13T19:08:44.000Z</time>
      </trkpt>
      <trkpt lat="48.81355" lon="2.46351">
        <ele>37.400001525879</ele>
        <time>2016-06-13T19:08:48.000Z</time>
      </trkpt>
      <trkpt lat="48.8134" lon="2.46374">
        <ele>39.200000762939</ele>
        <time>2016-06-13T19:08:51.000Z</time>
      </trkpt>
      <trkpt lat="48.81334" lon="2.46391">
        <ele>40.400001525879</ele>
        <time>2016-06-13T19:08:53.000Z</time>
      </trkpt>
      <trkpt lat="48.8133" lon="2.46404">
        <ele>40.599998474121</ele>
        <time>2016-06-13T19:08:55.000Z</time>
      </trkpt>
      <trkpt lat="48.81324" lon="2.46432">
        <ele>40.799999237061</ele>
        <time>2016-06-13T19:08:59.000Z</time>
      </trkpt>
      <trkpt lat="48.81323" lon="2.4644">
        <ele>40.799999237061</ele>
        <time>2016-06-13T19:09:00.000Z</time>
      </trkpt>
      <trkpt lat="48.81318" lon="2.46471">
        <ele>40.599998474121</ele>
        <time>2016-06-13T19:09:04.000Z</time>
      </trkpt>
      <trkpt lat="48.81311" lon="2.465">
        <ele>39.400001525879</ele>
        <time>2016-06-13T19:09:08.000Z</time>
      </trkpt>
      <trkpt lat="48.81305" lon="2.46527">
        <ele>39.400001525879</ele>
        <time>2016-06-13T19:09:12.000Z</time>
      </trkpt>
      <trkpt lat="48.81303" lon="2.46538">
        <ele>39.400001525879</ele>
        <time>2016-06-13T19:09:14.000Z</time>
      </trkpt>
      <trkpt lat="48.81297" lon="2.46569">
        <ele>39.200000762939</ele>
        <time>2016-06-13T19:09:19.000Z</time>
      </trkpt>
      <trkpt lat="48.81292" lon="2.46597">
        <ele>39.200000762939</ele>
        <time>2016-06-13T19:09:23.000Z</time>
      </trkpt>
      <trkpt lat="48.81285" lon="2.46626">
        <ele>39.599998474121</ele>
        <time>2016-06-13T19:09:27.000Z</time>
      </trkpt>
      <trkpt lat="48.8128" lon="2.46655">
        <ele>40.200000762939</ele>
        <time>2016-06-13T19:09:31.000Z</time>
      </trkpt>
      <trkpt lat="48.81274" lon="2.46685">
        <ele>40.400001525879</ele>
        <time>2016-06-13T19:09:36.000Z</time>
      </trkpt>
      <trkpt lat="48.81268" lon="2.46708">
        <ele>40.400001525879</ele>
        <time>2016-06-13T19:09:40.000Z</time>
      </trkpt>
      <trkpt lat="48.81255" lon="2.46734">
        <ele>40.400001525879</ele>
        <time>2016-06-13T19:09:45.000Z</time>
      </trkpt>
      <trkpt lat="48.81245" lon="2.46748">
        <ele>40.599998474121</ele>
        <time>2016-06-13T19:09:48.000Z</time>
      </trkpt>
      <trkpt lat="48.81232" lon="2.4677">
        <ele>41</ele>
        <time>2016-06-13T19:09:52.000Z</time>
      </trkpt>
      <trkpt lat="48.81219" lon="2.46796">
        <ele>41.200000762939</ele>
        <time>2016-06-13T19:09:56.000Z</time>
      </trkpt>
      <trkpt lat="48.81208" lon="2.46818">
        <ele>41.200000762939</ele>
        <time>2016-06-13T19:10:00.000Z</time>
      </trkpt>
      <trkpt lat="48.81195" lon="2.46839">
        <ele>41.200000762939</ele>
        <time>2016-06-13T19:10:04.000Z</time>
      </trkpt>
      <trkpt lat="48.81185" lon="2.46853">
        <ele>41.200000762939</ele>
        <time>2016-06-13T19:10:07.000Z</time>
      </trkpt>
      <trkpt lat="48.81169" lon="2.46874">
        <ele>41.200000762939</ele>
        <time>2016-06-13T19:10:12.000Z</time>
      </trkpt>
      <trkpt lat="48.81152" lon="2.46898">
        <ele>41.200000762939</ele>
        <time>2016-06-13T19:10:17.000Z</time>
      </trkpt>
      <trkpt lat="48.81135" lon="2.46911">
        <ele>40.799999237061</ele>
        <time>2016-06-13T19:10:20.000Z</time>
      </trkpt>
      <trkpt lat="48.81119" lon="2.46924">
        <ele>40.599998474121</ele>
        <time>2016-06-13T19:10:23.000Z</time>
      </trkpt>
      <trkpt lat="48.81114" lon="2.4693">
        <ele>40.599998474121</ele>
        <time>2016-06-13T19:10:24.000Z</time>
      </trkpt>
      <trkpt lat="48.81097" lon="2.46953">
        <ele>41</ele>
        <time>2016-06-13T19:10:28.000Z</time>
      </trkpt>
      <trkpt lat="48.81082" lon="2.46974">
        <ele>41.599998474121</ele>
        <time>2016-06-13T19:10:32.000Z</time>
      </trkpt>
      <trkpt lat="48.81068" lon="2.46997">
        <ele>41.200000762939</ele>
        <time>2016-06-13T19:10:36.000Z</time>
      </trkpt>
      <trkpt lat="48.81055" lon="2.47016">
        <ele>41.200000762939</ele>
        <time>2016-06-13T19:10:39.000Z</time>
      </trkpt>
      <trkpt lat="48.81039" lon="2.47039">
        <ele>41.400001525879</ele>
        <time>2016-06-13T19:10:43.000Z</time>
      </trkpt>
      <trkpt lat="48.81025" lon="2.47061">
        <ele>41.599998474121</ele>
        <time>2016-06-13T19:10:47.000Z</time>
      </trkpt>
      <trkpt lat="48.81008" lon="2.47083">
        <ele>41.400001525879</ele>
        <time>2016-06-13T19:10:52.000Z</time>
      </trkpt>
      <trkpt lat="48.81005" lon="2.47087">
        <ele>41.400001525879</ele>
        <time>2016-06-13T19:10:53.000Z</time>
      </trkpt>
      <trkpt lat="48.80994" lon="2.47097">
        <ele>41.200000762939</ele>
        <time>2016-06-13T19:10:57.000Z</time>
      </trkpt>
      <trkpt lat="48.80979" lon="2.47119">
        <ele>41.200000762939</ele>
        <time>2016-06-13T19:11:02.000Z</time>
      </trkpt>
      <trkpt lat="48.80976" lon="2.47125">
        <ele>41.200000762939</ele>
        <time>2016-06-13T19:11:03.000Z</time>
      </trkpt>
      <trkpt lat="48.80963" lon="2.47149">
        <ele>41</ele>
        <time>2016-06-13T19:11:07.000Z</time>
      </trkpt>
      <trkpt lat="48.80959" lon="2.47154">
        <ele>41</ele>
        <time>2016-06-13T19:11:08.000Z</time>
      </trkpt>
      <trkpt lat="48.80944" lon="2.47172">
        <ele>40.400001525879</ele>
        <time>2016-06-13T19:11:12.000Z</time>
      </trkpt>
      <trkpt lat="48.80936" lon="2.47181">
        <ele>40.400001525879</ele>
        <time>2016-06-13T19:11:14.000Z</time>
      </trkpt>
      <trkpt lat="48.8092" lon="2.47199">
        <ele>40.599998474121</ele>
        <time>2016-06-13T19:11:18.000Z</time>
      </trkpt>
      <trkpt lat="48.80904" lon="2.47221">
        <ele>40.799999237061</ele>
        <time>2016-06-13T19:11:22.000Z</time>
      </trkpt>
      <trkpt lat="48.80886" lon="2.47242">
        <ele>40.599998474121</ele>
        <time>2016-06-13T19:11:26.000Z</time>
      </trkpt>
      <trkpt lat="48.8087" lon="2.47261">
        <ele>40.599998474121</ele>
        <time>2016-06-13T19:11:30.000Z</time>
      </trkpt>
      <trkpt lat="48.80854" lon="2.47281">
        <ele>40</ele>
        <time>2016-06-13T19:11:34.000Z</time>
      </trkpt>
      <trkpt lat="48.80838" lon="2.47298">
        <ele>39.400001525879</ele>
        <time>2016-06-13T19:11:38.000Z</time>
      </trkpt>
      <trkpt lat="48.80824" lon="2.47315">
        <ele>39.200000762939</ele>
        <time>2016-06-13T19:11:42.000Z</time>
      </trkpt>
      <trkpt lat="48.80806" lon="2.47335">
        <ele>39.400001525879</ele>
        <time>2016-06-13T19:11:47.000Z</time>
      </trkpt>
      <trkpt lat="48.8079" lon="2.4735">
        <ele>39</ele>
        <time>2016-06-13T19:11:51.000Z</time>
      </trkpt>
      <trkpt lat="48.80772" lon="2.47368">
        <ele>38.599998474121</ele>
        <time>2016-06-13T19:11:56.000Z</time>
      </trkpt>
      <trkpt lat="48.80766" lon="2.47375">
        <ele>38.400001525879</ele>
        <time>2016-06-13T19:11:58.000Z</time>
      </trkpt>
      <trkpt lat="48.80755" lon="2.474">
        <ele>38</ele>
        <time>2016-06-13T19:12:03.000Z</time>
      </trkpt>
      <trkpt lat="48.80748" lon="2.47427">
        <ele>38.400001525879</ele>
        <time>2016-06-13T19:12:07.000Z</time>
      </trkpt>
      <trkpt lat="48.8074" lon="2.47451">
        <ele>38.799999237061</ele>
        <time>2016-06-13T19:12:11.000Z</time>
      </trkpt>
      <trkpt lat="48.80732" lon="2.47478">
        <ele>39</ele>
        <time>2016-06-13T19:12:15.000Z</time>
      </trkpt>
      <trkpt lat="48.80724" lon="2.47506">
        <ele>39</ele>
        <time>2016-06-13T19:12:19.000Z</time>
      </trkpt>
      <trkpt lat="48.80717" lon="2.47538">
        <ele>39.400001525879</ele>
        <time>2016-06-13T19:12:23.000Z</time>
      </trkpt>
      <trkpt lat="48.80713" lon="2.47571">
        <ele>39.200000762939</ele>
        <time>2016-06-13T19:12:27.000Z</time>
      </trkpt>
      <trkpt lat="48.80708" lon="2.476">
        <ele>39.599998474121</ele>
        <time>2016-06-13T19:12:31.000Z</time>
      </trkpt>
      <trkpt lat="48.80704" lon="2.47629">
        <ele>40</ele>
        <time>2016-06-13T19:12:35.000Z</time>
      </trkpt>
      <trkpt lat="48.80698" lon="2.47659">
        <ele>40.200000762939</ele>
        <time>2016-06-13T19:12:39.000Z</time>
      </trkpt>
      <trkpt lat="48.80692" lon="2.47691">
        <ele>39.799999237061</ele>
        <time>2016-06-13T19:12:43.000Z</time>
      </trkpt>
      <trkpt lat="48.80688" lon="2.47724">
        <ele>39.200000762939</ele>
        <time>2016-06-13T19:12:47.000Z</time>
      </trkpt>
      <trkpt lat="48.80683" lon="2.47755">
        <ele>39</ele>
        <time>2016-06-13T19:12:51.000Z</time>
      </trkpt>
      <trkpt lat="48.80677" lon="2.47786">
        <ele>39.200000762939</ele>
        <time>2016-06-13T19:12:55.000Z</time>
      </trkpt>
      <trkpt lat="48.80671" lon="2.47812">
        <ele>39.599998474121</ele>
        <time>2016-06-13T19:12:59.000Z</time>
      </trkpt>
      <trkpt lat="48.80664" lon="2.47839">
        <ele>38.799999237061</ele>
        <time>2016-06-13T19:13:04.000Z</time>
      </trkpt>
      <trkpt lat="48.80658" lon="2.4786">
        <ele>38.799999237061</ele>
        <time>2016-06-13T19:13:09.000Z</time>
      </trkpt>
      <trkpt lat="48.80656" lon="2.47865">
        <ele>38.799999237061</ele>
        <time>2016-06-13T19:13:11.000Z</time>
      </trkpt>
      <trkpt lat="48.80654" lon="2.47874">
        <ele>38.799999237061</ele>
        <time>2016-06-13T19:13:15.000Z</time>
      </trkpt>
      <trkpt lat="48.8065" lon="2.47891">
        <ele>38.599998474121</ele>
        <time>2016-06-13T19:13:19.000Z</time>
      </trkpt>
      <trkpt lat="48.80643" lon="2.47918">
        <ele>37.799999237061</ele>
        <time>2016-06-13T19:13:24.000Z</time>
      </trkpt>
      <trkpt lat="48.80635" lon="2.47946">
        <ele>37.200000762939</ele>
        <time>2016-06-13T19:13:29.000Z</time>
      </trkpt>
      <trkpt lat="48.80627" lon="2.47977">
        <ele>38</ele>
        <time>2016-06-13T19:13:34.000Z</time>
      </trkpt>
      <trkpt lat="48.80619" lon="2.48004">
        <ele>38.599998474121</ele>
        <time>2016-06-13T19:13:38.000Z</time>
      </trkpt>
      <trkpt lat="48.80612" lon="2.48033">
        <ele>39</ele>
        <time>2016-06-13T19:13:42.000Z</time>
      </trkpt>
      <trkpt lat="48.80604" lon="2.48063">
        <ele>39.599998474121</ele>
        <time>2016-06-13T19:13:46.000Z</time>
      </trkpt>
      <trkpt lat="48.80596" lon="2.48093">
        <ele>39.799999237061</ele>
        <time>2016-06-13T19:13:50.000Z</time>
      </trkpt>
      <trkpt lat="48.80587" lon="2.48124">
        <ele>39.799999237061</ele>
        <time>2016-06-13T19:13:54.000Z</time>
      </trkpt>
      <trkpt lat="48.80578" lon="2.48153">
        <ele>39.599998474121</ele>
        <time>2016-06-13T19:13:58.000Z</time>
      </trkpt>
      <trkpt lat="48.80571" lon="2.48183">
        <ele>39.200000762939</ele>
        <time>2016-06-13T19:14:02.000Z</time>
      </trkpt>
      <trkpt lat="48.80565" lon="2.48212">
        <ele>39</ele>
        <time>2016-06-13T19:14:06.000Z</time>
      </trkpt>
      <trkpt lat="48.80558" lon="2.48239">
        <ele>38.400001525879</ele>
        <time>2016-06-13T19:14:10.000Z</time>
      </trkpt>
      <trkpt lat="48.80549" lon="2.48266">
        <ele>38</ele>
        <time>2016-06-13T19:14:14.000Z</time>
      </trkpt>
      <trkpt lat="48.80541" lon="2.48292">
        <ele>38.200000762939</ele>
        <time>2016-06-13T19:14:18.000Z</time>
      </trkpt>
      <trkpt lat="48.80534" lon="2.48321">
        <ele>38.799999237061</ele>
        <time>2016-06-13T19:14:22.000Z</time>
      </trkpt>
      <trkpt lat="48.80533" lon="2.48329">
        <ele>39</ele>
        <time>2016-06-13T19:14:23.000Z</time>
      </trkpt>
      <trkpt lat="48.80526" lon="2.48355">
        <ele>39.799999237061</ele>
        <time>2016-06-13T19:14:27.000Z</time>
      </trkpt>
      <trkpt lat="48.80525" lon="2.48361">
        <ele>40</ele>
        <time>2016-06-13T19:14:28.000Z</time>
      </trkpt>
      <trkpt lat="48.80524" lon="2.48385">
        <ele>40.799999237061</ele>
        <time>2016-06-13T19:14:32.000Z</time>
      </trkpt>
      <trkpt lat="48.80523" lon="2.48396">
        <ele>41.200000762939</ele>
        <time>2016-06-13T19:14:34.000Z</time>
      </trkpt>
      <trkpt lat="48.8052" lon="2.48423">
        <ele>42</ele>
        <time>2016-06-13T19:14:39.000Z</time>
      </trkpt>
      <trkpt lat="48.80514" lon="2.48447">
        <ele>41.799999237061</ele>
        <time>2016-06-13T19:14:44.000Z</time>
      </trkpt>
      <trkpt lat="48.80513" lon="2.48455">
        <ele>41.799999237061</ele>
        <time>2016-06-13T19:14:46.000Z</time>
      </trkpt>
      <trkpt lat="48.80509" lon="2.48474">
        <ele>41.799999237061</ele>
        <time>2016-06-13T19:14:50.000Z</time>
      </trkpt>
      <trkpt lat="48.80501" lon="2.485">
        <ele>42</ele>
        <time>2016-06-13T19:14:55.000Z</time>
      </trkpt>
      <trkpt lat="48.8049" lon="2.48522">
        <ele>41.799999237061</ele>
        <time>2016-06-13T19:14:59.000Z</time>
      </trkpt>
      <trkpt lat="48.80488" lon="2.48527">
        <ele>41.599998474121</ele>
        <time>2016-06-13T19:15:00.000Z</time>
      </trkpt>
      <trkpt lat="48.8048" lon="2.48545">
        <ele>41.400001525879</ele>
        <time>2016-06-13T19:15:05.000Z</time>
      </trkpt>
      <trkpt lat="48.80471" lon="2.48562">
        <ele>41.599998474121</ele>
        <time>2016-06-13T19:15:15.000Z</time>
      </trkpt>
      <trkpt lat="48.80468" lon="2.48556">
        <ele>41.599998474121</ele>
        <time>2016-06-13T19:15:45.000Z</time>
      </trkpt>
      <trkpt lat="48.80451" lon="2.48571">
        <ele>41.799999237061</ele>
        <time>2016-06-13T19:15:56.000Z</time>
      </trkpt>
      <trkpt lat="48.8045" lon="2.48576">
        <ele>41.799999237061</ele>
        <time>2016-06-13T19:15:57.000Z</time>
      </trkpt>
      <trkpt lat="48.80439" lon="2.48604">
        <ele>42.200000762939</ele>
        <time>2016-06-13T19:16:02.000Z</time>
      </trkpt>
      <trkpt lat="48.80427" lon="2.4863">
        <ele>42.599998474121</ele>
        <time>2016-06-13T19:16:07.000Z</time>
      </trkpt>
      <trkpt lat="48.8042" lon="2.48656">
        <ele>42.599998474121</ele>
        <time>2016-06-13T19:16:12.000Z</time>
      </trkpt>
      <trkpt lat="48.80414" lon="2.48686">
        <ele>42.400001525879</ele>
        <time>2016-06-13T19:16:18.000Z</time>
      </trkpt>
      <trkpt lat="48.80404" lon="2.48714">
        <ele>42.200000762939</ele>
        <time>2016-06-13T19:16:24.000Z</time>
      </trkpt>
      <trkpt lat="48.80397" lon="2.48744">
        <ele>42.799999237061</ele>
        <time>2016-06-13T19:16:29.000Z</time>
      </trkpt>
      <trkpt lat="48.80388" lon="2.48768">
        <ele>43.200000762939</ele>
        <time>2016-06-13T19:16:33.000Z</time>
      </trkpt>
      <trkpt lat="48.80378" lon="2.48798">
        <ele>43.200000762939</ele>
        <time>2016-06-13T19:16:37.000Z</time>
      </trkpt>
      <trkpt lat="48.80368" lon="2.48826">
        <ele>43.200000762939</ele>
        <time>2016-06-13T19:16:40.000Z</time>
      </trkpt>
      <trkpt lat="48.80356" lon="2.48855">
        <ele>43</ele>
        <time>2016-06-13T19:16:43.000Z</time>
      </trkpt>
      <trkpt lat="48.80344" lon="2.48886">
        <ele>42.799999237061</ele>
        <time>2016-06-13T19:16:46.000Z</time>
      </trkpt>
      <trkpt lat="48.80333" lon="2.48918">
        <ele>42.400001525879</ele>
        <time>2016-06-13T19:16:49.000Z</time>
      </trkpt>
      <trkpt lat="48.80322" lon="2.48949">
        <ele>43</ele>
        <time>2016-06-13T19:16:52.000Z</time>
      </trkpt>
      <trkpt lat="48.80313" lon="2.48978">
        <ele>43.200000762939</ele>
        <time>2016-06-13T19:16:55.000Z</time>
      </trkpt>
      <trkpt lat="48.80307" lon="2.48994">
        <ele>43.200000762939</ele>
        <time>2016-06-13T19:16:57.000Z</time>
      </trkpt>
      <trkpt lat="48.80301" lon="2.49021">
        <ele>42.799999237061</ele>
        <time>2016-06-13T19:17:00.000Z</time>
      </trkpt>
      <trkpt lat="48.80294" lon="2.49046">
        <ele>43.200000762939</ele>
        <time>2016-06-13T19:17:03.000Z</time>
      </trkpt>
      <trkpt lat="48.80284" lon="2.49078">
        <ele>43.799999237061</ele>
        <time>2016-06-13T19:17:07.000Z</time>
      </trkpt>
      <trkpt lat="48.80273" lon="2.49102">
        <ele>43.799999237061</ele>
        <time>2016-06-13T19:17:10.000Z</time>
      </trkpt>
      <trkpt lat="48.80263" lon="2.49126">
        <ele>43.200000762939</ele>
        <time>2016-06-13T19:17:13.000Z</time>
      </trkpt>
      <trkpt lat="48.8025" lon="2.49155">
        <ele>42.799999237061</ele>
        <time>2016-06-13T19:17:17.000Z</time>
      </trkpt>
      <trkpt lat="48.80236" lon="2.4918">
        <ele>42.599998474121</ele>
        <time>2016-06-13T19:17:21.000Z</time>
      </trkpt>
      <trkpt lat="48.80224" lon="2.49198">
        <ele>42.400001525879</ele>
        <time>2016-06-13T19:17:27.000Z</time>
      </trkpt>
      <trkpt lat="48.80222" lon="2.49202">
        <ele>42.400001525879</ele>
        <time>2016-06-13T19:17:37.000Z</time>
      </trkpt>
      <trkpt lat="48.80216" lon="2.49228">
        <ele>42</ele>
        <time>2016-06-13T19:17:42.000Z</time>
      </trkpt>
      <trkpt lat="48.80206" lon="2.4926">
        <ele>41.599998474121</ele>
        <time>2016-06-13T19:17:46.000Z</time>
      </trkpt>
      <trkpt lat="48.80197" lon="2.49285">
        <ele>42</ele>
        <time>2016-06-13T19:17:49.000Z</time>
      </trkpt>
      <trkpt lat="48.80186" lon="2.49308">
        <ele>42.400001525879</ele>
        <time>2016-06-13T19:17:52.000Z</time>
      </trkpt>
      <trkpt lat="48.80174" lon="2.49339">
        <ele>42.599998474121</ele>
        <time>2016-06-13T19:17:56.000Z</time>
      </trkpt>
      <trkpt lat="48.80162" lon="2.49369">
        <ele>42.400001525879</ele>
        <time>2016-06-13T19:18:00.000Z</time>
      </trkpt>
      <trkpt lat="48.80154" lon="2.49392">
        <ele>42.200000762939</ele>
        <time>2016-06-13T19:18:03.000Z</time>
      </trkpt>
      <trkpt lat="48.80141" lon="2.49422">
        <ele>41.799999237061</ele>
        <time>2016-06-13T19:18:07.000Z</time>
      </trkpt>
      <trkpt lat="48.80131" lon="2.49445">
        <ele>41.599998474121</ele>
        <time>2016-06-13T19:18:10.000Z</time>
      </trkpt>
      <trkpt lat="48.80128" lon="2.49453">
        <ele>41.799999237061</ele>
        <time>2016-06-13T19:18:11.000Z</time>
      </trkpt>
      <trkpt lat="48.80117" lon="2.49475">
        <ele>42.400001525879</ele>
        <time>2016-06-13T19:18:14.000Z</time>
      </trkpt>
      <trkpt lat="48.80105" lon="2.49503">
        <ele>43</ele>
        <time>2016-06-13T19:18:18.000Z</time>
      </trkpt>
      <trkpt lat="48.80094" lon="2.4953">
        <ele>42.200000762939</ele>
        <time>2016-06-13T19:18:22.000Z</time>
      </trkpt>
      <trkpt lat="48.80082" lon="2.49559">
        <ele>41.200000762939</ele>
        <time>2016-06-13T19:18:26.000Z</time>
      </trkpt>
      <trkpt lat="48.80069" lon="2.49585">
        <ele>41.599998474121</ele>
        <time>2016-06-13T19:18:29.000Z</time>
      </trkpt>
      <trkpt lat="48.80057" lon="2.49611">
        <ele>41.400001525879</ele>
        <time>2016-06-13T19:18:32.000Z</time>
      </trkpt>
      <trkpt lat="48.80046" lon="2.49638">
        <ele>41</ele>
        <time>2016-06-13T19:18:35.000Z</time>
      </trkpt>
      <trkpt lat="48.80035" lon="2.49667">
        <ele>40.400001525879</ele>
        <time>2016-06-13T19:18:38.000Z</time>
      </trkpt>
      <trkpt lat="48.80024" lon="2.49694">
        <ele>40.400001525879</ele>
        <time>2016-06-13T19:18:41.000Z</time>
      </trkpt>
      <trkpt lat="48.80014" lon="2.49719">
        <ele>40.599998474121</ele>
        <time>2016-06-13T19:18:44.000Z</time>
      </trkpt>
      <trkpt lat="48.80001" lon="2.4975">
        <ele>41</ele>
        <time>2016-06-13T19:18:48.000Z</time>
      </trkpt>
      <trkpt lat="48.79991" lon="2.49773">
        <ele>41</ele>
        <time>2016-06-13T19:18:51.000Z</time>
      </trkpt>
      <trkpt lat="48.7998" lon="2.49796">
        <ele>41</ele>
        <time>2016-06-13T19:18:54.000Z</time>
      </trkpt>
      <trkpt lat="48.79968" lon="2.49822">
        <ele>40.400001525879</ele>
        <time>2016-06-13T19:18:57.000Z</time>
      </trkpt>
      <trkpt lat="48.79957" lon="2.49848">
        <ele>40.400001525879</ele>
        <time>2016-06-13T19:19:00.000Z</time>
      </trkpt>
      <trkpt lat="48.79947" lon="2.49881">
        <ele>40.200000762939</ele>
        <time>2016-06-13T19:19:04.000Z</time>
      </trkpt>
      <trkpt lat="48.79937" lon="2.49905">
        <ele>40</ele>
        <time>2016-06-13T19:19:08.000Z</time>
      </trkpt>
      <trkpt lat="48.79926" lon="2.49932">
        <ele>40</ele>
        <time>2016-06-13T19:19:12.000Z</time>
      </trkpt>
      <trkpt lat="48.79917" lon="2.49962">
        <ele>40.200000762939</ele>
        <time>2016-06-13T19:19:16.000Z</time>
      </trkpt>
      <trkpt lat="48.79905" lon="2.49992">
        <ele>40.799999237061</ele>
        <time>2016-06-13T19:19:20.000Z</time>
      </trkpt>
      <trkpt lat="48.79896" lon="2.5002">
        <ele>41.200000762939</ele>
        <time>2016-06-13T19:19:23.000Z</time>
      </trkpt>
      <trkpt lat="48.79885" lon="2.50051">
        <ele>41.799999237061</ele>
        <time>2016-06-13T19:19:26.000Z</time>
      </trkpt>
      <trkpt lat="48.79872" lon="2.50084">
        <ele>42.799999237061</ele>
        <time>2016-06-13T19:19:29.000Z</time>
      </trkpt>
      <trkpt lat="48.79863" lon="2.50107">
        <ele>42.799999237061</ele>
        <time>2016-06-13T19:19:31.000Z</time>
      </trkpt>
      <trkpt lat="48.79849" lon="2.5014">
        <ele>42.200000762939</ele>
        <time>2016-06-13T19:19:34.000Z</time>
      </trkpt>
      <trkpt lat="48.79834" lon="2.50174">
        <ele>41.799999237061</ele>
        <time>2016-06-13T19:19:37.000Z</time>
      </trkpt>
      <trkpt lat="48.7982" lon="2.50204">
        <ele>41.599998474121</ele>
        <time>2016-06-13T19:19:40.000Z</time>
      </trkpt>
      <trkpt lat="48.79809" lon="2.50233">
        <ele>41.400001525879</ele>
        <time>2016-06-13T19:19:43.000Z</time>
      </trkpt>
      <trkpt lat="48.79798" lon="2.50261">
        <ele>41</ele>
        <time>2016-06-13T19:19:47.000Z</time>
      </trkpt>
      <trkpt lat="48.79791" lon="2.50273">
        <ele>40.799999237061</ele>
        <time>2016-06-13T19:19:50.000Z</time>
      </trkpt>
      <trkpt lat="48.79788" lon="2.50282">
        <ele>41</ele>
        <time>2016-06-13T19:19:54.000Z</time>
      </trkpt>
      <trkpt lat="48.79781" lon="2.50296">
        <ele>41.400001525879</ele>
        <time>2016-06-13T19:20:14.000Z</time>
      </trkpt>
      <trkpt lat="48.79772" lon="2.5032">
        <ele>41.799999237061</ele>
        <time>2016-06-13T19:20:17.000Z</time>
      </trkpt>
      <trkpt lat="48.79763" lon="2.50346">
        <ele>41.799999237061</ele>
        <time>2016-06-13T19:20:20.000Z</time>
      </trkpt>
      <trkpt lat="48.79754" lon="2.50372">
        <ele>41.400001525879</ele>
        <time>2016-06-13T19:20:23.000Z</time>
      </trkpt>
      <trkpt lat="48.79744" lon="2.50396">
        <ele>41</ele>
        <time>2016-06-13T19:20:26.000Z</time>
      </trkpt>
      <trkpt lat="48.79734" lon="2.50422">
        <ele>41</ele>
        <time>2016-06-13T19:20:29.000Z</time>
      </trkpt>
      <trkpt lat="48.79724" lon="2.50447">
        <ele>41</ele>
        <time>2016-06-13T19:20:32.000Z</time>
      </trkpt>
      <trkpt lat="48.79715" lon="2.50473">
        <ele>41</ele>
        <time>2016-06-13T19:20:35.000Z</time>
      </trkpt>
      <trkpt lat="48.79706" lon="2.50497">
        <ele>41</ele>
        <time>2016-06-13T19:20:38.000Z</time>
      </trkpt>
      <trkpt lat="48.79695" lon="2.50522">
        <ele>41</ele>
        <time>2016-06-13T19:20:41.000Z</time>
      </trkpt>
      <trkpt lat="48.79684" lon="2.50548">
        <ele>40.799999237061</ele>
        <time>2016-06-13T19:20:44.000Z</time>
      </trkpt>
      <trkpt lat="48.79674" lon="2.50574">
        <ele>40.599998474121</ele>
        <time>2016-06-13T19:20:47.000Z</time>
      </trkpt>
      <trkpt lat="48.79664" lon="2.50599">
        <ele>40.200000762939</ele>
        <time>2016-06-13T19:20:50.000Z</time>
      </trkpt>
      <trkpt lat="48.79655" lon="2.50628">
        <ele>39.599998474121</ele>
        <time>2016-06-13T19:20:53.000Z</time>
      </trkpt>
      <trkpt lat="48.79645" lon="2.50654">
        <ele>39.799999237061</ele>
        <time>2016-06-13T19:20:56.000Z</time>
      </trkpt>
      <trkpt lat="48.79634" lon="2.50689">
        <ele>39.799999237061</ele>
        <time>2016-06-13T19:20:59.000Z</time>
      </trkpt>
      <trkpt lat="48.7962" lon="2.50724">
        <ele>40.400001525879</ele>
        <time>2016-06-13T19:21:02.000Z</time>
      </trkpt>
      <trkpt lat="48.79606" lon="2.50756">
        <ele>41</ele>
        <time>2016-06-13T19:21:05.000Z</time>
      </trkpt>
      <trkpt lat="48.79595" lon="2.5079">
        <ele>40.799999237061</ele>
        <time>2016-06-13T19:21:08.000Z</time>
      </trkpt>
      <trkpt lat="48.79582" lon="2.50823">
        <ele>40.799999237061</ele>
        <time>2016-06-13T19:21:11.000Z</time>
      </trkpt>
      <trkpt lat="48.79568" lon="2.50851">
        <ele>40.799999237061</ele>
        <time>2016-06-13T19:21:14.000Z</time>
      </trkpt>
      <trkpt lat="48.79554" lon="2.50879">
        <ele>40.599998474121</ele>
        <time>2016-06-13T19:21:17.000Z</time>
      </trkpt>
      <trkpt lat="48.79541" lon="2.50911">
        <ele>40.799999237061</ele>
        <time>2016-06-13T19:21:20.000Z</time>
      </trkpt>
      <trkpt lat="48.79531" lon="2.5093">
        <ele>40.799999237061</ele>
        <time>2016-06-13T19:21:22.000Z</time>
      </trkpt>
      <trkpt lat="48.79521" lon="2.50959">
        <ele>41</ele>
        <time>2016-06-13T19:21:25.000Z</time>
      </trkpt>
      <trkpt lat="48.79511" lon="2.50984">
        <ele>40.799999237061</ele>
        <time>2016-06-13T19:21:28.000Z</time>
      </trkpt>
      <trkpt lat="48.795" lon="2.5101">
        <ele>41</ele>
        <time>2016-06-13T19:21:31.000Z</time>
      </trkpt>
      <trkpt lat="48.7949" lon="2.51035">
        <ele>41</ele>
        <time>2016-06-13T19:21:34.000Z</time>
      </trkpt>
      <trkpt lat="48.7948" lon="2.51059">
        <ele>41</ele>
        <time>2016-06-13T19:21:37.000Z</time>
      </trkpt>
      <trkpt lat="48.79478" lon="2.51067">
        <ele>41</ele>
        <time>2016-06-13T19:21:38.000Z</time>
      </trkpt>
      <trkpt lat="48.79467" lon="2.51098">
        <ele>40.799999237061</ele>
        <time>2016-06-13T19:21:42.000Z</time>
      </trkpt>
      <trkpt lat="48.79457" lon="2.51128">
        <ele>40.799999237061</ele>
        <time>2016-06-13T19:21:46.000Z</time>
      </trkpt>
      <trkpt lat="48.79447" lon="2.51152">
        <ele>40.799999237061</ele>
        <time>2016-06-13T19:21:51.000Z</time>
      </trkpt>
      <trkpt lat="48.79446" lon="2.51153">
        <ele>41</ele>
        <time>2016-06-13T19:21:52.000Z</time>
      </trkpt>
      <trkpt lat="48.7944" lon="2.51144">
        <ele>41</ele>
        <time>2016-06-13T19:22:36.000Z</time>
      </trkpt>
      <trkpt lat="48.79423" lon="2.51133">
        <ele>40.799999237061</ele>
        <time>2016-06-13T19:22:43.000Z</time>
      </trkpt>
      <trkpt lat="48.79404" lon="2.51121">
        <ele>40.599998474121</ele>
        <time>2016-06-13T19:22:49.000Z</time>
      </trkpt>
      <trkpt lat="48.79385" lon="2.51106">
        <ele>40.400001525879</ele>
        <time>2016-06-13T19:22:55.000Z</time>
      </trkpt>
      <trkpt lat="48.79368" lon="2.51093">
        <ele>40.200000762939</ele>
        <time>2016-06-13T19:23:00.000Z</time>
      </trkpt>
      <trkpt lat="48.79351" lon="2.51076">
        <ele>39.799999237061</ele>
        <time>2016-06-13T19:23:06.000Z</time>
      </trkpt>
      <trkpt lat="48.79334" lon="2.51059">
        <ele>39.400001525879</ele>
        <time>2016-06-13T19:23:11.000Z</time>
      </trkpt>
      <trkpt lat="48.79316" lon="2.51043">
        <ele>39</ele>
        <time>2016-06-13T19:23:17.000Z</time>
      </trkpt>
      <trkpt lat="48.79308" lon="2.51037">
        <ele>38.799999237061</ele>
        <time>2016-06-13T19:23:22.000Z</time>
      </trkpt>
      <trkpt lat="48.79313" lon="2.51043">
        <ele>39</ele>
        <time>2016-06-13T19:23:26.000Z</time>
      </trkpt>
      <trkpt lat="48.79315" lon="2.51045">
        <ele>39</ele>
        <time>2016-06-13T19:23:29.000Z</time>
      </trkpt>
      <trkpt lat="48.79328" lon="2.51057">
        <ele>39.400001525879</ele>
        <time>2016-06-13T19:23:37.000Z</time>
      </trkpt>
      <trkpt lat="48.79345" lon="2.51068">
        <ele>39.599998474121</ele>
        <time>2016-06-13T19:23:43.000Z</time>
      </trkpt>
      <trkpt lat="48.79365" lon="2.51079">
        <ele>40</ele>
        <time>2016-06-13T19:23:49.000Z</time>
      </trkpt>
      <trkpt lat="48.79382" lon="2.51091">
        <ele>40.400001525879</ele>
        <time>2016-06-13T19:23:54.000Z</time>
      </trkpt>
      <trkpt lat="48.79399" lon="2.51105">
        <ele>40.599998474121</ele>
        <time>2016-06-13T19:23:59.000Z</time>
      </trkpt>
      <trkpt lat="48.79416" lon="2.51117">
        <ele>40.799999237061</ele>
        <time>2016-06-13T19:24:04.000Z</time>
      </trkpt>
      <trkpt lat="48.79433" lon="2.51129">
        <ele>41</ele>
        <time>2016-06-13T19:24:09.000Z</time>
      </trkpt>
      <trkpt lat="48.79446" lon="2.51142">
        <ele>41</ele>
        <time>2016-06-13T19:24:15.000Z</time>
      </trkpt>
      <trkpt lat="48.79461" lon="2.51158">
        <ele>40.799999237061</ele>
        <time>2016-06-13T19:24:25.000Z</time>
      </trkpt>
      <trkpt lat="48.79477" lon="2.51172">
        <ele>40.599998474121</ele>
        <time>2016-06-13T19:24:30.000Z</time>
      </trkpt>
      <trkpt lat="48.79497" lon="2.51187">
        <ele>40.599998474121</ele>
        <time>2016-06-13T19:24:35.000Z</time>
      </trkpt>
      <trkpt lat="48.79513" lon="2.51199">
        <ele>40.400001525879</ele>
        <time>2016-06-13T19:24:39.000Z</time>
      </trkpt>
      <trkpt lat="48.79529" lon="2.51214">
        <ele>40.599998474121</ele>
        <time>2016-06-13T19:24:43.000Z</time>
      </trkpt>
      <trkpt lat="48.79545" lon="2.51228">
        <ele>41</ele>
        <time>2016-06-13T19:24:47.000Z</time>
      </trkpt>
      <trkpt lat="48.79563" lon="2.51242">
        <ele>41.400001525879</ele>
        <time>2016-06-13T19:24:52.000Z</time>
      </trkpt>
      <trkpt lat="48.7958" lon="2.51252">
        <ele>41.799999237061</ele>
        <time>2016-06-13T19:24:56.000Z</time>
      </trkpt>
      <trkpt lat="48.79597" lon="2.51266">
        <ele>42</ele>
        <time>2016-06-13T19:25:00.000Z</time>
      </trkpt>
      <trkpt lat="48.79606" lon="2.51273">
        <ele>42</ele>
        <time>2016-06-13T19:25:03.000Z</time>
      </trkpt>
      <trkpt lat="48.79599" lon="2.51287">
        <ele>42</ele>
        <time>2016-06-13T19:25:09.000Z</time>
      </trkpt>
      <trkpt lat="48.79589" lon="2.51311">
        <ele>41.799999237061</ele>
        <time>2016-06-13T19:25:14.000Z</time>
      </trkpt>
      <trkpt lat="48.79587" lon="2.51322">
        <ele>42</ele>
        <time>2016-06-13T19:25:16.000Z</time>
      </trkpt>
      <trkpt lat="48.79599" lon="2.51338">
        <ele>42.200000762939</ele>
        <time>2016-06-13T19:25:22.000Z</time>
      </trkpt>
      <trkpt lat="48.79607" lon="2.51336">
        <ele>42</ele>
        <time>2016-06-13T19:25:24.000Z</time>
      </trkpt>
      <trkpt lat="48.79627" lon="2.51329">
        <ele>41.799999237061</ele>
        <time>2016-06-13T19:25:29.000Z</time>
      </trkpt>
      <trkpt lat="48.79649" lon="2.51323">
        <ele>41.400001525879</ele>
        <time>2016-06-13T19:25:34.000Z</time>
      </trkpt>
      <trkpt lat="48.79671" lon="2.51319">
        <ele>41.200000762939</ele>
        <time>2016-06-13T19:25:39.000Z</time>
      </trkpt>
      <trkpt lat="48.7969" lon="2.51314">
        <ele>41</ele>
        <time>2016-06-13T19:25:44.000Z</time>
      </trkpt>
      <trkpt lat="48.79709" lon="2.51312">
        <ele>40.799999237061</ele>
        <time>2016-06-13T19:25:50.000Z</time>
      </trkpt>
      <trkpt lat="48.79729" lon="2.51305">
        <ele>40.599998474121</ele>
        <time>2016-06-13T19:26:00.000Z</time>
      </trkpt>
      <trkpt lat="48.79738" lon="2.51297">
        <ele>40.400001525879</ele>
        <time>2016-06-13T19:26:52.000Z</time>
      </trkpt>
      <trkpt lat="48.79753" lon="2.51292">
        <ele>40.400001525879</ele>
        <time>2016-06-13T19:27:33.000Z</time>
      </trkpt>
      <trkpt lat="48.79772" lon="2.51285">
        <ele>40.599998474121</ele>
        <time>2016-06-13T19:27:40.000Z</time>
      </trkpt>
      <trkpt lat="48.79791" lon="2.51282">
        <ele>41.599998474121</ele>
        <time>2016-06-13T19:27:45.000Z</time>
      </trkpt>
      <trkpt lat="48.79809" lon="2.51278">
        <ele>42.400001525879</ele>
        <time>2016-06-13T19:27:50.000Z</time>
      </trkpt>
      <trkpt lat="48.79831" lon="2.51269">
        <ele>43.200000762939</ele>
        <time>2016-06-13T19:27:55.000Z</time>
      </trkpt>
      <trkpt lat="48.79852" lon="2.51265">
        <ele>43.799999237061</ele>
        <time>2016-06-13T19:28:00.000Z</time>
      </trkpt>
      <trkpt lat="48.79874" lon="2.5126">
        <ele>43.599998474121</ele>
        <time>2016-06-13T19:28:05.000Z</time>
      </trkpt>
      <trkpt lat="48.79893" lon="2.51256">
        <ele>43</ele>
        <time>2016-06-13T19:28:09.000Z</time>
      </trkpt>
      <trkpt lat="48.79911" lon="2.5125">
        <ele>42.599998474121</ele>
        <time>2016-06-13T19:28:13.000Z</time>
      </trkpt>
      <trkpt lat="48.79929" lon="2.51245">
        <ele>42.200000762939</ele>
        <time>2016-06-13T19:28:17.000Z</time>
      </trkpt>
      <trkpt lat="48.79951" lon="2.5124">
        <ele>41.799999237061</ele>
        <time>2016-06-13T19:28:21.000Z</time>
      </trkpt>
      <trkpt lat="48.7996" lon="2.51238">
        <ele>41.599998474121</ele>
        <time>2016-06-13T19:28:23.000Z</time>
      </trkpt>
      <trkpt lat="48.79979" lon="2.51234">
        <ele>41.200000762939</ele>
        <time>2016-06-13T19:28:27.000Z</time>
      </trkpt>
      <trkpt lat="48.8" lon="2.51232">
        <ele>40.799999237061</ele>
        <time>2016-06-13T19:28:31.000Z</time>
      </trkpt>
      <trkpt lat="48.80021" lon="2.51229">
        <ele>40</ele>
        <time>2016-06-13T19:28:35.000Z</time>
      </trkpt>
      <trkpt lat="48.80043" lon="2.51225">
        <ele>40.200000762939</ele>
        <time>2016-06-13T19:28:39.000Z</time>
      </trkpt>
      <trkpt lat="48.80064" lon="2.51214">
        <ele>40.599998474121</ele>
        <time>2016-06-13T19:28:42.000Z</time>
      </trkpt>
      <trkpt lat="48.8009" lon="2.51204">
        <ele>40.799999237061</ele>
        <time>2016-06-13T19:28:45.000Z</time>
      </trkpt>
      <trkpt lat="48.80114" lon="2.51196">
        <ele>41</ele>
        <time>2016-06-13T19:28:48.000Z</time>
      </trkpt>
      <trkpt lat="48.80133" lon="2.51191">
        <ele>41</ele>
        <time>2016-06-13T19:28:50.000Z</time>
      </trkpt>
      <trkpt lat="48.80157" lon="2.51184">
        <ele>41.400001525879</ele>
        <time>2016-06-13T19:28:53.000Z</time>
      </trkpt>
      <trkpt lat="48.80182" lon="2.51176">
        <ele>41.799999237061</ele>
        <time>2016-06-13T19:28:56.000Z</time>
      </trkpt>
      <trkpt lat="48.80207" lon="2.5117">
        <ele>42</ele>
        <time>2016-06-13T19:28:59.000Z</time>
      </trkpt>
      <trkpt lat="48.80232" lon="2.51162">
        <ele>41.799999237061</ele>
        <time>2016-06-13T19:29:02.000Z</time>
      </trkpt>
      <trkpt lat="48.80251" lon="2.51156">
        <ele>41.799999237061</ele>
        <time>2016-06-13T19:29:05.000Z</time>
      </trkpt>
      <trkpt lat="48.80273" lon="2.51153">
        <ele>41.799999237061</ele>
        <time>2016-06-13T19:29:09.000Z</time>
      </trkpt>
      <trkpt lat="48.80294" lon="2.51149">
        <ele>41.799999237061</ele>
        <time>2016-06-13T19:29:13.000Z</time>
      </trkpt>
      <trkpt lat="48.80313" lon="2.51142">
        <ele>41.799999237061</ele>
        <time>2016-06-13T19:29:16.000Z</time>
      </trkpt>
      <trkpt lat="48.80331" lon="2.51136">
        <ele>41.799999237061</ele>
        <time>2016-06-13T19:29:19.000Z</time>
      </trkpt>
      <trkpt lat="48.80338" lon="2.51135">
        <ele>41.799999237061</ele>
        <time>2016-06-13T19:29:20.000Z</time>
      </trkpt>
      <trkpt lat="48.80352" lon="2.51131">
        <ele>42</ele>
        <time>2016-06-13T19:29:22.000Z</time>
      </trkpt>
      <trkpt lat="48.80372" lon="2.51125">
        <ele>42.200000762939</ele>
        <time>2016-06-13T19:29:25.000Z</time>
      </trkpt>
      <trkpt lat="48.80395" lon="2.51119">
        <ele>42.599998474121</ele>
        <time>2016-06-13T19:29:28.000Z</time>
      </trkpt>
      <trkpt lat="48.80417" lon="2.51113">
        <ele>43.200000762939</ele>
        <time>2016-06-13T19:29:31.000Z</time>
      </trkpt>
      <trkpt lat="48.80439" lon="2.51109">
        <ele>43.599998474121</ele>
        <time>2016-06-13T19:29:34.000Z</time>
      </trkpt>
      <trkpt lat="48.80459" lon="2.51105">
        <ele>44</ele>
        <time>2016-06-13T19:29:37.000Z</time>
      </trkpt>
      <trkpt lat="48.80465" lon="2.51104">
        <ele>44</ele>
        <time>2016-06-13T19:29:38.000Z</time>
      </trkpt>
      <trkpt lat="48.80484" lon="2.51102">
        <ele>44.400001525879</ele>
        <time>2016-06-13T19:29:41.000Z</time>
      </trkpt>
      <trkpt lat="48.80502" lon="2.51098">
        <ele>44.599998474121</ele>
        <time>2016-06-13T19:29:44.000Z</time>
      </trkpt>
      <trkpt lat="48.80525" lon="2.51093">
        <ele>44.799999237061</ele>
        <time>2016-06-13T19:29:48.000Z</time>
      </trkpt>
      <trkpt lat="48.80547" lon="2.51086">
        <ele>45</ele>
        <time>2016-06-13T19:29:52.000Z</time>
      </trkpt>
      <trkpt lat="48.80558" lon="2.51083">
        <ele>45</ele>
        <time>2016-06-13T19:29:54.000Z</time>
      </trkpt>
      <trkpt lat="48.80578" lon="2.51077">
        <ele>45</ele>
        <time>2016-06-13T19:29:57.000Z</time>
      </trkpt>
      <trkpt lat="48.80595" lon="2.51068">
        <ele>45.200000762939</ele>
        <time>2016-06-13T19:30:00.000Z</time>
      </trkpt>
      <trkpt lat="48.80601" lon="2.51065">
        <ele>45</ele>
        <time>2016-06-13T19:30:01.000Z</time>
      </trkpt>
      <trkpt lat="48.80622" lon="2.51055">
        <ele>45</ele>
        <time>2016-06-13T19:30:05.000Z</time>
      </trkpt>
      <trkpt lat="48.80641" lon="2.51052">
        <ele>45</ele>
        <time>2016-06-13T19:30:09.000Z</time>
      </trkpt>
      <trkpt lat="48.80656" lon="2.51052">
        <ele>45</ele>
        <time>2016-06-13T19:30:13.000Z</time>
      </trkpt>
      <trkpt lat="48.80663" lon="2.51051">
        <ele>45</ele>
        <time>2016-06-13T19:30:17.000Z</time>
      </trkpt>
      <trkpt lat="48.80666" lon="2.51048">
        <ele>45</ele>
        <time>2016-06-13T19:30:19.000Z</time>
      </trkpt>
      <trkpt lat="48.80675" lon="2.51036">
        <ele>45</ele>
        <time>2016-06-13T19:30:25.000Z</time>
      </trkpt>
      <trkpt lat="48.80682" lon="2.5102">
        <ele>45</ele>
        <time>2016-06-13T19:31:03.000Z</time>
      </trkpt>
      <trkpt lat="48.80684" lon="2.51003">
        <ele>45</ele>
        <time>2016-06-13T19:31:54.000Z</time>
      </trkpt>
      <trkpt lat="48.80689" lon="2.50982">
        <ele>45.200000762939</ele>
        <time>2016-06-13T19:32:21.000Z</time>
      </trkpt>
      <trkpt lat="48.80702" lon="2.50958">
        <ele>45.599998474121</ele>
        <time>2016-06-13T19:32:27.000Z</time>
      </trkpt>
      <trkpt lat="48.80713" lon="2.50933">
        <ele>45.799999237061</ele>
        <time>2016-06-13T19:32:33.000Z</time>
      </trkpt>
      <trkpt lat="48.80717" lon="2.50905">
        <ele>45.799999237061</ele>
        <time>2016-06-13T19:32:39.000Z</time>
      </trkpt>
      <trkpt lat="48.80737" lon="2.50903">
        <ele>45.599998474121</ele>
        <time>2016-06-13T19:32:45.000Z</time>
      </trkpt>
      <trkpt lat="48.80755" lon="2.50905">
        <ele>45.400001525879</ele>
        <time>2016-06-13T19:32:50.000Z</time>
      </trkpt>
      <trkpt lat="48.80776" lon="2.50911">
        <ele>45.200000762939</ele>
        <time>2016-06-13T19:32:57.000Z</time>
      </trkpt>
      <trkpt lat="48.80797" lon="2.50916">
        <ele>45</ele>
        <time>2016-06-13T19:33:04.000Z</time>
      </trkpt>
      <trkpt lat="48.80818" lon="2.50923">
        <ele>44.799999237061</ele>
        <time>2016-06-13T19:33:09.000Z</time>
      </trkpt>
      <trkpt lat="48.80836" lon="2.5093">
        <ele>44.599998474121</ele>
        <time>2016-06-13T19:33:13.000Z</time>
      </trkpt>
      <trkpt lat="48.80857" lon="2.50941">
        <ele>44.400001525879</ele>
        <time>2016-06-13T19:33:18.000Z</time>
      </trkpt>
      <trkpt lat="48.80876" lon="2.50948">
        <ele>43.200000762939</ele>
        <time>2016-06-13T19:33:22.000Z</time>
      </trkpt>
      <trkpt lat="48.80893" lon="2.50955">
        <ele>42.200000762939</ele>
        <time>2016-06-13T19:33:26.000Z</time>
      </trkpt>
      <trkpt lat="48.80912" lon="2.50953">
        <ele>41.400001525879</ele>
        <time>2016-06-13T19:33:30.000Z</time>
      </trkpt>
      <trkpt lat="48.80917" lon="2.50954">
        <ele>41.200000762939</ele>
        <time>2016-06-13T19:33:31.000Z</time>
      </trkpt>
      <trkpt lat="48.80931" lon="2.50958">
        <ele>40.400001525879</ele>
        <time>2016-06-13T19:33:34.000Z</time>
      </trkpt>
      <trkpt lat="48.80938" lon="2.50959">
        <ele>40</ele>
        <time>2016-06-13T19:33:36.000Z</time>
      </trkpt>
      <trkpt lat="48.8095" lon="2.50945">
        <ele>40.200000762939</ele>
        <time>2016-06-13T19:33:41.000Z</time>
      </trkpt>
      <trkpt lat="48.80951" lon="2.50939">
        <ele>40.400001525879</ele>
        <time>2016-06-13T19:33:42.000Z</time>
      </trkpt>
      <trkpt lat="48.80956" lon="2.50908">
        <ele>40.200000762939</ele>
        <time>2016-06-13T19:33:46.000Z</time>
      </trkpt>
      <trkpt lat="48.80962" lon="2.50882">
        <ele>40.200000762939</ele>
        <time>2016-06-13T19:33:49.000Z</time>
      </trkpt>
      <trkpt lat="48.80969" lon="2.50854">
        <ele>40</ele>
        <time>2016-06-13T19:33:52.000Z</time>
      </trkpt>
      <trkpt lat="48.80977" lon="2.50824">
        <ele>39.599998474121</ele>
        <time>2016-06-13T19:33:55.000Z</time>
      </trkpt>
      <trkpt lat="48.80983" lon="2.50797">
        <ele>40.200000762939</ele>
        <time>2016-06-13T19:33:58.000Z</time>
      </trkpt>
      <trkpt lat="48.80984" lon="2.50788">
        <ele>40.200000762939</ele>
        <time>2016-06-13T19:33:59.000Z</time>
      </trkpt>
      <trkpt lat="48.80988" lon="2.50761">
        <ele>40.200000762939</ele>
        <time>2016-06-13T19:34:02.000Z</time>
      </trkpt>
      <trkpt lat="48.80992" lon="2.50727">
        <ele>40.200000762939</ele>
        <time>2016-06-13T19:34:06.000Z</time>
      </trkpt>
      <trkpt lat="48.80994" lon="2.50692">
        <ele>41</ele>
        <time>2016-06-13T19:34:10.000Z</time>
      </trkpt>
      <trkpt lat="48.80995" lon="2.50676">
        <ele>41.599998474121</ele>
        <time>2016-06-13T19:34:12.000Z</time>
      </trkpt>
      <trkpt lat="48.80995" lon="2.5066">
        <ele>42</ele>
        <time>2016-06-13T19:34:14.000Z</time>
      </trkpt>
      <trkpt lat="48.80992" lon="2.50633">
        <ele>42.400001525879</ele>
        <time>2016-06-13T19:34:18.000Z</time>
      </trkpt>
      <trkpt lat="48.80995" lon="2.5062">
        <ele>42.200000762939</ele>
        <time>2016-06-13T19:34:20.000Z</time>
      </trkpt>
      <trkpt lat="48.81" lon="2.50589">
        <ele>41.799999237061</ele>
        <time>2016-06-13T19:34:24.000Z</time>
      </trkpt>
      <trkpt lat="48.81002" lon="2.5056">
        <ele>41.400001525879</ele>
        <time>2016-06-13T19:34:28.000Z</time>
      </trkpt>
      <trkpt lat="48.81003" lon="2.50529">
        <ele>41</ele>
        <time>2016-06-13T19:34:32.000Z</time>
      </trkpt>
      <trkpt lat="48.81001" lon="2.50498">
        <ele>40.799999237061</ele>
        <time>2016-06-13T19:34:36.000Z</time>
      </trkpt>
      <trkpt lat="48.81002" lon="2.50489">
        <ele>41</ele>
        <time>2016-06-13T19:34:37.000Z</time>
      </trkpt>
      <trkpt lat="48.81006" lon="2.50455">
        <ele>40.799999237061</ele>
        <time>2016-06-13T19:34:41.000Z</time>
      </trkpt>
      <trkpt lat="48.81011" lon="2.50422">
        <ele>40.200000762939</ele>
        <time>2016-06-13T19:34:45.000Z</time>
      </trkpt>
      <trkpt lat="48.81014" lon="2.50405">
        <ele>40.200000762939</ele>
        <time>2016-06-13T19:34:47.000Z</time>
      </trkpt>
      <trkpt lat="48.81019" lon="2.50373">
        <ele>39.799999237061</ele>
        <time>2016-06-13T19:34:51.000Z</time>
      </trkpt>
      <trkpt lat="48.81019" lon="2.50356">
        <ele>40</ele>
        <time>2016-06-13T19:34:53.000Z</time>
      </trkpt>
      <trkpt lat="48.81022" lon="2.50329">
        <ele>40</ele>
        <time>2016-06-13T19:34:56.000Z</time>
      </trkpt>
      <trkpt lat="48.81023" lon="2.50301">
        <ele>40</ele>
        <time>2016-06-13T19:34:59.000Z</time>
      </trkpt>
      <trkpt lat="48.81022" lon="2.50267">
        <ele>40</ele>
        <time>2016-06-13T19:35:03.000Z</time>
      </trkpt>
      <trkpt lat="48.81021" lon="2.50234">
        <ele>40</ele>
        <time>2016-06-13T19:35:07.000Z</time>
      </trkpt>
      <trkpt lat="48.81022" lon="2.50201">
        <ele>39.400001525879</ele>
        <time>2016-06-13T19:35:11.000Z</time>
      </trkpt>
      <trkpt lat="48.81022" lon="2.50175">
        <ele>39</ele>
        <time>2016-06-13T19:35:14.000Z</time>
      </trkpt>
      <trkpt lat="48.81021" lon="2.50142">
        <ele>39.400001525879</ele>
        <time>2016-06-13T19:35:18.000Z</time>
      </trkpt>
      <trkpt lat="48.81021" lon="2.50124">
        <ele>39.599998474121</ele>
        <time>2016-06-13T19:35:20.000Z</time>
      </trkpt>
      <trkpt lat="48.81017" lon="2.5009">
        <ele>40.400001525879</ele>
        <time>2016-06-13T19:35:24.000Z</time>
      </trkpt>
      <trkpt lat="48.81014" lon="2.50057">
        <ele>41.200000762939</ele>
        <time>2016-06-13T19:35:28.000Z</time>
      </trkpt>
      <trkpt lat="48.8101" lon="2.50021">
        <ele>42.400001525879</ele>
        <time>2016-06-13T19:35:32.000Z</time>
      </trkpt>
      <trkpt lat="48.81007" lon="2.49988">
        <ele>43</ele>
        <time>2016-06-13T19:35:36.000Z</time>
      </trkpt>
      <trkpt lat="48.81003" lon="2.49956">
        <ele>43</ele>
        <time>2016-06-13T19:35:39.000Z</time>
      </trkpt>
      <trkpt lat="48.81" lon="2.49922">
        <ele>43</ele>
        <time>2016-06-13T19:35:43.000Z</time>
      </trkpt>
      <trkpt lat="48.80998" lon="2.49914">
        <ele>43.200000762939</ele>
        <time>2016-06-13T19:35:44.000Z</time>
      </trkpt>
      <trkpt lat="48.80993" lon="2.49881">
        <ele>44</ele>
        <time>2016-06-13T19:35:48.000Z</time>
      </trkpt>
      <trkpt lat="48.80992" lon="2.49849">
        <ele>43.799999237061</ele>
        <time>2016-06-13T19:35:52.000Z</time>
      </trkpt>
      <trkpt lat="48.80991" lon="2.49816">
        <ele>43.599998474121</ele>
        <time>2016-06-13T19:35:56.000Z</time>
      </trkpt>
      <trkpt lat="48.80988" lon="2.49784">
        <ele>43.400001525879</ele>
        <time>2016-06-13T19:36:00.000Z</time>
      </trkpt>
      <trkpt lat="48.80988" lon="2.4977">
        <ele>43.400001525879</ele>
        <time>2016-06-13T19:36:02.000Z</time>
      </trkpt>
      <trkpt lat="48.80989" lon="2.49748">
        <ele>43</ele>
        <time>2016-06-13T19:36:05.000Z</time>
      </trkpt>
      <trkpt lat="48.80996" lon="2.49716">
        <ele>42.200000762939</ele>
        <time>2016-06-13T19:36:10.000Z</time>
      </trkpt>
      <trkpt lat="48.81004" lon="2.49688">
        <ele>41.599998474121</ele>
        <time>2016-06-13T19:36:15.000Z</time>
      </trkpt>
      <trkpt lat="48.81005" lon="2.49682">
        <ele>41.599998474121</ele>
        <time>2016-06-13T19:36:16.000Z</time>
      </trkpt>
      <trkpt lat="48.81011" lon="2.49655">
        <ele>41</ele>
        <time>2016-06-13T19:36:20.000Z</time>
      </trkpt>
      <trkpt lat="48.81013" lon="2.49648">
        <ele>41</ele>
        <time>2016-06-13T19:36:21.000Z</time>
      </trkpt>
      <trkpt lat="48.81016" lon="2.49635">
        <ele>41.200000762939</ele>
        <time>2016-06-13T19:36:23.000Z</time>
      </trkpt>
      <trkpt lat="48.8102" lon="2.49608">
        <ele>41.599998474121</ele>
        <time>2016-06-13T19:36:27.000Z</time>
      </trkpt>
      <trkpt lat="48.81023" lon="2.49576">
        <ele>42</ele>
        <time>2016-06-13T19:36:32.000Z</time>
      </trkpt>
      <trkpt lat="48.81026" lon="2.49544">
        <ele>41.599998474121</ele>
        <time>2016-06-13T19:36:36.000Z</time>
      </trkpt>
      <trkpt lat="48.81027" lon="2.49527">
        <ele>41.599998474121</ele>
        <time>2016-06-13T19:36:38.000Z</time>
      </trkpt>
      <trkpt lat="48.81029" lon="2.49497">
        <ele>41.400001525879</ele>
        <time>2016-06-13T19:36:41.000Z</time>
      </trkpt>
      <trkpt lat="48.81034" lon="2.49467">
        <ele>41</ele>
        <time>2016-06-13T19:36:45.000Z</time>
      </trkpt>
      <trkpt lat="48.81036" lon="2.4945">
        <ele>40.799999237061</ele>
        <time>2016-06-13T19:36:47.000Z</time>
      </trkpt>
      <trkpt lat="48.81038" lon="2.49435">
        <ele>40.599998474121</ele>
        <time>2016-06-13T19:36:49.000Z</time>
      </trkpt>
      <trkpt lat="48.81045" lon="2.49405">
        <ele>40</ele>
        <time>2016-06-13T19:36:53.000Z</time>
      </trkpt>
      <trkpt lat="48.81053" lon="2.49377">
        <ele>38.799999237061</ele>
        <time>2016-06-13T19:36:56.000Z</time>
      </trkpt>
      <trkpt lat="48.81062" lon="2.49347">
        <ele>38</ele>
        <time>2016-06-13T19:37:00.000Z</time>
      </trkpt>
      <trkpt lat="48.81067" lon="2.49326">
        <ele>37.799999237061</ele>
        <time>2016-06-13T19:37:03.000Z</time>
      </trkpt>
      <trkpt lat="48.81072" lon="2.49299">
        <ele>37.200000762939</ele>
        <time>2016-06-13T19:37:07.000Z</time>
      </trkpt>
      <trkpt lat="48.81078" lon="2.49269">
        <ele>37.400001525879</ele>
        <time>2016-06-13T19:37:12.000Z</time>
      </trkpt>
      <trkpt lat="48.81084" lon="2.49237">
        <ele>37.799999237061</ele>
        <time>2016-06-13T19:37:16.000Z</time>
      </trkpt>
      <trkpt lat="48.81086" lon="2.49223">
        <ele>38</ele>
        <time>2016-06-13T19:37:18.000Z</time>
      </trkpt>
      <trkpt lat="48.81093" lon="2.49194">
        <ele>38</ele>
        <time>2016-06-13T19:37:23.000Z</time>
      </trkpt>
      <trkpt lat="48.81099" lon="2.49167">
        <ele>38.200000762939</ele>
        <time>2016-06-13T19:37:27.000Z</time>
      </trkpt>
      <trkpt lat="48.81105" lon="2.49136">
        <ele>37.599998474121</ele>
        <time>2016-06-13T19:37:31.000Z</time>
      </trkpt>
      <trkpt lat="48.81106" lon="2.49129">
        <ele>37.599998474121</ele>
        <time>2016-06-13T19:37:32.000Z</time>
      </trkpt>
      <trkpt lat="48.81113" lon="2.49097">
        <ele>37</ele>
        <time>2016-06-13T19:37:36.000Z</time>
      </trkpt>
      <trkpt lat="48.81117" lon="2.49068">
        <ele>36.799999237061</ele>
        <time>2016-06-13T19:37:39.000Z</time>
      </trkpt>
      <trkpt lat="48.81122" lon="2.49041">
        <ele>37.200000762939</ele>
        <time>2016-06-13T19:37:42.000Z</time>
      </trkpt>
      <trkpt lat="48.81122" lon="2.49026">
        <ele>37.200000762939</ele>
        <time>2016-06-13T19:37:43.000Z</time>
      </trkpt>
      <trkpt lat="48.81128" lon="2.48998">
        <ele>37.400001525879</ele>
        <time>2016-06-13T19:37:46.000Z</time>
      </trkpt>
      <trkpt lat="48.81135" lon="2.48972">
        <ele>37.599998474121</ele>
        <time>2016-06-13T19:37:49.000Z</time>
      </trkpt>
      <trkpt lat="48.81137" lon="2.48963">
        <ele>37.599998474121</ele>
        <time>2016-06-13T19:37:50.000Z</time>
      </trkpt>
      <trkpt lat="48.81146" lon="2.4893">
        <ele>37.599998474121</ele>
        <time>2016-06-13T19:37:54.000Z</time>
      </trkpt>
      <trkpt lat="48.81152" lon="2.48905">
        <ele>37.799999237061</ele>
        <time>2016-06-13T19:37:57.000Z</time>
      </trkpt>
      <trkpt lat="48.8116" lon="2.48874">
        <ele>38</ele>
        <time>2016-06-13T19:38:01.000Z</time>
      </trkpt>
      <trkpt lat="48.81167" lon="2.48846">
        <ele>37.599998474121</ele>
        <time>2016-06-13T19:38:05.000Z</time>
      </trkpt>
      <trkpt lat="48.81175" lon="2.48813">
        <ele>36.599998474121</ele>
        <time>2016-06-13T19:38:09.000Z</time>
      </trkpt>
      <trkpt lat="48.8118" lon="2.48785">
        <ele>36.400001525879</ele>
        <time>2016-06-13T19:38:13.000Z</time>
      </trkpt>
      <trkpt lat="48.81187" lon="2.48754">
        <ele>36</ele>
        <time>2016-06-13T19:38:17.000Z</time>
      </trkpt>
      <trkpt lat="48.81192" lon="2.48731">
        <ele>36</ele>
        <time>2016-06-13T19:38:20.000Z</time>
      </trkpt>
      <trkpt lat="48.81195" lon="2.4871">
        <ele>35.799999237061</ele>
        <time>2016-06-13T19:38:23.000Z</time>
      </trkpt>
      <trkpt lat="48.81202" lon="2.48684">
        <ele>35.599998474121</ele>
        <time>2016-06-13T19:38:27.000Z</time>
      </trkpt>
      <trkpt lat="48.81203" lon="2.48654">
        <ele>35.400001525879</ele>
        <time>2016-06-13T19:38:31.000Z</time>
      </trkpt>
      <trkpt lat="48.81204" lon="2.48646">
        <ele>35.400001525879</ele>
        <time>2016-06-13T19:38:32.000Z</time>
      </trkpt>
      <trkpt lat="48.81207" lon="2.48625">
        <ele>35</ele>
        <time>2016-06-13T19:38:35.000Z</time>
      </trkpt>
      <trkpt lat="48.81209" lon="2.48611">
        <ele>34.799999237061</ele>
        <time>2016-06-13T19:38:37.000Z</time>
      </trkpt>
      <trkpt lat="48.81216" lon="2.48583">
        <ele>35</ele>
        <time>2016-06-13T19:38:41.000Z</time>
      </trkpt>
      <trkpt lat="48.81217" lon="2.48576">
        <ele>35</ele>
        <time>2016-06-13T19:38:42.000Z</time>
      </trkpt>
      <trkpt lat="48.81221" lon="2.48547">
        <ele>35.400001525879</ele>
        <time>2016-06-13T19:38:46.000Z</time>
      </trkpt>
      <trkpt lat="48.81224" lon="2.48519">
        <ele>36</ele>
        <time>2016-06-13T19:38:49.000Z</time>
      </trkpt>
      <trkpt lat="48.81226" lon="2.48489">
        <ele>36.400001525879</ele>
        <time>2016-06-13T19:38:53.000Z</time>
      </trkpt>
      <trkpt lat="48.81228" lon="2.4846">
        <ele>36</ele>
        <time>2016-06-13T19:38:57.000Z</time>
      </trkpt>
      <trkpt lat="48.8123" lon="2.48432">
        <ele>35.599998474121</ele>
        <time>2016-06-13T19:39:01.000Z</time>
      </trkpt>
      <trkpt lat="48.81232" lon="2.48409">
        <ele>35.799999237061</ele>
        <time>2016-06-13T19:39:04.000Z</time>
      </trkpt>
      <trkpt lat="48.81234" lon="2.48395">
        <ele>36.400001525879</ele>
        <time>2016-06-13T19:39:06.000Z</time>
      </trkpt>
      <trkpt lat="48.8124" lon="2.48365">
        <ele>36.799999237061</ele>
        <time>2016-06-13T19:39:10.000Z</time>
      </trkpt>
      <trkpt lat="48.81241" lon="2.48357">
        <ele>36.799999237061</ele>
        <time>2016-06-13T19:39:11.000Z</time>
      </trkpt>
      <trkpt lat="48.81241" lon="2.48348">
        <ele>36.799999237061</ele>
        <time>2016-06-13T19:39:12.000Z</time>
      </trkpt>
      <trkpt lat="48.81247" lon="2.48317">
        <ele>36.400001525879</ele>
        <time>2016-06-13T19:39:16.000Z</time>
      </trkpt>
      <trkpt lat="48.81251" lon="2.48288">
        <ele>36.200000762939</ele>
        <time>2016-06-13T19:39:20.000Z</time>
      </trkpt>
      <trkpt lat="48.81254" lon="2.48264">
        <ele>36.200000762939</ele>
        <time>2016-06-13T19:39:23.000Z</time>
      </trkpt>
      <trkpt lat="48.81261" lon="2.48236">
        <ele>36.599998474121</ele>
        <time>2016-06-13T19:39:27.000Z</time>
      </trkpt>
      <trkpt lat="48.81266" lon="2.48215">
        <ele>36.200000762939</ele>
        <time>2016-06-13T19:39:30.000Z</time>
      </trkpt>
      <trkpt lat="48.81269" lon="2.48188">
        <ele>36.200000762939</ele>
        <time>2016-06-13T19:39:34.000Z</time>
      </trkpt>
      <trkpt lat="48.81274" lon="2.48156">
        <ele>36</ele>
        <time>2016-06-13T19:39:39.000Z</time>
      </trkpt>
      <trkpt lat="48.81275" lon="2.48137">
        <ele>36</ele>
        <time>2016-06-13T19:39:42.000Z</time>
      </trkpt>
      <trkpt lat="48.81278" lon="2.48105">
        <ele>36</ele>
        <time>2016-06-13T19:39:47.000Z</time>
      </trkpt>
      <trkpt lat="48.81284" lon="2.48075">
        <ele>36.400001525879</ele>
        <time>2016-06-13T19:39:53.000Z</time>
      </trkpt>
      <trkpt lat="48.81285" lon="2.4807">
        <ele>36.799999237061</ele>
        <time>2016-06-13T19:39:54.000Z</time>
      </trkpt>
      <trkpt lat="48.81286" lon="2.48054">
        <ele>37.799999237061</ele>
        <time>2016-06-13T19:39:57.000Z</time>
      </trkpt>
      <trkpt lat="48.81288" lon="2.48025">
        <ele>39.400001525879</ele>
        <time>2016-06-13T19:40:03.000Z</time>
      </trkpt>
      <trkpt lat="48.81289" lon="2.48021">
        <ele>39.799999237061</ele>
        <time>2016-06-13T19:40:04.000Z</time>
      </trkpt>
      <trkpt lat="48.81294" lon="2.47994">
        <ele>39.200000762939</ele>
        <time>2016-06-13T19:40:10.000Z</time>
      </trkpt>
      <trkpt lat="48.81297" lon="2.47981">
        <ele>39.200000762939</ele>
        <time>2016-06-13T19:40:14.000Z</time>
      </trkpt>
      <trkpt lat="48.81298" lon="2.47978">
        <ele>39</ele>
        <time>2016-06-13T19:40:17.000Z</time>
      </trkpt>
      <trkpt lat="48.81305" lon="2.47978">
        <ele>38.599998474121</ele>
        <time>2016-06-13T19:41:03.000Z</time>
      </trkpt>
      <trkpt lat="48.81323" lon="2.47992">
        <ele>36.799999237061</ele>
        <time>2016-06-13T19:41:11.000Z</time>
      </trkpt>
      <trkpt lat="48.81341" lon="2.48006">
        <ele>35.400001525879</ele>
        <time>2016-06-13T19:41:17.000Z</time>
      </trkpt>
      <trkpt lat="48.81361" lon="2.48021">
        <ele>34.799999237061</ele>
        <time>2016-06-13T19:41:23.000Z</time>
      </trkpt>
      <trkpt lat="48.81378" lon="2.48035">
        <ele>35.599998474121</ele>
        <time>2016-06-13T19:41:28.000Z</time>
      </trkpt>
      <trkpt lat="48.81394" lon="2.48048">
        <ele>36.599998474121</ele>
        <time>2016-06-13T19:41:33.000Z</time>
      </trkpt>
      <trkpt lat="48.81414" lon="2.48064">
        <ele>37.599998474121</ele>
        <time>2016-06-13T19:41:38.000Z</time>
      </trkpt>
      <trkpt lat="48.81433" lon="2.48079">
        <ele>38.799999237061</ele>
        <time>2016-06-13T19:41:42.000Z</time>
      </trkpt>
      <trkpt lat="48.81453" lon="2.48095">
        <ele>39</ele>
        <time>2016-06-13T19:41:46.000Z</time>
      </trkpt>
      <trkpt lat="48.81469" lon="2.48108">
        <ele>39</ele>
        <time>2016-06-13T19:41:50.000Z</time>
      </trkpt>
      <trkpt lat="48.8148" lon="2.48116">
        <ele>38.799999237061</ele>
        <time>2016-06-13T19:41:53.000Z</time>
      </trkpt>
      <trkpt lat="48.81496" lon="2.48105">
        <ele>38.599998474121</ele>
        <time>2016-06-13T19:41:59.000Z</time>
      </trkpt>
      <trkpt lat="48.815" lon="2.48089">
        <ele>38.400001525879</ele>
        <time>2016-06-13T19:42:02.000Z</time>
      </trkpt>
      <trkpt lat="48.81503" lon="2.48083">
        <ele>38.200000762939</ele>
        <time>2016-06-13T19:42:03.000Z</time>
      </trkpt>
      <trkpt lat="48.81515" lon="2.48058">
        <ele>37.400001525879</ele>
        <time>2016-06-13T19:42:07.000Z</time>
      </trkpt>
      <trkpt lat="48.81519" lon="2.48051">
        <ele>37.200000762939</ele>
        <time>2016-06-13T19:42:08.000Z</time>
      </trkpt>
      <trkpt lat="48.81532" lon="2.48031">
        <ele>36.599998474121</ele>
        <time>2016-06-13T19:42:11.000Z</time>
      </trkpt>
      <trkpt lat="48.81543" lon="2.48008">
        <ele>36.400001525879</ele>
        <time>2016-06-13T19:42:14.000Z</time>
      </trkpt>
      <trkpt lat="48.81557" lon="2.47981">
        <ele>37</ele>
        <time>2016-06-13T19:42:18.000Z</time>
      </trkpt>
      <trkpt lat="48.81571" lon="2.47958">
        <ele>37.599998474121</ele>
        <time>2016-06-13T19:42:22.000Z</time>
      </trkpt>
      <trkpt lat="48.81583" lon="2.47934">
        <ele>37.799999237061</ele>
        <time>2016-06-13T19:42:26.000Z</time>
      </trkpt>
      <trkpt lat="48.81587" lon="2.47929">
        <ele>37.799999237061</ele>
        <time>2016-06-13T19:42:27.000Z</time>
      </trkpt>
      <trkpt lat="48.81601" lon="2.47909">
        <ele>37.799999237061</ele>
        <time>2016-06-13T19:42:31.000Z</time>
      </trkpt>
      <trkpt lat="48.81616" lon="2.47889">
        <ele>37.599998474121</ele>
        <time>2016-06-13T19:42:35.000Z</time>
      </trkpt>
      <trkpt lat="48.81627" lon="2.47871">
        <ele>37.200000762939</ele>
        <time>2016-06-13T19:42:38.000Z</time>
      </trkpt>
      <trkpt lat="48.81642" lon="2.47847">
        <ele>37</ele>
        <time>2016-06-13T19:42:42.000Z</time>
      </trkpt>
      <trkpt lat="48.81656" lon="2.47824">
        <ele>37</ele>
        <time>2016-06-13T19:42:46.000Z</time>
      </trkpt>
      <trkpt lat="48.8167" lon="2.47801">
        <ele>37.200000762939</ele>
        <time>2016-06-13T19:42:50.000Z</time>
      </trkpt>
      <trkpt lat="48.81685" lon="2.4778">
        <ele>37.599998474121</ele>
        <time>2016-06-13T19:42:54.000Z</time>
      </trkpt>
      <trkpt lat="48.81696" lon="2.47765">
        <ele>37.799999237061</ele>
        <time>2016-06-13T19:42:57.000Z</time>
      </trkpt>
      <trkpt lat="48.81708" lon="2.47742">
        <ele>38.200000762939</ele>
        <time>2016-06-13T19:43:01.000Z</time>
      </trkpt>
      <trkpt lat="48.8172" lon="2.47719">
        <ele>38</ele>
        <time>2016-06-13T19:43:05.000Z</time>
      </trkpt>
      <trkpt lat="48.81731" lon="2.47695">
        <ele>37.799999237061</ele>
        <time>2016-06-13T19:43:09.000Z</time>
      </trkpt>
      <trkpt lat="48.81736" lon="2.47683">
        <ele>37.799999237061</ele>
        <time>2016-06-13T19:43:11.000Z</time>
      </trkpt>
      <trkpt lat="48.81748" lon="2.47662">
        <ele>37.599998474121</ele>
        <time>2016-06-13T19:43:15.000Z</time>
      </trkpt>
      <trkpt lat="48.81751" lon="2.47656">
        <ele>37.599998474121</ele>
        <time>2016-06-13T19:43:16.000Z</time>
      </trkpt>
      <trkpt lat="48.81761" lon="2.47633">
        <ele>37.200000762939</ele>
        <time>2016-06-13T19:43:20.000Z</time>
      </trkpt>
      <trkpt lat="48.81774" lon="2.47615">
        <ele>36.799999237061</ele>
        <time>2016-06-13T19:43:24.000Z</time>
      </trkpt>
      <trkpt lat="48.81789" lon="2.47594">
        <ele>36.799999237061</ele>
        <time>2016-06-13T19:43:29.000Z</time>
      </trkpt>
      <trkpt lat="48.81792" lon="2.4759">
        <ele>36.799999237061</ele>
        <time>2016-06-13T19:43:30.000Z</time>
      </trkpt>
      <trkpt lat="48.81807" lon="2.47571">
        <ele>37.599998474121</ele>
        <time>2016-06-13T19:43:35.000Z</time>
      </trkpt>
      <trkpt lat="48.81823" lon="2.47554">
        <ele>38.400001525879</ele>
        <time>2016-06-13T19:43:40.000Z</time>
      </trkpt>
      <trkpt lat="48.81834" lon="2.47539">
        <ele>38.799999237061</ele>
        <time>2016-06-13T19:43:44.000Z</time>
      </trkpt>
      <trkpt lat="48.81844" lon="2.47516">
        <ele>38.799999237061</ele>
        <time>2016-06-13T19:43:50.000Z</time>
      </trkpt>
      <trkpt lat="48.8184" lon="2.47494">
        <ele>38.400001525879</ele>
        <time>2016-06-13T19:43:54.000Z</time>
      </trkpt>
      <trkpt lat="48.81834" lon="2.47465">
        <ele>38</ele>
        <time>2016-06-13T19:43:59.000Z</time>
      </trkpt>
      <trkpt lat="48.81828" lon="2.47432">
        <ele>37.599998474121</ele>
        <time>2016-06-13T19:44:04.000Z</time>
      </trkpt>
      <trkpt lat="48.81823" lon="2.47405">
        <ele>37.400001525879</ele>
        <time>2016-06-13T19:44:08.000Z</time>
      </trkpt>
      <trkpt lat="48.81816" lon="2.47373">
        <ele>37.599998474121</ele>
        <time>2016-06-13T19:44:13.000Z</time>
      </trkpt>
      <trkpt lat="48.81815" lon="2.47361">
        <ele>37.599998474121</ele>
        <time>2016-06-13T19:44:15.000Z</time>
      </trkpt>
      <trkpt lat="48.81818" lon="2.4733">
        <ele>37.599998474121</ele>
        <time>2016-06-13T19:44:20.000Z</time>
      </trkpt>
      <trkpt lat="48.81819" lon="2.4731">
        <ele>37.200000762939</ele>
        <time>2016-06-13T19:44:23.000Z</time>
      </trkpt>
      <trkpt lat="48.81819" lon="2.47304">
        <ele>37.200000762939</ele>
        <time>2016-06-13T19:44:24.000Z</time>
      </trkpt>
      <trkpt lat="48.81823" lon="2.47284">
        <ele>37.400001525879</ele>
        <time>2016-06-13T19:44:29.000Z</time>
      </trkpt>
      <trkpt lat="48.81818" lon="2.47263">
        <ele>37.400001525879</ele>
        <time>2016-06-13T19:44:37.000Z</time>
      </trkpt>
      <trkpt lat="48.81806" lon="2.47242">
        <ele>37.200000762939</ele>
        <time>2016-06-13T19:44:43.000Z</time>
      </trkpt>
      <trkpt lat="48.81794" lon="2.47221">
        <ele>36.799999237061</ele>
        <time>2016-06-13T19:44:49.000Z</time>
      </trkpt>
      <trkpt lat="48.81784" lon="2.47198">
        <ele>36.400001525879</ele>
        <time>2016-06-13T19:44:59.000Z</time>
      </trkpt>
      <trkpt lat="48.81797" lon="2.47181">
        <ele>36.599998474121</ele>
        <time>2016-06-13T19:45:40.000Z</time>
      </trkpt>
      <trkpt lat="48.81813" lon="2.47162">
        <ele>36.599998474121</ele>
        <time>2016-06-13T19:45:50.000Z</time>
      </trkpt>
      <trkpt lat="48.81827" lon="2.47138">
        <ele>37</ele>
        <time>2016-06-13T19:45:56.000Z</time>
      </trkpt>
      <trkpt lat="48.81841" lon="2.47113">
        <ele>36</ele>
        <time>2016-06-13T19:46:01.000Z</time>
      </trkpt>
      <trkpt lat="48.81857" lon="2.47088">
        <ele>35.200000762939</ele>
        <time>2016-06-13T19:46:06.000Z</time>
      </trkpt>
      <trkpt lat="48.81872" lon="2.47063">
        <ele>35.599998474121</ele>
        <time>2016-06-13T19:46:11.000Z</time>
      </trkpt>
      <trkpt lat="48.81885" lon="2.47042">
        <ele>36.400001525879</ele>
        <time>2016-06-13T19:46:15.000Z</time>
      </trkpt>
      <trkpt lat="48.81899" lon="2.47019">
        <ele>36</ele>
        <time>2016-06-13T19:46:20.000Z</time>
      </trkpt>
      <trkpt lat="48.81915" lon="2.47003">
        <ele>35</ele>
        <time>2016-06-13T19:46:25.000Z</time>
      </trkpt>
      <trkpt lat="48.81934" lon="2.46994">
        <ele>34.200000762939</ele>
        <time>2016-06-13T19:46:30.000Z</time>
      </trkpt>
      <trkpt lat="48.81954" lon="2.46989">
        <ele>35.599998474121</ele>
        <time>2016-06-13T19:46:35.000Z</time>
      </trkpt>
      <trkpt lat="48.81974" lon="2.46999">
        <ele>35.599998474121</ele>
        <time>2016-06-13T19:46:41.000Z</time>
      </trkpt>
      <trkpt lat="48.81989" lon="2.47017">
        <ele>36.400001525879</ele>
        <time>2016-06-13T19:46:46.000Z</time>
      </trkpt>
      <trkpt lat="48.81999" lon="2.47043">
        <ele>36.799999237061</ele>
        <time>2016-06-13T19:46:51.000Z</time>
      </trkpt>
      <trkpt lat="48.82" lon="2.47071">
        <ele>37.200000762939</ele>
        <time>2016-06-13T19:46:55.000Z</time>
      </trkpt>
      <trkpt lat="48.82001" lon="2.471">
        <ele>37.599998474121</ele>
        <time>2016-06-13T19:46:59.000Z</time>
      </trkpt>
      <trkpt lat="48.82001" lon="2.47128">
        <ele>38</ele>
        <time>2016-06-13T19:47:03.000Z</time>
      </trkpt>
      <trkpt lat="48.82002" lon="2.47142">
        <ele>38.200000762939</ele>
        <time>2016-06-13T19:47:05.000Z</time>
      </trkpt>
      <trkpt lat="48.82004" lon="2.47173">
        <ele>39</ele>
        <time>2016-06-13T19:47:09.000Z</time>
      </trkpt>
      <trkpt lat="48.82003" lon="2.47189">
        <ele>39.200000762939</ele>
        <time>2016-06-13T19:47:11.000Z</time>
      </trkpt>
      <trkpt lat="48.82" lon="2.47211">
        <ele>39.599998474121</ele>
        <time>2016-06-13T19:47:14.000Z</time>
      </trkpt>
      <trkpt lat="48.82" lon="2.4724">
        <ele>39.799999237061</ele>
        <time>2016-06-13T19:47:18.000Z</time>
      </trkpt>
      <trkpt lat="48.82001" lon="2.47269">
        <ele>39.599998474121</ele>
        <time>2016-06-13T19:47:22.000Z</time>
      </trkpt>
      <trkpt lat="48.82005" lon="2.47296">
        <ele>39.200000762939</ele>
        <time>2016-06-13T19:47:26.000Z</time>
      </trkpt>
      <trkpt lat="48.82004" lon="2.4731">
        <ele>39</ele>
        <time>2016-06-13T19:47:28.000Z</time>
      </trkpt>
      <trkpt lat="48.82" lon="2.47326">
        <ele>39.200000762939</ele>
        <time>2016-06-13T19:47:31.000Z</time>
      </trkpt>
      <trkpt lat="48.82002" lon="2.4733">
        <ele>39.200000762939</ele>
        <time>2016-06-13T19:47:40.000Z</time>
      </trkpt>
      <trkpt lat="48.82005" lon="2.47305">
        <ele>39.200000762939</ele>
        <time>2016-06-13T19:47:58.000Z</time>
      </trkpt>
      <trkpt lat="48.82003" lon="2.47277">
        <ele>39.400001525879</ele>
        <time>2016-06-13T19:48:04.000Z</time>
      </trkpt>
      <trkpt lat="48.82001" lon="2.47248">
        <ele>39.799999237061</ele>
        <time>2016-06-13T19:48:09.000Z</time>
      </trkpt>
      <trkpt lat="48.82001" lon="2.4722">
        <ele>39.599998474121</ele>
        <time>2016-06-13T19:48:14.000Z</time>
      </trkpt>
      <trkpt lat="48.82" lon="2.47192">
        <ele>39.400001525879</ele>
        <time>2016-06-13T19:48:19.000Z</time>
      </trkpt>
      <trkpt lat="48.82" lon="2.47161">
        <ele>38.799999237061</ele>
        <time>2016-06-13T19:48:24.000Z</time>
      </trkpt>
      <trkpt lat="48.81999" lon="2.47128">
        <ele>38</ele>
        <time>2016-06-13T19:48:29.000Z</time>
      </trkpt>
      <trkpt lat="48.82001" lon="2.47097">
        <ele>37.599998474121</ele>
        <time>2016-06-13T19:48:34.000Z</time>
      </trkpt>
      <trkpt lat="48.82002" lon="2.47066">
        <ele>37.200000762939</ele>
        <time>2016-06-13T19:48:39.000Z</time>
      </trkpt>
      <trkpt lat="48.82002" lon="2.47035">
        <ele>37</ele>
        <time>2016-06-13T19:48:44.000Z</time>
      </trkpt>
      <trkpt lat="48.82001" lon="2.47006">
        <ele>37</ele>
        <time>2016-06-13T19:48:49.000Z</time>
      </trkpt>
      <trkpt lat="48.82001" lon="2.46977">
        <ele>38.799999237061</ele>
        <time>2016-06-13T19:48:54.000Z</time>
      </trkpt>
      <trkpt lat="48.82002" lon="2.46949">
        <ele>39</ele>
        <time>2016-06-13T19:48:59.000Z</time>
      </trkpt>
      <trkpt lat="48.82003" lon="2.46922">
        <ele>39.400001525879</ele>
        <time>2016-06-13T19:49:05.000Z</time>
      </trkpt>
      <trkpt lat="48.82004" lon="2.46891">
        <ele>40.799999237061</ele>
        <time>2016-06-13T19:49:11.000Z</time>
      </trkpt>
      <trkpt lat="48.82005" lon="2.46858">
        <ele>41.400001525879</ele>
        <time>2016-06-13T19:49:16.000Z</time>
      </trkpt>
      <trkpt lat="48.82005" lon="2.4683">
        <ele>42</ele>
        <time>2016-06-13T19:49:20.000Z</time>
      </trkpt>
      <trkpt lat="48.82005" lon="2.46801">
        <ele>42.200000762939</ele>
        <time>2016-06-13T19:49:24.000Z</time>
      </trkpt>
      <trkpt lat="48.82007" lon="2.46769">
        <ele>42.799999237061</ele>
        <time>2016-06-13T19:49:29.000Z</time>
      </trkpt>
      <trkpt lat="48.82006" lon="2.46743">
        <ele>43.799999237061</ele>
        <time>2016-06-13T19:49:36.000Z</time>
      </trkpt>
      <trkpt lat="48.82018" lon="2.46739">
        <ele>43.799999237061</ele>
        <time>2016-06-13T19:49:54.000Z</time>
      </trkpt>
      <trkpt lat="48.82026" lon="2.46762">
        <ele>42.599998474121</ele>
        <time>2016-06-13T19:50:02.000Z</time>
      </trkpt>
      <trkpt lat="48.82026" lon="2.46785">
        <ele>42</ele>
        <time>2016-06-13T19:50:07.000Z</time>
      </trkpt>
      <trkpt lat="48.82023" lon="2.46815">
        <ele>41.400001525879</ele>
        <time>2016-06-13T19:50:14.000Z</time>
      </trkpt>
      <trkpt lat="48.82025" lon="2.46838">
        <ele>40.799999237061</ele>
        <time>2016-06-13T19:50:21.000Z</time>
      </trkpt>
      <trkpt lat="48.82038" lon="2.46847">
        <ele>40.200000762939</ele>
        <time>2016-06-13T19:51:06.000Z</time>
      </trkpt>
      <trkpt lat="48.82053" lon="2.46861">
        <ele>39.599998474121</ele>
        <time>2016-06-13T19:51:22.000Z</time>
      </trkpt>
      <trkpt lat="48.82071" lon="2.46875">
        <ele>38.799999237061</ele>
        <time>2016-06-13T19:51:30.000Z</time>
      </trkpt>
      <trkpt lat="48.82091" lon="2.46883">
        <ele>38.400001525879</ele>
        <time>2016-06-13T19:51:39.000Z</time>
      </trkpt>
      <trkpt lat="48.8211" lon="2.46883">
        <ele>38.200000762939</ele>
        <time>2016-06-13T19:51:44.000Z</time>
      </trkpt>
      <trkpt lat="48.8213" lon="2.46881">
        <ele>38.200000762939</ele>
        <time>2016-06-13T19:51:49.000Z</time>
      </trkpt>
      <trkpt lat="48.82149" lon="2.46877">
        <ele>38.400001525879</ele>
        <time>2016-06-13T19:51:55.000Z</time>
      </trkpt>
      <trkpt lat="48.82169" lon="2.46877">
        <ele>38</ele>
        <time>2016-06-13T19:52:02.000Z</time>
      </trkpt>
      <trkpt lat="48.82187" lon="2.46868">
        <ele>37.599998474121</ele>
        <time>2016-06-13T19:52:12.000Z</time>
      </trkpt>
      <trkpt lat="48.82203" lon="2.46854">
        <ele>38</ele>
        <time>2016-06-13T19:52:23.000Z</time>
      </trkpt>
      <trkpt lat="48.82222" lon="2.46846">
        <ele>38</ele>
        <time>2016-06-13T19:52:32.000Z</time>
      </trkpt>
      <trkpt lat="48.82242" lon="2.46838">
        <ele>38</ele>
        <time>2016-06-13T19:52:40.000Z</time>
      </trkpt>
      <trkpt lat="48.82248" lon="2.46836">
        <ele>38</ele>
        <time>2016-06-13T19:52:43.000Z</time>
      </trkpt>
      <trkpt lat="48.82256" lon="2.46833">
        <ele>38</ele>
        <time>2016-06-13T19:52:48.000Z</time>
      </trkpt>
      <trkpt lat="48.82275" lon="2.4683">
        <ele>38</ele>
        <time>2016-06-13T19:52:59.000Z</time>
      </trkpt>
      <trkpt lat="48.82293" lon="2.46825">
        <ele>37.599998474121</ele>
        <time>2016-06-13T19:53:09.000Z</time>
      </trkpt>
      <trkpt lat="48.82294" lon="2.46823">
        <ele>37.599998474121</ele>
        <time>2016-06-13T19:53:10.000Z</time>
      </trkpt>
      <trkpt lat="48.82301" lon="2.4682">
        <ele>37.400001525879</ele>
        <time>2016-06-13T19:53:16.000Z</time>
      </trkpt>
      <trkpt lat="48.8231" lon="2.46818">
        <ele>37.200000762939</ele>
        <time>2016-06-13T19:53:24.000Z</time>
      </trkpt>
      <trkpt lat="48.82323" lon="2.46817">
        <ele>37</ele>
        <time>2016-06-13T19:53:34.000Z</time>
      </trkpt>
      <trkpt lat="48.82328" lon="2.46813">
        <ele>36.799999237061</ele>
        <time>2016-06-13T19:53:40.000Z</time>
      </trkpt>
      <trkpt lat="48.82347" lon="2.46808">
        <ele>36.799999237061</ele>
        <time>2016-06-13T19:53:52.000Z</time>
      </trkpt>
      <trkpt lat="48.82365" lon="2.468">
        <ele>37.200000762939</ele>
        <time>2016-06-13T19:54:06.000Z</time>
      </trkpt>
      <trkpt lat="48.82383" lon="2.46799">
        <ele>37.599998474121</ele>
        <time>2016-06-13T19:54:17.000Z</time>
      </trkpt>
      <trkpt lat="48.82391" lon="2.46798">
        <ele>37.599998474121</ele>
        <time>2016-06-13T19:54:23.000Z</time>
      </trkpt>
      <trkpt lat="48.82408" lon="2.46793">
        <ele>37.799999237061</ele>
        <time>2016-06-13T19:54:35.000Z</time>
      </trkpt>
      <trkpt lat="48.82413" lon="2.46793">
        <ele>37.599998474121</ele>
        <time>2016-06-13T19:54:39.000Z</time>
      </trkpt>
      <trkpt lat="48.8242" lon="2.46769">
        <ele>37.400001525879</ele>
        <time>2016-06-13T19:54:54.000Z</time>
      </trkpt>
      <trkpt lat="48.82421" lon="2.46759">
        <ele>37.400001525879</ele>
        <time>2016-06-13T19:55:01.000Z</time>
      </trkpt>
      <trkpt lat="48.82421" lon="2.46756">
        <ele>37.400001525879</ele>
        <time>2016-06-13T19:55:04.000Z</time>
      </trkpt>
      <trkpt lat="48.82416" lon="2.46746">
        <ele>37.599998474121</ele>
        <time>2016-06-13T19:55:25.000Z</time>
      </trkpt>
      <trkpt lat="48.824" lon="2.46742">
        <ele>38</ele>
        <time>2016-06-13T19:55:43.000Z</time>
      </trkpt>
      <trkpt lat="48.82399" lon="2.46741">
        <ele>38</ele>
        <time>2016-06-13T19:55:44.000Z</time>
      </trkpt>
      <trkpt lat="48.82393" lon="2.46738">
        <ele>38.200000762939</ele>
        <time>2016-06-13T19:55:50.000Z</time>
      </trkpt>
      <trkpt lat="48.82376" lon="2.46728">
        <ele>38.799999237061</ele>
        <time>2016-06-13T19:55:59.000Z</time>
      </trkpt>
      <trkpt lat="48.82368" lon="2.46725">
        <ele>39</ele>
        <time>2016-06-13T19:56:04.000Z</time>
      </trkpt>
      <trkpt lat="48.82353" lon="2.46724">
        <ele>39.400001525879</ele>
        <time>2016-06-13T19:56:13.000Z</time>
      </trkpt>
      <trkpt lat="48.82334" lon="2.46722">
        <ele>40</ele>
        <time>2016-06-13T19:56:23.000Z</time>
      </trkpt>
      <trkpt lat="48.82315" lon="2.46722">
        <ele>40.400001525879</ele>
        <time>2016-06-13T19:56:33.000Z</time>
      </trkpt>
      <trkpt lat="48.82296" lon="2.46723">
        <ele>40.200000762939</ele>
        <time>2016-06-13T19:56:42.000Z</time>
      </trkpt>
      <trkpt lat="48.82277" lon="2.46726">
        <ele>40.200000762939</ele>
        <time>2016-06-13T19:56:52.000Z</time>
      </trkpt>
      <trkpt lat="48.82259" lon="2.4673">
        <ele>40</ele>
        <time>2016-06-13T19:57:02.000Z</time>
      </trkpt>
      <trkpt lat="48.82241" lon="2.4674">
        <ele>39.599998474121</ele>
        <time>2016-06-13T19:57:14.000Z</time>
      </trkpt>
      <trkpt lat="48.8224" lon="2.4674">
        <ele>39.599998474121</ele>
        <time>2016-06-13T19:57:15.000Z</time>
      </trkpt>
      <trkpt lat="48.82229" lon="2.46745">
        <ele>39.200000762939</ele>
        <time>2016-06-13T19:57:21.000Z</time>
      </trkpt>
      <trkpt lat="48.82212" lon="2.46748">
        <ele>39</ele>
        <time>2016-06-13T19:57:29.000Z</time>
      </trkpt>
      <trkpt lat="48.82195" lon="2.46754">
        <ele>39</ele>
        <time>2016-06-13T19:57:39.000Z</time>
      </trkpt>
      <trkpt lat="48.82174" lon="2.46758">
        <ele>39</ele>
        <time>2016-06-13T19:57:47.000Z</time>
      </trkpt>
      <trkpt lat="48.82156" lon="2.46764">
        <ele>39.200000762939</ele>
        <time>2016-06-13T19:57:52.000Z</time>
      </trkpt>
      <trkpt lat="48.82136" lon="2.46771">
        <ele>39.400001525879</ele>
        <time>2016-06-13T19:57:58.000Z</time>
      </trkpt>
      <trkpt lat="48.82115" lon="2.46774">
        <ele>39.799999237061</ele>
        <time>2016-06-13T19:58:03.000Z</time>
      </trkpt>
      <trkpt lat="48.82094" lon="2.46781">
        <ele>40.400001525879</ele>
        <time>2016-06-13T19:58:30.000Z</time>
      </trkpt>
      <trkpt lat="48.82089" lon="2.46788">
        <ele>40.599998474121</ele>
        <time>2016-06-13T19:59:36.000Z</time>
      </trkpt>
      <trkpt lat="48.82093" lon="2.4679">
        <ele>40.400001525879</ele>
        <time>2016-06-13T20:01:07.000Z</time>
      </trkpt>
      <trkpt lat="48.82077" lon="2.46806">
        <ele>41</ele>
        <time>2016-06-13T20:01:28.000Z</time>
      </trkpt>
      <trkpt lat="48.8206" lon="2.46818">
        <ele>41</ele>
        <time>2016-06-13T20:01:35.000Z</time>
      </trkpt>
      <trkpt lat="48.82041" lon="2.46828">
        <ele>41</ele>
        <time>2016-06-13T20:01:43.000Z</time>
      </trkpt>
      <trkpt lat="48.82039" lon="2.46829">
        <ele>40.799999237061</ele>
        <time>2016-06-13T20:01:45.000Z</time>
      </trkpt>
      <trkpt lat="48.82026" lon="2.46846">
        <ele>40.599998474121</ele>
        <time>2016-06-13T20:02:43.000Z</time>
      </trkpt>
      <trkpt lat="48.82025" lon="2.46825">
        <ele>41.200000762939</ele>
        <time>2016-06-13T20:03:27.000Z</time>
      </trkpt>
      <trkpt lat="48.82025" lon="2.46794">
        <ele>42</ele>
        <time>2016-06-13T20:03:33.000Z</time>
      </trkpt>
      <trkpt lat="48.82026" lon="2.46765">
        <ele>42.599998474121</ele>
        <time>2016-06-13T20:03:38.000Z</time>
      </trkpt>
      <trkpt lat="48.82025" lon="2.46738">
        <ele>43.799999237061</ele>
        <time>2016-06-13T20:03:44.000Z</time>
      </trkpt>
      <trkpt lat="48.82027" lon="2.46721">
        <ele>44.799999237061</ele>
        <time>2016-06-13T20:03:49.000Z</time>
      </trkpt>
      <trkpt lat="48.82027" lon="2.4669">
        <ele>47.200000762939</ele>
        <time>2016-06-13T20:03:55.000Z</time>
      </trkpt>
      <trkpt lat="48.82026" lon="2.46661">
        <ele>49</ele>
        <time>2016-06-13T20:03:59.000Z</time>
      </trkpt>
      <trkpt lat="48.82026" lon="2.46629">
        <ele>50.400001525879</ele>
        <time>2016-06-13T20:04:03.000Z</time>
      </trkpt>
      <trkpt lat="48.82025" lon="2.46615">
        <ele>51.200000762939</ele>
        <time>2016-06-13T20:04:05.000Z</time>
      </trkpt>
      <trkpt lat="48.82021" lon="2.46586">
        <ele>52.799999237061</ele>
        <time>2016-06-13T20:04:09.000Z</time>
      </trkpt>
      <trkpt lat="48.82015" lon="2.46552">
        <ele>54</ele>
        <time>2016-06-13T20:04:13.000Z</time>
      </trkpt>
      <trkpt lat="48.8201" lon="2.46518">
        <ele>55</ele>
        <time>2016-06-13T20:04:17.000Z</time>
      </trkpt>
      <trkpt lat="48.82004" lon="2.46492">
        <ele>55.400001525879</ele>
        <time>2016-06-13T20:04:20.000Z</time>
      </trkpt>
      <trkpt lat="48.81997" lon="2.46462">
        <ele>54.799999237061</ele>
        <time>2016-06-13T20:04:24.000Z</time>
      </trkpt>
      <trkpt lat="48.81996" lon="2.46452">
        <ele>54.599998474121</ele>
        <time>2016-06-13T20:04:26.000Z</time>
      </trkpt>
      <trkpt lat="48.81994" lon="2.46441">
        <ele>54.200000762939</ele>
        <time>2016-06-13T20:04:31.000Z</time>
      </trkpt>
      <trkpt lat="48.81995" lon="2.46441">
        <ele>54.200000762939</ele>
        <time>2016-06-13T20:04:32.000Z</time>
      </trkpt>
      <trkpt lat="48.82001" lon="2.46433">
        <ele>54.200000762939</ele>
        <time>2016-06-13T20:05:28.000Z</time>
      </trkpt>
      <trkpt lat="48.82" lon="2.46431">
        <ele>54</ele>
        <time>2016-06-13T20:05:29.000Z</time>
      </trkpt>
      <trkpt lat="48.81985" lon="2.46409">
        <ele>53.599998474121</ele>
        <time>2016-06-13T20:05:37.000Z</time>
      </trkpt>
      <trkpt lat="48.81982" lon="2.46403">
        <ele>53.599998474121</ele>
        <time>2016-06-13T20:05:38.000Z</time>
      </trkpt>
      <trkpt lat="48.81971" lon="2.4638">
        <ele>53.400001525879</ele>
        <time>2016-06-13T20:05:41.000Z</time>
      </trkpt>
      <trkpt lat="48.81959" lon="2.46351">
        <ele>53.200000762939</ele>
        <time>2016-06-13T20:05:44.000Z</time>
      </trkpt>
      <trkpt lat="48.81946" lon="2.46324">
        <ele>53</ele>
        <time>2016-06-13T20:05:47.000Z</time>
      </trkpt>
      <trkpt lat="48.81934" lon="2.46297">
        <ele>54</ele>
        <time>2016-06-13T20:05:51.000Z</time>
      </trkpt>
      <trkpt lat="48.81928" lon="2.46273">
        <ele>54.799999237061</ele>
        <time>2016-06-13T20:05:55.000Z</time>
      </trkpt>
      <trkpt lat="48.81917" lon="2.46247">
        <ele>56.200000762939</ele>
        <time>2016-06-13T20:06:01.000Z</time>
      </trkpt>
      <trkpt lat="48.81913" lon="2.46238">
        <ele>56.200000762939</ele>
        <time>2016-06-13T20:06:04.000Z</time>
      </trkpt>
      <trkpt lat="48.81915" lon="2.46229">
        <ele>55.599998474121</ele>
        <time>2016-06-13T20:06:12.000Z</time>
      </trkpt>
      <trkpt lat="48.81933" lon="2.46213">
        <ele>55</ele>
        <time>2016-06-13T20:06:20.000Z</time>
      </trkpt>
      <trkpt lat="48.81953" lon="2.462">
        <ele>54.799999237061</ele>
        <time>2016-06-13T20:06:25.000Z</time>
      </trkpt>
      <trkpt lat="48.81972" lon="2.46185">
        <ele>55</ele>
        <time>2016-06-13T20:06:30.000Z</time>
      </trkpt>
      <trkpt lat="48.8199" lon="2.46169">
        <ele>55.799999237061</ele>
        <time>2016-06-13T20:06:35.000Z</time>
      </trkpt>
      <trkpt lat="48.82007" lon="2.4615">
        <ele>56.400001525879</ele>
        <time>2016-06-13T20:06:41.000Z</time>
      </trkpt>
      <trkpt lat="48.82021" lon="2.46129">
        <ele>55.599998474121</ele>
        <time>2016-06-13T20:06:46.000Z</time>
      </trkpt>
      <trkpt lat="48.82036" lon="2.46107">
        <ele>54.599998474121</ele>
        <time>2016-06-13T20:06:51.000Z</time>
      </trkpt>
      <trkpt lat="48.8205" lon="2.46087">
        <ele>54.200000762939</ele>
        <time>2016-06-13T20:06:55.000Z</time>
      </trkpt>
      <trkpt lat="48.82064" lon="2.46066">
        <ele>53.799999237061</ele>
        <time>2016-06-13T20:06:59.000Z</time>
      </trkpt>
      <trkpt lat="48.82081" lon="2.46043">
        <ele>53.200000762939</ele>
        <time>2016-06-13T20:07:03.000Z</time>
      </trkpt>
      <trkpt lat="48.82098" lon="2.4602">
        <ele>52.400001525879</ele>
        <time>2016-06-13T20:07:07.000Z</time>
      </trkpt>
      <trkpt lat="48.82109" lon="2.46003">
        <ele>52</ele>
        <time>2016-06-13T20:07:10.000Z</time>
      </trkpt>
      <trkpt lat="48.82125" lon="2.45984">
        <ele>52.599998474121</ele>
        <time>2016-06-13T20:07:14.000Z</time>
      </trkpt>
      <trkpt lat="48.82144" lon="2.45969">
        <ele>53.200000762939</ele>
        <time>2016-06-13T20:07:18.000Z</time>
      </trkpt>
      <trkpt lat="48.82163" lon="2.45955">
        <ele>53.200000762939</ele>
        <time>2016-06-13T20:07:22.000Z</time>
      </trkpt>
      <trkpt lat="48.82184" lon="2.45941">
        <ele>52.799999237061</ele>
        <time>2016-06-13T20:07:26.000Z</time>
      </trkpt>
      <trkpt lat="48.822" lon="2.4593">
        <ele>52.400001525879</ele>
        <time>2016-06-13T20:07:29.000Z</time>
      </trkpt>
      <trkpt lat="48.82217" lon="2.45918">
        <ele>51.599998474121</ele>
        <time>2016-06-13T20:07:32.000Z</time>
      </trkpt>
      <trkpt lat="48.82233" lon="2.45906">
        <ele>51.200000762939</ele>
        <time>2016-06-13T20:07:35.000Z</time>
      </trkpt>
      <trkpt lat="48.8225" lon="2.45895">
        <ele>50.799999237061</ele>
        <time>2016-06-13T20:07:38.000Z</time>
      </trkpt>
      <trkpt lat="48.82271" lon="2.45881">
        <ele>50</ele>
        <time>2016-06-13T20:07:42.000Z</time>
      </trkpt>
      <trkpt lat="48.82287" lon="2.45869">
        <ele>50.400001525879</ele>
        <time>2016-06-13T20:07:45.000Z</time>
      </trkpt>
      <trkpt lat="48.82308" lon="2.45853">
        <ele>51.200000762939</ele>
        <time>2016-06-13T20:07:49.000Z</time>
      </trkpt>
      <trkpt lat="48.82325" lon="2.45839">
        <ele>51.599998474121</ele>
        <time>2016-06-13T20:07:52.000Z</time>
      </trkpt>
      <trkpt lat="48.82342" lon="2.45826">
        <ele>52.200000762939</ele>
        <time>2016-06-13T20:07:55.000Z</time>
      </trkpt>
      <trkpt lat="48.82359" lon="2.45811">
        <ele>52.400001525879</ele>
        <time>2016-06-13T20:07:58.000Z</time>
      </trkpt>
      <trkpt lat="48.8238" lon="2.45796">
        <ele>53</ele>
        <time>2016-06-13T20:08:02.000Z</time>
      </trkpt>
      <trkpt lat="48.82385" lon="2.45794">
        <ele>53.200000762939</ele>
        <time>2016-06-13T20:08:03.000Z</time>
      </trkpt>
      <trkpt lat="48.82404" lon="2.4578">
        <ele>53</ele>
        <time>2016-06-13T20:08:07.000Z</time>
      </trkpt>
      <trkpt lat="48.82408" lon="2.45775">
        <ele>52.599998474121</ele>
        <time>2016-06-13T20:08:08.000Z</time>
      </trkpt>
      <trkpt lat="48.82426" lon="2.45756">
        <ele>51.599998474121</ele>
        <time>2016-06-13T20:08:12.000Z</time>
      </trkpt>
      <trkpt lat="48.82444" lon="2.45739">
        <ele>51.400001525879</ele>
        <time>2016-06-13T20:08:16.000Z</time>
      </trkpt>
      <trkpt lat="48.82462" lon="2.45722">
        <ele>52.200000762939</ele>
        <time>2016-06-13T20:08:20.000Z</time>
      </trkpt>
      <trkpt lat="48.82481" lon="2.45706">
        <ele>53</ele>
        <time>2016-06-13T20:08:24.000Z</time>
      </trkpt>
      <trkpt lat="48.825" lon="2.45687">
        <ele>53.400001525879</ele>
        <time>2016-06-13T20:08:28.000Z</time>
      </trkpt>
      <trkpt lat="48.82518" lon="2.45668">
        <ele>54</ele>
        <time>2016-06-13T20:08:32.000Z</time>
      </trkpt>
      <trkpt lat="48.82535" lon="2.4565">
        <ele>53.200000762939</ele>
        <time>2016-06-13T20:08:36.000Z</time>
      </trkpt>
      <trkpt lat="48.82553" lon="2.45632">
        <ele>52.400001525879</ele>
        <time>2016-06-13T20:08:40.000Z</time>
      </trkpt>
      <trkpt lat="48.8257" lon="2.45613">
        <ele>52.400001525879</ele>
        <time>2016-06-13T20:08:44.000Z</time>
      </trkpt>
      <trkpt lat="48.82588" lon="2.45594">
        <ele>53.200000762939</ele>
        <time>2016-06-13T20:08:48.000Z</time>
      </trkpt>
      <trkpt lat="48.82592" lon="2.45589">
        <ele>53.400001525879</ele>
        <time>2016-06-13T20:08:49.000Z</time>
      </trkpt>
      <trkpt lat="48.8261" lon="2.45571">
        <ele>53.599998474121</ele>
        <time>2016-06-13T20:08:53.000Z</time>
      </trkpt>
      <trkpt lat="48.82626" lon="2.45552">
        <ele>53</ele>
        <time>2016-06-13T20:08:57.000Z</time>
      </trkpt>
      <trkpt lat="48.82637" lon="2.45538">
        <ele>52.599998474121</ele>
        <time>2016-06-13T20:09:00.000Z</time>
      </trkpt>
      <trkpt lat="48.82652" lon="2.4552">
        <ele>52.799999237061</ele>
        <time>2016-06-13T20:09:04.000Z</time>
      </trkpt>
      <trkpt lat="48.82667" lon="2.45501">
        <ele>53.400001525879</ele>
        <time>2016-06-13T20:09:08.000Z</time>
      </trkpt>
      <trkpt lat="48.82683" lon="2.45482">
        <ele>53.799999237061</ele>
        <time>2016-06-13T20:09:12.000Z</time>
      </trkpt>
      <trkpt lat="48.8269" lon="2.45474">
        <ele>54</ele>
        <time>2016-06-13T20:09:14.000Z</time>
      </trkpt>
      <trkpt lat="48.82711" lon="2.45464">
        <ele>54.599998474121</ele>
        <time>2016-06-13T20:09:19.000Z</time>
      </trkpt>
      <trkpt lat="48.82724" lon="2.45438">
        <ele>54.799999237061</ele>
        <time>2016-06-13T20:09:24.000Z</time>
      </trkpt>
      <trkpt lat="48.82731" lon="2.4542">
        <ele>55</ele>
        <time>2016-06-13T20:09:27.000Z</time>
      </trkpt>
      <trkpt lat="48.82747" lon="2.45398">
        <ele>55.599998474121</ele>
        <time>2016-06-13T20:09:32.000Z</time>
      </trkpt>
      <trkpt lat="48.82764" lon="2.45378">
        <ele>56</ele>
        <time>2016-06-13T20:09:37.000Z</time>
      </trkpt>
      <trkpt lat="48.82782" lon="2.4536">
        <ele>56.400001525879</ele>
        <time>2016-06-13T20:09:42.000Z</time>
      </trkpt>
      <trkpt lat="48.828" lon="2.45339">
        <ele>57</ele>
        <time>2016-06-13T20:09:47.000Z</time>
      </trkpt>
      <trkpt lat="48.82816" lon="2.45322">
        <ele>57.400001525879</ele>
        <time>2016-06-13T20:09:51.000Z</time>
      </trkpt>
      <trkpt lat="48.82829" lon="2.45303">
        <ele>57.400001525879</ele>
        <time>2016-06-13T20:09:55.000Z</time>
      </trkpt>
      <trkpt lat="48.82846" lon="2.45283">
        <ele>57.400001525879</ele>
        <time>2016-06-13T20:10:00.000Z</time>
      </trkpt>
      <trkpt lat="48.8286" lon="2.45265">
        <ele>57.200000762939</ele>
        <time>2016-06-13T20:10:04.000Z</time>
      </trkpt>
      <trkpt lat="48.82875" lon="2.45247">
        <ele>57</ele>
        <time>2016-06-13T20:10:08.000Z</time>
      </trkpt>
      <trkpt lat="48.82891" lon="2.45225">
        <ele>56.799999237061</ele>
        <time>2016-06-13T20:10:12.000Z</time>
      </trkpt>
      <trkpt lat="48.82905" lon="2.45205">
        <ele>56.599998474121</ele>
        <time>2016-06-13T20:10:16.000Z</time>
      </trkpt>
      <trkpt lat="48.82919" lon="2.45186">
        <ele>56.799999237061</ele>
        <time>2016-06-13T20:10:20.000Z</time>
      </trkpt>
      <trkpt lat="48.82932" lon="2.45165">
        <ele>57</ele>
        <time>2016-06-13T20:10:24.000Z</time>
      </trkpt>
      <trkpt lat="48.82946" lon="2.45146">
        <ele>56.200000762939</ele>
        <time>2016-06-13T20:10:28.000Z</time>
      </trkpt>
      <trkpt lat="48.82961" lon="2.45128">
        <ele>55.400001525879</ele>
        <time>2016-06-13T20:10:32.000Z</time>
      </trkpt>
      <trkpt lat="48.82976" lon="2.45109">
        <ele>54.799999237061</ele>
        <time>2016-06-13T20:10:36.000Z</time>
      </trkpt>
      <trkpt lat="48.82991" lon="2.4509">
        <ele>55.200000762939</ele>
        <time>2016-06-13T20:10:40.000Z</time>
      </trkpt>
      <trkpt lat="48.83004" lon="2.45071">
        <ele>55.200000762939</ele>
        <time>2016-06-13T20:10:44.000Z</time>
      </trkpt>
      <trkpt lat="48.83018" lon="2.45053">
        <ele>54.799999237061</ele>
        <time>2016-06-13T20:10:48.000Z</time>
      </trkpt>
      <trkpt lat="48.83034" lon="2.45032">
        <ele>54.400001525879</ele>
        <time>2016-06-13T20:10:52.000Z</time>
      </trkpt>
      <trkpt lat="48.83049" lon="2.45013">
        <ele>55</ele>
        <time>2016-06-13T20:10:56.000Z</time>
      </trkpt>
      <trkpt lat="48.83065" lon="2.44993">
        <ele>56.599998474121</ele>
        <time>2016-06-13T20:11:00.000Z</time>
      </trkpt>
      <trkpt lat="48.83078" lon="2.4497">
        <ele>58</ele>
        <time>2016-06-13T20:11:04.000Z</time>
      </trkpt>
      <trkpt lat="48.83095" lon="2.44948">
        <ele>57.799999237061</ele>
        <time>2016-06-13T20:11:08.000Z</time>
      </trkpt>
      <trkpt lat="48.83111" lon="2.44928">
        <ele>57.200000762939</ele>
        <time>2016-06-13T20:11:12.000Z</time>
      </trkpt>
      <trkpt lat="48.83126" lon="2.44907">
        <ele>55.599998474121</ele>
        <time>2016-06-13T20:11:16.000Z</time>
      </trkpt>
      <trkpt lat="48.83141" lon="2.44885">
        <ele>53.799999237061</ele>
        <time>2016-06-13T20:11:20.000Z</time>
      </trkpt>
      <trkpt lat="48.83158" lon="2.44862">
        <ele>51.799999237061</ele>
        <time>2016-06-13T20:11:24.000Z</time>
      </trkpt>
      <trkpt lat="48.83176" lon="2.44839">
        <ele>50</ele>
        <time>2016-06-13T20:11:28.000Z</time>
      </trkpt>
      <trkpt lat="48.83193" lon="2.44817">
        <ele>49.599998474121</ele>
        <time>2016-06-13T20:11:32.000Z</time>
      </trkpt>
      <trkpt lat="48.83209" lon="2.44796">
        <ele>50.799999237061</ele>
        <time>2016-06-13T20:11:36.000Z</time>
      </trkpt>
      <trkpt lat="48.83224" lon="2.44774">
        <ele>51.799999237061</ele>
        <time>2016-06-13T20:11:40.000Z</time>
      </trkpt>
      <trkpt lat="48.8324" lon="2.4475">
        <ele>52</ele>
        <time>2016-06-13T20:11:44.000Z</time>
      </trkpt>
      <trkpt lat="48.83255" lon="2.44726">
        <ele>52</ele>
        <time>2016-06-13T20:11:48.000Z</time>
      </trkpt>
      <trkpt lat="48.83271" lon="2.44704">
        <ele>51.400001525879</ele>
        <time>2016-06-13T20:11:52.000Z</time>
      </trkpt>
      <trkpt lat="48.83287" lon="2.44681">
        <ele>51.200000762939</ele>
        <time>2016-06-13T20:11:56.000Z</time>
      </trkpt>
      <trkpt lat="48.83304" lon="2.44657">
        <ele>51.400001525879</ele>
        <time>2016-06-13T20:12:00.000Z</time>
      </trkpt>
      <trkpt lat="48.8332" lon="2.44633">
        <ele>51.599998474121</ele>
        <time>2016-06-13T20:12:04.000Z</time>
      </trkpt>
      <trkpt lat="48.83334" lon="2.44606">
        <ele>52.200000762939</ele>
        <time>2016-06-13T20:12:08.000Z</time>
      </trkpt>
      <trkpt lat="48.83344" lon="2.4459">
        <ele>52.599998474121</ele>
        <time>2016-06-13T20:12:11.000Z</time>
      </trkpt>
      <trkpt lat="48.8336" lon="2.4457">
        <ele>52.799999237061</ele>
        <time>2016-06-13T20:12:15.000Z</time>
      </trkpt>
      <trkpt lat="48.83363" lon="2.44563">
        <ele>52.599998474121</ele>
        <time>2016-06-13T20:12:16.000Z</time>
      </trkpt>
      <trkpt lat="48.83377" lon="2.44542">
        <ele>52</ele>
        <time>2016-06-13T20:12:20.000Z</time>
      </trkpt>
      <trkpt lat="48.83391" lon="2.44516">
        <ele>51.400001525879</ele>
        <time>2016-06-13T20:12:24.000Z</time>
      </trkpt>
      <trkpt lat="48.83406" lon="2.44492">
        <ele>50.799999237061</ele>
        <time>2016-06-13T20:12:28.000Z</time>
      </trkpt>
      <trkpt lat="48.83425" lon="2.44471">
        <ele>50.400001525879</ele>
        <time>2016-06-13T20:12:32.000Z</time>
      </trkpt>
      <trkpt lat="48.83444" lon="2.44448">
        <ele>50.599998474121</ele>
        <time>2016-06-13T20:12:36.000Z</time>
      </trkpt>
      <trkpt lat="48.83459" lon="2.44431">
        <ele>50.200000762939</ele>
        <time>2016-06-13T20:12:39.000Z</time>
      </trkpt>
      <trkpt lat="48.83478" lon="2.44408">
        <ele>48.799999237061</ele>
        <time>2016-06-13T20:12:43.000Z</time>
      </trkpt>
      <trkpt lat="48.83492" lon="2.44388">
        <ele>47.400001525879</ele>
        <time>2016-06-13T20:12:46.000Z</time>
      </trkpt>
      <trkpt lat="48.83507" lon="2.44368">
        <ele>47.200000762939</ele>
        <time>2016-06-13T20:12:49.000Z</time>
      </trkpt>
      <trkpt lat="48.83522" lon="2.4435">
        <ele>47</ele>
        <time>2016-06-13T20:12:52.000Z</time>
      </trkpt>
      <trkpt lat="48.83537" lon="2.44334">
        <ele>47.200000762939</ele>
        <time>2016-06-13T20:12:55.000Z</time>
      </trkpt>
      <trkpt lat="48.83552" lon="2.44317">
        <ele>47.400001525879</ele>
        <time>2016-06-13T20:12:58.000Z</time>
      </trkpt>
      <trkpt lat="48.83566" lon="2.44298">
        <ele>47.599998474121</ele>
        <time>2016-06-13T20:13:01.000Z</time>
      </trkpt>
      <trkpt lat="48.8358" lon="2.44279">
        <ele>47.400001525879</ele>
        <time>2016-06-13T20:13:04.000Z</time>
      </trkpt>
      <trkpt lat="48.83594" lon="2.4426">
        <ele>47.200000762939</ele>
        <time>2016-06-13T20:13:07.000Z</time>
      </trkpt>
      <trkpt lat="48.8361" lon="2.44242">
        <ele>47</ele>
        <time>2016-06-13T20:13:10.000Z</time>
      </trkpt>
      <trkpt lat="48.83623" lon="2.44223">
        <ele>47</ele>
        <time>2016-06-13T20:13:13.000Z</time>
      </trkpt>
      <trkpt lat="48.83641" lon="2.442">
        <ele>47</ele>
        <time>2016-06-13T20:13:17.000Z</time>
      </trkpt>
      <trkpt lat="48.83657" lon="2.44179">
        <ele>47</ele>
        <time>2016-06-13T20:13:21.000Z</time>
      </trkpt>
      <trkpt lat="48.83675" lon="2.44161">
        <ele>47</ele>
        <time>2016-06-13T20:13:25.000Z</time>
      </trkpt>
      <trkpt lat="48.83692" lon="2.44139">
        <ele>46.599998474121</ele>
        <time>2016-06-13T20:13:29.000Z</time>
      </trkpt>
      <trkpt lat="48.8371" lon="2.44116">
        <ele>46.400001525879</ele>
        <time>2016-06-13T20:13:33.000Z</time>
      </trkpt>
      <trkpt lat="48.83727" lon="2.44092">
        <ele>46.799999237061</ele>
        <time>2016-06-13T20:13:37.000Z</time>
      </trkpt>
      <trkpt lat="48.83742" lon="2.44074">
        <ele>47.400001525879</ele>
        <time>2016-06-13T20:13:41.000Z</time>
      </trkpt>
      <trkpt lat="48.83759" lon="2.4405">
        <ele>47.599998474121</ele>
        <time>2016-06-13T20:13:46.000Z</time>
      </trkpt>
      <trkpt lat="48.83767" lon="2.44032">
        <ele>47.400001525879</ele>
        <time>2016-06-13T20:13:49.000Z</time>
      </trkpt>
      <trkpt lat="48.8378" lon="2.4401">
        <ele>47.400001525879</ele>
        <time>2016-06-13T20:13:53.000Z</time>
      </trkpt>
      <trkpt lat="48.83794" lon="2.43991">
        <ele>47.799999237061</ele>
        <time>2016-06-13T20:13:57.000Z</time>
      </trkpt>
      <trkpt lat="48.83808" lon="2.43966">
        <ele>48.200000762939</ele>
        <time>2016-06-13T20:14:02.000Z</time>
      </trkpt>
      <trkpt lat="48.83819" lon="2.43944">
        <ele>48.400001525879</ele>
        <time>2016-06-13T20:14:06.000Z</time>
      </trkpt>
      <trkpt lat="48.83825" lon="2.43931">
        <ele>48.400001525879</ele>
        <time>2016-06-13T20:14:08.000Z</time>
      </trkpt>
      <trkpt lat="48.83839" lon="2.43909">
        <ele>48.599998474121</ele>
        <time>2016-06-13T20:14:12.000Z</time>
      </trkpt>
      <trkpt lat="48.83852" lon="2.43889">
        <ele>49</ele>
        <time>2016-06-13T20:14:16.000Z</time>
      </trkpt>
      <trkpt lat="48.83855" lon="2.43886">
        <ele>49</ele>
        <time>2016-06-13T20:14:17.000Z</time>
      </trkpt>
      <trkpt lat="48.83871" lon="2.43867">
        <ele>49.400001525879</ele>
        <time>2016-06-13T20:14:21.000Z</time>
      </trkpt>
      <trkpt lat="48.83887" lon="2.4385">
        <ele>50</ele>
        <time>2016-06-13T20:14:25.000Z</time>
      </trkpt>
      <trkpt lat="48.839" lon="2.43831">
        <ele>50.599998474121</ele>
        <time>2016-06-13T20:14:29.000Z</time>
      </trkpt>
      <trkpt lat="48.83918" lon="2.43809">
        <ele>51</ele>
        <time>2016-06-13T20:14:34.000Z</time>
      </trkpt>
      <trkpt lat="48.83933" lon="2.43785">
        <ele>51.200000762939</ele>
        <time>2016-06-13T20:14:39.000Z</time>
      </trkpt>
      <trkpt lat="48.83949" lon="2.43768">
        <ele>51.200000762939</ele>
        <time>2016-06-13T20:14:43.000Z</time>
      </trkpt>
      <trkpt lat="48.83962" lon="2.4375">
        <ele>51</ele>
        <time>2016-06-13T20:14:47.000Z</time>
      </trkpt>
      <trkpt lat="48.83979" lon="2.43731">
        <ele>51</ele>
        <time>2016-06-13T20:14:52.000Z</time>
      </trkpt>
      <trkpt lat="48.83994" lon="2.4371">
        <ele>50.799999237061</ele>
        <time>2016-06-13T20:14:57.000Z</time>
      </trkpt>
      <trkpt lat="48.84009" lon="2.43686">
        <ele>50.400001525879</ele>
        <time>2016-06-13T20:15:02.000Z</time>
      </trkpt>
      <trkpt lat="48.84024" lon="2.43667">
        <ele>50</ele>
        <time>2016-06-13T20:15:07.000Z</time>
      </trkpt>
      <trkpt lat="48.84042" lon="2.43652">
        <ele>50.200000762939</ele>
        <time>2016-06-13T20:15:12.000Z</time>
      </trkpt>
      <trkpt lat="48.84059" lon="2.43633">
        <ele>50.200000762939</ele>
        <time>2016-06-13T20:15:18.000Z</time>
      </trkpt>
      <trkpt lat="48.84061" lon="2.43629">
        <ele>50</ele>
        <time>2016-06-13T20:15:19.000Z</time>
      </trkpt>
      <trkpt lat="48.84064" lon="2.43622">
        <ele>50</ele>
        <time>2016-06-13T20:15:21.000Z</time>
      </trkpt>
      <trkpt lat="48.84065" lon="2.43601">
        <ele>50</ele>
        <time>2016-06-13T20:15:29.000Z</time>
      </trkpt>
      <trkpt lat="48.84068" lon="2.43579">
        <ele>50.200000762939</ele>
        <time>2016-06-13T20:16:42.000Z</time>
      </trkpt>
      <trkpt lat="48.84069" lon="2.43552">
        <ele>51.400001525879</ele>
        <time>2016-06-13T20:16:48.000Z</time>
      </trkpt>
      <trkpt lat="48.84072" lon="2.43524">
        <ele>51.799999237061</ele>
        <time>2016-06-13T20:16:53.000Z</time>
      </trkpt>
      <trkpt lat="48.84079" lon="2.43496">
        <ele>52.400001525879</ele>
        <time>2016-06-13T20:16:58.000Z</time>
      </trkpt>
      <trkpt lat="48.84084" lon="2.43468">
        <ele>52.200000762939</ele>
        <time>2016-06-13T20:17:03.000Z</time>
      </trkpt>
      <trkpt lat="48.84087" lon="2.43435">
        <ele>51.400001525879</ele>
        <time>2016-06-13T20:17:08.000Z</time>
      </trkpt>
      <trkpt lat="48.84089" lon="2.43405">
        <ele>50.799999237061</ele>
        <time>2016-06-13T20:17:12.000Z</time>
      </trkpt>
      <trkpt lat="48.8409" lon="2.43375">
        <ele>50.799999237061</ele>
        <time>2016-06-13T20:17:16.000Z</time>
      </trkpt>
      <trkpt lat="48.84098" lon="2.43348">
        <ele>51</ele>
        <time>2016-06-13T20:17:20.000Z</time>
      </trkpt>
      <trkpt lat="48.84103" lon="2.43335">
        <ele>51</ele>
        <time>2016-06-13T20:17:22.000Z</time>
      </trkpt>
      <trkpt lat="48.84109" lon="2.43305">
        <ele>51.400001525879</ele>
        <time>2016-06-13T20:17:26.000Z</time>
      </trkpt>
      <trkpt lat="48.84114" lon="2.43274">
        <ele>52.200000762939</ele>
        <time>2016-06-13T20:17:30.000Z</time>
      </trkpt>
      <trkpt lat="48.84117" lon="2.4324">
        <ele>52.200000762939</ele>
        <time>2016-06-13T20:17:34.000Z</time>
      </trkpt>
      <trkpt lat="48.84121" lon="2.43208">
        <ele>51</ele>
        <time>2016-06-13T20:17:38.000Z</time>
      </trkpt>
      <trkpt lat="48.84123" lon="2.432">
        <ele>50.799999237061</ele>
        <time>2016-06-13T20:17:39.000Z</time>
      </trkpt>
      <trkpt lat="48.84126" lon="2.43182">
        <ele>50.400001525879</ele>
        <time>2016-06-13T20:17:41.000Z</time>
      </trkpt>
      <trkpt lat="48.84131" lon="2.43147">
        <ele>50.200000762939</ele>
        <time>2016-06-13T20:17:45.000Z</time>
      </trkpt>
      <trkpt lat="48.84133" lon="2.43111">
        <ele>50</ele>
        <time>2016-06-13T20:17:49.000Z</time>
      </trkpt>
      <trkpt lat="48.84133" lon="2.43091">
        <ele>49.799999237061</ele>
        <time>2016-06-13T20:17:51.000Z</time>
      </trkpt>
      <trkpt lat="48.84135" lon="2.43061">
        <ele>49.799999237061</ele>
        <time>2016-06-13T20:17:54.000Z</time>
      </trkpt>
      <trkpt lat="48.84138" lon="2.43031">
        <ele>50</ele>
        <time>2016-06-13T20:17:57.000Z</time>
      </trkpt>
      <trkpt lat="48.8414" lon="2.43002">
        <ele>49.400001525879</ele>
        <time>2016-06-13T20:18:00.000Z</time>
      </trkpt>
      <trkpt lat="48.84142" lon="2.4297">
        <ele>49</ele>
        <time>2016-06-13T20:18:03.000Z</time>
      </trkpt>
      <trkpt lat="48.84145" lon="2.42939">
        <ele>49</ele>
        <time>2016-06-13T20:18:06.000Z</time>
      </trkpt>
      <trkpt lat="48.84148" lon="2.42908">
        <ele>48.799999237061</ele>
        <time>2016-06-13T20:18:09.000Z</time>
      </trkpt>
      <trkpt lat="48.84151" lon="2.42877">
        <ele>48.200000762939</ele>
        <time>2016-06-13T20:18:12.000Z</time>
      </trkpt>
      <trkpt lat="48.84154" lon="2.42846">
        <ele>48.400001525879</ele>
        <time>2016-06-13T20:18:15.000Z</time>
      </trkpt>
      <trkpt lat="48.84156" lon="2.42816">
        <ele>49</ele>
        <time>2016-06-13T20:18:18.000Z</time>
      </trkpt>
      <trkpt lat="48.84157" lon="2.42786">
        <ele>49</ele>
        <time>2016-06-13T20:18:21.000Z</time>
      </trkpt>
      <trkpt lat="48.84159" lon="2.42755">
        <ele>47.799999237061</ele>
        <time>2016-06-13T20:18:24.000Z</time>
      </trkpt>
      <trkpt lat="48.84162" lon="2.42726">
        <ele>48</ele>
        <time>2016-06-13T20:18:27.000Z</time>
      </trkpt>
      <trkpt lat="48.84165" lon="2.42698">
        <ele>47.400001525879</ele>
        <time>2016-06-13T20:18:30.000Z</time>
      </trkpt>
      <trkpt lat="48.84168" lon="2.4267">
        <ele>46.599998474121</ele>
        <time>2016-06-13T20:18:33.000Z</time>
      </trkpt>
      <trkpt lat="48.8417" lon="2.42643">
        <ele>47</ele>
        <time>2016-06-13T20:18:36.000Z</time>
      </trkpt>
      <trkpt lat="48.84173" lon="2.42609">
        <ele>46.799999237061</ele>
        <time>2016-06-13T20:18:40.000Z</time>
      </trkpt>
      <trkpt lat="48.84178" lon="2.42577">
        <ele>46.400001525879</ele>
        <time>2016-06-13T20:18:44.000Z</time>
      </trkpt>
      <trkpt lat="48.84183" lon="2.42546">
        <ele>47</ele>
        <time>2016-06-13T20:18:48.000Z</time>
      </trkpt>
      <trkpt lat="48.84184" lon="2.42512">
        <ele>47.799999237061</ele>
        <time>2016-06-13T20:18:52.000Z</time>
      </trkpt>
      <trkpt lat="48.84188" lon="2.42479">
        <ele>49.400001525879</ele>
        <time>2016-06-13T20:18:56.000Z</time>
      </trkpt>
      <trkpt lat="48.84195" lon="2.42447">
        <ele>51.799999237061</ele>
        <time>2016-06-13T20:19:00.000Z</time>
      </trkpt>
      <trkpt lat="48.84204" lon="2.42424">
        <ele>53.200000762939</ele>
        <time>2016-06-13T20:19:03.000Z</time>
      </trkpt>
      <trkpt lat="48.84216" lon="2.42403">
        <ele>52.400001525879</ele>
        <time>2016-06-13T20:19:06.000Z</time>
      </trkpt>
      <trkpt lat="48.84225" lon="2.42389">
        <ele>51.599998474121</ele>
        <time>2016-06-13T20:19:08.000Z</time>
      </trkpt>
      <trkpt lat="48.84239" lon="2.42371">
        <ele>50.599998474121</ele>
        <time>2016-06-13T20:19:11.000Z</time>
      </trkpt>
      <trkpt lat="48.84249" lon="2.42363">
        <ele>50.200000762939</ele>
        <time>2016-06-13T20:19:13.000Z</time>
      </trkpt>
      <trkpt lat="48.84266" lon="2.4235">
        <ele>49.400001525879</ele>
        <time>2016-06-13T20:19:17.000Z</time>
      </trkpt>
      <trkpt lat="48.84282" lon="2.42336">
        <ele>49.200000762939</ele>
        <time>2016-06-13T20:19:22.000Z</time>
      </trkpt>
      <trkpt lat="48.84287" lon="2.4233">
        <ele>49.200000762939</ele>
        <time>2016-06-13T20:19:24.000Z</time>
      </trkpt>
      <trkpt lat="48.84291" lon="2.42324">
        <ele>49.200000762939</ele>
        <time>2016-06-13T20:19:26.000Z</time>
      </trkpt>
      <trkpt lat="48.84296" lon="2.4231">
        <ele>49.200000762939</ele>
        <time>2016-06-13T20:19:30.000Z</time>
      </trkpt>
      <trkpt lat="48.84302" lon="2.42293">
        <ele>49.400001525879</ele>
        <time>2016-06-13T20:19:34.000Z</time>
      </trkpt>
      <trkpt lat="48.84306" lon="2.42285">
        <ele>49.400001525879</ele>
        <time>2016-06-13T20:19:36.000Z</time>
      </trkpt>
      <trkpt lat="48.84314" lon="2.42262">
        <ele>49.799999237061</ele>
        <time>2016-06-13T20:19:41.000Z</time>
      </trkpt>
      <trkpt lat="48.84323" lon="2.42236">
        <ele>50</ele>
        <time>2016-06-13T20:19:46.000Z</time>
      </trkpt>
      <trkpt lat="48.84331" lon="2.42209">
        <ele>50.400001525879</ele>
        <time>2016-06-13T20:19:51.000Z</time>
      </trkpt>
      <trkpt lat="48.84334" lon="2.42184">
        <ele>51.200000762939</ele>
        <time>2016-06-13T20:19:55.000Z</time>
      </trkpt>
      <trkpt lat="48.84335" lon="2.42164">
        <ele>51.799999237061</ele>
        <time>2016-06-13T20:19:58.000Z</time>
      </trkpt>
      <trkpt lat="48.84335" lon="2.42153">
        <ele>52.400001525879</ele>
        <time>2016-06-13T20:20:00.000Z</time>
      </trkpt>
      <trkpt lat="48.84337" lon="2.42128">
        <ele>53</ele>
        <time>2016-06-13T20:20:04.000Z</time>
      </trkpt>
      <trkpt lat="48.84339" lon="2.42095">
        <ele>53.400001525879</ele>
        <time>2016-06-13T20:20:09.000Z</time>
      </trkpt>
      <trkpt lat="48.84341" lon="2.42068">
        <ele>54</ele>
        <time>2016-06-13T20:20:13.000Z</time>
      </trkpt>
      <trkpt lat="48.84343" lon="2.42034">
        <ele>54.400001525879</ele>
        <time>2016-06-13T20:20:18.000Z</time>
      </trkpt>
      <trkpt lat="48.84345" lon="2.42001">
        <ele>54.799999237061</ele>
        <time>2016-06-13T20:20:23.000Z</time>
      </trkpt>
      <trkpt lat="48.84345" lon="2.41989">
        <ele>55</ele>
        <time>2016-06-13T20:20:25.000Z</time>
      </trkpt>
      <trkpt lat="48.84347" lon="2.4196">
        <ele>55.400001525879</ele>
        <time>2016-06-13T20:20:29.000Z</time>
      </trkpt>
      <trkpt lat="48.8435" lon="2.41931">
        <ele>55.799999237061</ele>
        <time>2016-06-13T20:20:33.000Z</time>
      </trkpt>
      <trkpt lat="48.84353" lon="2.41899">
        <ele>55.400001525879</ele>
        <time>2016-06-13T20:20:38.000Z</time>
      </trkpt>
      <trkpt lat="48.84358" lon="2.41867">
        <ele>54.200000762939</ele>
        <time>2016-06-13T20:20:43.000Z</time>
      </trkpt>
      <trkpt lat="48.84363" lon="2.41835">
        <ele>53.200000762939</ele>
        <time>2016-06-13T20:20:47.000Z</time>
      </trkpt>
      <trkpt lat="48.84366" lon="2.41804">
        <ele>52.599998474121</ele>
        <time>2016-06-13T20:20:51.000Z</time>
      </trkpt>
      <trkpt lat="48.84367" lon="2.41797">
        <ele>52.599998474121</ele>
        <time>2016-06-13T20:20:52.000Z</time>
      </trkpt>
      <trkpt lat="48.84369" lon="2.4178">
        <ele>52.200000762939</ele>
        <time>2016-06-13T20:20:56.000Z</time>
      </trkpt>
      <trkpt lat="48.84371" lon="2.41773">
        <ele>52.200000762939</ele>
        <time>2016-06-13T20:21:02.000Z</time>
      </trkpt>
      <trkpt lat="48.84371" lon="2.41773">
        <ele>52.200000762939</ele>
        <time>2016-06-13T20:21:03.000Z</time>
      </trkpt>
      <trkpt lat="48.8437" lon="2.41745">
        <ele>51.599998474121</ele>
        <time>2016-06-13T20:21:18.000Z</time>
      </trkpt>
      <trkpt lat="48.84371" lon="2.41717">
        <ele>52.599998474121</ele>
        <time>2016-06-13T20:21:22.000Z</time>
      </trkpt>
      <trkpt lat="48.84371" lon="2.4171">
        <ele>53</ele>
        <time>2016-06-13T20:21:23.000Z</time>
      </trkpt>
      <trkpt lat="48.84372" lon="2.4168">
        <ele>54</ele>
        <time>2016-06-13T20:21:27.000Z</time>
      </trkpt>
      <trkpt lat="48.84377" lon="2.41648">
        <ele>55.200000762939</ele>
        <time>2016-06-13T20:21:31.000Z</time>
      </trkpt>
      <trkpt lat="48.8438" lon="2.41623">
        <ele>56.799999237061</ele>
        <time>2016-06-13T20:21:34.000Z</time>
      </trkpt>
      <trkpt lat="48.84382" lon="2.41587">
        <ele>58.200000762939</ele>
        <time>2016-06-13T20:21:38.000Z</time>
      </trkpt>
      <trkpt lat="48.84385" lon="2.4156">
        <ele>57</ele>
        <time>2016-06-13T20:21:41.000Z</time>
      </trkpt>
      <trkpt lat="48.84388" lon="2.41524">
        <ele>54.799999237061</ele>
        <time>2016-06-13T20:21:45.000Z</time>
      </trkpt>
      <trkpt lat="48.84393" lon="2.4149">
        <ele>52.599998474121</ele>
        <time>2016-06-13T20:21:49.000Z</time>
      </trkpt>
      <trkpt lat="48.84398" lon="2.41457">
        <ele>50</ele>
        <time>2016-06-13T20:21:53.000Z</time>
      </trkpt>
      <trkpt lat="48.844" lon="2.41428">
        <ele>48.599998474121</ele>
        <time>2016-06-13T20:21:57.000Z</time>
      </trkpt>
      <trkpt lat="48.84401" lon="2.41422">
        <ele>48.400001525879</ele>
        <time>2016-06-13T20:21:58.000Z</time>
      </trkpt>
      <trkpt lat="48.84403" lon="2.41401">
        <ele>48.200000762939</ele>
        <time>2016-06-13T20:22:01.000Z</time>
      </trkpt>
      <trkpt lat="48.84405" lon="2.41374">
        <ele>48.599998474121</ele>
        <time>2016-06-13T20:22:05.000Z</time>
      </trkpt>
      <trkpt lat="48.84408" lon="2.41355">
        <ele>49.400001525879</ele>
        <time>2016-06-13T20:22:08.000Z</time>
      </trkpt>
      <trkpt lat="48.84412" lon="2.41323">
        <ele>50.599998474121</ele>
        <time>2016-06-13T20:22:13.000Z</time>
      </trkpt>
      <trkpt lat="48.84412" lon="2.41292">
        <ele>51.200000762939</ele>
        <time>2016-06-13T20:22:18.000Z</time>
      </trkpt>
      <trkpt lat="48.84413" lon="2.41259">
        <ele>51.599998474121</ele>
        <time>2016-06-13T20:22:23.000Z</time>
      </trkpt>
      <trkpt lat="48.84414" lon="2.41246">
        <ele>51.799999237061</ele>
        <time>2016-06-13T20:22:25.000Z</time>
      </trkpt>
      <trkpt lat="48.84416" lon="2.41213">
        <ele>52.200000762939</ele>
        <time>2016-06-13T20:22:30.000Z</time>
      </trkpt>
      <trkpt lat="48.84418" lon="2.41185">
        <ele>52.200000762939</ele>
        <time>2016-06-13T20:22:34.000Z</time>
      </trkpt>
      <trkpt lat="48.8442" lon="2.41171">
        <ele>52.200000762939</ele>
        <time>2016-06-13T20:22:36.000Z</time>
      </trkpt>
      <trkpt lat="48.84423" lon="2.4114">
        <ele>53.400001525879</ele>
        <time>2016-06-13T20:22:40.000Z</time>
      </trkpt>
      <trkpt lat="48.84425" lon="2.41109">
        <ele>54</ele>
        <time>2016-06-13T20:22:44.000Z</time>
      </trkpt>
      <trkpt lat="48.84427" lon="2.41086">
        <ele>54.400001525879</ele>
        <time>2016-06-13T20:22:47.000Z</time>
      </trkpt>
      <trkpt lat="48.84431" lon="2.41059">
        <ele>54.599998474121</ele>
        <time>2016-06-13T20:22:51.000Z</time>
      </trkpt>
      <trkpt lat="48.84434" lon="2.41037">
        <ele>54.799999237061</ele>
        <time>2016-06-13T20:22:55.000Z</time>
      </trkpt>
      <trkpt lat="48.84438" lon="2.41021">
        <ele>54.799999237061</ele>
        <time>2016-06-13T20:23:01.000Z</time>
      </trkpt>
      <trkpt lat="48.84438" lon="2.40999">
        <ele>55</ele>
        <time>2016-06-13T20:23:20.000Z</time>
      </trkpt>
      <trkpt lat="48.84434" lon="2.40968">
        <ele>55.400001525879</ele>
        <time>2016-06-13T20:23:27.000Z</time>
      </trkpt>
      <trkpt lat="48.84437" lon="2.40937">
        <ele>55.799999237061</ele>
        <time>2016-06-13T20:23:32.000Z</time>
      </trkpt>
      <trkpt lat="48.84438" lon="2.40909">
        <ele>56</ele>
        <time>2016-06-13T20:23:36.000Z</time>
      </trkpt>
      <trkpt lat="48.84441" lon="2.40881">
        <ele>56</ele>
        <time>2016-06-13T20:23:40.000Z</time>
      </trkpt>
      <trkpt lat="48.84444" lon="2.4085">
        <ele>56.200000762939</ele>
        <time>2016-06-13T20:23:44.000Z</time>
      </trkpt>
      <trkpt lat="48.84447" lon="2.40815">
        <ele>55.799999237061</ele>
        <time>2016-06-13T20:23:48.000Z</time>
      </trkpt>
      <trkpt lat="48.8445" lon="2.40786">
        <ele>55.400001525879</ele>
        <time>2016-06-13T20:23:51.000Z</time>
      </trkpt>
      <trkpt lat="48.84453" lon="2.40758">
        <ele>55</ele>
        <time>2016-06-13T20:23:54.000Z</time>
      </trkpt>
      <trkpt lat="48.84455" lon="2.40729">
        <ele>53.400001525879</ele>
        <time>2016-06-13T20:23:57.000Z</time>
      </trkpt>
      <trkpt lat="48.84457" lon="2.40701">
        <ele>51.799999237061</ele>
        <time>2016-06-13T20:24:00.000Z</time>
      </trkpt>
      <trkpt lat="48.84458" lon="2.40682">
        <ele>50.599998474121</ele>
        <time>2016-06-13T20:24:02.000Z</time>
      </trkpt>
      <trkpt lat="48.84462" lon="2.4065">
        <ele>50.799999237061</ele>
        <time>2016-06-13T20:24:06.000Z</time>
      </trkpt>
      <trkpt lat="48.84466" lon="2.40618">
        <ele>51.200000762939</ele>
        <time>2016-06-13T20:24:10.000Z</time>
      </trkpt>
      <trkpt lat="48.84469" lon="2.40587">
        <ele>51</ele>
        <time>2016-06-13T20:24:14.000Z</time>
      </trkpt>
      <trkpt lat="48.84471" lon="2.4056">
        <ele>51</ele>
        <time>2016-06-13T20:24:17.000Z</time>
      </trkpt>
      <trkpt lat="48.84473" lon="2.40532">
        <ele>51</ele>
        <time>2016-06-13T20:24:20.000Z</time>
      </trkpt>
      <trkpt lat="48.84474" lon="2.40497">
        <ele>51</ele>
        <time>2016-06-13T20:24:24.000Z</time>
      </trkpt>
      <trkpt lat="48.84476" lon="2.40465">
        <ele>51.400001525879</ele>
        <time>2016-06-13T20:24:27.000Z</time>
      </trkpt>
      <trkpt lat="48.84482" lon="2.40431">
        <ele>50.599998474121</ele>
        <time>2016-06-13T20:24:30.000Z</time>
      </trkpt>
      <trkpt lat="48.84487" lon="2.40395">
        <ele>50.400001525879</ele>
        <time>2016-06-13T20:24:33.000Z</time>
      </trkpt>
      <trkpt lat="48.84488" lon="2.4037">
        <ele>51.200000762939</ele>
        <time>2016-06-13T20:24:35.000Z</time>
      </trkpt>
      <trkpt lat="48.84493" lon="2.40336">
        <ele>52.200000762939</ele>
        <time>2016-06-13T20:24:38.000Z</time>
      </trkpt>
      <trkpt lat="48.84494" lon="2.40302">
        <ele>52</ele>
        <time>2016-06-13T20:24:41.000Z</time>
      </trkpt>
      <trkpt lat="48.84496" lon="2.40272">
        <ele>53.200000762939</ele>
        <time>2016-06-13T20:24:44.000Z</time>
      </trkpt>
      <trkpt lat="48.84499" lon="2.40254">
        <ele>53.799999237061</ele>
        <time>2016-06-13T20:24:46.000Z</time>
      </trkpt>
      <trkpt lat="48.84504" lon="2.4024">
        <ele>53.599998474121</ele>
        <time>2016-06-13T20:24:48.000Z</time>
      </trkpt>
      <trkpt lat="48.84514" lon="2.40217">
        <ele>53.599998474121</ele>
        <time>2016-06-13T20:24:52.000Z</time>
      </trkpt>
      <trkpt lat="48.84517" lon="2.40191">
        <ele>53.799999237061</ele>
        <time>2016-06-13T20:25:00.000Z</time>
      </trkpt>
      <trkpt lat="48.8451" lon="2.40187">
        <ele>53.400001525879</ele>
        <time>2016-06-13T20:25:15.000Z</time>
      </trkpt>
      <trkpt lat="48.84506" lon="2.40165">
        <ele>53.200000762939</ele>
        <time>2016-06-13T20:25:20.000Z</time>
      </trkpt>
      <trkpt lat="48.84508" lon="2.40138">
        <ele>53.799999237061</ele>
        <time>2016-06-13T20:25:26.000Z</time>
      </trkpt>
      <trkpt lat="48.8451" lon="2.40106">
        <ele>54.200000762939</ele>
        <time>2016-06-13T20:25:32.000Z</time>
      </trkpt>
      <trkpt lat="48.84512" lon="2.40075">
        <ele>54.799999237061</ele>
        <time>2016-06-13T20:25:37.000Z</time>
      </trkpt>
      <trkpt lat="48.84518" lon="2.40045">
        <ele>55.400001525879</ele>
        <time>2016-06-13T20:25:42.000Z</time>
      </trkpt>
      <trkpt lat="48.84518" lon="2.40013">
        <ele>55.799999237061</ele>
        <time>2016-06-13T20:25:47.000Z</time>
      </trkpt>
      <trkpt lat="48.84519" lon="2.39982">
        <ele>55.799999237061</ele>
        <time>2016-06-13T20:25:52.000Z</time>
      </trkpt>
      <trkpt lat="48.84521" lon="2.39955">
        <ele>55.400001525879</ele>
        <time>2016-06-13T20:25:56.000Z</time>
      </trkpt>
      <trkpt lat="48.84525" lon="2.39922">
        <ele>55</ele>
        <time>2016-06-13T20:26:01.000Z</time>
      </trkpt>
      <trkpt lat="48.84527" lon="2.39894">
        <ele>55.200000762939</ele>
        <time>2016-06-13T20:26:05.000Z</time>
      </trkpt>
      <trkpt lat="48.84528" lon="2.3986">
        <ele>55.599998474121</ele>
        <time>2016-06-13T20:26:10.000Z</time>
      </trkpt>
      <trkpt lat="48.8453" lon="2.39827">
        <ele>55.799999237061</ele>
        <time>2016-06-13T20:26:15.000Z</time>
      </trkpt>
      <trkpt lat="48.84531" lon="2.39801">
        <ele>54.599998474121</ele>
        <time>2016-06-13T20:26:19.000Z</time>
      </trkpt>
      <trkpt lat="48.84533" lon="2.39767">
        <ele>53</ele>
        <time>2016-06-13T20:26:24.000Z</time>
      </trkpt>
      <trkpt lat="48.84536" lon="2.3974">
        <ele>53.400001525879</ele>
        <time>2016-06-13T20:26:28.000Z</time>
      </trkpt>
      <trkpt lat="48.84541" lon="2.39711">
        <ele>54.799999237061</ele>
        <time>2016-06-13T20:26:32.000Z</time>
      </trkpt>
      <trkpt lat="48.84542" lon="2.39683">
        <ele>56</ele>
        <time>2016-06-13T20:26:36.000Z</time>
      </trkpt>
      <trkpt lat="48.84543" lon="2.39655">
        <ele>57</ele>
        <time>2016-06-13T20:26:40.000Z</time>
      </trkpt>
      <trkpt lat="48.84546" lon="2.3964">
        <ele>57.599998474121</ele>
        <time>2016-06-13T20:26:42.000Z</time>
      </trkpt>
      <trkpt lat="48.84549" lon="2.39612">
        <ele>58.599998474121</ele>
        <time>2016-06-13T20:26:46.000Z</time>
      </trkpt>
      <trkpt lat="48.84552" lon="2.39581">
        <ele>58.799999237061</ele>
        <time>2016-06-13T20:26:50.000Z</time>
      </trkpt>
      <trkpt lat="48.84553" lon="2.39573">
        <ele>59</ele>
        <time>2016-06-13T20:26:51.000Z</time>
      </trkpt>
      <trkpt lat="48.84557" lon="2.39546">
        <ele>59.400001525879</ele>
        <time>2016-06-13T20:26:55.000Z</time>
      </trkpt>
      <trkpt lat="48.84558" lon="2.3953">
        <ele>59.400001525879</ele>
        <time>2016-06-13T20:26:58.000Z</time>
      </trkpt>
      <trkpt lat="48.84561" lon="2.39518">
        <ele>58.799999237061</ele>
        <time>2016-06-13T20:27:01.000Z</time>
      </trkpt>
      <trkpt lat="48.84565" lon="2.39511">
        <ele>58.200000762939</ele>
        <time>2016-06-13T20:27:04.000Z</time>
      </trkpt>
      <trkpt lat="48.84581" lon="2.39497">
        <ele>57.400001525879</ele>
        <time>2016-06-13T20:27:10.000Z</time>
      </trkpt>
      <trkpt lat="48.846" lon="2.39493">
        <ele>57.200000762939</ele>
        <time>2016-06-13T20:27:16.000Z</time>
      </trkpt>
      <trkpt lat="48.84618" lon="2.3948">
        <ele>57.599998474121</ele>
        <time>2016-06-13T20:27:22.000Z</time>
      </trkpt>
      <trkpt lat="48.84635" lon="2.3947">
        <ele>58.400001525879</ele>
        <time>2016-06-13T20:27:27.000Z</time>
      </trkpt>
      <trkpt lat="48.84654" lon="2.3946">
        <ele>59.400001525879</ele>
        <time>2016-06-13T20:27:33.000Z</time>
      </trkpt>
      <trkpt lat="48.84674" lon="2.3945">
        <ele>59.400001525879</ele>
        <time>2016-06-13T20:27:38.000Z</time>
      </trkpt>
      <trkpt lat="48.84691" lon="2.39436">
        <ele>59</ele>
        <time>2016-06-13T20:27:43.000Z</time>
      </trkpt>
      <trkpt lat="48.84711" lon="2.39425">
        <ele>57.200000762939</ele>
        <time>2016-06-13T20:27:48.000Z</time>
      </trkpt>
      <trkpt lat="48.84722" lon="2.39391">
        <ele>55.599998474121</ele>
        <time>2016-06-13T20:27:54.000Z</time>
      </trkpt>
      <trkpt lat="48.8474" lon="2.39373">
        <ele>54.400001525879</ele>
        <time>2016-06-13T20:27:59.000Z</time>
      </trkpt>
      <trkpt lat="48.84754" lon="2.39354">
        <ele>53.799999237061</ele>
        <time>2016-06-13T20:28:03.000Z</time>
      </trkpt>
      <trkpt lat="48.84762" lon="2.39347">
        <ele>53.400001525879</ele>
        <time>2016-06-13T20:28:05.000Z</time>
      </trkpt>
      <trkpt lat="48.84782" lon="2.39334">
        <ele>53.400001525879</ele>
        <time>2016-06-13T20:28:10.000Z</time>
      </trkpt>
      <trkpt lat="48.84799" lon="2.39322">
        <ele>54.200000762939</ele>
        <time>2016-06-13T20:28:15.000Z</time>
      </trkpt>
      <trkpt lat="48.84804" lon="2.39319">
        <ele>54.400001525879</ele>
        <time>2016-06-13T20:28:17.000Z</time>
      </trkpt>
      <trkpt lat="48.84812" lon="2.39287">
        <ele>55.400001525879</ele>
        <time>2016-06-13T20:28:30.000Z</time>
      </trkpt>
      <trkpt lat="48.84817" lon="2.39284">
        <ele>55.400001525879</ele>
        <time>2016-06-13T20:28:32.000Z</time>
      </trkpt>
      <trkpt lat="48.84836" lon="2.39274">
        <ele>54.799999237061</ele>
        <time>2016-06-13T20:28:37.000Z</time>
      </trkpt>
      <trkpt lat="48.84853" lon="2.39265">
        <ele>54.400001525879</ele>
        <time>2016-06-13T20:28:41.000Z</time>
      </trkpt>
      <trkpt lat="48.84868" lon="2.39244">
        <ele>53.400001525879</ele>
        <time>2016-06-13T20:28:46.000Z</time>
      </trkpt>
      <trkpt lat="48.84884" lon="2.39228">
        <ele>52</ele>
        <time>2016-06-13T20:28:51.000Z</time>
      </trkpt>
      <trkpt lat="48.84899" lon="2.39208">
        <ele>50.599998474121</ele>
        <time>2016-06-13T20:28:56.000Z</time>
      </trkpt>
      <trkpt lat="48.84901" lon="2.39175">
        <ele>50.200000762939</ele>
        <time>2016-06-13T20:29:01.000Z</time>
      </trkpt>
      <trkpt lat="48.84906" lon="2.39143">
        <ele>49.200000762939</ele>
        <time>2016-06-13T20:29:06.000Z</time>
      </trkpt>
      <trkpt lat="48.84911" lon="2.39112">
        <ele>48.400001525879</ele>
        <time>2016-06-13T20:29:11.000Z</time>
      </trkpt>
      <trkpt lat="48.84916" lon="2.39079">
        <ele>47.799999237061</ele>
        <time>2016-06-13T20:29:15.000Z</time>
      </trkpt>
      <trkpt lat="48.84921" lon="2.39044">
        <ele>47.799999237061</ele>
        <time>2016-06-13T20:29:19.000Z</time>
      </trkpt>
      <trkpt lat="48.84926" lon="2.39009">
        <ele>47.799999237061</ele>
        <time>2016-06-13T20:29:23.000Z</time>
      </trkpt>
      <trkpt lat="48.84931" lon="2.38975">
        <ele>47.799999237061</ele>
        <time>2016-06-13T20:29:27.000Z</time>
      </trkpt>
      <trkpt lat="48.84938" lon="2.38942">
        <ele>48</ele>
        <time>2016-06-13T20:29:31.000Z</time>
      </trkpt>
      <trkpt lat="48.8494" lon="2.38934">
        <ele>48</ele>
        <time>2016-06-13T20:29:32.000Z</time>
      </trkpt>
      <trkpt lat="48.84946" lon="2.38904">
        <ele>47.599998474121</ele>
        <time>2016-06-13T20:29:36.000Z</time>
      </trkpt>
      <trkpt lat="48.84953" lon="2.38872">
        <ele>46.400001525879</ele>
        <time>2016-06-13T20:29:40.000Z</time>
      </trkpt>
      <trkpt lat="48.84959" lon="2.38837">
        <ele>45.200000762939</ele>
        <time>2016-06-13T20:29:44.000Z</time>
      </trkpt>
      <trkpt lat="48.84963" lon="2.3881">
        <ele>45</ele>
        <time>2016-06-13T20:29:47.000Z</time>
      </trkpt>
      <trkpt lat="48.84967" lon="2.38782">
        <ele>45</ele>
        <time>2016-06-13T20:29:50.000Z</time>
      </trkpt>
      <trkpt lat="48.84972" lon="2.38754">
        <ele>45.400001525879</ele>
        <time>2016-06-13T20:29:53.000Z</time>
      </trkpt>
      <trkpt lat="48.84977" lon="2.38729">
        <ele>44.799999237061</ele>
        <time>2016-06-13T20:29:56.000Z</time>
      </trkpt>
      <trkpt lat="48.84984" lon="2.38697">
        <ele>44.200000762939</ele>
        <time>2016-06-13T20:30:00.000Z</time>
      </trkpt>
      <trkpt lat="48.84988" lon="2.38665">
        <ele>44.400001525879</ele>
        <time>2016-06-13T20:30:04.000Z</time>
      </trkpt>
      <trkpt lat="48.84993" lon="2.38632">
        <ele>44.200000762939</ele>
        <time>2016-06-13T20:30:08.000Z</time>
      </trkpt>
      <trkpt lat="48.84997" lon="2.38598">
        <ele>45</ele>
        <time>2016-06-13T20:30:12.000Z</time>
      </trkpt>
      <trkpt lat="48.85003" lon="2.3857">
        <ele>45.799999237061</ele>
        <time>2016-06-13T20:30:15.000Z</time>
      </trkpt>
      <trkpt lat="48.85009" lon="2.38538">
        <ele>45.400001525879</ele>
        <time>2016-06-13T20:30:19.000Z</time>
      </trkpt>
      <trkpt lat="48.85014" lon="2.38508">
        <ele>45</ele>
        <time>2016-06-13T20:30:23.000Z</time>
      </trkpt>
      <trkpt lat="48.85018" lon="2.38494">
        <ele>45</ele>
        <time>2016-06-13T20:30:25.000Z</time>
      </trkpt>
      <trkpt lat="48.8502" lon="2.38481">
        <ele>44.400001525879</ele>
        <time>2016-06-13T20:30:27.000Z</time>
      </trkpt>
      <trkpt lat="48.85024" lon="2.38451">
        <ele>43.200000762939</ele>
        <time>2016-06-13T20:30:31.000Z</time>
      </trkpt>
      <trkpt lat="48.85024" lon="2.38442">
        <ele>43</ele>
        <time>2016-06-13T20:30:32.000Z</time>
      </trkpt>
      <trkpt lat="48.85024" lon="2.38407">
        <ele>41.599998474121</ele>
        <time>2016-06-13T20:30:37.000Z</time>
      </trkpt>
      <trkpt lat="48.85027" lon="2.38374">
        <ele>39.599998474121</ele>
        <time>2016-06-13T20:30:42.000Z</time>
      </trkpt>
      <trkpt lat="48.85029" lon="2.38345">
        <ele>38</ele>
        <time>2016-06-13T20:30:46.000Z</time>
      </trkpt>
      <trkpt lat="48.85029" lon="2.38338">
        <ele>37.400001525879</ele>
        <time>2016-06-13T20:30:47.000Z</time>
      </trkpt>
      <trkpt lat="48.85031" lon="2.38307">
        <ele>39</ele>
        <time>2016-06-13T20:30:51.000Z</time>
      </trkpt>
      <trkpt lat="48.85034" lon="2.38274">
        <ele>40.799999237061</ele>
        <time>2016-06-13T20:30:55.000Z</time>
      </trkpt>
      <trkpt lat="48.85036" lon="2.38242">
        <ele>41.599998474121</ele>
        <time>2016-06-13T20:30:59.000Z</time>
      </trkpt>
      <trkpt lat="48.85037" lon="2.38212">
        <ele>42.400001525879</ele>
        <time>2016-06-13T20:31:03.000Z</time>
      </trkpt>
      <trkpt lat="48.8504" lon="2.3818">
        <ele>43.200000762939</ele>
        <time>2016-06-13T20:31:07.000Z</time>
      </trkpt>
      <trkpt lat="48.85046" lon="2.38152">
        <ele>42.799999237061</ele>
        <time>2016-06-13T20:31:11.000Z</time>
      </trkpt>
      <trkpt lat="48.85047" lon="2.38136">
        <ele>43</ele>
        <time>2016-06-13T20:31:13.000Z</time>
      </trkpt>
      <trkpt lat="48.85047" lon="2.38105">
        <ele>43.400001525879</ele>
        <time>2016-06-13T20:31:17.000Z</time>
      </trkpt>
      <trkpt lat="48.85048" lon="2.38074">
        <ele>43.200000762939</ele>
        <time>2016-06-13T20:31:21.000Z</time>
      </trkpt>
      <trkpt lat="48.85049" lon="2.38044">
        <ele>42</ele>
        <time>2016-06-13T20:31:25.000Z</time>
      </trkpt>
      <trkpt lat="48.8505" lon="2.38012">
        <ele>41</ele>
        <time>2016-06-13T20:31:29.000Z</time>
      </trkpt>
      <trkpt lat="48.85053" lon="2.37984">
        <ele>40.599998474121</ele>
        <time>2016-06-13T20:31:33.000Z</time>
      </trkpt>
      <trkpt lat="48.85056" lon="2.37957">
        <ele>40.599998474121</ele>
        <time>2016-06-13T20:31:37.000Z</time>
      </trkpt>
      <trkpt lat="48.85057" lon="2.3795">
        <ele>40.599998474121</ele>
        <time>2016-06-13T20:31:38.000Z</time>
      </trkpt>
      <trkpt lat="48.8506" lon="2.37922">
        <ele>41</ele>
        <time>2016-06-13T20:31:42.000Z</time>
      </trkpt>
      <trkpt lat="48.85061" lon="2.37915">
        <ele>41</ele>
        <time>2016-06-13T20:31:43.000Z</time>
      </trkpt>
      <trkpt lat="48.85066" lon="2.37886">
        <ele>41.400001525879</ele>
        <time>2016-06-13T20:31:47.000Z</time>
      </trkpt>
      <trkpt lat="48.85075" lon="2.37857">
        <ele>41.599998474121</ele>
        <time>2016-06-13T20:31:51.000Z</time>
      </trkpt>
      <trkpt lat="48.85083" lon="2.37828">
        <ele>42</ele>
        <time>2016-06-13T20:31:55.000Z</time>
      </trkpt>
      <trkpt lat="48.85089" lon="2.37802">
        <ele>42.400001525879</ele>
        <time>2016-06-13T20:31:59.000Z</time>
      </trkpt>
      <trkpt lat="48.85091" lon="2.37795">
        <ele>42.400001525879</ele>
        <time>2016-06-13T20:32:00.000Z</time>
      </trkpt>
      <trkpt lat="48.85097" lon="2.37777">
        <ele>42.599998474121</ele>
        <time>2016-06-13T20:32:03.000Z</time>
      </trkpt>
      <trkpt lat="48.85106" lon="2.3775">
        <ele>43</ele>
        <time>2016-06-13T20:32:07.000Z</time>
      </trkpt>
      <trkpt lat="48.85108" lon="2.37745">
        <ele>43.200000762939</ele>
        <time>2016-06-13T20:32:08.000Z</time>
      </trkpt>
      <trkpt lat="48.8512" lon="2.3772">
        <ele>44.400001525879</ele>
        <time>2016-06-13T20:32:12.000Z</time>
      </trkpt>
      <trkpt lat="48.85129" lon="2.37695">
        <ele>45.599998474121</ele>
        <time>2016-06-13T20:32:17.000Z</time>
      </trkpt>
      <trkpt lat="48.8513" lon="2.37688">
        <ele>45.799999237061</ele>
        <time>2016-06-13T20:32:18.000Z</time>
      </trkpt>
      <trkpt lat="48.85133" lon="2.37671">
        <ele>46.200000762939</ele>
        <time>2016-06-13T20:32:21.000Z</time>
      </trkpt>
      <trkpt lat="48.85136" lon="2.37642">
        <ele>45.799999237061</ele>
        <time>2016-06-13T20:32:26.000Z</time>
      </trkpt>
      <trkpt lat="48.85141" lon="2.37625">
        <ele>45.200000762939</ele>
        <time>2016-06-13T20:32:29.000Z</time>
      </trkpt>
      <trkpt lat="48.85149" lon="2.37594">
        <ele>45</ele>
        <time>2016-06-13T20:32:33.000Z</time>
      </trkpt>
      <trkpt lat="48.8515" lon="2.37585">
        <ele>45</ele>
        <time>2016-06-13T20:32:34.000Z</time>
      </trkpt>
      <trkpt lat="48.85157" lon="2.37556">
        <ele>44.400001525879</ele>
        <time>2016-06-13T20:32:38.000Z</time>
      </trkpt>
      <trkpt lat="48.85162" lon="2.37535">
        <ele>44.200000762939</ele>
        <time>2016-06-13T20:32:41.000Z</time>
      </trkpt>
      <trkpt lat="48.85171" lon="2.37518">
        <ele>44</ele>
        <time>2016-06-13T20:32:44.000Z</time>
      </trkpt>
      <trkpt lat="48.85175" lon="2.37489">
        <ele>44</ele>
        <time>2016-06-13T20:32:47.000Z</time>
      </trkpt>
      <trkpt lat="48.85182" lon="2.37464">
        <ele>44</ele>
        <time>2016-06-13T20:32:51.000Z</time>
      </trkpt>
      <trkpt lat="48.85185" lon="2.37441">
        <ele>44</ele>
        <time>2016-06-13T20:32:54.000Z</time>
      </trkpt>
      <trkpt lat="48.85189" lon="2.37413">
        <ele>44</ele>
        <time>2016-06-13T20:32:58.000Z</time>
      </trkpt>
      <trkpt lat="48.85191" lon="2.37408">
        <ele>44</ele>
        <time>2016-06-13T20:32:59.000Z</time>
      </trkpt>
      <trkpt lat="48.85196" lon="2.3739">
        <ele>44</ele>
        <time>2016-06-13T20:33:02.000Z</time>
      </trkpt>
      <trkpt lat="48.852" lon="2.37367">
        <ele>44</ele>
        <time>2016-06-13T20:33:06.000Z</time>
      </trkpt>
      <trkpt lat="48.85208" lon="2.37339">
        <ele>43.799999237061</ele>
        <time>2016-06-13T20:33:10.000Z</time>
      </trkpt>
      <trkpt lat="48.85215" lon="2.37311">
        <ele>43.400001525879</ele>
        <time>2016-06-13T20:33:14.000Z</time>
      </trkpt>
      <trkpt lat="48.85222" lon="2.37282">
        <ele>43</ele>
        <time>2016-06-13T20:33:18.000Z</time>
      </trkpt>
      <trkpt lat="48.85223" lon="2.37274">
        <ele>43</ele>
        <time>2016-06-13T20:33:19.000Z</time>
      </trkpt>
      <trkpt lat="48.8523" lon="2.37247">
        <ele>42.599998474121</ele>
        <time>2016-06-13T20:33:23.000Z</time>
      </trkpt>
      <trkpt lat="48.85239" lon="2.37219">
        <ele>44.799999237061</ele>
        <time>2016-06-13T20:33:28.000Z</time>
      </trkpt>
      <trkpt lat="48.85246" lon="2.37205">
        <ele>44.599998474121</ele>
        <time>2016-06-13T20:33:31.000Z</time>
      </trkpt>
      <trkpt lat="48.85252" lon="2.37198">
        <ele>44</ele>
        <time>2016-06-13T20:33:33.000Z</time>
      </trkpt>
      <trkpt lat="48.85264" lon="2.37168">
        <ele>42.799999237061</ele>
        <time>2016-06-13T20:33:38.000Z</time>
      </trkpt>
      <trkpt lat="48.85272" lon="2.3715">
        <ele>43</ele>
        <time>2016-06-13T20:33:41.000Z</time>
      </trkpt>
      <trkpt lat="48.85287" lon="2.37125">
        <ele>44.799999237061</ele>
        <time>2016-06-13T20:33:46.000Z</time>
      </trkpt>
      <trkpt lat="48.85295" lon="2.37111">
        <ele>45.799999237061</ele>
        <time>2016-06-13T20:33:49.000Z</time>
      </trkpt>
      <trkpt lat="48.85305" lon="2.37088">
        <ele>45.599998474121</ele>
        <time>2016-06-13T20:33:53.000Z</time>
      </trkpt>
      <trkpt lat="48.85318" lon="2.37067">
        <ele>45.200000762939</ele>
        <time>2016-06-13T20:33:58.000Z</time>
      </trkpt>
      <trkpt lat="48.85331" lon="2.37044">
        <ele>44.400001525879</ele>
        <time>2016-06-13T20:34:05.000Z</time>
      </trkpt>
      <trkpt lat="48.85339" lon="2.37028">
        <ele>43.599998474121</ele>
        <time>2016-06-13T20:34:10.000Z</time>
      </trkpt>
      <trkpt lat="48.8534" lon="2.37023">
        <ele>43.400001525879</ele>
        <time>2016-06-13T20:34:11.000Z</time>
      </trkpt>
      <trkpt lat="48.85343" lon="2.37015">
        <ele>43.200000762939</ele>
        <time>2016-06-13T20:34:13.000Z</time>
      </trkpt>
      <trkpt lat="48.8535" lon="2.3699">
        <ele>42.200000762939</ele>
        <time>2016-06-13T20:34:22.000Z</time>
      </trkpt>
      <trkpt lat="48.85352" lon="2.36984">
        <ele>42.200000762939</ele>
        <time>2016-06-13T20:34:27.000Z</time>
      </trkpt>
      <trkpt lat="48.85363" lon="2.36974">
        <ele>42.200000762939</ele>
        <time>2016-06-13T20:35:11.000Z</time>
      </trkpt>
      <trkpt lat="48.85369" lon="2.36951">
        <ele>42.400001525879</ele>
        <time>2016-06-13T20:35:43.000Z</time>
      </trkpt>
      <trkpt lat="48.85374" lon="2.36925">
        <ele>42.400001525879</ele>
        <time>2016-06-13T20:35:52.000Z</time>
      </trkpt>
      <trkpt lat="48.85376" lon="2.36917">
        <ele>42</ele>
        <time>2016-06-13T20:35:57.000Z</time>
      </trkpt>
      <trkpt lat="48.85379" lon="2.36898">
        <ele>42.799999237061</ele>
        <time>2016-06-13T20:36:04.000Z</time>
      </trkpt>
      <trkpt lat="48.85377" lon="2.36884">
        <ele>43.799999237061</ele>
        <time>2016-06-13T20:36:08.000Z</time>
      </trkpt>
      <trkpt lat="48.85379" lon="2.36866">
        <ele>44.799999237061</ele>
        <time>2016-06-13T20:36:12.000Z</time>
      </trkpt>
      <trkpt lat="48.85387" lon="2.36836">
        <ele>47.200000762939</ele>
        <time>2016-06-13T20:36:19.000Z</time>
      </trkpt>
      <trkpt lat="48.8539" lon="2.36807">
        <ele>47.400001525879</ele>
        <time>2016-06-13T20:36:24.000Z</time>
      </trkpt>
      <trkpt lat="48.85393" lon="2.36775">
        <ele>47.200000762939</ele>
        <time>2016-06-13T20:36:30.000Z</time>
      </trkpt>
      <trkpt lat="48.85383" lon="2.36749">
        <ele>47.599998474121</ele>
        <time>2016-06-13T20:36:37.000Z</time>
      </trkpt>
      <trkpt lat="48.85367" lon="2.36735">
        <ele>46.400001525879</ele>
        <time>2016-06-13T20:36:46.000Z</time>
      </trkpt>
      <trkpt lat="48.85365" lon="2.36729">
        <ele>46.200000762939</ele>
        <time>2016-06-13T20:36:47.000Z</time>
      </trkpt>
      <trkpt lat="48.85359" lon="2.367">
        <ele>44.200000762939</ele>
        <time>2016-06-13T20:36:51.000Z</time>
      </trkpt>
      <trkpt lat="48.85357" lon="2.36663">
        <ele>42</ele>
        <time>2016-06-13T20:36:56.000Z</time>
      </trkpt>
      <trkpt lat="48.85363" lon="2.36637">
        <ele>43</ele>
        <time>2016-06-13T20:37:00.000Z</time>
      </trkpt>
      <trkpt lat="48.85368" lon="2.36609">
        <ele>43.799999237061</ele>
        <time>2016-06-13T20:37:04.000Z</time>
      </trkpt>
      <trkpt lat="48.85377" lon="2.3658">
        <ele>43.400001525879</ele>
        <time>2016-06-13T20:37:09.000Z</time>
      </trkpt>
      <trkpt lat="48.85385" lon="2.36552">
        <ele>43.400001525879</ele>
        <time>2016-06-13T20:37:13.000Z</time>
      </trkpt>
      <trkpt lat="48.85393" lon="2.36522">
        <ele>43.400001525879</ele>
        <time>2016-06-13T20:37:17.000Z</time>
      </trkpt>
      <trkpt lat="48.85395" lon="2.36513">
        <ele>43.599998474121</ele>
        <time>2016-06-13T20:37:18.000Z</time>
      </trkpt>
      <trkpt lat="48.85402" lon="2.36492">
        <ele>44.200000762939</ele>
        <time>2016-06-13T20:37:21.000Z</time>
      </trkpt>
      <trkpt lat="48.85411" lon="2.36462">
        <ele>45.200000762939</ele>
        <time>2016-06-13T20:37:25.000Z</time>
      </trkpt>
      <trkpt lat="48.8542" lon="2.3643">
        <ele>45.799999237061</ele>
        <time>2016-06-13T20:37:29.000Z</time>
      </trkpt>
      <trkpt lat="48.85428" lon="2.36405">
        <ele>45.599998474121</ele>
        <time>2016-06-13T20:37:32.000Z</time>
      </trkpt>
      <trkpt lat="48.85437" lon="2.36376">
        <ele>45.400001525879</ele>
        <time>2016-06-13T20:37:36.000Z</time>
      </trkpt>
      <trkpt lat="48.85449" lon="2.36345">
        <ele>44.799999237061</ele>
        <time>2016-06-13T20:37:40.000Z</time>
      </trkpt>
      <trkpt lat="48.85459" lon="2.36323">
        <ele>44.200000762939</ele>
        <time>2016-06-13T20:37:43.000Z</time>
      </trkpt>
      <trkpt lat="48.85472" lon="2.36296">
        <ele>43</ele>
        <time>2016-06-13T20:37:47.000Z</time>
      </trkpt>
      <trkpt lat="48.8548" lon="2.36279">
        <ele>42.400001525879</ele>
        <time>2016-06-13T20:37:50.000Z</time>
      </trkpt>
      <trkpt lat="48.85491" lon="2.36254">
        <ele>42.599998474121</ele>
        <time>2016-06-13T20:37:54.000Z</time>
      </trkpt>
      <trkpt lat="48.85499" lon="2.36231">
        <ele>42.599998474121</ele>
        <time>2016-06-13T20:37:57.000Z</time>
      </trkpt>
      <trkpt lat="48.85512" lon="2.36202">
        <ele>43.599998474121</ele>
        <time>2016-06-13T20:38:01.000Z</time>
      </trkpt>
      <trkpt lat="48.85522" lon="2.36172">
        <ele>44.799999237061</ele>
        <time>2016-06-13T20:38:05.000Z</time>
      </trkpt>
      <trkpt lat="48.85531" lon="2.36145">
        <ele>44.599998474121</ele>
        <time>2016-06-13T20:38:08.000Z</time>
      </trkpt>
      <trkpt lat="48.85539" lon="2.36118">
        <ele>44</ele>
        <time>2016-06-13T20:38:11.000Z</time>
      </trkpt>
      <trkpt lat="48.85548" lon="2.36087">
        <ele>44.200000762939</ele>
        <time>2016-06-13T20:38:14.000Z</time>
      </trkpt>
      <trkpt lat="48.85556" lon="2.36055">
        <ele>44.799999237061</ele>
        <time>2016-06-13T20:38:17.000Z</time>
      </trkpt>
      <trkpt lat="48.85562" lon="2.36033">
        <ele>45</ele>
        <time>2016-06-13T20:38:19.000Z</time>
      </trkpt>
      <trkpt lat="48.8557" lon="2.36002">
        <ele>45.599998474121</ele>
        <time>2016-06-13T20:38:22.000Z</time>
      </trkpt>
      <trkpt lat="48.85577" lon="2.35968">
        <ele>45.200000762939</ele>
        <time>2016-06-13T20:38:25.000Z</time>
      </trkpt>
      <trkpt lat="48.85583" lon="2.35935">
        <ele>45.400001525879</ele>
        <time>2016-06-13T20:38:28.000Z</time>
      </trkpt>
      <trkpt lat="48.85591" lon="2.35905">
        <ele>45.400001525879</ele>
        <time>2016-06-13T20:38:31.000Z</time>
      </trkpt>
      <trkpt lat="48.856" lon="2.35875">
        <ele>45.599998474121</ele>
        <time>2016-06-13T20:38:34.000Z</time>
      </trkpt>
      <trkpt lat="48.85606" lon="2.35842">
        <ele>46</ele>
        <time>2016-06-13T20:38:37.000Z</time>
      </trkpt>
      <trkpt lat="48.8561" lon="2.35805">
        <ele>45.799999237061</ele>
        <time>2016-06-13T20:38:40.000Z</time>
      </trkpt>
      <trkpt lat="48.85617" lon="2.35777">
        <ele>45.599998474121</ele>
        <time>2016-06-13T20:38:43.000Z</time>
      </trkpt>
      <trkpt lat="48.85625" lon="2.3575">
        <ele>45.599998474121</ele>
        <time>2016-06-13T20:38:46.000Z</time>
      </trkpt>
      <trkpt lat="48.8563" lon="2.35721">
        <ele>45.599998474121</ele>
        <time>2016-06-13T20:38:49.000Z</time>
      </trkpt>
      <trkpt lat="48.85635" lon="2.35691">
        <ele>45.400001525879</ele>
        <time>2016-06-13T20:38:52.000Z</time>
      </trkpt>
      <trkpt lat="48.85645" lon="2.3566">
        <ele>44.799999237061</ele>
        <time>2016-06-13T20:38:56.000Z</time>
      </trkpt>
      <trkpt lat="48.85656" lon="2.35635">
        <ele>44.799999237061</ele>
        <time>2016-06-13T20:39:00.000Z</time>
      </trkpt>
      <trkpt lat="48.85666" lon="2.35601">
        <ele>45.200000762939</ele>
        <time>2016-06-13T20:39:04.000Z</time>
      </trkpt>
      <trkpt lat="48.85673" lon="2.35573">
        <ele>45</ele>
        <time>2016-06-13T20:39:07.000Z</time>
      </trkpt>
      <trkpt lat="48.85679" lon="2.35543">
        <ele>45.400001525879</ele>
        <time>2016-06-13T20:39:10.000Z</time>
      </trkpt>
      <trkpt lat="48.85685" lon="2.3551">
        <ele>46.400001525879</ele>
        <time>2016-06-13T20:39:13.000Z</time>
      </trkpt>
      <trkpt lat="48.85691" lon="2.35475">
        <ele>46.400001525879</ele>
        <time>2016-06-13T20:39:16.000Z</time>
      </trkpt>
      <trkpt lat="48.85697" lon="2.35444">
        <ele>45.599998474121</ele>
        <time>2016-06-13T20:39:19.000Z</time>
      </trkpt>
      <trkpt lat="48.85705" lon="2.35419">
        <ele>45.799999237061</ele>
        <time>2016-06-13T20:39:22.000Z</time>
      </trkpt>
      <trkpt lat="48.85711" lon="2.35391">
        <ele>47.400001525879</ele>
        <time>2016-06-13T20:39:25.000Z</time>
      </trkpt>
      <trkpt lat="48.85727" lon="2.35364">
        <ele>49.400001525879</ele>
        <time>2016-06-13T20:39:29.000Z</time>
      </trkpt>
      <trkpt lat="48.85731" lon="2.35327">
        <ele>50</ele>
        <time>2016-06-13T20:39:32.000Z</time>
      </trkpt>
      <trkpt lat="48.85733" lon="2.35299">
        <ele>49.799999237061</ele>
        <time>2016-06-13T20:39:34.000Z</time>
      </trkpt>
      <trkpt lat="48.85734" lon="2.35271">
        <ele>48.200000762939</ele>
        <time>2016-06-13T20:39:36.000Z</time>
      </trkpt>
      <trkpt lat="48.85741" lon="2.35252">
        <ele>46.799999237061</ele>
        <time>2016-06-13T20:39:38.000Z</time>
      </trkpt>
      <trkpt lat="48.85747" lon="2.35218">
        <ele>43.599998474121</ele>
        <time>2016-06-13T20:39:41.000Z</time>
      </trkpt>
      <trkpt lat="48.85754" lon="2.35188">
        <ele>42</ele>
        <time>2016-06-13T20:39:44.000Z</time>
      </trkpt>
      <trkpt lat="48.85754" lon="2.35158">
        <ele>40.400001525879</ele>
        <time>2016-06-13T20:39:46.000Z</time>
      </trkpt>
      <trkpt lat="48.85758" lon="2.35121">
        <ele>41.799999237061</ele>
        <time>2016-06-13T20:39:49.000Z</time>
      </trkpt>
      <trkpt lat="48.85767" lon="2.35093">
        <ele>44</ele>
        <time>2016-06-13T20:39:52.000Z</time>
      </trkpt>
      <trkpt lat="48.85777" lon="2.35067">
        <ele>45.799999237061</ele>
        <time>2016-06-13T20:39:55.000Z</time>
      </trkpt>
      <trkpt lat="48.85786" lon="2.35043">
        <ele>47</ele>
        <time>2016-06-13T20:39:58.000Z</time>
      </trkpt>
      <trkpt lat="48.858" lon="2.35016">
        <ele>48.200000762939</ele>
        <time>2016-06-13T20:40:02.000Z</time>
      </trkpt>
      <trkpt lat="48.85812" lon="2.34986">
        <ele>46.599998474121</ele>
        <time>2016-06-13T20:40:06.000Z</time>
      </trkpt>
      <trkpt lat="48.8582" lon="2.34961">
        <ele>44.400001525879</ele>
        <time>2016-06-13T20:40:09.000Z</time>
      </trkpt>
      <trkpt lat="48.85827" lon="2.34935">
        <ele>45.200000762939</ele>
        <time>2016-06-13T20:40:12.000Z</time>
      </trkpt>
      <trkpt lat="48.85835" lon="2.34902">
        <ele>45.799999237061</ele>
        <time>2016-06-13T20:40:16.000Z</time>
      </trkpt>
      <trkpt lat="48.85844" lon="2.34887">
        <ele>46.599998474121</ele>
        <time>2016-06-13T20:40:19.000Z</time>
      </trkpt>
      <trkpt lat="48.85849" lon="2.34874">
        <ele>47.200000762939</ele>
        <time>2016-06-13T20:40:21.000Z</time>
      </trkpt>
      <trkpt lat="48.85859" lon="2.34846">
        <ele>48</ele>
        <time>2016-06-13T20:40:26.000Z</time>
      </trkpt>
      <trkpt lat="48.85859" lon="2.34844">
        <ele>48</ele>
        <time>2016-06-13T20:40:27.000Z</time>
      </trkpt>
      <trkpt lat="48.85857" lon="2.34831">
        <ele>48</ele>
        <time>2016-06-13T20:40:31.000Z</time>
      </trkpt>
      <trkpt lat="48.85866" lon="2.348">
        <ele>47.599998474121</ele>
        <time>2016-06-13T20:40:51.000Z</time>
      </trkpt>
      <trkpt lat="48.85874" lon="2.34773">
        <ele>47.400001525879</ele>
        <time>2016-06-13T20:40:55.000Z</time>
      </trkpt>
      <trkpt lat="48.85886" lon="2.34748">
        <ele>46</ele>
        <time>2016-06-13T20:41:00.000Z</time>
      </trkpt>
      <trkpt lat="48.85906" lon="2.34738">
        <ele>45.400001525879</ele>
        <time>2016-06-13T20:41:05.000Z</time>
      </trkpt>
      <trkpt lat="48.85925" lon="2.3473">
        <ele>45</ele>
        <time>2016-06-13T20:41:09.000Z</time>
      </trkpt>
      <trkpt lat="48.85945" lon="2.34719">
        <ele>45</ele>
        <time>2016-06-13T20:41:14.000Z</time>
      </trkpt>
      <trkpt lat="48.8596" lon="2.34716">
        <ele>45.400001525879</ele>
        <time>2016-06-13T20:41:24.000Z</time>
      </trkpt>
      <trkpt lat="48.85956" lon="2.34716">
        <ele>45.400001525879</ele>
        <time>2016-06-13T20:41:34.000Z</time>
      </trkpt>
    </trkseg>
  </trk>
</gpx>